<?xml version="1.0" encoding="UTF-8" standalone="no" ?>
<gpx xmlns="http://www.topografix.com/GPX/1/1" xmlns:xsi="http://www.w3.org/2001/XMLSchema-instance" xsi:schemaLocation="http://www.topografix.com/GPX/1/1 http://www.topografix.com/GPX/1/1/gpx.xsd" version="1.1" creator="VisuGPX - https://www.visugpx.com">
  <metadata>
    <name>MB. Sortie du 16/06/2019</name>
    <desc><![CDATA[Sortie VTT du dimanche 16 juin 2019]]></desc>
  </metadata>
  <trk>
    <name><![CDATA[Pornichet Cyclisme]]></name>
    <trkseg>
      <trkpt lat="47.26405" lon="-2.31591">
        <ele>9.6</ele>
        <time>2019-06-16T06:57:02.000Z</time>
      </trkpt>
      <trkpt lat="47.26404" lon="-2.31605">
        <ele>9.6</ele>
        <time>2019-06-16T06:57:05.000Z</time>
      </trkpt>
      <trkpt lat="47.26405" lon="-2.31609">
        <ele>0.60000002384186</ele>
        <time>2019-06-16T06:57:06.000Z</time>
      </trkpt>
      <trkpt lat="47.26404" lon="-2.31626">
        <ele>0.60000002384186</ele>
        <time>2019-06-16T06:57:09.000Z</time>
      </trkpt>
      <trkpt lat="47.264" lon="-2.31659">
        <ele>0.60000002384186</ele>
        <time>2019-06-16T06:57:15.000Z</time>
      </trkpt>
      <trkpt lat="47.26385" lon="-2.31667">
        <ele>0.60000002384186</ele>
        <time>2019-06-16T06:57:19.000Z</time>
      </trkpt>
      <trkpt lat="47.26364" lon="-2.31681">
        <ele>0.60000002384186</ele>
        <time>2019-06-16T06:57:24.000Z</time>
      </trkpt>
      <trkpt lat="47.26359" lon="-2.31683">
        <ele>0.60000002384186</ele>
        <time>2019-06-16T06:57:25.000Z</time>
      </trkpt>
      <trkpt lat="47.26344" lon="-2.31691">
        <ele>0.20000000298023</ele>
        <time>2019-06-16T06:57:28.000Z</time>
      </trkpt>
      <trkpt lat="47.26339" lon="-2.31694">
        <ele>-0.20000000298023</ele>
        <time>2019-06-16T06:57:29.000Z</time>
      </trkpt>
      <trkpt lat="47.26334" lon="-2.31696">
        <ele>-0.60000002384186</ele>
        <time>2019-06-16T06:57:30.000Z</time>
      </trkpt>
      <trkpt lat="47.2633" lon="-2.31697">
        <ele>-1</ele>
        <time>2019-06-16T06:57:31.000Z</time>
      </trkpt>
      <trkpt lat="47.26326" lon="-2.31699">
        <ele>-1.3999999761581</ele>
        <time>2019-06-16T06:57:32.000Z</time>
      </trkpt>
      <trkpt lat="47.26309" lon="-2.31709">
        <ele>-1.3999999761581</ele>
        <time>2019-06-16T06:57:36.000Z</time>
      </trkpt>
      <trkpt lat="47.26305" lon="-2.3171">
        <ele>-1.3999999761581</ele>
        <time>2019-06-16T06:57:37.000Z</time>
      </trkpt>
      <trkpt lat="47.26299" lon="-2.31717">
        <ele>-1.7999999523163</ele>
        <time>2019-06-16T06:57:39.000Z</time>
      </trkpt>
      <trkpt lat="47.26298" lon="-2.31723">
        <ele>-2.4000000953674</ele>
        <time>2019-06-16T06:57:40.000Z</time>
      </trkpt>
      <trkpt lat="47.26298" lon="-2.31728">
        <ele>-2.7999999523163</ele>
        <time>2019-06-16T06:57:41.000Z</time>
      </trkpt>
      <trkpt lat="47.26298" lon="-2.31732">
        <ele>-3.2000000476837</ele>
        <time>2019-06-16T06:57:42.000Z</time>
      </trkpt>
      <trkpt lat="47.26298" lon="-2.31738">
        <ele>-3.5999999046326</ele>
        <time>2019-06-16T06:57:43.000Z</time>
      </trkpt>
      <trkpt lat="47.26299" lon="-2.31743">
        <ele>-3.5999999046326</ele>
        <time>2019-06-16T06:57:44.000Z</time>
      </trkpt>
      <trkpt lat="47.26302" lon="-2.31763">
        <ele>-3.5999999046326</ele>
        <time>2019-06-16T06:57:49.000Z</time>
      </trkpt>
      <trkpt lat="47.26303" lon="-2.31767">
        <ele>-3.5999999046326</ele>
        <time>2019-06-16T06:57:50.000Z</time>
      </trkpt>
      <trkpt lat="47.26302" lon="-2.3179">
        <ele>-3.5999999046326</ele>
        <time>2019-06-16T06:57:54.000Z</time>
      </trkpt>
      <trkpt lat="47.26299" lon="-2.31824">
        <ele>-3.5999999046326</ele>
        <time>2019-06-16T06:58:00.000Z</time>
      </trkpt>
      <trkpt lat="47.26297" lon="-2.31853">
        <ele>-3.5999999046326</ele>
        <time>2019-06-16T06:58:05.000Z</time>
      </trkpt>
      <trkpt lat="47.26296" lon="-2.31862">
        <ele>-3.5999999046326</ele>
        <time>2019-06-16T06:58:07.000Z</time>
      </trkpt>
      <trkpt lat="47.26292" lon="-2.31867">
        <ele>-3.5999999046326</ele>
        <time>2019-06-16T06:58:09.000Z</time>
      </trkpt>
      <trkpt lat="47.26283" lon="-2.31875">
        <ele>-3.5999999046326</ele>
        <time>2019-06-16T06:58:12.000Z</time>
      </trkpt>
      <trkpt lat="47.26278" lon="-2.31882">
        <ele>-3.5999999046326</ele>
        <time>2019-06-16T06:58:14.000Z</time>
      </trkpt>
      <trkpt lat="47.26266" lon="-2.31901">
        <ele>-3.5999999046326</ele>
        <time>2019-06-16T06:58:19.000Z</time>
      </trkpt>
      <trkpt lat="47.26256" lon="-2.31926">
        <ele>-3.5999999046326</ele>
        <time>2019-06-16T06:58:25.000Z</time>
      </trkpt>
      <trkpt lat="47.26246" lon="-2.3195">
        <ele>-3.5999999046326</ele>
        <time>2019-06-16T06:58:31.000Z</time>
      </trkpt>
      <trkpt lat="47.26237" lon="-2.31953">
        <ele>-4</ele>
        <time>2019-06-16T06:58:34.000Z</time>
      </trkpt>
      <trkpt lat="47.26235" lon="-2.31955">
        <ele>-4.4000000953674</ele>
        <time>2019-06-16T06:58:35.000Z</time>
      </trkpt>
      <trkpt lat="47.26233" lon="-2.31958">
        <ele>-4.8000001907349</ele>
        <time>2019-06-16T06:58:36.000Z</time>
      </trkpt>
      <trkpt lat="47.26231" lon="-2.3196">
        <ele>-5.4000000953674</ele>
        <time>2019-06-16T06:58:37.000Z</time>
      </trkpt>
      <trkpt lat="47.26228" lon="-2.31962">
        <ele>-5.8000001907349</ele>
        <time>2019-06-16T06:58:38.000Z</time>
      </trkpt>
      <trkpt lat="47.26219" lon="-2.31967">
        <ele>-5.8000001907349</ele>
        <time>2019-06-16T06:58:41.000Z</time>
      </trkpt>
      <trkpt lat="47.26208" lon="-2.31973">
        <ele>-5.8000001907349</ele>
        <time>2019-06-16T06:58:45.000Z</time>
      </trkpt>
      <trkpt lat="47.26208" lon="-2.31976">
        <ele>-5.8000001907349</ele>
        <time>2019-06-16T06:58:46.000Z</time>
      </trkpt>
      <trkpt lat="47.26203" lon="-2.31983">
        <ele>-5.8000001907349</ele>
        <time>2019-06-16T06:58:50.000Z</time>
      </trkpt>
      <trkpt lat="47.26202" lon="-2.31982">
        <ele>-5.8000001907349</ele>
        <time>2019-06-16T06:58:51.000Z</time>
      </trkpt>
      <trkpt lat="47.26196" lon="-2.31979">
        <ele>-5.8000001907349</ele>
        <time>2019-06-16T06:58:54.000Z</time>
      </trkpt>
      <trkpt lat="47.26194" lon="-2.31979">
        <ele>-5.8000001907349</ele>
        <time>2019-06-16T06:58:55.000Z</time>
      </trkpt>
      <trkpt lat="47.26192" lon="-2.31981">
        <ele>-5.8000001907349</ele>
        <time>2019-06-16T06:58:56.000Z</time>
      </trkpt>
      <trkpt lat="47.26178" lon="-2.31991">
        <ele>-5.8000001907349</ele>
        <time>2019-06-16T06:59:00.000Z</time>
      </trkpt>
      <trkpt lat="47.26167" lon="-2.32013">
        <ele>-5.8000001907349</ele>
        <time>2019-06-16T06:59:04.000Z</time>
      </trkpt>
      <trkpt lat="47.26164" lon="-2.3202">
        <ele>-5.8000001907349</ele>
        <time>2019-06-16T06:59:05.000Z</time>
      </trkpt>
      <trkpt lat="47.26163" lon="-2.32026">
        <ele>-5.8000001907349</ele>
        <time>2019-06-16T06:59:06.000Z</time>
      </trkpt>
      <trkpt lat="47.26158" lon="-2.32044">
        <ele>-5.8000001907349</ele>
        <time>2019-06-16T06:59:09.000Z</time>
      </trkpt>
      <trkpt lat="47.26156" lon="-2.32049">
        <ele>-5.8000001907349</ele>
        <time>2019-06-16T06:59:10.000Z</time>
      </trkpt>
      <trkpt lat="47.26148" lon="-2.32078">
        <ele>-5.8000001907349</ele>
        <time>2019-06-16T06:59:15.000Z</time>
      </trkpt>
      <trkpt lat="47.26139" lon="-2.3211">
        <ele>-5.8000001907349</ele>
        <time>2019-06-16T06:59:21.000Z</time>
      </trkpt>
      <trkpt lat="47.26133" lon="-2.32126">
        <ele>-5.8000001907349</ele>
        <time>2019-06-16T06:59:24.000Z</time>
      </trkpt>
      <trkpt lat="47.26126" lon="-2.32142">
        <ele>-5.8000001907349</ele>
        <time>2019-06-16T06:59:27.000Z</time>
      </trkpt>
      <trkpt lat="47.2611" lon="-2.32174">
        <ele>-5.8000001907349</ele>
        <time>2019-06-16T06:59:33.000Z</time>
      </trkpt>
      <trkpt lat="47.26106" lon="-2.32178">
        <ele>-5.8000001907349</ele>
        <time>2019-06-16T06:59:34.000Z</time>
      </trkpt>
      <trkpt lat="47.26082" lon="-2.32208">
        <ele>-5.8000001907349</ele>
        <time>2019-06-16T06:59:41.000Z</time>
      </trkpt>
      <trkpt lat="47.26065" lon="-2.32229">
        <ele>-5.8000001907349</ele>
        <time>2019-06-16T06:59:46.000Z</time>
      </trkpt>
      <trkpt lat="47.26043" lon="-2.32268">
        <ele>-5.8000001907349</ele>
        <time>2019-06-16T06:59:53.000Z</time>
      </trkpt>
      <trkpt lat="47.26027" lon="-2.32288">
        <ele>-5.8000001907349</ele>
        <time>2019-06-16T06:59:57.000Z</time>
      </trkpt>
      <trkpt lat="47.26017" lon="-2.32302">
        <ele>-5.8000001907349</ele>
        <time>2019-06-16T07:00:00.000Z</time>
      </trkpt>
      <trkpt lat="47.25988" lon="-2.32346">
        <ele>-5.8000001907349</ele>
        <time>2019-06-16T07:00:09.000Z</time>
      </trkpt>
      <trkpt lat="47.25971" lon="-2.32368">
        <ele>-5.8000001907349</ele>
        <time>2019-06-16T07:00:14.000Z</time>
      </trkpt>
      <trkpt lat="47.25962" lon="-2.32382">
        <ele>-5.8000001907349</ele>
        <time>2019-06-16T07:00:17.000Z</time>
      </trkpt>
      <trkpt lat="47.2594" lon="-2.32411">
        <ele>-5.8000001907349</ele>
        <time>2019-06-16T07:00:24.000Z</time>
      </trkpt>
      <trkpt lat="47.25908" lon="-2.3245">
        <ele>-5.8000001907349</ele>
        <time>2019-06-16T07:00:31.000Z</time>
      </trkpt>
      <trkpt lat="47.25887" lon="-2.32468">
        <ele>-5.8000001907349</ele>
        <time>2019-06-16T07:00:36.000Z</time>
      </trkpt>
      <trkpt lat="47.25882" lon="-2.32469">
        <ele>-5.8000001907349</ele>
        <time>2019-06-16T07:00:37.000Z</time>
      </trkpt>
      <trkpt lat="47.25858" lon="-2.32474">
        <ele>-5.8000001907349</ele>
        <time>2019-06-16T07:00:42.000Z</time>
      </trkpt>
      <trkpt lat="47.25839" lon="-2.32473">
        <ele>-5.8000001907349</ele>
        <time>2019-06-16T07:00:46.000Z</time>
      </trkpt>
      <trkpt lat="47.25835" lon="-2.32472">
        <ele>-5.8000001907349</ele>
        <time>2019-06-16T07:00:47.000Z</time>
      </trkpt>
      <trkpt lat="47.25803" lon="-2.32456">
        <ele>-5.8000001907349</ele>
        <time>2019-06-16T07:00:54.000Z</time>
      </trkpt>
      <trkpt lat="47.25794" lon="-2.32455">
        <ele>-5.8000001907349</ele>
        <time>2019-06-16T07:00:56.000Z</time>
      </trkpt>
      <trkpt lat="47.25781" lon="-2.32458">
        <ele>-5.4000000953674</ele>
        <time>2019-06-16T07:00:59.000Z</time>
      </trkpt>
      <trkpt lat="47.25777" lon="-2.32458">
        <ele>-4.8000001907349</ele>
        <time>2019-06-16T07:01:00.000Z</time>
      </trkpt>
      <trkpt lat="47.25773" lon="-2.32455">
        <ele>-4.4000000953674</ele>
        <time>2019-06-16T07:01:01.000Z</time>
      </trkpt>
      <trkpt lat="47.2577" lon="-2.3245">
        <ele>-4</ele>
        <time>2019-06-16T07:01:02.000Z</time>
      </trkpt>
      <trkpt lat="47.25767" lon="-2.32446">
        <ele>-3.5999999046326</ele>
        <time>2019-06-16T07:01:03.000Z</time>
      </trkpt>
      <trkpt lat="47.25756" lon="-2.32427">
        <ele>-3.5999999046326</ele>
        <time>2019-06-16T07:01:07.000Z</time>
      </trkpt>
      <trkpt lat="47.25741" lon="-2.32427">
        <ele>-3.5999999046326</ele>
        <time>2019-06-16T07:01:10.000Z</time>
      </trkpt>
      <trkpt lat="47.25705" lon="-2.32424">
        <ele>-3.5999999046326</ele>
        <time>2019-06-16T07:01:17.000Z</time>
      </trkpt>
      <trkpt lat="47.25671" lon="-2.32421">
        <ele>-3.5999999046326</ele>
        <time>2019-06-16T07:01:24.000Z</time>
      </trkpt>
      <trkpt lat="47.25652" lon="-2.32426">
        <ele>-3.5999999046326</ele>
        <time>2019-06-16T07:01:29.000Z</time>
      </trkpt>
      <trkpt lat="47.2565" lon="-2.32432">
        <ele>-3.5999999046326</ele>
        <time>2019-06-16T07:01:30.000Z</time>
      </trkpt>
      <trkpt lat="47.25652" lon="-2.32452">
        <ele>-3.5999999046326</ele>
        <time>2019-06-16T07:01:33.000Z</time>
      </trkpt>
      <trkpt lat="47.25659" lon="-2.32474">
        <ele>-3.5999999046326</ele>
        <time>2019-06-16T07:01:37.000Z</time>
      </trkpt>
      <trkpt lat="47.2566" lon="-2.32479">
        <ele>-3.5999999046326</ele>
        <time>2019-06-16T07:01:38.000Z</time>
      </trkpt>
      <trkpt lat="47.25664" lon="-2.3249">
        <ele>-3.2000000476837</ele>
        <time>2019-06-16T07:01:40.000Z</time>
      </trkpt>
      <trkpt lat="47.25666" lon="-2.32494">
        <ele>-2.7999999523163</ele>
        <time>2019-06-16T07:01:41.000Z</time>
      </trkpt>
      <trkpt lat="47.25668" lon="-2.32499">
        <ele>-2.4000000953674</ele>
        <time>2019-06-16T07:01:42.000Z</time>
      </trkpt>
      <trkpt lat="47.25669" lon="-2.32505">
        <ele>-2</ele>
        <time>2019-06-16T07:01:43.000Z</time>
      </trkpt>
      <trkpt lat="47.25671" lon="-2.3251">
        <ele>-1.6000000238419</ele>
        <time>2019-06-16T07:01:44.000Z</time>
      </trkpt>
      <trkpt lat="47.25676" lon="-2.32525">
        <ele>-1.6000000238419</ele>
        <time>2019-06-16T07:01:47.000Z</time>
      </trkpt>
      <trkpt lat="47.25687" lon="-2.32562">
        <ele>-1.6000000238419</ele>
        <time>2019-06-16T07:01:54.000Z</time>
      </trkpt>
      <trkpt lat="47.25689" lon="-2.32573">
        <ele>-1.2000000476837</ele>
        <time>2019-06-16T07:01:56.000Z</time>
      </trkpt>
      <trkpt lat="47.25691" lon="-2.32577">
        <ele>-0.60000002384186</ele>
        <time>2019-06-16T07:01:57.000Z</time>
      </trkpt>
      <trkpt lat="47.25693" lon="-2.32582">
        <ele>-0.20000000298023</ele>
        <time>2019-06-16T07:01:58.000Z</time>
      </trkpt>
      <trkpt lat="47.25695" lon="-2.32588">
        <ele>0.20000000298023</ele>
        <time>2019-06-16T07:01:59.000Z</time>
      </trkpt>
      <trkpt lat="47.25696" lon="-2.32593">
        <ele>0.60000002384186</ele>
        <time>2019-06-16T07:02:00.000Z</time>
      </trkpt>
      <trkpt lat="47.25697" lon="-2.32598">
        <ele>0.60000002384186</ele>
        <time>2019-06-16T07:02:01.000Z</time>
      </trkpt>
      <trkpt lat="47.25701" lon="-2.32621">
        <ele>0.60000002384186</ele>
        <time>2019-06-16T07:02:05.000Z</time>
      </trkpt>
      <trkpt lat="47.25698" lon="-2.32625">
        <ele>0.60000002384186</ele>
        <time>2019-06-16T07:02:06.000Z</time>
      </trkpt>
      <trkpt lat="47.25687" lon="-2.32629">
        <ele>0.60000002384186</ele>
        <time>2019-06-16T07:02:09.000Z</time>
      </trkpt>
      <trkpt lat="47.25662" lon="-2.3264">
        <ele>1</ele>
        <time>2019-06-16T07:02:16.000Z</time>
      </trkpt>
      <trkpt lat="47.25658" lon="-2.32641">
        <ele>1.3999999761581</ele>
        <time>2019-06-16T07:02:17.000Z</time>
      </trkpt>
      <trkpt lat="47.25655" lon="-2.32642">
        <ele>2</ele>
        <time>2019-06-16T07:02:18.000Z</time>
      </trkpt>
      <trkpt lat="47.25651" lon="-2.32644">
        <ele>2.4000000953674</ele>
        <time>2019-06-16T07:02:19.000Z</time>
      </trkpt>
      <trkpt lat="47.25647" lon="-2.32646">
        <ele>2.7999999523163</ele>
        <time>2019-06-16T07:02:20.000Z</time>
      </trkpt>
      <trkpt lat="47.25633" lon="-2.32653">
        <ele>2.7999999523163</ele>
        <time>2019-06-16T07:02:24.000Z</time>
      </trkpt>
      <trkpt lat="47.2561" lon="-2.32662">
        <ele>2.7999999523163</ele>
        <time>2019-06-16T07:02:32.000Z</time>
      </trkpt>
      <trkpt lat="47.25586" lon="-2.32673">
        <ele>3.2000000476837</ele>
        <time>2019-06-16T07:02:39.000Z</time>
      </trkpt>
      <trkpt lat="47.25582" lon="-2.32675">
        <ele>3.5999999046326</ele>
        <time>2019-06-16T07:02:40.000Z</time>
      </trkpt>
      <trkpt lat="47.25578" lon="-2.32677">
        <ele>4</ele>
        <time>2019-06-16T07:02:41.000Z</time>
      </trkpt>
      <trkpt lat="47.25574" lon="-2.32678">
        <ele>4.5999999046326</ele>
        <time>2019-06-16T07:02:42.000Z</time>
      </trkpt>
      <trkpt lat="47.2557" lon="-2.3268">
        <ele>5</ele>
        <time>2019-06-16T07:02:43.000Z</time>
      </trkpt>
      <trkpt lat="47.25547" lon="-2.3269">
        <ele>5</ele>
        <time>2019-06-16T07:02:49.000Z</time>
      </trkpt>
      <trkpt lat="47.2552" lon="-2.327">
        <ele>5</ele>
        <time>2019-06-16T07:02:55.000Z</time>
      </trkpt>
      <trkpt lat="47.25502" lon="-2.32701">
        <ele>5</ele>
        <time>2019-06-16T07:02:59.000Z</time>
      </trkpt>
      <trkpt lat="47.25489" lon="-2.32703">
        <ele>5</ele>
        <time>2019-06-16T07:03:02.000Z</time>
      </trkpt>
      <trkpt lat="47.25484" lon="-2.32706">
        <ele>5</ele>
        <time>2019-06-16T07:03:03.000Z</time>
      </trkpt>
      <trkpt lat="47.25477" lon="-2.32711">
        <ele>5</ele>
        <time>2019-06-16T07:03:05.000Z</time>
      </trkpt>
      <trkpt lat="47.2547" lon="-2.3272">
        <ele>5</ele>
        <time>2019-06-16T07:03:07.000Z</time>
      </trkpt>
      <trkpt lat="47.25441" lon="-2.32759">
        <ele>5</ele>
        <time>2019-06-16T07:03:16.000Z</time>
      </trkpt>
      <trkpt lat="47.25436" lon="-2.32769">
        <ele>5</ele>
        <time>2019-06-16T07:03:18.000Z</time>
      </trkpt>
      <trkpt lat="47.25433" lon="-2.32781">
        <ele>5</ele>
        <time>2019-06-16T07:03:20.000Z</time>
      </trkpt>
      <trkpt lat="47.2543" lon="-2.32785">
        <ele>5</ele>
        <time>2019-06-16T07:03:21.000Z</time>
      </trkpt>
      <trkpt lat="47.25426" lon="-2.3279">
        <ele>5</ele>
        <time>2019-06-16T07:03:22.000Z</time>
      </trkpt>
      <trkpt lat="47.2542" lon="-2.328">
        <ele>5</ele>
        <time>2019-06-16T07:03:24.000Z</time>
      </trkpt>
      <trkpt lat="47.25403" lon="-2.32825">
        <ele>4.5999999046326</ele>
        <time>2019-06-16T07:03:29.000Z</time>
      </trkpt>
      <trkpt lat="47.25399" lon="-2.3283">
        <ele>4.1999998092651</ele>
        <time>2019-06-16T07:03:30.000Z</time>
      </trkpt>
      <trkpt lat="47.25395" lon="-2.32834">
        <ele>3.4000000953674</ele>
        <time>2019-06-16T07:03:31.000Z</time>
      </trkpt>
      <trkpt lat="47.25392" lon="-2.32838">
        <ele>3.4000000953674</ele>
        <time>2019-06-16T07:03:32.000Z</time>
      </trkpt>
      <trkpt lat="47.25389" lon="-2.32843">
        <ele>3</ele>
        <time>2019-06-16T07:03:33.000Z</time>
      </trkpt>
      <trkpt lat="47.25366" lon="-2.32867">
        <ele>3</ele>
        <time>2019-06-16T07:03:39.000Z</time>
      </trkpt>
      <trkpt lat="47.25335" lon="-2.32895">
        <ele>3</ele>
        <time>2019-06-16T07:03:47.000Z</time>
      </trkpt>
      <trkpt lat="47.25332" lon="-2.32898">
        <ele>3</ele>
        <time>2019-06-16T07:03:48.000Z</time>
      </trkpt>
      <trkpt lat="47.25328" lon="-2.32902">
        <ele>3</ele>
        <time>2019-06-16T07:03:49.000Z</time>
      </trkpt>
      <trkpt lat="47.2532" lon="-2.32911">
        <ele>3</ele>
        <time>2019-06-16T07:03:51.000Z</time>
      </trkpt>
      <trkpt lat="47.25313" lon="-2.32917">
        <ele>3</ele>
        <time>2019-06-16T07:03:53.000Z</time>
      </trkpt>
      <trkpt lat="47.2531" lon="-2.32922">
        <ele>3</ele>
        <time>2019-06-16T07:03:54.000Z</time>
      </trkpt>
      <trkpt lat="47.25307" lon="-2.3294">
        <ele>3</ele>
        <time>2019-06-16T07:03:57.000Z</time>
      </trkpt>
      <trkpt lat="47.2531" lon="-2.32953">
        <ele>3</ele>
        <time>2019-06-16T07:03:59.000Z</time>
      </trkpt>
      <trkpt lat="47.25314" lon="-2.32964">
        <ele>3</ele>
        <time>2019-06-16T07:04:01.000Z</time>
      </trkpt>
      <trkpt lat="47.25319" lon="-2.32976">
        <ele>2.5999999046326</ele>
        <time>2019-06-16T07:04:03.000Z</time>
      </trkpt>
      <trkpt lat="47.25321" lon="-2.32982">
        <ele>2.2000000476837</ele>
        <time>2019-06-16T07:04:04.000Z</time>
      </trkpt>
      <trkpt lat="47.25323" lon="-2.32988">
        <ele>1.6000000238419</ele>
        <time>2019-06-16T07:04:05.000Z</time>
      </trkpt>
      <trkpt lat="47.25325" lon="-2.32994">
        <ele>1.2000000476837</ele>
        <time>2019-06-16T07:04:06.000Z</time>
      </trkpt>
      <trkpt lat="47.25328" lon="-2.33001">
        <ele>0.80000001192093</ele>
        <time>2019-06-16T07:04:07.000Z</time>
      </trkpt>
      <trkpt lat="47.2535" lon="-2.33055">
        <ele>0.80000001192093</ele>
        <time>2019-06-16T07:04:17.000Z</time>
      </trkpt>
      <trkpt lat="47.25354" lon="-2.33066">
        <ele>0.80000001192093</ele>
        <time>2019-06-16T07:04:19.000Z</time>
      </trkpt>
      <trkpt lat="47.2536" lon="-2.33088">
        <ele>0.80000001192093</ele>
        <time>2019-06-16T07:04:23.000Z</time>
      </trkpt>
      <trkpt lat="47.25369" lon="-2.33111">
        <ele>0.80000001192093</ele>
        <time>2019-06-16T07:04:29.000Z</time>
      </trkpt>
      <trkpt lat="47.25369" lon="-2.33111">
        <ele>0.80000001192093</ele>
        <time>2019-06-16T07:04:30.000Z</time>
      </trkpt>
      <trkpt lat="47.25375" lon="-2.33114">
        <ele>-1.2000000476837</ele>
        <time>2019-06-16T07:13:42.000Z</time>
      </trkpt>
      <trkpt lat="47.25377" lon="-2.33117">
        <ele>-1.2000000476837</ele>
        <time>2019-06-16T07:13:44.000Z</time>
      </trkpt>
      <trkpt lat="47.25384" lon="-2.33137">
        <ele>-1.2000000476837</ele>
        <time>2019-06-16T07:13:50.000Z</time>
      </trkpt>
      <trkpt lat="47.25394" lon="-2.33155">
        <ele>-1.2000000476837</ele>
        <time>2019-06-16T07:13:55.000Z</time>
      </trkpt>
      <trkpt lat="47.25409" lon="-2.33192">
        <ele>-1.2000000476837</ele>
        <time>2019-06-16T07:14:02.000Z</time>
      </trkpt>
      <trkpt lat="47.25423" lon="-2.33223">
        <ele>-1.2000000476837</ele>
        <time>2019-06-16T07:14:08.000Z</time>
      </trkpt>
      <trkpt lat="47.25427" lon="-2.33233">
        <ele>-1.2000000476837</ele>
        <time>2019-06-16T07:14:10.000Z</time>
      </trkpt>
      <trkpt lat="47.25438" lon="-2.33259">
        <ele>-1.2000000476837</ele>
        <time>2019-06-16T07:14:15.000Z</time>
      </trkpt>
      <trkpt lat="47.25443" lon="-2.33269">
        <ele>-1.2000000476837</ele>
        <time>2019-06-16T07:14:17.000Z</time>
      </trkpt>
      <trkpt lat="47.25447" lon="-2.3328">
        <ele>-1.2000000476837</ele>
        <time>2019-06-16T07:14:19.000Z</time>
      </trkpt>
      <trkpt lat="47.25449" lon="-2.33299">
        <ele>-1.2000000476837</ele>
        <time>2019-06-16T07:14:22.000Z</time>
      </trkpt>
      <trkpt lat="47.25441" lon="-2.33321">
        <ele>-1.2000000476837</ele>
        <time>2019-06-16T07:14:26.000Z</time>
      </trkpt>
      <trkpt lat="47.25439" lon="-2.33327">
        <ele>-1.2000000476837</ele>
        <time>2019-06-16T07:14:27.000Z</time>
      </trkpt>
      <trkpt lat="47.25432" lon="-2.3335">
        <ele>-1.2000000476837</ele>
        <time>2019-06-16T07:14:31.000Z</time>
      </trkpt>
      <trkpt lat="47.25431" lon="-2.33356">
        <ele>-1.2000000476837</ele>
        <time>2019-06-16T07:14:32.000Z</time>
      </trkpt>
      <trkpt lat="47.25431" lon="-2.33383">
        <ele>-1.2000000476837</ele>
        <time>2019-06-16T07:14:36.000Z</time>
      </trkpt>
      <trkpt lat="47.25432" lon="-2.33394">
        <ele>-1.2000000476837</ele>
        <time>2019-06-16T07:14:38.000Z</time>
      </trkpt>
      <trkpt lat="47.25432" lon="-2.33443">
        <ele>-1.2000000476837</ele>
        <time>2019-06-16T07:14:46.000Z</time>
      </trkpt>
      <trkpt lat="47.25433" lon="-2.33455">
        <ele>-1.2000000476837</ele>
        <time>2019-06-16T07:14:48.000Z</time>
      </trkpt>
      <trkpt lat="47.25436" lon="-2.33475">
        <ele>-1.2000000476837</ele>
        <time>2019-06-16T07:14:52.000Z</time>
      </trkpt>
      <trkpt lat="47.25443" lon="-2.33498">
        <ele>-1.2000000476837</ele>
        <time>2019-06-16T07:14:57.000Z</time>
      </trkpt>
      <trkpt lat="47.25451" lon="-2.3353">
        <ele>-1.2000000476837</ele>
        <time>2019-06-16T07:15:04.000Z</time>
      </trkpt>
      <trkpt lat="47.25454" lon="-2.33547">
        <ele>-1.6000000238419</ele>
        <time>2019-06-16T07:15:09.000Z</time>
      </trkpt>
      <trkpt lat="47.25456" lon="-2.33551">
        <ele>-2</ele>
        <time>2019-06-16T07:15:10.000Z</time>
      </trkpt>
      <trkpt lat="47.25457" lon="-2.33556">
        <ele>-2.4000000953674</ele>
        <time>2019-06-16T07:15:11.000Z</time>
      </trkpt>
      <trkpt lat="47.25458" lon="-2.3356">
        <ele>-2.7999999523163</ele>
        <time>2019-06-16T07:15:12.000Z</time>
      </trkpt>
      <trkpt lat="47.25459" lon="-2.33564">
        <ele>-3.2000000476837</ele>
        <time>2019-06-16T07:15:13.000Z</time>
      </trkpt>
      <trkpt lat="47.25458" lon="-2.33574">
        <ele>-3.2000000476837</ele>
        <time>2019-06-16T07:15:16.000Z</time>
      </trkpt>
      <trkpt lat="47.25448" lon="-2.3358">
        <ele>-3.2000000476837</ele>
        <time>2019-06-16T07:15:20.000Z</time>
      </trkpt>
      <trkpt lat="47.25443" lon="-2.33586">
        <ele>-3.2000000476837</ele>
        <time>2019-06-16T07:15:22.000Z</time>
      </trkpt>
      <trkpt lat="47.25444" lon="-2.3359">
        <ele>-3.2000000476837</ele>
        <time>2019-06-16T07:15:23.000Z</time>
      </trkpt>
      <trkpt lat="47.25446" lon="-2.33613">
        <ele>-3.2000000476837</ele>
        <time>2019-06-16T07:15:28.000Z</time>
      </trkpt>
      <trkpt lat="47.25446" lon="-2.33622">
        <ele>-3.2000000476837</ele>
        <time>2019-06-16T07:15:30.000Z</time>
      </trkpt>
      <trkpt lat="47.25449" lon="-2.33642">
        <ele>-3.2000000476837</ele>
        <time>2019-06-16T07:15:34.000Z</time>
      </trkpt>
      <trkpt lat="47.25451" lon="-2.33677">
        <ele>-3.2000000476837</ele>
        <time>2019-06-16T07:15:40.000Z</time>
      </trkpt>
      <trkpt lat="47.25456" lon="-2.33719">
        <ele>-3.2000000476837</ele>
        <time>2019-06-16T07:15:47.000Z</time>
      </trkpt>
      <trkpt lat="47.25458" lon="-2.33732">
        <ele>-3.2000000476837</ele>
        <time>2019-06-16T07:15:49.000Z</time>
      </trkpt>
      <trkpt lat="47.25462" lon="-2.33742">
        <ele>-3.2000000476837</ele>
        <time>2019-06-16T07:15:51.000Z</time>
      </trkpt>
      <trkpt lat="47.25466" lon="-2.33745">
        <ele>-3.2000000476837</ele>
        <time>2019-06-16T07:15:52.000Z</time>
      </trkpt>
      <trkpt lat="47.2548" lon="-2.33753">
        <ele>-3.2000000476837</ele>
        <time>2019-06-16T07:15:55.000Z</time>
      </trkpt>
      <trkpt lat="47.25494" lon="-2.33755">
        <ele>-3.2000000476837</ele>
        <time>2019-06-16T07:15:58.000Z</time>
      </trkpt>
      <trkpt lat="47.25525" lon="-2.33756">
        <ele>-3.2000000476837</ele>
        <time>2019-06-16T07:16:04.000Z</time>
      </trkpt>
      <trkpt lat="47.25552" lon="-2.33756">
        <ele>-3.2000000476837</ele>
        <time>2019-06-16T07:16:10.000Z</time>
      </trkpt>
      <trkpt lat="47.25566" lon="-2.33755">
        <ele>-3.2000000476837</ele>
        <time>2019-06-16T07:16:13.000Z</time>
      </trkpt>
      <trkpt lat="47.25581" lon="-2.33754">
        <ele>-3.2000000476837</ele>
        <time>2019-06-16T07:16:16.000Z</time>
      </trkpt>
      <trkpt lat="47.25604" lon="-2.33755">
        <ele>-3.2000000476837</ele>
        <time>2019-06-16T07:16:21.000Z</time>
      </trkpt>
      <trkpt lat="47.25613" lon="-2.33758">
        <ele>-3.2000000476837</ele>
        <time>2019-06-16T07:16:23.000Z</time>
      </trkpt>
      <trkpt lat="47.25629" lon="-2.33768">
        <ele>-3.2000000476837</ele>
        <time>2019-06-16T07:16:27.000Z</time>
      </trkpt>
      <trkpt lat="47.25632" lon="-2.33772">
        <ele>-3.2000000476837</ele>
        <time>2019-06-16T07:16:28.000Z</time>
      </trkpt>
      <trkpt lat="47.25635" lon="-2.33779">
        <ele>-3.2000000476837</ele>
        <time>2019-06-16T07:16:29.000Z</time>
      </trkpt>
      <trkpt lat="47.25637" lon="-2.33799">
        <ele>-3.2000000476837</ele>
        <time>2019-06-16T07:16:32.000Z</time>
      </trkpt>
      <trkpt lat="47.2564" lon="-2.3382">
        <ele>-3.2000000476837</ele>
        <time>2019-06-16T07:16:35.000Z</time>
      </trkpt>
      <trkpt lat="47.25642" lon="-2.33835">
        <ele>-3.2000000476837</ele>
        <time>2019-06-16T07:16:37.000Z</time>
      </trkpt>
      <trkpt lat="47.25645" lon="-2.33854">
        <ele>-3.2000000476837</ele>
        <time>2019-06-16T07:16:40.000Z</time>
      </trkpt>
      <trkpt lat="47.25649" lon="-2.33872">
        <ele>-3.2000000476837</ele>
        <time>2019-06-16T07:16:43.000Z</time>
      </trkpt>
      <trkpt lat="47.25657" lon="-2.33914">
        <ele>-3.2000000476837</ele>
        <time>2019-06-16T07:16:49.000Z</time>
      </trkpt>
      <trkpt lat="47.25663" lon="-2.33954">
        <ele>-3.2000000476837</ele>
        <time>2019-06-16T07:16:55.000Z</time>
      </trkpt>
      <trkpt lat="47.25663" lon="-2.33961">
        <ele>-3.2000000476837</ele>
        <time>2019-06-16T07:16:56.000Z</time>
      </trkpt>
      <trkpt lat="47.2566" lon="-2.33981">
        <ele>-3.2000000476837</ele>
        <time>2019-06-16T07:16:59.000Z</time>
      </trkpt>
      <trkpt lat="47.25659" lon="-2.33987">
        <ele>-3.2000000476837</ele>
        <time>2019-06-16T07:17:00.000Z</time>
      </trkpt>
      <trkpt lat="47.25657" lon="-2.34002">
        <ele>-3.2000000476837</ele>
        <time>2019-06-16T07:17:02.000Z</time>
      </trkpt>
      <trkpt lat="47.25656" lon="-2.34015">
        <ele>-3.2000000476837</ele>
        <time>2019-06-16T07:17:04.000Z</time>
      </trkpt>
      <trkpt lat="47.25652" lon="-2.34041">
        <ele>-3.2000000476837</ele>
        <time>2019-06-16T07:17:08.000Z</time>
      </trkpt>
      <trkpt lat="47.25651" lon="-2.34049">
        <ele>-3.2000000476837</ele>
        <time>2019-06-16T07:17:09.000Z</time>
      </trkpt>
      <trkpt lat="47.25645" lon="-2.34081">
        <ele>-3.2000000476837</ele>
        <time>2019-06-16T07:17:14.000Z</time>
      </trkpt>
      <trkpt lat="47.25644" lon="-2.34095">
        <ele>-3.2000000476837</ele>
        <time>2019-06-16T07:17:16.000Z</time>
      </trkpt>
      <trkpt lat="47.25645" lon="-2.34109">
        <ele>-3.2000000476837</ele>
        <time>2019-06-16T07:17:18.000Z</time>
      </trkpt>
      <trkpt lat="47.2565" lon="-2.34138">
        <ele>-3.2000000476837</ele>
        <time>2019-06-16T07:17:22.000Z</time>
      </trkpt>
      <trkpt lat="47.25657" lon="-2.34158">
        <ele>-3.2000000476837</ele>
        <time>2019-06-16T07:17:25.000Z</time>
      </trkpt>
      <trkpt lat="47.25663" lon="-2.3417">
        <ele>-3.2000000476837</ele>
        <time>2019-06-16T07:17:27.000Z</time>
      </trkpt>
      <trkpt lat="47.25672" lon="-2.34185">
        <ele>-3.2000000476837</ele>
        <time>2019-06-16T07:17:30.000Z</time>
      </trkpt>
      <trkpt lat="47.2568" lon="-2.34192">
        <ele>-3.2000000476837</ele>
        <time>2019-06-16T07:17:32.000Z</time>
      </trkpt>
      <trkpt lat="47.25699" lon="-2.34191">
        <ele>-3.2000000476837</ele>
        <time>2019-06-16T07:17:36.000Z</time>
      </trkpt>
      <trkpt lat="47.25704" lon="-2.3419">
        <ele>-3.5999999046326</ele>
        <time>2019-06-16T07:17:37.000Z</time>
      </trkpt>
      <trkpt lat="47.25709" lon="-2.34189">
        <ele>-4</ele>
        <time>2019-06-16T07:17:38.000Z</time>
      </trkpt>
      <trkpt lat="47.25715" lon="-2.34187">
        <ele>-4.4000000953674</ele>
        <time>2019-06-16T07:17:39.000Z</time>
      </trkpt>
      <trkpt lat="47.2572" lon="-2.34187">
        <ele>-4.8000001907349</ele>
        <time>2019-06-16T07:17:40.000Z</time>
      </trkpt>
      <trkpt lat="47.25725" lon="-2.34186">
        <ele>-5.1999998092651</ele>
        <time>2019-06-16T07:17:41.000Z</time>
      </trkpt>
      <trkpt lat="47.25736" lon="-2.34184">
        <ele>-5.1999998092651</ele>
        <time>2019-06-16T07:17:43.000Z</time>
      </trkpt>
      <trkpt lat="47.25771" lon="-2.34176">
        <ele>-5.1999998092651</ele>
        <time>2019-06-16T07:17:50.000Z</time>
      </trkpt>
      <trkpt lat="47.25785" lon="-2.34174">
        <ele>-5.1999998092651</ele>
        <time>2019-06-16T07:17:53.000Z</time>
      </trkpt>
      <trkpt lat="47.25794" lon="-2.34174">
        <ele>-5.1999998092651</ele>
        <time>2019-06-16T07:17:55.000Z</time>
      </trkpt>
      <trkpt lat="47.25798" lon="-2.34175">
        <ele>-5.1999998092651</ele>
        <time>2019-06-16T07:17:56.000Z</time>
      </trkpt>
      <trkpt lat="47.2582" lon="-2.34179">
        <ele>-5.1999998092651</ele>
        <time>2019-06-16T07:18:01.000Z</time>
      </trkpt>
      <trkpt lat="47.25824" lon="-2.3418">
        <ele>-5.1999998092651</ele>
        <time>2019-06-16T07:18:02.000Z</time>
      </trkpt>
      <trkpt lat="47.25834" lon="-2.34174">
        <ele>-5.1999998092651</ele>
        <time>2019-06-16T07:18:05.000Z</time>
      </trkpt>
      <trkpt lat="47.25836" lon="-2.34161">
        <ele>-5.1999998092651</ele>
        <time>2019-06-16T07:18:08.000Z</time>
      </trkpt>
      <trkpt lat="47.25838" lon="-2.34159">
        <ele>-5.1999998092651</ele>
        <time>2019-06-16T07:18:09.000Z</time>
      </trkpt>
      <trkpt lat="47.25844" lon="-2.34159">
        <ele>-5.1999998092651</ele>
        <time>2019-06-16T07:18:11.000Z</time>
      </trkpt>
      <trkpt lat="47.25859" lon="-2.34165">
        <ele>-5.1999998092651</ele>
        <time>2019-06-16T07:18:15.000Z</time>
      </trkpt>
      <trkpt lat="47.25875" lon="-2.34166">
        <ele>-5.1999998092651</ele>
        <time>2019-06-16T07:18:20.000Z</time>
      </trkpt>
      <trkpt lat="47.25879" lon="-2.34161">
        <ele>-5.1999998092651</ele>
        <time>2019-06-16T07:18:22.000Z</time>
      </trkpt>
      <trkpt lat="47.25888" lon="-2.34155">
        <ele>-5.1999998092651</ele>
        <time>2019-06-16T07:18:25.000Z</time>
      </trkpt>
      <trkpt lat="47.25896" lon="-2.34149">
        <ele>-5.1999998092651</ele>
        <time>2019-06-16T07:18:27.000Z</time>
      </trkpt>
      <trkpt lat="47.25908" lon="-2.34141">
        <ele>-5.1999998092651</ele>
        <time>2019-06-16T07:18:30.000Z</time>
      </trkpt>
      <trkpt lat="47.2593" lon="-2.34126">
        <ele>-5.1999998092651</ele>
        <time>2019-06-16T07:18:35.000Z</time>
      </trkpt>
      <trkpt lat="47.25937" lon="-2.34117">
        <ele>-5.1999998092651</ele>
        <time>2019-06-16T07:18:37.000Z</time>
      </trkpt>
      <trkpt lat="47.25944" lon="-2.34111">
        <ele>-5.1999998092651</ele>
        <time>2019-06-16T07:18:39.000Z</time>
      </trkpt>
      <trkpt lat="47.25956" lon="-2.34108">
        <ele>-5.1999998092651</ele>
        <time>2019-06-16T07:18:42.000Z</time>
      </trkpt>
      <trkpt lat="47.25959" lon="-2.34108">
        <ele>-5.1999998092651</ele>
        <time>2019-06-16T07:18:43.000Z</time>
      </trkpt>
      <trkpt lat="47.25972" lon="-2.3411">
        <ele>-5.1999998092651</ele>
        <time>2019-06-16T07:18:47.000Z</time>
      </trkpt>
      <trkpt lat="47.25991" lon="-2.34115">
        <ele>-5.1999998092651</ele>
        <time>2019-06-16T07:18:52.000Z</time>
      </trkpt>
      <trkpt lat="47.25995" lon="-2.34116">
        <ele>-5.1999998092651</ele>
        <time>2019-06-16T07:18:53.000Z</time>
      </trkpt>
      <trkpt lat="47.26029" lon="-2.34132">
        <ele>-5.1999998092651</ele>
        <time>2019-06-16T07:19:01.000Z</time>
      </trkpt>
      <trkpt lat="47.26063" lon="-2.34148">
        <ele>-5.1999998092651</ele>
        <time>2019-06-16T07:19:09.000Z</time>
      </trkpt>
      <trkpt lat="47.26102" lon="-2.34167">
        <ele>-5.1999998092651</ele>
        <time>2019-06-16T07:19:19.000Z</time>
      </trkpt>
      <trkpt lat="47.26111" lon="-2.3417">
        <ele>-5.1999998092651</ele>
        <time>2019-06-16T07:19:23.000Z</time>
      </trkpt>
      <trkpt lat="47.26114" lon="-2.34167">
        <ele>-5.1999998092651</ele>
        <time>2019-06-16T07:19:25.000Z</time>
      </trkpt>
      <trkpt lat="47.26117" lon="-2.3416">
        <ele>-5.1999998092651</ele>
        <time>2019-06-16T07:19:27.000Z</time>
      </trkpt>
      <trkpt lat="47.26126" lon="-2.3415">
        <ele>-5.1999998092651</ele>
        <time>2019-06-16T07:19:31.000Z</time>
      </trkpt>
      <trkpt lat="47.26142" lon="-2.34157">
        <ele>-5.1999998092651</ele>
        <time>2019-06-16T07:19:35.000Z</time>
      </trkpt>
      <trkpt lat="47.26146" lon="-2.34161">
        <ele>-5.1999998092651</ele>
        <time>2019-06-16T07:19:36.000Z</time>
      </trkpt>
      <trkpt lat="47.26157" lon="-2.34175">
        <ele>-5.1999998092651</ele>
        <time>2019-06-16T07:19:39.000Z</time>
      </trkpt>
      <trkpt lat="47.26186" lon="-2.34205">
        <ele>-5.1999998092651</ele>
        <time>2019-06-16T07:19:46.000Z</time>
      </trkpt>
      <trkpt lat="47.26221" lon="-2.3424">
        <ele>-5.1999998092651</ele>
        <time>2019-06-16T07:19:54.000Z</time>
      </trkpt>
      <trkpt lat="47.2626" lon="-2.3428">
        <ele>-5.1999998092651</ele>
        <time>2019-06-16T07:20:03.000Z</time>
      </trkpt>
      <trkpt lat="47.26295" lon="-2.34317">
        <ele>-5.1999998092651</ele>
        <time>2019-06-16T07:20:11.000Z</time>
      </trkpt>
      <trkpt lat="47.26324" lon="-2.34345">
        <ele>-5.1999998092651</ele>
        <time>2019-06-16T07:20:18.000Z</time>
      </trkpt>
      <trkpt lat="47.26342" lon="-2.34359">
        <ele>-5.1999998092651</ele>
        <time>2019-06-16T07:20:22.000Z</time>
      </trkpt>
      <trkpt lat="47.26361" lon="-2.34379">
        <ele>-5.1999998092651</ele>
        <time>2019-06-16T07:20:26.000Z</time>
      </trkpt>
      <trkpt lat="47.2641" lon="-2.34421">
        <ele>-5.1999998092651</ele>
        <time>2019-06-16T07:20:36.000Z</time>
      </trkpt>
      <trkpt lat="47.26451" lon="-2.34453">
        <ele>-5.1999998092651</ele>
        <time>2019-06-16T07:20:44.000Z</time>
      </trkpt>
      <trkpt lat="47.26475" lon="-2.34472">
        <ele>-5.1999998092651</ele>
        <time>2019-06-16T07:20:47.000Z</time>
      </trkpt>
      <trkpt lat="47.26489" lon="-2.34481">
        <ele>-5.1999998092651</ele>
        <time>2019-06-16T07:20:52.000Z</time>
      </trkpt>
      <trkpt lat="47.26493" lon="-2.34483">
        <ele>-5.1999998092651</ele>
        <time>2019-06-16T07:20:53.000Z</time>
      </trkpt>
      <trkpt lat="47.26516" lon="-2.34501">
        <ele>-5.1999998092651</ele>
        <time>2019-06-16T07:20:58.000Z</time>
      </trkpt>
      <trkpt lat="47.26541" lon="-2.3452">
        <ele>-5.1999998092651</ele>
        <time>2019-06-16T07:21:03.000Z</time>
      </trkpt>
      <trkpt lat="47.26545" lon="-2.34526">
        <ele>-5.1999998092651</ele>
        <time>2019-06-16T07:21:04.000Z</time>
      </trkpt>
      <trkpt lat="47.2658" lon="-2.34564">
        <ele>-5.1999998092651</ele>
        <time>2019-06-16T07:21:12.000Z</time>
      </trkpt>
      <trkpt lat="47.26611" lon="-2.34597">
        <ele>-5.1999998092651</ele>
        <time>2019-06-16T07:21:19.000Z</time>
      </trkpt>
      <trkpt lat="47.26646" lon="-2.34638">
        <ele>-5.1999998092651</ele>
        <time>2019-06-16T07:21:27.000Z</time>
      </trkpt>
      <trkpt lat="47.26675" lon="-2.34676">
        <ele>-5.1999998092651</ele>
        <time>2019-06-16T07:21:34.000Z</time>
      </trkpt>
      <trkpt lat="47.26711" lon="-2.34717">
        <ele>-5.1999998092651</ele>
        <time>2019-06-16T07:21:42.000Z</time>
      </trkpt>
      <trkpt lat="47.26747" lon="-2.34763">
        <ele>-5.1999998092651</ele>
        <time>2019-06-16T07:21:51.000Z</time>
      </trkpt>
      <trkpt lat="47.26781" lon="-2.34806">
        <ele>-5.1999998092651</ele>
        <time>2019-06-16T07:21:59.000Z</time>
      </trkpt>
      <trkpt lat="47.26805" lon="-2.3484">
        <ele>-5.1999998092651</ele>
        <time>2019-06-16T07:22:05.000Z</time>
      </trkpt>
      <trkpt lat="47.26835" lon="-2.34886">
        <ele>-5.1999998092651</ele>
        <time>2019-06-16T07:22:13.000Z</time>
      </trkpt>
      <trkpt lat="47.26867" lon="-2.34933">
        <ele>-5.1999998092651</ele>
        <time>2019-06-16T07:22:21.000Z</time>
      </trkpt>
      <trkpt lat="47.26898" lon="-2.34982">
        <ele>-5.1999998092651</ele>
        <time>2019-06-16T07:22:29.000Z</time>
      </trkpt>
      <trkpt lat="47.26933" lon="-2.35034">
        <ele>-5.1999998092651</ele>
        <time>2019-06-16T07:22:38.000Z</time>
      </trkpt>
      <trkpt lat="47.26967" lon="-2.35087">
        <ele>-5.1999998092651</ele>
        <time>2019-06-16T07:22:47.000Z</time>
      </trkpt>
      <trkpt lat="47.26998" lon="-2.35135">
        <ele>-5.1999998092651</ele>
        <time>2019-06-16T07:22:55.000Z</time>
      </trkpt>
      <trkpt lat="47.27032" lon="-2.35186">
        <ele>-5.1999998092651</ele>
        <time>2019-06-16T07:23:04.000Z</time>
      </trkpt>
      <trkpt lat="47.27061" lon="-2.35232">
        <ele>-5.1999998092651</ele>
        <time>2019-06-16T07:23:12.000Z</time>
      </trkpt>
      <trkpt lat="47.27088" lon="-2.35273">
        <ele>-5.1999998092651</ele>
        <time>2019-06-16T07:23:19.000Z</time>
      </trkpt>
      <trkpt lat="47.27117" lon="-2.3532">
        <ele>-5.1999998092651</ele>
        <time>2019-06-16T07:23:27.000Z</time>
      </trkpt>
      <trkpt lat="47.27143" lon="-2.35362">
        <ele>-5.1999998092651</ele>
        <time>2019-06-16T07:23:34.000Z</time>
      </trkpt>
      <trkpt lat="47.27167" lon="-2.35406">
        <ele>-5.1999998092651</ele>
        <time>2019-06-16T07:23:41.000Z</time>
      </trkpt>
      <trkpt lat="47.2719" lon="-2.35451">
        <ele>-5.1999998092651</ele>
        <time>2019-06-16T07:23:48.000Z</time>
      </trkpt>
      <trkpt lat="47.27209" lon="-2.35489">
        <ele>-5.1999998092651</ele>
        <time>2019-06-16T07:23:54.000Z</time>
      </trkpt>
      <trkpt lat="47.2723" lon="-2.35532">
        <ele>-5.1999998092651</ele>
        <time>2019-06-16T07:24:01.000Z</time>
      </trkpt>
      <trkpt lat="47.27254" lon="-2.35583">
        <ele>-5.1999998092651</ele>
        <time>2019-06-16T07:24:09.000Z</time>
      </trkpt>
      <trkpt lat="47.27277" lon="-2.35634">
        <ele>-5.1999998092651</ele>
        <time>2019-06-16T07:24:17.000Z</time>
      </trkpt>
      <trkpt lat="47.27297" lon="-2.35678">
        <ele>-5.1999998092651</ele>
        <time>2019-06-16T07:24:24.000Z</time>
      </trkpt>
      <trkpt lat="47.27306" lon="-2.35697">
        <ele>-5.1999998092651</ele>
        <time>2019-06-16T07:24:27.000Z</time>
      </trkpt>
      <trkpt lat="47.27312" lon="-2.35711">
        <ele>-5.5999999046326</ele>
        <time>2019-06-16T07:24:29.000Z</time>
      </trkpt>
      <trkpt lat="47.27315" lon="-2.35717">
        <ele>-6</ele>
        <time>2019-06-16T07:24:30.000Z</time>
      </trkpt>
      <trkpt lat="47.27319" lon="-2.35722">
        <ele>-6.4000000953674</ele>
        <time>2019-06-16T07:24:31.000Z</time>
      </trkpt>
      <trkpt lat="47.27324" lon="-2.35722">
        <ele>-7</ele>
        <time>2019-06-16T07:24:32.000Z</time>
      </trkpt>
      <trkpt lat="47.2733" lon="-2.35721">
        <ele>-7.4000000953674</ele>
        <time>2019-06-16T07:24:33.000Z</time>
      </trkpt>
      <trkpt lat="47.27347" lon="-2.35707">
        <ele>-7.4000000953674</ele>
        <time>2019-06-16T07:24:36.000Z</time>
      </trkpt>
      <trkpt lat="47.27383" lon="-2.35676">
        <ele>-7.4000000953674</ele>
        <time>2019-06-16T07:24:43.000Z</time>
      </trkpt>
      <trkpt lat="47.27394" lon="-2.35669">
        <ele>-7.4000000953674</ele>
        <time>2019-06-16T07:24:45.000Z</time>
      </trkpt>
      <trkpt lat="47.27412" lon="-2.35663">
        <ele>-7.4000000953674</ele>
        <time>2019-06-16T07:24:48.000Z</time>
      </trkpt>
      <trkpt lat="47.27423" lon="-2.35663">
        <ele>-7.4000000953674</ele>
        <time>2019-06-16T07:24:50.000Z</time>
      </trkpt>
      <trkpt lat="47.27439" lon="-2.35666">
        <ele>-7.4000000953674</ele>
        <time>2019-06-16T07:24:53.000Z</time>
      </trkpt>
      <trkpt lat="47.27476" lon="-2.35675">
        <ele>-7.4000000953674</ele>
        <time>2019-06-16T07:24:59.000Z</time>
      </trkpt>
      <trkpt lat="47.27512" lon="-2.35684">
        <ele>-7.4000000953674</ele>
        <time>2019-06-16T07:25:05.000Z</time>
      </trkpt>
      <trkpt lat="47.27534" lon="-2.35689">
        <ele>-7</ele>
        <time>2019-06-16T07:25:09.000Z</time>
      </trkpt>
      <trkpt lat="47.27539" lon="-2.35691">
        <ele>-6.4000000953674</ele>
        <time>2019-06-16T07:25:10.000Z</time>
      </trkpt>
      <trkpt lat="47.27544" lon="-2.35692">
        <ele>-6</ele>
        <time>2019-06-16T07:25:11.000Z</time>
      </trkpt>
      <trkpt lat="47.27549" lon="-2.35693">
        <ele>-5.5999999046326</ele>
        <time>2019-06-16T07:25:12.000Z</time>
      </trkpt>
      <trkpt lat="47.27554" lon="-2.35695">
        <ele>-5.1999998092651</ele>
        <time>2019-06-16T07:25:13.000Z</time>
      </trkpt>
      <trkpt lat="47.27573" lon="-2.357">
        <ele>-5.1999998092651</ele>
        <time>2019-06-16T07:25:17.000Z</time>
      </trkpt>
      <trkpt lat="47.27608" lon="-2.35711">
        <ele>-5.1999998092651</ele>
        <time>2019-06-16T07:25:24.000Z</time>
      </trkpt>
      <trkpt lat="47.27647" lon="-2.35721">
        <ele>-5.1999998092651</ele>
        <time>2019-06-16T07:25:32.000Z</time>
      </trkpt>
      <trkpt lat="47.27665" lon="-2.35728">
        <ele>-4.8000001907349</ele>
        <time>2019-06-16T07:25:36.000Z</time>
      </trkpt>
      <trkpt lat="47.27669" lon="-2.35729">
        <ele>-4.4000000953674</ele>
        <time>2019-06-16T07:25:37.000Z</time>
      </trkpt>
      <trkpt lat="47.27674" lon="-2.3573">
        <ele>-4</ele>
        <time>2019-06-16T07:25:38.000Z</time>
      </trkpt>
      <trkpt lat="47.27678" lon="-2.3573">
        <ele>-3.5999999046326</ele>
        <time>2019-06-16T07:25:39.000Z</time>
      </trkpt>
      <trkpt lat="47.27683" lon="-2.3573">
        <ele>-3.2000000476837</ele>
        <time>2019-06-16T07:25:40.000Z</time>
      </trkpt>
      <trkpt lat="47.27692" lon="-2.35727">
        <ele>-3.2000000476837</ele>
        <time>2019-06-16T07:25:42.000Z</time>
      </trkpt>
      <trkpt lat="47.27701" lon="-2.3572">
        <ele>-3.2000000476837</ele>
        <time>2019-06-16T07:25:44.000Z</time>
      </trkpt>
      <trkpt lat="47.27712" lon="-2.35706">
        <ele>-3.2000000476837</ele>
        <time>2019-06-16T07:25:47.000Z</time>
      </trkpt>
      <trkpt lat="47.27716" lon="-2.35701">
        <ele>-2.7999999523163</ele>
        <time>2019-06-16T07:25:48.000Z</time>
      </trkpt>
      <trkpt lat="47.2772" lon="-2.35697">
        <ele>-2.2000000476837</ele>
        <time>2019-06-16T07:25:49.000Z</time>
      </trkpt>
      <trkpt lat="47.27724" lon="-2.35692">
        <ele>-1.7999999523163</ele>
        <time>2019-06-16T07:25:50.000Z</time>
      </trkpt>
      <trkpt lat="47.27728" lon="-2.35687">
        <ele>-1.3999999761581</ele>
        <time>2019-06-16T07:25:51.000Z</time>
      </trkpt>
      <trkpt lat="47.27731" lon="-2.35681">
        <ele>-1</ele>
        <time>2019-06-16T07:25:52.000Z</time>
      </trkpt>
      <trkpt lat="47.2774" lon="-2.35665">
        <ele>-1</ele>
        <time>2019-06-16T07:25:55.000Z</time>
      </trkpt>
      <trkpt lat="47.27762" lon="-2.35635">
        <ele>-1</ele>
        <time>2019-06-16T07:26:01.000Z</time>
      </trkpt>
      <trkpt lat="47.27766" lon="-2.35632">
        <ele>-1</ele>
        <time>2019-06-16T07:26:02.000Z</time>
      </trkpt>
      <trkpt lat="47.27787" lon="-2.35616">
        <ele>-1</ele>
        <time>2019-06-16T07:26:07.000Z</time>
      </trkpt>
      <trkpt lat="47.27792" lon="-2.35614">
        <ele>-0.60000002384186</ele>
        <time>2019-06-16T07:26:08.000Z</time>
      </trkpt>
      <trkpt lat="47.27797" lon="-2.35611">
        <ele>-0.20000000298023</ele>
        <time>2019-06-16T07:26:09.000Z</time>
      </trkpt>
      <trkpt lat="47.27802" lon="-2.35609">
        <ele>0.20000000298023</ele>
        <time>2019-06-16T07:26:10.000Z</time>
      </trkpt>
      <trkpt lat="47.27807" lon="-2.35607">
        <ele>0.80000001192093</ele>
        <time>2019-06-16T07:26:11.000Z</time>
      </trkpt>
      <trkpt lat="47.27812" lon="-2.35606">
        <ele>1.2000000476837</ele>
        <time>2019-06-16T07:26:12.000Z</time>
      </trkpt>
      <trkpt lat="47.27817" lon="-2.35604">
        <ele>1.2000000476837</ele>
        <time>2019-06-16T07:26:13.000Z</time>
      </trkpt>
      <trkpt lat="47.27836" lon="-2.356">
        <ele>1.2000000476837</ele>
        <time>2019-06-16T07:26:17.000Z</time>
      </trkpt>
      <trkpt lat="47.27846" lon="-2.35598">
        <ele>1.2000000476837</ele>
        <time>2019-06-16T07:26:19.000Z</time>
      </trkpt>
      <trkpt lat="47.27866" lon="-2.35592">
        <ele>1.6000000238419</ele>
        <time>2019-06-16T07:26:23.000Z</time>
      </trkpt>
      <trkpt lat="47.27871" lon="-2.35591">
        <ele>2</ele>
        <time>2019-06-16T07:26:24.000Z</time>
      </trkpt>
      <trkpt lat="47.27876" lon="-2.3559">
        <ele>2.4000000953674</ele>
        <time>2019-06-16T07:26:25.000Z</time>
      </trkpt>
      <trkpt lat="47.2788" lon="-2.35589">
        <ele>2.7999999523163</ele>
        <time>2019-06-16T07:26:26.000Z</time>
      </trkpt>
      <trkpt lat="47.27885" lon="-2.35588">
        <ele>3.2000000476837</ele>
        <time>2019-06-16T07:26:27.000Z</time>
      </trkpt>
      <trkpt lat="47.27904" lon="-2.35585">
        <ele>3.2000000476837</ele>
        <time>2019-06-16T07:26:31.000Z</time>
      </trkpt>
      <trkpt lat="47.27914" lon="-2.35583">
        <ele>3.5999999046326</ele>
        <time>2019-06-16T07:26:33.000Z</time>
      </trkpt>
      <trkpt lat="47.27918" lon="-2.35581">
        <ele>4</ele>
        <time>2019-06-16T07:26:34.000Z</time>
      </trkpt>
      <trkpt lat="47.27923" lon="-2.3558">
        <ele>4.4000000953674</ele>
        <time>2019-06-16T07:26:35.000Z</time>
      </trkpt>
      <trkpt lat="47.27928" lon="-2.35579">
        <ele>4.8000001907349</ele>
        <time>2019-06-16T07:26:36.000Z</time>
      </trkpt>
      <trkpt lat="47.27934" lon="-2.35577">
        <ele>5.1999998092651</ele>
        <time>2019-06-16T07:26:37.000Z</time>
      </trkpt>
      <trkpt lat="47.27939" lon="-2.35576">
        <ele>5.1999998092651</ele>
        <time>2019-06-16T07:26:38.000Z</time>
      </trkpt>
      <trkpt lat="47.27969" lon="-2.35566">
        <ele>5.1999998092651</ele>
        <time>2019-06-16T07:26:44.000Z</time>
      </trkpt>
      <trkpt lat="47.27998" lon="-2.35554">
        <ele>5.1999998092651</ele>
        <time>2019-06-16T07:26:50.000Z</time>
      </trkpt>
      <trkpt lat="47.28028" lon="-2.35549">
        <ele>5.1999998092651</ele>
        <time>2019-06-16T07:26:56.000Z</time>
      </trkpt>
      <trkpt lat="47.28048" lon="-2.3555">
        <ele>5.1999998092651</ele>
        <time>2019-06-16T07:27:00.000Z</time>
      </trkpt>
      <trkpt lat="47.28052" lon="-2.3555">
        <ele>5.5999999046326</ele>
        <time>2019-06-16T07:27:01.000Z</time>
      </trkpt>
      <trkpt lat="47.28057" lon="-2.3555">
        <ele>6</ele>
        <time>2019-06-16T07:27:02.000Z</time>
      </trkpt>
      <trkpt lat="47.28062" lon="-2.3555">
        <ele>6.4000000953674</ele>
        <time>2019-06-16T07:27:03.000Z</time>
      </trkpt>
      <trkpt lat="47.28067" lon="-2.35551">
        <ele>6.8000001907349</ele>
        <time>2019-06-16T07:27:04.000Z</time>
      </trkpt>
      <trkpt lat="47.28072" lon="-2.35551">
        <ele>7.1999998092651</ele>
        <time>2019-06-16T07:27:05.000Z</time>
      </trkpt>
      <trkpt lat="47.2809" lon="-2.35551">
        <ele>7.1999998092651</ele>
        <time>2019-06-16T07:27:09.000Z</time>
      </trkpt>
      <trkpt lat="47.28109" lon="-2.35552">
        <ele>7.8000001907349</ele>
        <time>2019-06-16T07:27:13.000Z</time>
      </trkpt>
      <trkpt lat="47.28114" lon="-2.35553">
        <ele>8.1999998092651</ele>
        <time>2019-06-16T07:27:14.000Z</time>
      </trkpt>
      <trkpt lat="47.28119" lon="-2.35553">
        <ele>8.6000003814697</ele>
        <time>2019-06-16T07:27:15.000Z</time>
      </trkpt>
      <trkpt lat="47.28123" lon="-2.35554">
        <ele>9</ele>
        <time>2019-06-16T07:27:16.000Z</time>
      </trkpt>
      <trkpt lat="47.28127" lon="-2.35554">
        <ele>9.3999996185303</ele>
        <time>2019-06-16T07:27:17.000Z</time>
      </trkpt>
      <trkpt lat="47.28135" lon="-2.35551">
        <ele>9.3999996185303</ele>
        <time>2019-06-16T07:27:19.000Z</time>
      </trkpt>
      <trkpt lat="47.28142" lon="-2.35543">
        <ele>9.3999996185303</ele>
        <time>2019-06-16T07:27:21.000Z</time>
      </trkpt>
      <trkpt lat="47.28148" lon="-2.35532">
        <ele>9.3999996185303</ele>
        <time>2019-06-16T07:27:23.000Z</time>
      </trkpt>
      <trkpt lat="47.28157" lon="-2.35516">
        <ele>9.3999996185303</ele>
        <time>2019-06-16T07:27:26.000Z</time>
      </trkpt>
      <trkpt lat="47.2817" lon="-2.35492">
        <ele>9.3999996185303</ele>
        <time>2019-06-16T07:27:31.000Z</time>
      </trkpt>
      <trkpt lat="47.28195" lon="-2.35454">
        <ele>9.3999996185303</ele>
        <time>2019-06-16T07:27:38.000Z</time>
      </trkpt>
      <trkpt lat="47.28223" lon="-2.3542">
        <ele>9.3999996185303</ele>
        <time>2019-06-16T07:27:45.000Z</time>
      </trkpt>
      <trkpt lat="47.2824" lon="-2.35399">
        <ele>9.3999996185303</ele>
        <time>2019-06-16T07:27:51.000Z</time>
      </trkpt>
      <trkpt lat="47.28244" lon="-2.35398">
        <ele>9.3999996185303</ele>
        <time>2019-06-16T07:27:53.000Z</time>
      </trkpt>
      <trkpt lat="47.28248" lon="-2.35401">
        <ele>9.3999996185303</ele>
        <time>2019-06-16T07:27:55.000Z</time>
      </trkpt>
      <trkpt lat="47.28256" lon="-2.35408">
        <ele>9.3999996185303</ele>
        <time>2019-06-16T07:27:59.000Z</time>
      </trkpt>
      <trkpt lat="47.28263" lon="-2.35406">
        <ele>9.3999996185303</ele>
        <time>2019-06-16T07:28:02.000Z</time>
      </trkpt>
      <trkpt lat="47.28265" lon="-2.35405">
        <ele>9.3999996185303</ele>
        <time>2019-06-16T07:28:03.000Z</time>
      </trkpt>
      <trkpt lat="47.28276" lon="-2.35395">
        <ele>9.3999996185303</ele>
        <time>2019-06-16T07:28:08.000Z</time>
      </trkpt>
      <trkpt lat="47.28282" lon="-2.3538">
        <ele>9.3999996185303</ele>
        <time>2019-06-16T07:28:12.000Z</time>
      </trkpt>
      <trkpt lat="47.28295" lon="-2.35368">
        <ele>9.3999996185303</ele>
        <time>2019-06-16T07:28:16.000Z</time>
      </trkpt>
      <trkpt lat="47.28298" lon="-2.35367">
        <ele>9.3999996185303</ele>
        <time>2019-06-16T07:28:17.000Z</time>
      </trkpt>
      <trkpt lat="47.28315" lon="-2.35363">
        <ele>9.3999996185303</ele>
        <time>2019-06-16T07:28:23.000Z</time>
      </trkpt>
      <trkpt lat="47.2832" lon="-2.35374">
        <ele>9.3999996185303</ele>
        <time>2019-06-16T07:28:27.000Z</time>
      </trkpt>
      <trkpt lat="47.2833" lon="-2.35367">
        <ele>9.3999996185303</ele>
        <time>2019-06-16T07:28:31.000Z</time>
      </trkpt>
      <trkpt lat="47.28346" lon="-2.35353">
        <ele>9.3999996185303</ele>
        <time>2019-06-16T07:28:36.000Z</time>
      </trkpt>
      <trkpt lat="47.28353" lon="-2.35349">
        <ele>9.3999996185303</ele>
        <time>2019-06-16T07:28:40.000Z</time>
      </trkpt>
      <trkpt lat="47.28355" lon="-2.35353">
        <ele>9.3999996185303</ele>
        <time>2019-06-16T07:28:43.000Z</time>
      </trkpt>
      <trkpt lat="47.28355" lon="-2.35352">
        <ele>9.8000001907349</ele>
        <time>2019-06-16T07:28:44.000Z</time>
      </trkpt>
      <trkpt lat="47.28356" lon="-2.35354">
        <ele>10.199999809265</ele>
        <time>2019-06-16T07:28:45.000Z</time>
      </trkpt>
      <trkpt lat="47.28356" lon="-2.35356">
        <ele>10.60000038147</ele>
        <time>2019-06-16T07:28:46.000Z</time>
      </trkpt>
      <trkpt lat="47.28356" lon="-2.35358">
        <ele>11</ele>
        <time>2019-06-16T07:28:47.000Z</time>
      </trkpt>
      <trkpt lat="47.28355" lon="-2.3536">
        <ele>11.39999961853</ele>
        <time>2019-06-16T07:28:48.000Z</time>
      </trkpt>
      <trkpt lat="47.28355" lon="-2.3536">
        <ele>11.39999961853</ele>
        <time>2019-06-16T07:28:49.000Z</time>
      </trkpt>
      <trkpt lat="47.28357" lon="-2.35363">
        <ele>11.39999961853</ele>
        <time>2019-06-16T07:28:51.000Z</time>
      </trkpt>
      <trkpt lat="47.28359" lon="-2.35367">
        <ele>11.39999961853</ele>
        <time>2019-06-16T07:28:53.000Z</time>
      </trkpt>
      <trkpt lat="47.28361" lon="-2.35372">
        <ele>11.800000190735</ele>
        <time>2019-06-16T07:28:55.000Z</time>
      </trkpt>
      <trkpt lat="47.28362" lon="-2.35374">
        <ele>12.199999809265</ele>
        <time>2019-06-16T07:28:56.000Z</time>
      </trkpt>
      <trkpt lat="47.28364" lon="-2.35377">
        <ele>12.60000038147</ele>
        <time>2019-06-16T07:28:57.000Z</time>
      </trkpt>
      <trkpt lat="47.28365" lon="-2.35379">
        <ele>13.199999809265</ele>
        <time>2019-06-16T07:28:58.000Z</time>
      </trkpt>
      <trkpt lat="47.28367" lon="-2.35382">
        <ele>13.60000038147</ele>
        <time>2019-06-16T07:28:59.000Z</time>
      </trkpt>
      <trkpt lat="47.28368" lon="-2.35384">
        <ele>14</ele>
        <time>2019-06-16T07:29:00.000Z</time>
      </trkpt>
      <trkpt lat="47.2837" lon="-2.35386">
        <ele>14.39999961853</ele>
        <time>2019-06-16T07:29:01.000Z</time>
      </trkpt>
      <trkpt lat="47.28372" lon="-2.35389">
        <ele>15</ele>
        <time>2019-06-16T07:29:02.000Z</time>
      </trkpt>
      <trkpt lat="47.28373" lon="-2.35391">
        <ele>15.39999961853</ele>
        <time>2019-06-16T07:29:03.000Z</time>
      </trkpt>
      <trkpt lat="47.28375" lon="-2.35394">
        <ele>16</ele>
        <time>2019-06-16T07:29:04.000Z</time>
      </trkpt>
      <trkpt lat="47.28378" lon="-2.35397">
        <ele>16.39999961853</ele>
        <time>2019-06-16T07:29:06.000Z</time>
      </trkpt>
      <trkpt lat="47.28379" lon="-2.35399">
        <ele>16.799999237061</ele>
        <time>2019-06-16T07:29:07.000Z</time>
      </trkpt>
      <trkpt lat="47.28381" lon="-2.354">
        <ele>17.200000762939</ele>
        <time>2019-06-16T07:29:08.000Z</time>
      </trkpt>
      <trkpt lat="47.28381" lon="-2.35403">
        <ele>17.60000038147</ele>
        <time>2019-06-16T07:29:09.000Z</time>
      </trkpt>
      <trkpt lat="47.28382" lon="-2.35404">
        <ele>18.200000762939</ele>
        <time>2019-06-16T07:29:10.000Z</time>
      </trkpt>
      <trkpt lat="47.28386" lon="-2.35413">
        <ele>18.60000038147</ele>
        <time>2019-06-16T07:29:13.000Z</time>
      </trkpt>
      <trkpt lat="47.28387" lon="-2.35414">
        <ele>19</ele>
        <time>2019-06-16T07:29:14.000Z</time>
      </trkpt>
      <trkpt lat="47.28388" lon="-2.35416">
        <ele>19.39999961853</ele>
        <time>2019-06-16T07:29:15.000Z</time>
      </trkpt>
      <trkpt lat="47.28388" lon="-2.35419">
        <ele>19.799999237061</ele>
        <time>2019-06-16T07:29:16.000Z</time>
      </trkpt>
      <trkpt lat="47.2839" lon="-2.35421">
        <ele>20.200000762939</ele>
        <time>2019-06-16T07:29:17.000Z</time>
      </trkpt>
      <trkpt lat="47.28393" lon="-2.35425">
        <ele>20.200000762939</ele>
        <time>2019-06-16T07:29:19.000Z</time>
      </trkpt>
      <trkpt lat="47.284" lon="-2.3543">
        <ele>20.200000762939</ele>
        <time>2019-06-16T07:29:22.000Z</time>
      </trkpt>
      <trkpt lat="47.28405" lon="-2.35426">
        <ele>20.200000762939</ele>
        <time>2019-06-16T07:29:24.000Z</time>
      </trkpt>
      <trkpt lat="47.28412" lon="-2.35421">
        <ele>20.200000762939</ele>
        <time>2019-06-16T07:29:28.000Z</time>
      </trkpt>
      <trkpt lat="47.28413" lon="-2.3542">
        <ele>20.200000762939</ele>
        <time>2019-06-16T07:29:29.000Z</time>
      </trkpt>
      <trkpt lat="47.28421" lon="-2.35413">
        <ele>20.200000762939</ele>
        <time>2019-06-16T07:29:35.000Z</time>
      </trkpt>
      <trkpt lat="47.28426" lon="-2.35411">
        <ele>20.200000762939</ele>
        <time>2019-06-16T07:29:38.000Z</time>
      </trkpt>
      <trkpt lat="47.28433" lon="-2.35412">
        <ele>20.200000762939</ele>
        <time>2019-06-16T07:29:40.000Z</time>
      </trkpt>
      <trkpt lat="47.28441" lon="-2.35405">
        <ele>20.200000762939</ele>
        <time>2019-06-16T07:29:43.000Z</time>
      </trkpt>
      <trkpt lat="47.28443" lon="-2.35402">
        <ele>20.200000762939</ele>
        <time>2019-06-16T07:29:44.000Z</time>
      </trkpt>
      <trkpt lat="47.28447" lon="-2.35387">
        <ele>19.799999237061</ele>
        <time>2019-06-16T07:29:47.000Z</time>
      </trkpt>
      <trkpt lat="47.28448" lon="-2.35383">
        <ele>19.39999961853</ele>
        <time>2019-06-16T07:29:48.000Z</time>
      </trkpt>
      <trkpt lat="47.28451" lon="-2.35376">
        <ele>18.60000038147</ele>
        <time>2019-06-16T07:29:49.000Z</time>
      </trkpt>
      <trkpt lat="47.28453" lon="-2.35369">
        <ele>18</ele>
        <time>2019-06-16T07:29:50.000Z</time>
      </trkpt>
      <trkpt lat="47.28455" lon="-2.35362">
        <ele>17.39999961853</ele>
        <time>2019-06-16T07:29:51.000Z</time>
      </trkpt>
      <trkpt lat="47.28455" lon="-2.35356">
        <ele>16.799999237061</ele>
        <time>2019-06-16T07:29:52.000Z</time>
      </trkpt>
      <trkpt lat="47.28456" lon="-2.35352">
        <ele>16.200000762939</ele>
        <time>2019-06-16T07:29:53.000Z</time>
      </trkpt>
      <trkpt lat="47.28458" lon="-2.35349">
        <ele>15.60000038147</ele>
        <time>2019-06-16T07:29:54.000Z</time>
      </trkpt>
      <trkpt lat="47.28461" lon="-2.35349">
        <ele>15</ele>
        <time>2019-06-16T07:29:55.000Z</time>
      </trkpt>
      <trkpt lat="47.28463" lon="-2.3535">
        <ele>14.199999809265</ele>
        <time>2019-06-16T07:29:56.000Z</time>
      </trkpt>
      <trkpt lat="47.28466" lon="-2.35353">
        <ele>13.60000038147</ele>
        <time>2019-06-16T07:29:57.000Z</time>
      </trkpt>
      <trkpt lat="47.28469" lon="-2.35357">
        <ele>13.60000038147</ele>
        <time>2019-06-16T07:29:58.000Z</time>
      </trkpt>
      <trkpt lat="47.28472" lon="-2.35362">
        <ele>13.60000038147</ele>
        <time>2019-06-16T07:29:59.000Z</time>
      </trkpt>
      <trkpt lat="47.28473" lon="-2.35367">
        <ele>13.60000038147</ele>
        <time>2019-06-16T07:30:00.000Z</time>
      </trkpt>
      <trkpt lat="47.28477" lon="-2.35389">
        <ele>13.60000038147</ele>
        <time>2019-06-16T07:30:03.000Z</time>
      </trkpt>
      <trkpt lat="47.28479" lon="-2.35395">
        <ele>13.60000038147</ele>
        <time>2019-06-16T07:30:04.000Z</time>
      </trkpt>
      <trkpt lat="47.28485" lon="-2.35417">
        <ele>13.60000038147</ele>
        <time>2019-06-16T07:30:08.000Z</time>
      </trkpt>
      <trkpt lat="47.28491" lon="-2.35422">
        <ele>13.60000038147</ele>
        <time>2019-06-16T07:30:11.000Z</time>
      </trkpt>
      <trkpt lat="47.28492" lon="-2.35422">
        <ele>13.60000038147</ele>
        <time>2019-06-16T07:30:12.000Z</time>
      </trkpt>
      <trkpt lat="47.28508" lon="-2.3542">
        <ele>13.60000038147</ele>
        <time>2019-06-16T07:30:18.000Z</time>
      </trkpt>
      <trkpt lat="47.28513" lon="-2.35421">
        <ele>13.60000038147</ele>
        <time>2019-06-16T07:30:19.000Z</time>
      </trkpt>
      <trkpt lat="47.28519" lon="-2.35429">
        <ele>13.60000038147</ele>
        <time>2019-06-16T07:30:21.000Z</time>
      </trkpt>
      <trkpt lat="47.28528" lon="-2.35435">
        <ele>13.60000038147</ele>
        <time>2019-06-16T07:30:24.000Z</time>
      </trkpt>
      <trkpt lat="47.28531" lon="-2.35433">
        <ele>13.60000038147</ele>
        <time>2019-06-16T07:30:25.000Z</time>
      </trkpt>
      <trkpt lat="47.28535" lon="-2.35431">
        <ele>13.60000038147</ele>
        <time>2019-06-16T07:30:29.000Z</time>
      </trkpt>
      <trkpt lat="47.28538" lon="-2.35428">
        <ele>13.60000038147</ele>
        <time>2019-06-16T07:30:31.000Z</time>
      </trkpt>
      <trkpt lat="47.28542" lon="-2.35425">
        <ele>13.60000038147</ele>
        <time>2019-06-16T07:30:45.000Z</time>
      </trkpt>
      <trkpt lat="47.28544" lon="-2.35424">
        <ele>13.60000038147</ele>
        <time>2019-06-16T07:30:46.000Z</time>
      </trkpt>
      <trkpt lat="47.28548" lon="-2.35419">
        <ele>13.60000038147</ele>
        <time>2019-06-16T07:30:51.000Z</time>
      </trkpt>
      <trkpt lat="47.28552" lon="-2.35424">
        <ele>13.60000038147</ele>
        <time>2019-06-16T07:30:59.000Z</time>
      </trkpt>
      <trkpt lat="47.28554" lon="-2.35427">
        <ele>13.60000038147</ele>
        <time>2019-06-16T07:31:00.000Z</time>
      </trkpt>
      <trkpt lat="47.28557" lon="-2.35438">
        <ele>13.60000038147</ele>
        <time>2019-06-16T07:31:05.000Z</time>
      </trkpt>
      <trkpt lat="47.28562" lon="-2.35453">
        <ele>13.60000038147</ele>
        <time>2019-06-16T07:31:09.000Z</time>
      </trkpt>
      <trkpt lat="47.28565" lon="-2.35477">
        <ele>13.60000038147</ele>
        <time>2019-06-16T07:31:14.000Z</time>
      </trkpt>
      <trkpt lat="47.28564" lon="-2.35482">
        <ele>13.60000038147</ele>
        <time>2019-06-16T07:31:16.000Z</time>
      </trkpt>
      <trkpt lat="47.2856" lon="-2.35485">
        <ele>13.60000038147</ele>
        <time>2019-06-16T07:31:18.000Z</time>
      </trkpt>
      <trkpt lat="47.28547" lon="-2.35485">
        <ele>13.60000038147</ele>
        <time>2019-06-16T07:31:24.000Z</time>
      </trkpt>
      <trkpt lat="47.28536" lon="-2.35486">
        <ele>13.60000038147</ele>
        <time>2019-06-16T07:31:29.000Z</time>
      </trkpt>
      <trkpt lat="47.28535" lon="-2.35488">
        <ele>13.60000038147</ele>
        <time>2019-06-16T07:31:30.000Z</time>
      </trkpt>
      <trkpt lat="47.28529" lon="-2.35499">
        <ele>14</ele>
        <time>2019-06-16T07:31:35.000Z</time>
      </trkpt>
      <trkpt lat="47.28528" lon="-2.35501">
        <ele>14.60000038147</ele>
        <time>2019-06-16T07:31:36.000Z</time>
      </trkpt>
      <trkpt lat="47.28527" lon="-2.35504">
        <ele>15</ele>
        <time>2019-06-16T07:31:37.000Z</time>
      </trkpt>
      <trkpt lat="47.28526" lon="-2.35509">
        <ele>15.39999961853</ele>
        <time>2019-06-16T07:31:38.000Z</time>
      </trkpt>
      <trkpt lat="47.28526" lon="-2.35513">
        <ele>15.800000190735</ele>
        <time>2019-06-16T07:31:39.000Z</time>
      </trkpt>
      <trkpt lat="47.28528" lon="-2.35519">
        <ele>15.800000190735</ele>
        <time>2019-06-16T07:31:41.000Z</time>
      </trkpt>
      <trkpt lat="47.28529" lon="-2.35523">
        <ele>16.200000762939</ele>
        <time>2019-06-16T07:31:42.000Z</time>
      </trkpt>
      <trkpt lat="47.2853" lon="-2.35527">
        <ele>16.60000038147</ele>
        <time>2019-06-16T07:31:43.000Z</time>
      </trkpt>
      <trkpt lat="47.2853" lon="-2.35531">
        <ele>17</ele>
        <time>2019-06-16T07:31:44.000Z</time>
      </trkpt>
      <trkpt lat="47.2853" lon="-2.35537">
        <ele>17.60000038147</ele>
        <time>2019-06-16T07:31:45.000Z</time>
      </trkpt>
      <trkpt lat="47.2853" lon="-2.35541">
        <ele>18</ele>
        <time>2019-06-16T07:31:46.000Z</time>
      </trkpt>
      <trkpt lat="47.2853" lon="-2.3555">
        <ele>18</ele>
        <time>2019-06-16T07:31:48.000Z</time>
      </trkpt>
      <trkpt lat="47.28529" lon="-2.35557">
        <ele>18</ele>
        <time>2019-06-16T07:31:50.000Z</time>
      </trkpt>
      <trkpt lat="47.28529" lon="-2.35569">
        <ele>18.39999961853</ele>
        <time>2019-06-16T07:31:53.000Z</time>
      </trkpt>
      <trkpt lat="47.28528" lon="-2.35572">
        <ele>18.799999237061</ele>
        <time>2019-06-16T07:31:54.000Z</time>
      </trkpt>
      <trkpt lat="47.28527" lon="-2.35575">
        <ele>19.39999961853</ele>
        <time>2019-06-16T07:31:55.000Z</time>
      </trkpt>
      <trkpt lat="47.28526" lon="-2.35578">
        <ele>19.799999237061</ele>
        <time>2019-06-16T07:31:56.000Z</time>
      </trkpt>
      <trkpt lat="47.28525" lon="-2.3558">
        <ele>20.200000762939</ele>
        <time>2019-06-16T07:31:57.000Z</time>
      </trkpt>
      <trkpt lat="47.28523" lon="-2.35595">
        <ele>20.60000038147</ele>
        <time>2019-06-16T07:32:02.000Z</time>
      </trkpt>
      <trkpt lat="47.28522" lon="-2.35598">
        <ele>21</ele>
        <time>2019-06-16T07:32:03.000Z</time>
      </trkpt>
      <trkpt lat="47.28521" lon="-2.356">
        <ele>21.39999961853</ele>
        <time>2019-06-16T07:32:04.000Z</time>
      </trkpt>
      <trkpt lat="47.2852" lon="-2.35602">
        <ele>22</ele>
        <time>2019-06-16T07:32:05.000Z</time>
      </trkpt>
      <trkpt lat="47.28518" lon="-2.35603">
        <ele>22.39999961853</ele>
        <time>2019-06-16T07:32:06.000Z</time>
      </trkpt>
      <trkpt lat="47.28509" lon="-2.35604">
        <ele>22.39999961853</ele>
        <time>2019-06-16T07:32:10.000Z</time>
      </trkpt>
      <trkpt lat="47.28506" lon="-2.35602">
        <ele>22.799999237061</ele>
        <time>2019-06-16T07:32:12.000Z</time>
      </trkpt>
      <trkpt lat="47.28505" lon="-2.35601">
        <ele>23.200000762939</ele>
        <time>2019-06-16T07:32:13.000Z</time>
      </trkpt>
      <trkpt lat="47.28503" lon="-2.35598">
        <ele>23.60000038147</ele>
        <time>2019-06-16T07:32:14.000Z</time>
      </trkpt>
      <trkpt lat="47.28502" lon="-2.35595">
        <ele>24</ele>
        <time>2019-06-16T07:32:15.000Z</time>
      </trkpt>
      <trkpt lat="47.28501" lon="-2.35592">
        <ele>24.39999961853</ele>
        <time>2019-06-16T07:32:16.000Z</time>
      </trkpt>
      <trkpt lat="47.28498" lon="-2.35577">
        <ele>24.799999237061</ele>
        <time>2019-06-16T07:32:21.000Z</time>
      </trkpt>
      <trkpt lat="47.28496" lon="-2.35574">
        <ele>25.200000762939</ele>
        <time>2019-06-16T07:32:22.000Z</time>
      </trkpt>
      <trkpt lat="47.28496" lon="-2.3557">
        <ele>25.799999237061</ele>
        <time>2019-06-16T07:32:23.000Z</time>
      </trkpt>
      <trkpt lat="47.28493" lon="-2.35567">
        <ele>26.200000762939</ele>
        <time>2019-06-16T07:32:24.000Z</time>
      </trkpt>
      <trkpt lat="47.28492" lon="-2.35564">
        <ele>26.60000038147</ele>
        <time>2019-06-16T07:32:25.000Z</time>
      </trkpt>
      <trkpt lat="47.28488" lon="-2.35558">
        <ele>26.60000038147</ele>
        <time>2019-06-16T07:32:27.000Z</time>
      </trkpt>
      <trkpt lat="47.28486" lon="-2.35552">
        <ele>26.60000038147</ele>
        <time>2019-06-16T07:32:29.000Z</time>
      </trkpt>
      <trkpt lat="47.28483" lon="-2.35532">
        <ele>26.60000038147</ele>
        <time>2019-06-16T07:32:34.000Z</time>
      </trkpt>
      <trkpt lat="47.28478" lon="-2.35514">
        <ele>26.60000038147</ele>
        <time>2019-06-16T07:32:40.000Z</time>
      </trkpt>
      <trkpt lat="47.28464" lon="-2.35499">
        <ele>26.60000038147</ele>
        <time>2019-06-16T07:32:46.000Z</time>
      </trkpt>
      <trkpt lat="47.28453" lon="-2.35472">
        <ele>26</ele>
        <time>2019-06-16T07:32:51.000Z</time>
      </trkpt>
      <trkpt lat="47.2845" lon="-2.35466">
        <ele>25.60000038147</ele>
        <time>2019-06-16T07:32:52.000Z</time>
      </trkpt>
      <trkpt lat="47.28448" lon="-2.35462">
        <ele>25.200000762939</ele>
        <time>2019-06-16T07:32:53.000Z</time>
      </trkpt>
      <trkpt lat="47.28444" lon="-2.35455">
        <ele>24.60000038147</ele>
        <time>2019-06-16T07:32:54.000Z</time>
      </trkpt>
      <trkpt lat="47.28441" lon="-2.35453">
        <ele>23.799999237061</ele>
        <time>2019-06-16T07:32:55.000Z</time>
      </trkpt>
      <trkpt lat="47.28436" lon="-2.35449">
        <ele>23.200000762939</ele>
        <time>2019-06-16T07:32:56.000Z</time>
      </trkpt>
      <trkpt lat="47.28432" lon="-2.35451">
        <ele>22.60000038147</ele>
        <time>2019-06-16T07:32:57.000Z</time>
      </trkpt>
      <trkpt lat="47.28429" lon="-2.35454">
        <ele>22</ele>
        <time>2019-06-16T07:32:58.000Z</time>
      </trkpt>
      <trkpt lat="47.28427" lon="-2.35458">
        <ele>21.60000038147</ele>
        <time>2019-06-16T07:32:59.000Z</time>
      </trkpt>
      <trkpt lat="47.28425" lon="-2.35462">
        <ele>21.200000762939</ele>
        <time>2019-06-16T07:33:00.000Z</time>
      </trkpt>
      <trkpt lat="47.28423" lon="-2.35467">
        <ele>20.799999237061</ele>
        <time>2019-06-16T07:33:01.000Z</time>
      </trkpt>
      <trkpt lat="47.2842" lon="-2.35472">
        <ele>20.39999961853</ele>
        <time>2019-06-16T07:33:02.000Z</time>
      </trkpt>
      <trkpt lat="47.28418" lon="-2.35477">
        <ele>20</ele>
        <time>2019-06-16T07:33:03.000Z</time>
      </trkpt>
      <trkpt lat="47.28415" lon="-2.35483">
        <ele>20</ele>
        <time>2019-06-16T07:33:04.000Z</time>
      </trkpt>
      <trkpt lat="47.28413" lon="-2.3549">
        <ele>19.39999961853</ele>
        <time>2019-06-16T07:33:05.000Z</time>
      </trkpt>
      <trkpt lat="47.28411" lon="-2.35497">
        <ele>18.60000038147</ele>
        <time>2019-06-16T07:33:06.000Z</time>
      </trkpt>
      <trkpt lat="47.28409" lon="-2.35505">
        <ele>18.200000762939</ele>
        <time>2019-06-16T07:33:07.000Z</time>
      </trkpt>
      <trkpt lat="47.28408" lon="-2.35512">
        <ele>17.799999237061</ele>
        <time>2019-06-16T07:33:08.000Z</time>
      </trkpt>
      <trkpt lat="47.28408" lon="-2.35526">
        <ele>17.799999237061</ele>
        <time>2019-06-16T07:33:10.000Z</time>
      </trkpt>
      <trkpt lat="47.28411" lon="-2.3554">
        <ele>17.799999237061</ele>
        <time>2019-06-16T07:33:12.000Z</time>
      </trkpt>
      <trkpt lat="47.28413" lon="-2.35546">
        <ele>17.39999961853</ele>
        <time>2019-06-16T07:33:13.000Z</time>
      </trkpt>
      <trkpt lat="47.28415" lon="-2.35552">
        <ele>17</ele>
        <time>2019-06-16T07:33:14.000Z</time>
      </trkpt>
      <trkpt lat="47.28417" lon="-2.35557">
        <ele>16.60000038147</ele>
        <time>2019-06-16T07:33:15.000Z</time>
      </trkpt>
      <trkpt lat="47.28419" lon="-2.35563">
        <ele>16.200000762939</ele>
        <time>2019-06-16T07:33:16.000Z</time>
      </trkpt>
      <trkpt lat="47.28422" lon="-2.35568">
        <ele>15.800000190735</ele>
        <time>2019-06-16T07:33:17.000Z</time>
      </trkpt>
      <trkpt lat="47.2843" lon="-2.35584">
        <ele>15.800000190735</ele>
        <time>2019-06-16T07:33:20.000Z</time>
      </trkpt>
      <trkpt lat="47.2844" lon="-2.35601">
        <ele>15.800000190735</ele>
        <time>2019-06-16T07:33:24.000Z</time>
      </trkpt>
      <trkpt lat="47.28442" lon="-2.35618">
        <ele>15.800000190735</ele>
        <time>2019-06-16T07:33:27.000Z</time>
      </trkpt>
      <trkpt lat="47.2844" lon="-2.35623">
        <ele>15.800000190735</ele>
        <time>2019-06-16T07:33:28.000Z</time>
      </trkpt>
      <trkpt lat="47.28433" lon="-2.3565">
        <ele>15.800000190735</ele>
        <time>2019-06-16T07:33:33.000Z</time>
      </trkpt>
      <trkpt lat="47.2843" lon="-2.35656">
        <ele>15.800000190735</ele>
        <time>2019-06-16T07:33:34.000Z</time>
      </trkpt>
      <trkpt lat="47.28417" lon="-2.35685">
        <ele>15.800000190735</ele>
        <time>2019-06-16T07:33:39.000Z</time>
      </trkpt>
      <trkpt lat="47.28416" lon="-2.357">
        <ele>15.800000190735</ele>
        <time>2019-06-16T07:33:42.000Z</time>
      </trkpt>
      <trkpt lat="47.28424" lon="-2.35716">
        <ele>15.800000190735</ele>
        <time>2019-06-16T07:33:46.000Z</time>
      </trkpt>
      <trkpt lat="47.2844" lon="-2.35741">
        <ele>15.800000190735</ele>
        <time>2019-06-16T07:33:52.000Z</time>
      </trkpt>
      <trkpt lat="47.28444" lon="-2.35745">
        <ele>15.800000190735</ele>
        <time>2019-06-16T07:33:53.000Z</time>
      </trkpt>
      <trkpt lat="47.28452" lon="-2.3575">
        <ele>15.800000190735</ele>
        <time>2019-06-16T07:33:55.000Z</time>
      </trkpt>
      <trkpt lat="47.28468" lon="-2.35746">
        <ele>15.800000190735</ele>
        <time>2019-06-16T07:33:59.000Z</time>
      </trkpt>
      <trkpt lat="47.28479" lon="-2.35731">
        <ele>15.800000190735</ele>
        <time>2019-06-16T07:34:03.000Z</time>
      </trkpt>
      <trkpt lat="47.28494" lon="-2.35713">
        <ele>15.800000190735</ele>
        <time>2019-06-16T07:34:08.000Z</time>
      </trkpt>
      <trkpt lat="47.28504" lon="-2.35707">
        <ele>15.800000190735</ele>
        <time>2019-06-16T07:34:11.000Z</time>
      </trkpt>
      <trkpt lat="47.28507" lon="-2.35707">
        <ele>15.800000190735</ele>
        <time>2019-06-16T07:34:12.000Z</time>
      </trkpt>
      <trkpt lat="47.28517" lon="-2.35717">
        <ele>15.800000190735</ele>
        <time>2019-06-16T07:34:15.000Z</time>
      </trkpt>
      <trkpt lat="47.2852" lon="-2.35722">
        <ele>15.800000190735</ele>
        <time>2019-06-16T07:34:16.000Z</time>
      </trkpt>
      <trkpt lat="47.28536" lon="-2.35752">
        <ele>15.800000190735</ele>
        <time>2019-06-16T07:34:22.000Z</time>
      </trkpt>
      <trkpt lat="47.28539" lon="-2.35774">
        <ele>15.800000190735</ele>
        <time>2019-06-16T07:34:26.000Z</time>
      </trkpt>
      <trkpt lat="47.28545" lon="-2.35804">
        <ele>15.800000190735</ele>
        <time>2019-06-16T07:34:32.000Z</time>
      </trkpt>
      <trkpt lat="47.28551" lon="-2.35814">
        <ele>16.200000762939</ele>
        <time>2019-06-16T07:34:35.000Z</time>
      </trkpt>
      <trkpt lat="47.28552" lon="-2.35817">
        <ele>16.60000038147</ele>
        <time>2019-06-16T07:34:36.000Z</time>
      </trkpt>
      <trkpt lat="47.28554" lon="-2.35821">
        <ele>17</ele>
        <time>2019-06-16T07:34:37.000Z</time>
      </trkpt>
      <trkpt lat="47.28556" lon="-2.35826">
        <ele>17.39999961853</ele>
        <time>2019-06-16T07:34:38.000Z</time>
      </trkpt>
      <trkpt lat="47.28558" lon="-2.35831">
        <ele>17.799999237061</ele>
        <time>2019-06-16T07:34:39.000Z</time>
      </trkpt>
      <trkpt lat="47.28562" lon="-2.35843">
        <ele>17.799999237061</ele>
        <time>2019-06-16T07:34:41.000Z</time>
      </trkpt>
      <trkpt lat="47.28573" lon="-2.35878">
        <ele>17.799999237061</ele>
        <time>2019-06-16T07:34:47.000Z</time>
      </trkpt>
      <trkpt lat="47.28586" lon="-2.35908">
        <ele>18.200000762939</ele>
        <time>2019-06-16T07:34:53.000Z</time>
      </trkpt>
      <trkpt lat="47.28587" lon="-2.35913">
        <ele>18.60000038147</ele>
        <time>2019-06-16T07:34:54.000Z</time>
      </trkpt>
      <trkpt lat="47.28587" lon="-2.35918">
        <ele>19</ele>
        <time>2019-06-16T07:34:55.000Z</time>
      </trkpt>
      <trkpt lat="47.28586" lon="-2.3592">
        <ele>19.39999961853</ele>
        <time>2019-06-16T07:34:56.000Z</time>
      </trkpt>
      <trkpt lat="47.28583" lon="-2.3592">
        <ele>19.799999237061</ele>
        <time>2019-06-16T07:34:57.000Z</time>
      </trkpt>
      <trkpt lat="47.28578" lon="-2.35918">
        <ele>19.799999237061</ele>
        <time>2019-06-16T07:34:59.000Z</time>
      </trkpt>
      <trkpt lat="47.28575" lon="-2.35911">
        <ele>19.799999237061</ele>
        <time>2019-06-16T07:35:02.000Z</time>
      </trkpt>
      <trkpt lat="47.28573" lon="-2.35902">
        <ele>19.799999237061</ele>
        <time>2019-06-16T07:35:05.000Z</time>
      </trkpt>
      <trkpt lat="47.2857" lon="-2.359">
        <ele>19.799999237061</ele>
        <time>2019-06-16T07:35:06.000Z</time>
      </trkpt>
      <trkpt lat="47.28565" lon="-2.35898">
        <ele>20.200000762939</ele>
        <time>2019-06-16T07:35:08.000Z</time>
      </trkpt>
      <trkpt lat="47.28562" lon="-2.35898">
        <ele>20.60000038147</ele>
        <time>2019-06-16T07:35:09.000Z</time>
      </trkpt>
      <trkpt lat="47.28559" lon="-2.35897">
        <ele>21</ele>
        <time>2019-06-16T07:35:10.000Z</time>
      </trkpt>
      <trkpt lat="47.28555" lon="-2.35898">
        <ele>21.799999237061</ele>
        <time>2019-06-16T07:35:11.000Z</time>
      </trkpt>
      <trkpt lat="47.28553" lon="-2.35899">
        <ele>21.799999237061</ele>
        <time>2019-06-16T07:35:12.000Z</time>
      </trkpt>
      <trkpt lat="47.28551" lon="-2.35901">
        <ele>21.799999237061</ele>
        <time>2019-06-16T07:35:13.000Z</time>
      </trkpt>
      <trkpt lat="47.28549" lon="-2.35909">
        <ele>21.799999237061</ele>
        <time>2019-06-16T07:35:16.000Z</time>
      </trkpt>
      <trkpt lat="47.28548" lon="-2.35912">
        <ele>22.39999961853</ele>
        <time>2019-06-16T07:35:17.000Z</time>
      </trkpt>
      <trkpt lat="47.28547" lon="-2.35915">
        <ele>22.799999237061</ele>
        <time>2019-06-16T07:35:18.000Z</time>
      </trkpt>
      <trkpt lat="47.28546" lon="-2.35918">
        <ele>23.200000762939</ele>
        <time>2019-06-16T07:35:19.000Z</time>
      </trkpt>
      <trkpt lat="47.28545" lon="-2.3592">
        <ele>23.799999237061</ele>
        <time>2019-06-16T07:35:20.000Z</time>
      </trkpt>
      <trkpt lat="47.28545" lon="-2.35923">
        <ele>24.200000762939</ele>
        <time>2019-06-16T07:35:21.000Z</time>
      </trkpt>
      <trkpt lat="47.28544" lon="-2.35927">
        <ele>24.60000038147</ele>
        <time>2019-06-16T07:35:22.000Z</time>
      </trkpt>
      <trkpt lat="47.28543" lon="-2.3593">
        <ele>25</ele>
        <time>2019-06-16T07:35:23.000Z</time>
      </trkpt>
      <trkpt lat="47.28541" lon="-2.35932">
        <ele>25.60000038147</ele>
        <time>2019-06-16T07:35:24.000Z</time>
      </trkpt>
      <trkpt lat="47.28539" lon="-2.35934">
        <ele>26</ele>
        <time>2019-06-16T07:35:25.000Z</time>
      </trkpt>
      <trkpt lat="47.28536" lon="-2.35935">
        <ele>26.39999961853</ele>
        <time>2019-06-16T07:35:26.000Z</time>
      </trkpt>
      <trkpt lat="47.28529" lon="-2.35937">
        <ele>26.39999961853</ele>
        <time>2019-06-16T07:35:29.000Z</time>
      </trkpt>
      <trkpt lat="47.28514" lon="-2.35939">
        <ele>26.39999961853</ele>
        <time>2019-06-16T07:35:33.000Z</time>
      </trkpt>
      <trkpt lat="47.28503" lon="-2.35941">
        <ele>26.39999961853</ele>
        <time>2019-06-16T07:35:36.000Z</time>
      </trkpt>
      <trkpt lat="47.28494" lon="-2.35946">
        <ele>26.39999961853</ele>
        <time>2019-06-16T07:35:38.000Z</time>
      </trkpt>
      <trkpt lat="47.28486" lon="-2.35953">
        <ele>26.39999961853</ele>
        <time>2019-06-16T07:35:40.000Z</time>
      </trkpt>
      <trkpt lat="47.28475" lon="-2.35965">
        <ele>26.39999961853</ele>
        <time>2019-06-16T07:35:43.000Z</time>
      </trkpt>
      <trkpt lat="47.28462" lon="-2.35977">
        <ele>26.39999961853</ele>
        <time>2019-06-16T07:35:48.000Z</time>
      </trkpt>
      <trkpt lat="47.28445" lon="-2.35987">
        <ele>26.39999961853</ele>
        <time>2019-06-16T07:35:53.000Z</time>
      </trkpt>
      <trkpt lat="47.28427" lon="-2.35999">
        <ele>26.39999961853</ele>
        <time>2019-06-16T07:35:59.000Z</time>
      </trkpt>
      <trkpt lat="47.28414" lon="-2.36013">
        <ele>26.39999961853</ele>
        <time>2019-06-16T07:36:05.000Z</time>
      </trkpt>
      <trkpt lat="47.28413" lon="-2.36014">
        <ele>26.39999961853</ele>
        <time>2019-06-16T07:36:07.000Z</time>
      </trkpt>
      <trkpt lat="47.2841" lon="-2.36015">
        <ele>26.39999961853</ele>
        <time>2019-06-16T07:36:11.000Z</time>
      </trkpt>
      <trkpt lat="47.28409" lon="-2.36016">
        <ele>26.39999961853</ele>
        <time>2019-06-16T07:36:12.000Z</time>
      </trkpt>
      <trkpt lat="47.28394" lon="-2.36015">
        <ele>26.39999961853</ele>
        <time>2019-06-16T07:36:19.000Z</time>
      </trkpt>
      <trkpt lat="47.28389" lon="-2.36015">
        <ele>26.39999961853</ele>
        <time>2019-06-16T07:36:20.000Z</time>
      </trkpt>
      <trkpt lat="47.28373" lon="-2.36015">
        <ele>26.39999961853</ele>
        <time>2019-06-16T07:36:23.000Z</time>
      </trkpt>
      <trkpt lat="47.28366" lon="-2.36016">
        <ele>26</ele>
        <time>2019-06-16T07:36:24.000Z</time>
      </trkpt>
      <trkpt lat="47.2836" lon="-2.36018">
        <ele>25</ele>
        <time>2019-06-16T07:36:25.000Z</time>
      </trkpt>
      <trkpt lat="47.28353" lon="-2.36022">
        <ele>24.60000038147</ele>
        <time>2019-06-16T07:36:26.000Z</time>
      </trkpt>
      <trkpt lat="47.28347" lon="-2.36026">
        <ele>24</ele>
        <time>2019-06-16T07:36:27.000Z</time>
      </trkpt>
      <trkpt lat="47.28341" lon="-2.36031">
        <ele>23.39999961853</ele>
        <time>2019-06-16T07:36:28.000Z</time>
      </trkpt>
      <trkpt lat="47.28336" lon="-2.36036">
        <ele>22.799999237061</ele>
        <time>2019-06-16T07:36:29.000Z</time>
      </trkpt>
      <trkpt lat="47.28331" lon="-2.36041">
        <ele>22.200000762939</ele>
        <time>2019-06-16T07:36:30.000Z</time>
      </trkpt>
      <trkpt lat="47.28326" lon="-2.36044">
        <ele>21.60000038147</ele>
        <time>2019-06-16T07:36:31.000Z</time>
      </trkpt>
      <trkpt lat="47.28306" lon="-2.36043">
        <ele>21.60000038147</ele>
        <time>2019-06-16T07:36:35.000Z</time>
      </trkpt>
      <trkpt lat="47.28296" lon="-2.36041">
        <ele>21</ele>
        <time>2019-06-16T07:36:37.000Z</time>
      </trkpt>
      <trkpt lat="47.28292" lon="-2.36038">
        <ele>20.60000038147</ele>
        <time>2019-06-16T07:36:38.000Z</time>
      </trkpt>
      <trkpt lat="47.28288" lon="-2.36035">
        <ele>20.200000762939</ele>
        <time>2019-06-16T07:36:39.000Z</time>
      </trkpt>
      <trkpt lat="47.28284" lon="-2.36031">
        <ele>19.60000038147</ele>
        <time>2019-06-16T07:36:40.000Z</time>
      </trkpt>
      <trkpt lat="47.28281" lon="-2.36026">
        <ele>19</ele>
        <time>2019-06-16T07:36:41.000Z</time>
      </trkpt>
      <trkpt lat="47.28278" lon="-2.36021">
        <ele>18.39999961853</ele>
        <time>2019-06-16T07:36:42.000Z</time>
      </trkpt>
      <trkpt lat="47.28276" lon="-2.36017">
        <ele>17.60000038147</ele>
        <time>2019-06-16T07:36:43.000Z</time>
      </trkpt>
      <trkpt lat="47.28275" lon="-2.36011">
        <ele>17</ele>
        <time>2019-06-16T07:36:44.000Z</time>
      </trkpt>
      <trkpt lat="47.28274" lon="-2.36005">
        <ele>16.200000762939</ele>
        <time>2019-06-16T07:36:45.000Z</time>
      </trkpt>
      <trkpt lat="47.28275" lon="-2.35999">
        <ele>15.39999961853</ele>
        <time>2019-06-16T07:36:46.000Z</time>
      </trkpt>
      <trkpt lat="47.28277" lon="-2.35993">
        <ele>14.60000038147</ele>
        <time>2019-06-16T07:36:47.000Z</time>
      </trkpt>
      <trkpt lat="47.28277" lon="-2.35987">
        <ele>14</ele>
        <time>2019-06-16T07:36:48.000Z</time>
      </trkpt>
      <trkpt lat="47.28277" lon="-2.35982">
        <ele>13.39999961853</ele>
        <time>2019-06-16T07:36:49.000Z</time>
      </trkpt>
      <trkpt lat="47.28276" lon="-2.35977">
        <ele>12.199999809265</ele>
        <time>2019-06-16T07:36:50.000Z</time>
      </trkpt>
      <trkpt lat="47.28275" lon="-2.35973">
        <ele>11.39999961853</ele>
        <time>2019-06-16T07:36:51.000Z</time>
      </trkpt>
      <trkpt lat="47.28273" lon="-2.35968">
        <ele>11.39999961853</ele>
        <time>2019-06-16T07:36:52.000Z</time>
      </trkpt>
      <trkpt lat="47.28265" lon="-2.35945">
        <ele>11.39999961853</ele>
        <time>2019-06-16T07:36:58.000Z</time>
      </trkpt>
      <trkpt lat="47.28261" lon="-2.35936">
        <ele>11.800000190735</ele>
        <time>2019-06-16T07:37:01.000Z</time>
      </trkpt>
      <trkpt lat="47.2826" lon="-2.35932">
        <ele>12.39999961853</ele>
        <time>2019-06-16T07:37:02.000Z</time>
      </trkpt>
      <trkpt lat="47.28258" lon="-2.35929">
        <ele>12.800000190735</ele>
        <time>2019-06-16T07:37:03.000Z</time>
      </trkpt>
      <trkpt lat="47.28255" lon="-2.35926">
        <ele>13.199999809265</ele>
        <time>2019-06-16T07:37:04.000Z</time>
      </trkpt>
      <trkpt lat="47.2825" lon="-2.35923">
        <ele>13.60000038147</ele>
        <time>2019-06-16T07:37:05.000Z</time>
      </trkpt>
      <trkpt lat="47.28243" lon="-2.35918">
        <ele>13.60000038147</ele>
        <time>2019-06-16T07:37:07.000Z</time>
      </trkpt>
      <trkpt lat="47.28228" lon="-2.35907">
        <ele>13.60000038147</ele>
        <time>2019-06-16T07:37:11.000Z</time>
      </trkpt>
      <trkpt lat="47.28215" lon="-2.35913">
        <ele>13.60000038147</ele>
        <time>2019-06-16T07:37:14.000Z</time>
      </trkpt>
      <trkpt lat="47.28212" lon="-2.35919">
        <ele>13.199999809265</ele>
        <time>2019-06-16T07:37:15.000Z</time>
      </trkpt>
      <trkpt lat="47.28209" lon="-2.35924">
        <ele>12.800000190735</ele>
        <time>2019-06-16T07:37:16.000Z</time>
      </trkpt>
      <trkpt lat="47.28207" lon="-2.3593">
        <ele>12.199999809265</ele>
        <time>2019-06-16T07:37:17.000Z</time>
      </trkpt>
      <trkpt lat="47.28204" lon="-2.35936">
        <ele>11.800000190735</ele>
        <time>2019-06-16T07:37:18.000Z</time>
      </trkpt>
      <trkpt lat="47.28199" lon="-2.35939">
        <ele>11.39999961853</ele>
        <time>2019-06-16T07:37:19.000Z</time>
      </trkpt>
      <trkpt lat="47.28195" lon="-2.35942">
        <ele>11.39999961853</ele>
        <time>2019-06-16T07:37:20.000Z</time>
      </trkpt>
      <trkpt lat="47.28191" lon="-2.35944">
        <ele>11.39999961853</ele>
        <time>2019-06-16T07:37:21.000Z</time>
      </trkpt>
      <trkpt lat="47.28187" lon="-2.35949">
        <ele>11.39999961853</ele>
        <time>2019-06-16T07:37:22.000Z</time>
      </trkpt>
      <trkpt lat="47.28184" lon="-2.3596">
        <ele>11.39999961853</ele>
        <time>2019-06-16T07:37:24.000Z</time>
      </trkpt>
      <trkpt lat="47.28185" lon="-2.35966">
        <ele>11</ele>
        <time>2019-06-16T07:37:25.000Z</time>
      </trkpt>
      <trkpt lat="47.28186" lon="-2.35972">
        <ele>10.60000038147</ele>
        <time>2019-06-16T07:37:26.000Z</time>
      </trkpt>
      <trkpt lat="47.28187" lon="-2.35978">
        <ele>10.199999809265</ele>
        <time>2019-06-16T07:37:27.000Z</time>
      </trkpt>
      <trkpt lat="47.28189" lon="-2.35985">
        <ele>9.8000001907349</ele>
        <time>2019-06-16T07:37:28.000Z</time>
      </trkpt>
      <trkpt lat="47.28191" lon="-2.35993">
        <ele>9.3999996185303</ele>
        <time>2019-06-16T07:37:29.000Z</time>
      </trkpt>
      <trkpt lat="47.28198" lon="-2.36022">
        <ele>9.3999996185303</ele>
        <time>2019-06-16T07:37:33.000Z</time>
      </trkpt>
      <trkpt lat="47.28211" lon="-2.36057">
        <ele>9.3999996185303</ele>
        <time>2019-06-16T07:37:39.000Z</time>
      </trkpt>
      <trkpt lat="47.28213" lon="-2.36063">
        <ele>9.3999996185303</ele>
        <time>2019-06-16T07:37:40.000Z</time>
      </trkpt>
      <trkpt lat="47.28219" lon="-2.36088">
        <ele>9.3999996185303</ele>
        <time>2019-06-16T07:37:44.000Z</time>
      </trkpt>
      <trkpt lat="47.28227" lon="-2.36117">
        <ele>9.3999996185303</ele>
        <time>2019-06-16T07:37:49.000Z</time>
      </trkpt>
      <trkpt lat="47.28229" lon="-2.36124">
        <ele>9.3999996185303</ele>
        <time>2019-06-16T07:37:50.000Z</time>
      </trkpt>
      <trkpt lat="47.28237" lon="-2.36143">
        <ele>9.3999996185303</ele>
        <time>2019-06-16T07:37:53.000Z</time>
      </trkpt>
      <trkpt lat="47.28241" lon="-2.3615">
        <ele>9.3999996185303</ele>
        <time>2019-06-16T07:37:54.000Z</time>
      </trkpt>
      <trkpt lat="47.28254" lon="-2.36177">
        <ele>9.3999996185303</ele>
        <time>2019-06-16T07:37:58.000Z</time>
      </trkpt>
      <trkpt lat="47.28263" lon="-2.36196">
        <ele>9.3999996185303</ele>
        <time>2019-06-16T07:38:01.000Z</time>
      </trkpt>
      <trkpt lat="47.28267" lon="-2.36207">
        <ele>9.3999996185303</ele>
        <time>2019-06-16T07:38:03.000Z</time>
      </trkpt>
      <trkpt lat="47.28272" lon="-2.36218">
        <ele>9.3999996185303</ele>
        <time>2019-06-16T07:38:05.000Z</time>
      </trkpt>
      <trkpt lat="47.28277" lon="-2.36229">
        <ele>9.3999996185303</ele>
        <time>2019-06-16T07:38:07.000Z</time>
      </trkpt>
      <trkpt lat="47.2828" lon="-2.36234">
        <ele>9.3999996185303</ele>
        <time>2019-06-16T07:38:08.000Z</time>
      </trkpt>
      <trkpt lat="47.28292" lon="-2.36239">
        <ele>9.3999996185303</ele>
        <time>2019-06-16T07:38:11.000Z</time>
      </trkpt>
      <trkpt lat="47.28296" lon="-2.36239">
        <ele>9.3999996185303</ele>
        <time>2019-06-16T07:38:12.000Z</time>
      </trkpt>
      <trkpt lat="47.28304" lon="-2.36241">
        <ele>9.3999996185303</ele>
        <time>2019-06-16T07:38:14.000Z</time>
      </trkpt>
      <trkpt lat="47.28316" lon="-2.36247">
        <ele>9.3999996185303</ele>
        <time>2019-06-16T07:38:17.000Z</time>
      </trkpt>
      <trkpt lat="47.28331" lon="-2.36256">
        <ele>9.3999996185303</ele>
        <time>2019-06-16T07:38:22.000Z</time>
      </trkpt>
      <trkpt lat="47.28341" lon="-2.36259">
        <ele>9.3999996185303</ele>
        <time>2019-06-16T07:38:25.000Z</time>
      </trkpt>
      <trkpt lat="47.28348" lon="-2.36265">
        <ele>9.3999996185303</ele>
        <time>2019-06-16T07:38:28.000Z</time>
      </trkpt>
      <trkpt lat="47.28349" lon="-2.36268">
        <ele>9.3999996185303</ele>
        <time>2019-06-16T07:38:29.000Z</time>
      </trkpt>
      <trkpt lat="47.28349" lon="-2.36272">
        <ele>9.8000001907349</ele>
        <time>2019-06-16T07:38:30.000Z</time>
      </trkpt>
      <trkpt lat="47.28348" lon="-2.36275">
        <ele>10.199999809265</ele>
        <time>2019-06-16T07:38:31.000Z</time>
      </trkpt>
      <trkpt lat="47.28348" lon="-2.36279">
        <ele>10.60000038147</ele>
        <time>2019-06-16T07:38:32.000Z</time>
      </trkpt>
      <trkpt lat="47.28347" lon="-2.36283">
        <ele>11</ele>
        <time>2019-06-16T07:38:33.000Z</time>
      </trkpt>
      <trkpt lat="47.28347" lon="-2.36286">
        <ele>11.39999961853</ele>
        <time>2019-06-16T07:38:34.000Z</time>
      </trkpt>
      <trkpt lat="47.28349" lon="-2.36292">
        <ele>11.39999961853</ele>
        <time>2019-06-16T07:38:36.000Z</time>
      </trkpt>
      <trkpt lat="47.28353" lon="-2.36299">
        <ele>11.39999961853</ele>
        <time>2019-06-16T07:38:38.000Z</time>
      </trkpt>
      <trkpt lat="47.28356" lon="-2.36302">
        <ele>11.39999961853</ele>
        <time>2019-06-16T07:38:40.000Z</time>
      </trkpt>
      <trkpt lat="47.28364" lon="-2.36306">
        <ele>11.39999961853</ele>
        <time>2019-06-16T07:38:44.000Z</time>
      </trkpt>
      <trkpt lat="47.28366" lon="-2.36309">
        <ele>11.39999961853</ele>
        <time>2019-06-16T07:38:45.000Z</time>
      </trkpt>
      <trkpt lat="47.28369" lon="-2.36312">
        <ele>11.800000190735</ele>
        <time>2019-06-16T07:38:46.000Z</time>
      </trkpt>
      <trkpt lat="47.28371" lon="-2.36315">
        <ele>12.199999809265</ele>
        <time>2019-06-16T07:38:47.000Z</time>
      </trkpt>
      <trkpt lat="47.28373" lon="-2.36318">
        <ele>12.60000038147</ele>
        <time>2019-06-16T07:38:48.000Z</time>
      </trkpt>
      <trkpt lat="47.28377" lon="-2.36322">
        <ele>13</ele>
        <time>2019-06-16T07:38:49.000Z</time>
      </trkpt>
      <trkpt lat="47.2838" lon="-2.36324">
        <ele>13.39999961853</ele>
        <time>2019-06-16T07:38:50.000Z</time>
      </trkpt>
      <trkpt lat="47.28382" lon="-2.36327">
        <ele>13.39999961853</ele>
        <time>2019-06-16T07:38:51.000Z</time>
      </trkpt>
      <trkpt lat="47.28395" lon="-2.3634">
        <ele>13.39999961853</ele>
        <time>2019-06-16T07:38:56.000Z</time>
      </trkpt>
      <trkpt lat="47.28405" lon="-2.36354">
        <ele>13.39999961853</ele>
        <time>2019-06-16T07:39:01.000Z</time>
      </trkpt>
      <trkpt lat="47.28412" lon="-2.36359">
        <ele>13.800000190735</ele>
        <time>2019-06-16T07:39:04.000Z</time>
      </trkpt>
      <trkpt lat="47.28415" lon="-2.36361">
        <ele>14.199999809265</ele>
        <time>2019-06-16T07:39:05.000Z</time>
      </trkpt>
      <trkpt lat="47.28418" lon="-2.36363">
        <ele>14.60000038147</ele>
        <time>2019-06-16T07:39:06.000Z</time>
      </trkpt>
      <trkpt lat="47.28421" lon="-2.36365">
        <ele>15</ele>
        <time>2019-06-16T07:39:07.000Z</time>
      </trkpt>
      <trkpt lat="47.28424" lon="-2.36369">
        <ele>15.39999961853</ele>
        <time>2019-06-16T07:39:08.000Z</time>
      </trkpt>
      <trkpt lat="47.2843" lon="-2.36377">
        <ele>15.39999961853</ele>
        <time>2019-06-16T07:39:10.000Z</time>
      </trkpt>
      <trkpt lat="47.28446" lon="-2.36391">
        <ele>15.39999961853</ele>
        <time>2019-06-16T07:39:14.000Z</time>
      </trkpt>
      <trkpt lat="47.28448" lon="-2.36393">
        <ele>15.39999961853</ele>
        <time>2019-06-16T07:39:15.000Z</time>
      </trkpt>
      <trkpt lat="47.2845" lon="-2.36394">
        <ele>15.39999961853</ele>
        <time>2019-06-16T07:39:17.000Z</time>
      </trkpt>
      <trkpt lat="47.28451" lon="-2.36393">
        <ele>16.39999961853</ele>
        <time>2019-06-16T07:39:18.000Z</time>
      </trkpt>
      <trkpt lat="47.28451" lon="-2.36391">
        <ele>16.799999237061</ele>
        <time>2019-06-16T07:39:19.000Z</time>
      </trkpt>
      <trkpt lat="47.28451" lon="-2.36388">
        <ele>17.200000762939</ele>
        <time>2019-06-16T07:39:20.000Z</time>
      </trkpt>
      <trkpt lat="47.28451" lon="-2.36386">
        <ele>17.60000038147</ele>
        <time>2019-06-16T07:39:21.000Z</time>
      </trkpt>
      <trkpt lat="47.28452" lon="-2.36368">
        <ele>17.60000038147</ele>
        <time>2019-06-16T07:39:26.000Z</time>
      </trkpt>
      <trkpt lat="47.28452" lon="-2.36347">
        <ele>17.60000038147</ele>
        <time>2019-06-16T07:39:30.000Z</time>
      </trkpt>
      <trkpt lat="47.28457" lon="-2.36328">
        <ele>17.60000038147</ele>
        <time>2019-06-16T07:39:35.000Z</time>
      </trkpt>
      <trkpt lat="47.28474" lon="-2.36324">
        <ele>17.60000038147</ele>
        <time>2019-06-16T07:39:40.000Z</time>
      </trkpt>
      <trkpt lat="47.28479" lon="-2.36324">
        <ele>17.60000038147</ele>
        <time>2019-06-16T07:39:42.000Z</time>
      </trkpt>
      <trkpt lat="47.28484" lon="-2.36324">
        <ele>17.60000038147</ele>
        <time>2019-06-16T07:39:44.000Z</time>
      </trkpt>
      <trkpt lat="47.28491" lon="-2.36324">
        <ele>18</ele>
        <time>2019-06-16T07:39:46.000Z</time>
      </trkpt>
      <trkpt lat="47.28493" lon="-2.36325">
        <ele>18.39999961853</ele>
        <time>2019-06-16T07:39:47.000Z</time>
      </trkpt>
      <trkpt lat="47.28496" lon="-2.36324">
        <ele>19</ele>
        <time>2019-06-16T07:39:48.000Z</time>
      </trkpt>
      <trkpt lat="47.28499" lon="-2.36324">
        <ele>19.39999961853</ele>
        <time>2019-06-16T07:39:49.000Z</time>
      </trkpt>
      <trkpt lat="47.28502" lon="-2.36323">
        <ele>19.799999237061</ele>
        <time>2019-06-16T07:39:50.000Z</time>
      </trkpt>
      <trkpt lat="47.28507" lon="-2.36321">
        <ele>19.799999237061</ele>
        <time>2019-06-16T07:39:52.000Z</time>
      </trkpt>
      <trkpt lat="47.28513" lon="-2.36323">
        <ele>20.200000762939</ele>
        <time>2019-06-16T07:39:56.000Z</time>
      </trkpt>
      <trkpt lat="47.28514" lon="-2.36325">
        <ele>20.60000038147</ele>
        <time>2019-06-16T07:39:57.000Z</time>
      </trkpt>
      <trkpt lat="47.28516" lon="-2.36327">
        <ele>21</ele>
        <time>2019-06-16T07:39:58.000Z</time>
      </trkpt>
      <trkpt lat="47.28516" lon="-2.36329">
        <ele>21.39999961853</ele>
        <time>2019-06-16T07:39:59.000Z</time>
      </trkpt>
      <trkpt lat="47.28517" lon="-2.36331">
        <ele>21.799999237061</ele>
        <time>2019-06-16T07:40:00.000Z</time>
      </trkpt>
      <trkpt lat="47.2852" lon="-2.36334">
        <ele>22.39999961853</ele>
        <time>2019-06-16T07:40:02.000Z</time>
      </trkpt>
      <trkpt lat="47.28522" lon="-2.36336">
        <ele>22.799999237061</ele>
        <time>2019-06-16T07:40:03.000Z</time>
      </trkpt>
      <trkpt lat="47.28523" lon="-2.36337">
        <ele>23.39999961853</ele>
        <time>2019-06-16T07:40:04.000Z</time>
      </trkpt>
      <trkpt lat="47.28523" lon="-2.36338">
        <ele>23.799999237061</ele>
        <time>2019-06-16T07:40:05.000Z</time>
      </trkpt>
      <trkpt lat="47.28524" lon="-2.36339">
        <ele>24.200000762939</ele>
        <time>2019-06-16T07:40:06.000Z</time>
      </trkpt>
      <trkpt lat="47.28533" lon="-2.36341">
        <ele>28.39999961853</ele>
        <time>2019-06-16T07:40:45.000Z</time>
      </trkpt>
      <trkpt lat="47.28532" lon="-2.36339">
        <ele>28.39999961853</ele>
        <time>2019-06-16T07:40:46.000Z</time>
      </trkpt>
      <trkpt lat="47.28531" lon="-2.36326">
        <ele>28.39999961853</ele>
        <time>2019-06-16T07:40:49.000Z</time>
      </trkpt>
      <trkpt lat="47.28536" lon="-2.36314">
        <ele>28.39999961853</ele>
        <time>2019-06-16T07:40:52.000Z</time>
      </trkpt>
      <trkpt lat="47.2854" lon="-2.36305">
        <ele>28.39999961853</ele>
        <time>2019-06-16T07:40:55.000Z</time>
      </trkpt>
      <trkpt lat="47.28541" lon="-2.36302">
        <ele>28.39999961853</ele>
        <time>2019-06-16T07:40:56.000Z</time>
      </trkpt>
      <trkpt lat="47.28545" lon="-2.36291">
        <ele>28.39999961853</ele>
        <time>2019-06-16T07:40:59.000Z</time>
      </trkpt>
      <trkpt lat="47.28547" lon="-2.36268">
        <ele>28.39999961853</ele>
        <time>2019-06-16T07:41:04.000Z</time>
      </trkpt>
      <trkpt lat="47.28544" lon="-2.36232">
        <ele>28.39999961853</ele>
        <time>2019-06-16T07:41:11.000Z</time>
      </trkpt>
      <trkpt lat="47.28546" lon="-2.36199">
        <ele>28.39999961853</ele>
        <time>2019-06-16T07:41:18.000Z</time>
      </trkpt>
      <trkpt lat="47.28545" lon="-2.3619">
        <ele>28.39999961853</ele>
        <time>2019-06-16T07:41:20.000Z</time>
      </trkpt>
      <trkpt lat="47.28546" lon="-2.36176">
        <ele>28.39999961853</ele>
        <time>2019-06-16T07:41:23.000Z</time>
      </trkpt>
      <trkpt lat="47.2855" lon="-2.36165">
        <ele>28.799999237061</ele>
        <time>2019-06-16T07:41:26.000Z</time>
      </trkpt>
      <trkpt lat="47.28552" lon="-2.36163">
        <ele>29.200000762939</ele>
        <time>2019-06-16T07:41:27.000Z</time>
      </trkpt>
      <trkpt lat="47.28554" lon="-2.3616">
        <ele>29.60000038147</ele>
        <time>2019-06-16T07:41:28.000Z</time>
      </trkpt>
      <trkpt lat="47.28557" lon="-2.36158">
        <ele>30</ele>
        <time>2019-06-16T07:41:29.000Z</time>
      </trkpt>
      <trkpt lat="47.28559" lon="-2.36156">
        <ele>30.39999961853</ele>
        <time>2019-06-16T07:41:30.000Z</time>
      </trkpt>
      <trkpt lat="47.28561" lon="-2.36154">
        <ele>30.39999961853</ele>
        <time>2019-06-16T07:41:31.000Z</time>
      </trkpt>
      <trkpt lat="47.28564" lon="-2.36152">
        <ele>30.799999237061</ele>
        <time>2019-06-16T07:41:32.000Z</time>
      </trkpt>
      <trkpt lat="47.28566" lon="-2.36151">
        <ele>31.200000762939</ele>
        <time>2019-06-16T07:41:33.000Z</time>
      </trkpt>
      <trkpt lat="47.28568" lon="-2.36151">
        <ele>31.799999237061</ele>
        <time>2019-06-16T07:41:34.000Z</time>
      </trkpt>
      <trkpt lat="47.2857" lon="-2.36151">
        <ele>32.200000762939</ele>
        <time>2019-06-16T07:41:35.000Z</time>
      </trkpt>
      <trkpt lat="47.28572" lon="-2.36151">
        <ele>32.599998474121</ele>
        <time>2019-06-16T07:41:36.000Z</time>
      </trkpt>
      <trkpt lat="47.2858" lon="-2.36154">
        <ele>32.599998474121</ele>
        <time>2019-06-16T07:41:40.000Z</time>
      </trkpt>
      <trkpt lat="47.28583" lon="-2.36154">
        <ele>32.599998474121</ele>
        <time>2019-06-16T07:41:41.000Z</time>
      </trkpt>
      <trkpt lat="47.28597" lon="-2.36149">
        <ele>32.599998474121</ele>
        <time>2019-06-16T07:41:45.000Z</time>
      </trkpt>
      <trkpt lat="47.28602" lon="-2.36145">
        <ele>32.599998474121</ele>
        <time>2019-06-16T07:41:47.000Z</time>
      </trkpt>
      <trkpt lat="47.28608" lon="-2.3614">
        <ele>32.599998474121</ele>
        <time>2019-06-16T07:41:50.000Z</time>
      </trkpt>
      <trkpt lat="47.28617" lon="-2.36137">
        <ele>32.599998474121</ele>
        <time>2019-06-16T07:41:55.000Z</time>
      </trkpt>
      <trkpt lat="47.28617" lon="-2.36136">
        <ele>32.599998474121</ele>
        <time>2019-06-16T07:41:56.000Z</time>
      </trkpt>
      <trkpt lat="47.28621" lon="-2.36136">
        <ele>32.599998474121</ele>
        <time>2019-06-16T07:41:59.000Z</time>
      </trkpt>
      <trkpt lat="47.28628" lon="-2.36129">
        <ele>32.599998474121</ele>
        <time>2019-06-16T07:42:07.000Z</time>
      </trkpt>
      <trkpt lat="47.2863" lon="-2.36127">
        <ele>32.599998474121</ele>
        <time>2019-06-16T07:42:08.000Z</time>
      </trkpt>
      <trkpt lat="47.28635" lon="-2.36115">
        <ele>32.599998474121</ele>
        <time>2019-06-16T07:42:12.000Z</time>
      </trkpt>
      <trkpt lat="47.28636" lon="-2.36112">
        <ele>32.599998474121</ele>
        <time>2019-06-16T07:42:13.000Z</time>
      </trkpt>
      <trkpt lat="47.28638" lon="-2.36108">
        <ele>32</ele>
        <time>2019-06-16T07:42:14.000Z</time>
      </trkpt>
      <trkpt lat="47.28639" lon="-2.36104">
        <ele>31.60000038147</ele>
        <time>2019-06-16T07:42:15.000Z</time>
      </trkpt>
      <trkpt lat="47.28639" lon="-2.361">
        <ele>31</ele>
        <time>2019-06-16T07:42:16.000Z</time>
      </trkpt>
      <trkpt lat="47.28639" lon="-2.36095">
        <ele>30.39999961853</ele>
        <time>2019-06-16T07:42:17.000Z</time>
      </trkpt>
      <trkpt lat="47.28638" lon="-2.36089">
        <ele>29.799999237061</ele>
        <time>2019-06-16T07:42:18.000Z</time>
      </trkpt>
      <trkpt lat="47.2864" lon="-2.36084">
        <ele>29</ele>
        <time>2019-06-16T07:42:19.000Z</time>
      </trkpt>
      <trkpt lat="47.28643" lon="-2.36082">
        <ele>28.39999961853</ele>
        <time>2019-06-16T07:42:20.000Z</time>
      </trkpt>
      <trkpt lat="47.28645" lon="-2.36083">
        <ele>27.799999237061</ele>
        <time>2019-06-16T07:42:21.000Z</time>
      </trkpt>
      <trkpt lat="47.28648" lon="-2.36085">
        <ele>27.39999961853</ele>
        <time>2019-06-16T07:42:22.000Z</time>
      </trkpt>
      <trkpt lat="47.28649" lon="-2.36089">
        <ele>26.799999237061</ele>
        <time>2019-06-16T07:42:23.000Z</time>
      </trkpt>
      <trkpt lat="47.28652" lon="-2.36093">
        <ele>26.200000762939</ele>
        <time>2019-06-16T07:42:24.000Z</time>
      </trkpt>
      <trkpt lat="47.28655" lon="-2.36099">
        <ele>25.60000038147</ele>
        <time>2019-06-16T07:42:25.000Z</time>
      </trkpt>
      <trkpt lat="47.28664" lon="-2.36124">
        <ele>25.60000038147</ele>
        <time>2019-06-16T07:42:29.000Z</time>
      </trkpt>
      <trkpt lat="47.28666" lon="-2.3613">
        <ele>25.60000038147</ele>
        <time>2019-06-16T07:42:30.000Z</time>
      </trkpt>
      <trkpt lat="47.2867" lon="-2.3615">
        <ele>25.60000038147</ele>
        <time>2019-06-16T07:42:34.000Z</time>
      </trkpt>
      <trkpt lat="47.28674" lon="-2.36159">
        <ele>25.60000038147</ele>
        <time>2019-06-16T07:42:38.000Z</time>
      </trkpt>
      <trkpt lat="47.28677" lon="-2.36169">
        <ele>25.60000038147</ele>
        <time>2019-06-16T07:42:42.000Z</time>
      </trkpt>
      <trkpt lat="47.28689" lon="-2.36184">
        <ele>25.60000038147</ele>
        <time>2019-06-16T07:42:47.000Z</time>
      </trkpt>
      <trkpt lat="47.28697" lon="-2.3621">
        <ele>25.60000038147</ele>
        <time>2019-06-16T07:42:52.000Z</time>
      </trkpt>
      <trkpt lat="47.28706" lon="-2.36215">
        <ele>25.60000038147</ele>
        <time>2019-06-16T07:42:55.000Z</time>
      </trkpt>
      <trkpt lat="47.28722" lon="-2.36209">
        <ele>25.60000038147</ele>
        <time>2019-06-16T07:42:59.000Z</time>
      </trkpt>
      <trkpt lat="47.28745" lon="-2.36201">
        <ele>25.60000038147</ele>
        <time>2019-06-16T07:43:04.000Z</time>
      </trkpt>
      <trkpt lat="47.28759" lon="-2.36209">
        <ele>25.60000038147</ele>
        <time>2019-06-16T07:43:07.000Z</time>
      </trkpt>
      <trkpt lat="47.28774" lon="-2.36202">
        <ele>25.60000038147</ele>
        <time>2019-06-16T07:43:10.000Z</time>
      </trkpt>
      <trkpt lat="47.28805" lon="-2.36183">
        <ele>25.60000038147</ele>
        <time>2019-06-16T07:43:16.000Z</time>
      </trkpt>
      <trkpt lat="47.28819" lon="-2.36169">
        <ele>25.60000038147</ele>
        <time>2019-06-16T07:43:19.000Z</time>
      </trkpt>
      <trkpt lat="47.28828" lon="-2.36157">
        <ele>25.60000038147</ele>
        <time>2019-06-16T07:43:21.000Z</time>
      </trkpt>
      <trkpt lat="47.28861" lon="-2.36117">
        <ele>25.60000038147</ele>
        <time>2019-06-16T07:43:28.000Z</time>
      </trkpt>
      <trkpt lat="47.28876" lon="-2.36102">
        <ele>25.60000038147</ele>
        <time>2019-06-16T07:43:31.000Z</time>
      </trkpt>
      <trkpt lat="47.28886" lon="-2.36093">
        <ele>25.60000038147</ele>
        <time>2019-06-16T07:43:33.000Z</time>
      </trkpt>
      <trkpt lat="47.28909" lon="-2.36071">
        <ele>25.200000762939</ele>
        <time>2019-06-16T07:43:38.000Z</time>
      </trkpt>
      <trkpt lat="47.28914" lon="-2.36067">
        <ele>24.799999237061</ele>
        <time>2019-06-16T07:43:39.000Z</time>
      </trkpt>
      <trkpt lat="47.28918" lon="-2.36064">
        <ele>24.39999961853</ele>
        <time>2019-06-16T07:43:40.000Z</time>
      </trkpt>
      <trkpt lat="47.28923" lon="-2.36061">
        <ele>24</ele>
        <time>2019-06-16T07:43:41.000Z</time>
      </trkpt>
      <trkpt lat="47.28927" lon="-2.36058">
        <ele>23.60000038147</ele>
        <time>2019-06-16T07:43:42.000Z</time>
      </trkpt>
      <trkpt lat="47.28948" lon="-2.36043">
        <ele>23.60000038147</ele>
        <time>2019-06-16T07:43:47.000Z</time>
      </trkpt>
      <trkpt lat="47.28968" lon="-2.36026">
        <ele>23.60000038147</ele>
        <time>2019-06-16T07:43:52.000Z</time>
      </trkpt>
      <trkpt lat="47.29" lon="-2.35997">
        <ele>23.60000038147</ele>
        <time>2019-06-16T07:44:00.000Z</time>
      </trkpt>
      <trkpt lat="47.29032" lon="-2.35964">
        <ele>23.60000038147</ele>
        <time>2019-06-16T07:44:08.000Z</time>
      </trkpt>
      <trkpt lat="47.29051" lon="-2.35942">
        <ele>23.60000038147</ele>
        <time>2019-06-16T07:44:13.000Z</time>
      </trkpt>
      <trkpt lat="47.29078" lon="-2.35911">
        <ele>23.60000038147</ele>
        <time>2019-06-16T07:44:20.000Z</time>
      </trkpt>
      <trkpt lat="47.29109" lon="-2.35873">
        <ele>23.60000038147</ele>
        <time>2019-06-16T07:44:28.000Z</time>
      </trkpt>
      <trkpt lat="47.29117" lon="-2.35863">
        <ele>23.60000038147</ele>
        <time>2019-06-16T07:44:30.000Z</time>
      </trkpt>
      <trkpt lat="47.29133" lon="-2.35845">
        <ele>23.60000038147</ele>
        <time>2019-06-16T07:44:34.000Z</time>
      </trkpt>
      <trkpt lat="47.29158" lon="-2.35824">
        <ele>23.60000038147</ele>
        <time>2019-06-16T07:44:40.000Z</time>
      </trkpt>
      <trkpt lat="47.29162" lon="-2.35821">
        <ele>23.60000038147</ele>
        <time>2019-06-16T07:44:41.000Z</time>
      </trkpt>
      <trkpt lat="47.29182" lon="-2.35807">
        <ele>23.60000038147</ele>
        <time>2019-06-16T07:44:45.000Z</time>
      </trkpt>
      <trkpt lat="47.29198" lon="-2.35797">
        <ele>23.60000038147</ele>
        <time>2019-06-16T07:44:48.000Z</time>
      </trkpt>
      <trkpt lat="47.29225" lon="-2.35772">
        <ele>23.60000038147</ele>
        <time>2019-06-16T07:44:54.000Z</time>
      </trkpt>
      <trkpt lat="47.29229" lon="-2.35768">
        <ele>23.60000038147</ele>
        <time>2019-06-16T07:44:55.000Z</time>
      </trkpt>
      <trkpt lat="47.29239" lon="-2.35753">
        <ele>23.60000038147</ele>
        <time>2019-06-16T07:44:58.000Z</time>
      </trkpt>
      <trkpt lat="47.29243" lon="-2.35748">
        <ele>23.60000038147</ele>
        <time>2019-06-16T07:44:59.000Z</time>
      </trkpt>
      <trkpt lat="47.29257" lon="-2.35727">
        <ele>23.60000038147</ele>
        <time>2019-06-16T07:45:04.000Z</time>
      </trkpt>
      <trkpt lat="47.2926" lon="-2.35727">
        <ele>23.60000038147</ele>
        <time>2019-06-16T07:45:05.000Z</time>
      </trkpt>
      <trkpt lat="47.29264" lon="-2.35729">
        <ele>23.60000038147</ele>
        <time>2019-06-16T07:45:06.000Z</time>
      </trkpt>
      <trkpt lat="47.29277" lon="-2.35742">
        <ele>23.60000038147</ele>
        <time>2019-06-16T07:45:09.000Z</time>
      </trkpt>
      <trkpt lat="47.29281" lon="-2.35747">
        <ele>23.60000038147</ele>
        <time>2019-06-16T07:45:10.000Z</time>
      </trkpt>
      <trkpt lat="47.29314" lon="-2.35775">
        <ele>23.60000038147</ele>
        <time>2019-06-16T07:45:16.000Z</time>
      </trkpt>
      <trkpt lat="47.29349" lon="-2.35808">
        <ele>23.60000038147</ele>
        <time>2019-06-16T07:45:23.000Z</time>
      </trkpt>
      <trkpt lat="47.29381" lon="-2.35839">
        <ele>23.60000038147</ele>
        <time>2019-06-16T07:45:30.000Z</time>
      </trkpt>
      <trkpt lat="47.29414" lon="-2.35875">
        <ele>23.60000038147</ele>
        <time>2019-06-16T07:45:38.000Z</time>
      </trkpt>
      <trkpt lat="47.29435" lon="-2.359">
        <ele>23.60000038147</ele>
        <time>2019-06-16T07:45:43.000Z</time>
      </trkpt>
      <trkpt lat="47.2944" lon="-2.35903">
        <ele>23.60000038147</ele>
        <time>2019-06-16T07:45:44.000Z</time>
      </trkpt>
      <trkpt lat="47.29458" lon="-2.35904">
        <ele>23.60000038147</ele>
        <time>2019-06-16T07:45:48.000Z</time>
      </trkpt>
      <trkpt lat="47.29477" lon="-2.359">
        <ele>23.60000038147</ele>
        <time>2019-06-16T07:45:53.000Z</time>
      </trkpt>
      <trkpt lat="47.29495" lon="-2.35901">
        <ele>23.60000038147</ele>
        <time>2019-06-16T07:45:58.000Z</time>
      </trkpt>
      <trkpt lat="47.29503" lon="-2.35921">
        <ele>23.60000038147</ele>
        <time>2019-06-16T07:46:02.000Z</time>
      </trkpt>
      <trkpt lat="47.2951" lon="-2.3594">
        <ele>23.60000038147</ele>
        <time>2019-06-16T07:46:06.000Z</time>
      </trkpt>
      <trkpt lat="47.29513" lon="-2.35941">
        <ele>23.60000038147</ele>
        <time>2019-06-16T07:46:07.000Z</time>
      </trkpt>
      <trkpt lat="47.2952" lon="-2.35937">
        <ele>23.60000038147</ele>
        <time>2019-06-16T07:46:09.000Z</time>
      </trkpt>
      <trkpt lat="47.29529" lon="-2.35933">
        <ele>23.60000038147</ele>
        <time>2019-06-16T07:46:11.000Z</time>
      </trkpt>
      <trkpt lat="47.29543" lon="-2.35926">
        <ele>23.60000038147</ele>
        <time>2019-06-16T07:46:14.000Z</time>
      </trkpt>
      <trkpt lat="47.29572" lon="-2.35909">
        <ele>23.60000038147</ele>
        <time>2019-06-16T07:46:20.000Z</time>
      </trkpt>
      <trkpt lat="47.29595" lon="-2.35893">
        <ele>23.60000038147</ele>
        <time>2019-06-16T07:46:25.000Z</time>
      </trkpt>
      <trkpt lat="47.29639" lon="-2.35868">
        <ele>23.60000038147</ele>
        <time>2019-06-16T07:46:34.000Z</time>
      </trkpt>
      <trkpt lat="47.29644" lon="-2.35864">
        <ele>23.60000038147</ele>
        <time>2019-06-16T07:46:35.000Z</time>
      </trkpt>
      <trkpt lat="47.2965" lon="-2.35852">
        <ele>23.60000038147</ele>
        <time>2019-06-16T07:46:37.000Z</time>
      </trkpt>
      <trkpt lat="47.29661" lon="-2.35838">
        <ele>23.60000038147</ele>
        <time>2019-06-16T07:46:40.000Z</time>
      </trkpt>
      <trkpt lat="47.29672" lon="-2.35839">
        <ele>23.60000038147</ele>
        <time>2019-06-16T07:46:42.000Z</time>
      </trkpt>
      <trkpt lat="47.29678" lon="-2.35839">
        <ele>23.60000038147</ele>
        <time>2019-06-16T07:46:43.000Z</time>
      </trkpt>
      <trkpt lat="47.29691" lon="-2.35839">
        <ele>23.60000038147</ele>
        <time>2019-06-16T07:46:45.000Z</time>
      </trkpt>
      <trkpt lat="47.29709" lon="-2.35831">
        <ele>23.60000038147</ele>
        <time>2019-06-16T07:46:48.000Z</time>
      </trkpt>
      <trkpt lat="47.29714" lon="-2.35828">
        <ele>23.60000038147</ele>
        <time>2019-06-16T07:46:49.000Z</time>
      </trkpt>
      <trkpt lat="47.29735" lon="-2.35815">
        <ele>23.60000038147</ele>
        <time>2019-06-16T07:46:53.000Z</time>
      </trkpt>
      <trkpt lat="47.2975" lon="-2.35808">
        <ele>24</ele>
        <time>2019-06-16T07:46:56.000Z</time>
      </trkpt>
      <trkpt lat="47.29755" lon="-2.35805">
        <ele>24.39999961853</ele>
        <time>2019-06-16T07:46:57.000Z</time>
      </trkpt>
      <trkpt lat="47.29759" lon="-2.35803">
        <ele>24.799999237061</ele>
        <time>2019-06-16T07:46:58.000Z</time>
      </trkpt>
      <trkpt lat="47.29764" lon="-2.35801">
        <ele>25.200000762939</ele>
        <time>2019-06-16T07:46:59.000Z</time>
      </trkpt>
      <trkpt lat="47.29769" lon="-2.358">
        <ele>25.60000038147</ele>
        <time>2019-06-16T07:47:00.000Z</time>
      </trkpt>
      <trkpt lat="47.29808" lon="-2.35787">
        <ele>25.60000038147</ele>
        <time>2019-06-16T07:47:08.000Z</time>
      </trkpt>
      <trkpt lat="47.29841" lon="-2.35775">
        <ele>25.60000038147</ele>
        <time>2019-06-16T07:47:14.000Z</time>
      </trkpt>
      <trkpt lat="47.29882" lon="-2.35761">
        <ele>25.60000038147</ele>
        <time>2019-06-16T07:47:20.000Z</time>
      </trkpt>
      <trkpt lat="47.29912" lon="-2.35742">
        <ele>25.60000038147</ele>
        <time>2019-06-16T07:47:25.000Z</time>
      </trkpt>
      <trkpt lat="47.29955" lon="-2.35708">
        <ele>25.60000038147</ele>
        <time>2019-06-16T07:47:33.000Z</time>
      </trkpt>
      <trkpt lat="47.29993" lon="-2.35685">
        <ele>25.60000038147</ele>
        <time>2019-06-16T07:47:40.000Z</time>
      </trkpt>
      <trkpt lat="47.30029" lon="-2.35664">
        <ele>25.60000038147</ele>
        <time>2019-06-16T07:47:47.000Z</time>
      </trkpt>
      <trkpt lat="47.30079" lon="-2.35632">
        <ele>25.60000038147</ele>
        <time>2019-06-16T07:47:57.000Z</time>
      </trkpt>
      <trkpt lat="47.30117" lon="-2.35608">
        <ele>25.60000038147</ele>
        <time>2019-06-16T07:48:05.000Z</time>
      </trkpt>
      <trkpt lat="47.30121" lon="-2.35603">
        <ele>25.60000038147</ele>
        <time>2019-06-16T07:48:06.000Z</time>
      </trkpt>
      <trkpt lat="47.30129" lon="-2.35595">
        <ele>25.60000038147</ele>
        <time>2019-06-16T07:48:08.000Z</time>
      </trkpt>
      <trkpt lat="47.30134" lon="-2.35594">
        <ele>25.60000038147</ele>
        <time>2019-06-16T07:48:09.000Z</time>
      </trkpt>
      <trkpt lat="47.30167" lon="-2.35582">
        <ele>25.60000038147</ele>
        <time>2019-06-16T07:48:15.000Z</time>
      </trkpt>
      <trkpt lat="47.30202" lon="-2.35571">
        <ele>25.60000038147</ele>
        <time>2019-06-16T07:48:21.000Z</time>
      </trkpt>
      <trkpt lat="47.30208" lon="-2.3557">
        <ele>26.200000762939</ele>
        <time>2019-06-16T07:48:22.000Z</time>
      </trkpt>
      <trkpt lat="47.30214" lon="-2.3557">
        <ele>26.60000038147</ele>
        <time>2019-06-16T07:48:23.000Z</time>
      </trkpt>
      <trkpt lat="47.3022" lon="-2.35571">
        <ele>27</ele>
        <time>2019-06-16T07:48:24.000Z</time>
      </trkpt>
      <trkpt lat="47.30226" lon="-2.35572">
        <ele>27.39999961853</ele>
        <time>2019-06-16T07:48:25.000Z</time>
      </trkpt>
      <trkpt lat="47.30232" lon="-2.35573">
        <ele>27.799999237061</ele>
        <time>2019-06-16T07:48:26.000Z</time>
      </trkpt>
      <trkpt lat="47.30238" lon="-2.35574">
        <ele>27.799999237061</ele>
        <time>2019-06-16T07:48:27.000Z</time>
      </trkpt>
      <trkpt lat="47.30288" lon="-2.35583">
        <ele>27.799999237061</ele>
        <time>2019-06-16T07:48:35.000Z</time>
      </trkpt>
      <trkpt lat="47.30332" lon="-2.3559">
        <ele>27.799999237061</ele>
        <time>2019-06-16T07:48:41.000Z</time>
      </trkpt>
      <trkpt lat="47.30359" lon="-2.35592">
        <ele>27.799999237061</ele>
        <time>2019-06-16T07:48:45.000Z</time>
      </trkpt>
      <trkpt lat="47.30365" lon="-2.35592">
        <ele>27.799999237061</ele>
        <time>2019-06-16T07:48:46.000Z</time>
      </trkpt>
      <trkpt lat="47.30371" lon="-2.35589">
        <ele>27.799999237061</ele>
        <time>2019-06-16T07:48:47.000Z</time>
      </trkpt>
      <trkpt lat="47.30382" lon="-2.35586">
        <ele>27.799999237061</ele>
        <time>2019-06-16T07:48:49.000Z</time>
      </trkpt>
      <trkpt lat="47.30388" lon="-2.35587">
        <ele>27.799999237061</ele>
        <time>2019-06-16T07:48:50.000Z</time>
      </trkpt>
      <trkpt lat="47.30398" lon="-2.35603">
        <ele>27.799999237061</ele>
        <time>2019-06-16T07:48:53.000Z</time>
      </trkpt>
      <trkpt lat="47.30402" lon="-2.35633">
        <ele>27.799999237061</ele>
        <time>2019-06-16T07:48:57.000Z</time>
      </trkpt>
      <trkpt lat="47.3039" lon="-2.35661">
        <ele>27.799999237061</ele>
        <time>2019-06-16T07:49:01.000Z</time>
      </trkpt>
      <trkpt lat="47.30367" lon="-2.35713">
        <ele>27.799999237061</ele>
        <time>2019-06-16T07:49:08.000Z</time>
      </trkpt>
      <trkpt lat="47.30361" lon="-2.35727">
        <ele>27.799999237061</ele>
        <time>2019-06-16T07:49:10.000Z</time>
      </trkpt>
      <trkpt lat="47.30347" lon="-2.35755">
        <ele>27.39999961853</ele>
        <time>2019-06-16T07:49:14.000Z</time>
      </trkpt>
      <trkpt lat="47.30344" lon="-2.35761">
        <ele>27</ele>
        <time>2019-06-16T07:49:15.000Z</time>
      </trkpt>
      <trkpt lat="47.30342" lon="-2.35767">
        <ele>26.60000038147</ele>
        <time>2019-06-16T07:49:16.000Z</time>
      </trkpt>
      <trkpt lat="47.30338" lon="-2.35773">
        <ele>26.200000762939</ele>
        <time>2019-06-16T07:49:17.000Z</time>
      </trkpt>
      <trkpt lat="47.30336" lon="-2.35779">
        <ele>25.799999237061</ele>
        <time>2019-06-16T07:49:18.000Z</time>
      </trkpt>
      <trkpt lat="47.30334" lon="-2.35784">
        <ele>25.799999237061</ele>
        <time>2019-06-16T07:49:19.000Z</time>
      </trkpt>
      <trkpt lat="47.30324" lon="-2.35806">
        <ele>25.799999237061</ele>
        <time>2019-06-16T07:49:25.000Z</time>
      </trkpt>
      <trkpt lat="47.30317" lon="-2.35824">
        <ele>25.799999237061</ele>
        <time>2019-06-16T07:49:30.000Z</time>
      </trkpt>
      <trkpt lat="47.30309" lon="-2.35843">
        <ele>25.799999237061</ele>
        <time>2019-06-16T07:49:36.000Z</time>
      </trkpt>
      <trkpt lat="47.30303" lon="-2.35853">
        <ele>25.799999237061</ele>
        <time>2019-06-16T07:49:40.000Z</time>
      </trkpt>
      <trkpt lat="47.303" lon="-2.35855">
        <ele>25.39999961853</ele>
        <time>2019-06-16T07:49:41.000Z</time>
      </trkpt>
      <trkpt lat="47.30298" lon="-2.35858">
        <ele>25</ele>
        <time>2019-06-16T07:49:42.000Z</time>
      </trkpt>
      <trkpt lat="47.30295" lon="-2.3586">
        <ele>24.60000038147</ele>
        <time>2019-06-16T07:49:43.000Z</time>
      </trkpt>
      <trkpt lat="47.30292" lon="-2.35861">
        <ele>24.200000762939</ele>
        <time>2019-06-16T07:49:44.000Z</time>
      </trkpt>
      <trkpt lat="47.30289" lon="-2.35861">
        <ele>23.799999237061</ele>
        <time>2019-06-16T07:49:45.000Z</time>
      </trkpt>
      <trkpt lat="47.3027" lon="-2.35861">
        <ele>23.799999237061</ele>
        <time>2019-06-16T07:49:51.000Z</time>
      </trkpt>
      <trkpt lat="47.30266" lon="-2.3587">
        <ele>23.799999237061</ele>
        <time>2019-06-16T07:49:54.000Z</time>
      </trkpt>
      <trkpt lat="47.30265" lon="-2.35877">
        <ele>23.799999237061</ele>
        <time>2019-06-16T07:49:56.000Z</time>
      </trkpt>
      <trkpt lat="47.30263" lon="-2.35891">
        <ele>23.799999237061</ele>
        <time>2019-06-16T07:50:00.000Z</time>
      </trkpt>
      <trkpt lat="47.30263" lon="-2.35908">
        <ele>23.799999237061</ele>
        <time>2019-06-16T07:50:04.000Z</time>
      </trkpt>
      <trkpt lat="47.30261" lon="-2.3593">
        <ele>23.799999237061</ele>
        <time>2019-06-16T07:50:09.000Z</time>
      </trkpt>
      <trkpt lat="47.3026" lon="-2.35957">
        <ele>23.799999237061</ele>
        <time>2019-06-16T07:50:15.000Z</time>
      </trkpt>
      <trkpt lat="47.30257" lon="-2.35982">
        <ele>23.200000762939</ele>
        <time>2019-06-16T07:50:20.000Z</time>
      </trkpt>
      <trkpt lat="47.30256" lon="-2.35986">
        <ele>22.799999237061</ele>
        <time>2019-06-16T07:50:21.000Z</time>
      </trkpt>
      <trkpt lat="47.30254" lon="-2.35988">
        <ele>22.39999961853</ele>
        <time>2019-06-16T07:50:22.000Z</time>
      </trkpt>
      <trkpt lat="47.30252" lon="-2.35991">
        <ele>22</ele>
        <time>2019-06-16T07:50:23.000Z</time>
      </trkpt>
      <trkpt lat="47.3025" lon="-2.35993">
        <ele>21.60000038147</ele>
        <time>2019-06-16T07:50:24.000Z</time>
      </trkpt>
      <trkpt lat="47.30236" lon="-2.36004">
        <ele>21.60000038147</ele>
        <time>2019-06-16T07:50:30.000Z</time>
      </trkpt>
      <trkpt lat="47.3022" lon="-2.36015">
        <ele>21.60000038147</ele>
        <time>2019-06-16T07:50:36.000Z</time>
      </trkpt>
      <trkpt lat="47.30204" lon="-2.36023">
        <ele>21.60000038147</ele>
        <time>2019-06-16T07:50:42.000Z</time>
      </trkpt>
      <trkpt lat="47.30186" lon="-2.36029">
        <ele>21.60000038147</ele>
        <time>2019-06-16T07:50:48.000Z</time>
      </trkpt>
      <trkpt lat="47.30171" lon="-2.36031">
        <ele>21.60000038147</ele>
        <time>2019-06-16T07:50:53.000Z</time>
      </trkpt>
      <trkpt lat="47.30162" lon="-2.36032">
        <ele>21.60000038147</ele>
        <time>2019-06-16T07:50:57.000Z</time>
      </trkpt>
      <trkpt lat="47.30155" lon="-2.36032">
        <ele>21.60000038147</ele>
        <time>2019-06-16T07:50:59.000Z</time>
      </trkpt>
      <trkpt lat="47.30137" lon="-2.36029">
        <ele>21.60000038147</ele>
        <time>2019-06-16T07:51:04.000Z</time>
      </trkpt>
      <trkpt lat="47.30113" lon="-2.36026">
        <ele>21.60000038147</ele>
        <time>2019-06-16T07:51:12.000Z</time>
      </trkpt>
      <trkpt lat="47.3011" lon="-2.36022">
        <ele>21.60000038147</ele>
        <time>2019-06-16T07:51:16.000Z</time>
      </trkpt>
      <trkpt lat="47.30107" lon="-2.36025">
        <ele>21.60000038147</ele>
        <time>2019-06-16T07:53:39.000Z</time>
      </trkpt>
      <trkpt lat="47.30105" lon="-2.36031">
        <ele>21.60000038147</ele>
        <time>2019-06-16T07:53:41.000Z</time>
      </trkpt>
      <trkpt lat="47.30104" lon="-2.36038">
        <ele>21.60000038147</ele>
        <time>2019-06-16T07:53:43.000Z</time>
      </trkpt>
      <trkpt lat="47.30103" lon="-2.36052">
        <ele>21.60000038147</ele>
        <time>2019-06-16T07:53:48.000Z</time>
      </trkpt>
      <trkpt lat="47.30103" lon="-2.36053">
        <ele>21.60000038147</ele>
        <time>2019-06-16T07:53:49.000Z</time>
      </trkpt>
      <trkpt lat="47.30103" lon="-2.36057">
        <ele>21.60000038147</ele>
        <time>2019-06-16T07:54:11.000Z</time>
      </trkpt>
      <trkpt lat="47.30103" lon="-2.3606">
        <ele>21.60000038147</ele>
        <time>2019-06-16T07:54:12.000Z</time>
      </trkpt>
      <trkpt lat="47.301" lon="-2.36087">
        <ele>21.60000038147</ele>
        <time>2019-06-16T07:54:18.000Z</time>
      </trkpt>
      <trkpt lat="47.30095" lon="-2.36121">
        <ele>21.60000038147</ele>
        <time>2019-06-16T07:54:25.000Z</time>
      </trkpt>
      <trkpt lat="47.30091" lon="-2.3616">
        <ele>21.60000038147</ele>
        <time>2019-06-16T07:54:33.000Z</time>
      </trkpt>
      <trkpt lat="47.30089" lon="-2.36199">
        <ele>21.60000038147</ele>
        <time>2019-06-16T07:54:41.000Z</time>
      </trkpt>
      <trkpt lat="47.30091" lon="-2.3624">
        <ele>21.60000038147</ele>
        <time>2019-06-16T07:54:49.000Z</time>
      </trkpt>
      <trkpt lat="47.30096" lon="-2.36283">
        <ele>21.60000038147</ele>
        <time>2019-06-16T07:54:57.000Z</time>
      </trkpt>
      <trkpt lat="47.30096" lon="-2.36289">
        <ele>22</ele>
        <time>2019-06-16T07:54:58.000Z</time>
      </trkpt>
      <trkpt lat="47.30097" lon="-2.36294">
        <ele>22.799999237061</ele>
        <time>2019-06-16T07:54:59.000Z</time>
      </trkpt>
      <trkpt lat="47.30098" lon="-2.36299">
        <ele>23.200000762939</ele>
        <time>2019-06-16T07:55:00.000Z</time>
      </trkpt>
      <trkpt lat="47.30098" lon="-2.36305">
        <ele>23.60000038147</ele>
        <time>2019-06-16T07:55:01.000Z</time>
      </trkpt>
      <trkpt lat="47.301" lon="-2.36332">
        <ele>23.60000038147</ele>
        <time>2019-06-16T07:55:06.000Z</time>
      </trkpt>
      <trkpt lat="47.30105" lon="-2.36386">
        <ele>24</ele>
        <time>2019-06-16T07:55:15.000Z</time>
      </trkpt>
      <trkpt lat="47.30105" lon="-2.36391">
        <ele>24.39999961853</ele>
        <time>2019-06-16T07:55:16.000Z</time>
      </trkpt>
      <trkpt lat="47.30105" lon="-2.36397">
        <ele>24.799999237061</ele>
        <time>2019-06-16T07:55:17.000Z</time>
      </trkpt>
      <trkpt lat="47.30105" lon="-2.36404">
        <ele>25.200000762939</ele>
        <time>2019-06-16T07:55:18.000Z</time>
      </trkpt>
      <trkpt lat="47.30105" lon="-2.3641">
        <ele>25.60000038147</ele>
        <time>2019-06-16T07:55:19.000Z</time>
      </trkpt>
      <trkpt lat="47.30107" lon="-2.36427">
        <ele>25.60000038147</ele>
        <time>2019-06-16T07:55:22.000Z</time>
      </trkpt>
      <trkpt lat="47.30114" lon="-2.36471">
        <ele>25.60000038147</ele>
        <time>2019-06-16T07:55:30.000Z</time>
      </trkpt>
      <trkpt lat="47.3012" lon="-2.36519">
        <ele>25.60000038147</ele>
        <time>2019-06-16T07:55:39.000Z</time>
      </trkpt>
      <trkpt lat="47.30127" lon="-2.36568">
        <ele>25.60000038147</ele>
        <time>2019-06-16T07:55:48.000Z</time>
      </trkpt>
      <trkpt lat="47.30127" lon="-2.36573">
        <ele>26.200000762939</ele>
        <time>2019-06-16T07:55:49.000Z</time>
      </trkpt>
      <trkpt lat="47.30128" lon="-2.36579">
        <ele>26.60000038147</ele>
        <time>2019-06-16T07:55:50.000Z</time>
      </trkpt>
      <trkpt lat="47.30128" lon="-2.36584">
        <ele>27</ele>
        <time>2019-06-16T07:55:51.000Z</time>
      </trkpt>
      <trkpt lat="47.30129" lon="-2.3659">
        <ele>27.39999961853</ele>
        <time>2019-06-16T07:55:52.000Z</time>
      </trkpt>
      <trkpt lat="47.3013" lon="-2.36596">
        <ele>27.799999237061</ele>
        <time>2019-06-16T07:55:53.000Z</time>
      </trkpt>
      <trkpt lat="47.30133" lon="-2.36612">
        <ele>27.799999237061</ele>
        <time>2019-06-16T07:55:56.000Z</time>
      </trkpt>
      <trkpt lat="47.30145" lon="-2.36641">
        <ele>27.799999237061</ele>
        <time>2019-06-16T07:56:02.000Z</time>
      </trkpt>
      <trkpt lat="47.30159" lon="-2.3667">
        <ele>27.799999237061</ele>
        <time>2019-06-16T07:56:09.000Z</time>
      </trkpt>
      <trkpt lat="47.30171" lon="-2.36685">
        <ele>27.799999237061</ele>
        <time>2019-06-16T07:56:15.000Z</time>
      </trkpt>
      <trkpt lat="47.30174" lon="-2.36683">
        <ele>27.799999237061</ele>
        <time>2019-06-16T07:56:16.000Z</time>
      </trkpt>
      <trkpt lat="47.30179" lon="-2.36682">
        <ele>28.200000762939</ele>
        <time>2019-06-16T07:56:18.000Z</time>
      </trkpt>
      <trkpt lat="47.30182" lon="-2.3668">
        <ele>28.60000038147</ele>
        <time>2019-06-16T07:56:19.000Z</time>
      </trkpt>
      <trkpt lat="47.30185" lon="-2.36678">
        <ele>29</ele>
        <time>2019-06-16T07:56:20.000Z</time>
      </trkpt>
      <trkpt lat="47.30188" lon="-2.36677">
        <ele>29.39999961853</ele>
        <time>2019-06-16T07:56:21.000Z</time>
      </trkpt>
      <trkpt lat="47.30191" lon="-2.36675">
        <ele>30</ele>
        <time>2019-06-16T07:56:22.000Z</time>
      </trkpt>
      <trkpt lat="47.30202" lon="-2.36672">
        <ele>30</ele>
        <time>2019-06-16T07:56:25.000Z</time>
      </trkpt>
      <trkpt lat="47.30226" lon="-2.36668">
        <ele>30</ele>
        <time>2019-06-16T07:56:31.000Z</time>
      </trkpt>
      <trkpt lat="47.30258" lon="-2.36663">
        <ele>30</ele>
        <time>2019-06-16T07:56:38.000Z</time>
      </trkpt>
      <trkpt lat="47.30286" lon="-2.36653">
        <ele>30</ele>
        <time>2019-06-16T07:56:44.000Z</time>
      </trkpt>
      <trkpt lat="47.30304" lon="-2.36646">
        <ele>30</ele>
        <time>2019-06-16T07:56:48.000Z</time>
      </trkpt>
      <trkpt lat="47.30314" lon="-2.36645">
        <ele>30</ele>
        <time>2019-06-16T07:56:50.000Z</time>
      </trkpt>
      <trkpt lat="47.3032" lon="-2.36646">
        <ele>30</ele>
        <time>2019-06-16T07:56:51.000Z</time>
      </trkpt>
      <trkpt lat="47.30338" lon="-2.36651">
        <ele>30</ele>
        <time>2019-06-16T07:56:55.000Z</time>
      </trkpt>
      <trkpt lat="47.30348" lon="-2.36653">
        <ele>30.39999961853</ele>
        <time>2019-06-16T07:56:57.000Z</time>
      </trkpt>
      <trkpt lat="47.30353" lon="-2.36654">
        <ele>30.799999237061</ele>
        <time>2019-06-16T07:56:58.000Z</time>
      </trkpt>
      <trkpt lat="47.30359" lon="-2.36654">
        <ele>31.200000762939</ele>
        <time>2019-06-16T07:56:59.000Z</time>
      </trkpt>
      <trkpt lat="47.30365" lon="-2.36655">
        <ele>31.60000038147</ele>
        <time>2019-06-16T07:57:00.000Z</time>
      </trkpt>
      <trkpt lat="47.30369" lon="-2.36656">
        <ele>32</ele>
        <time>2019-06-16T07:57:01.000Z</time>
      </trkpt>
      <trkpt lat="47.30399" lon="-2.36656">
        <ele>32</ele>
        <time>2019-06-16T07:57:08.000Z</time>
      </trkpt>
      <trkpt lat="47.30416" lon="-2.36652">
        <ele>32</ele>
        <time>2019-06-16T07:57:12.000Z</time>
      </trkpt>
      <trkpt lat="47.3042" lon="-2.3665">
        <ele>32.400001525879</ele>
        <time>2019-06-16T07:57:13.000Z</time>
      </trkpt>
      <trkpt lat="47.30425" lon="-2.36646">
        <ele>32.799999237061</ele>
        <time>2019-06-16T07:57:14.000Z</time>
      </trkpt>
      <trkpt lat="47.3043" lon="-2.36643">
        <ele>33.200000762939</ele>
        <time>2019-06-16T07:57:15.000Z</time>
      </trkpt>
      <trkpt lat="47.30434" lon="-2.36638">
        <ele>33.599998474121</ele>
        <time>2019-06-16T07:57:16.000Z</time>
      </trkpt>
      <trkpt lat="47.30439" lon="-2.36634">
        <ele>34</ele>
        <time>2019-06-16T07:57:17.000Z</time>
      </trkpt>
      <trkpt lat="47.30448" lon="-2.36626">
        <ele>34</ele>
        <time>2019-06-16T07:57:19.000Z</time>
      </trkpt>
      <trkpt lat="47.30472" lon="-2.36609">
        <ele>34</ele>
        <time>2019-06-16T07:57:24.000Z</time>
      </trkpt>
      <trkpt lat="47.30482" lon="-2.36605">
        <ele>34</ele>
        <time>2019-06-16T07:57:26.000Z</time>
      </trkpt>
      <trkpt lat="47.30496" lon="-2.36601">
        <ele>34</ele>
        <time>2019-06-16T07:57:29.000Z</time>
      </trkpt>
      <trkpt lat="47.30511" lon="-2.36597">
        <ele>34</ele>
        <time>2019-06-16T07:57:32.000Z</time>
      </trkpt>
      <trkpt lat="47.30516" lon="-2.36595">
        <ele>34</ele>
        <time>2019-06-16T07:57:33.000Z</time>
      </trkpt>
      <trkpt lat="47.30532" lon="-2.36587">
        <ele>34</ele>
        <time>2019-06-16T07:57:36.000Z</time>
      </trkpt>
      <trkpt lat="47.30538" lon="-2.36582">
        <ele>34</ele>
        <time>2019-06-16T07:57:37.000Z</time>
      </trkpt>
      <trkpt lat="47.30568" lon="-2.3656">
        <ele>34</ele>
        <time>2019-06-16T07:57:43.000Z</time>
      </trkpt>
      <trkpt lat="47.30589" lon="-2.3655">
        <ele>34</ele>
        <time>2019-06-16T07:57:47.000Z</time>
      </trkpt>
      <trkpt lat="47.30599" lon="-2.36549">
        <ele>34</ele>
        <time>2019-06-16T07:57:49.000Z</time>
      </trkpt>
      <trkpt lat="47.3061" lon="-2.36547">
        <ele>34</ele>
        <time>2019-06-16T07:57:51.000Z</time>
      </trkpt>
      <trkpt lat="47.30632" lon="-2.3654">
        <ele>34</ele>
        <time>2019-06-16T07:57:55.000Z</time>
      </trkpt>
      <trkpt lat="47.30636" lon="-2.36538">
        <ele>34</ele>
        <time>2019-06-16T07:57:56.000Z</time>
      </trkpt>
      <trkpt lat="47.30641" lon="-2.36534">
        <ele>34</ele>
        <time>2019-06-16T07:57:57.000Z</time>
      </trkpt>
      <trkpt lat="47.30656" lon="-2.36526">
        <ele>34</ele>
        <time>2019-06-16T07:58:00.000Z</time>
      </trkpt>
      <trkpt lat="47.30661" lon="-2.36523">
        <ele>34</ele>
        <time>2019-06-16T07:58:01.000Z</time>
      </trkpt>
      <trkpt lat="47.30692" lon="-2.36512">
        <ele>34</ele>
        <time>2019-06-16T07:58:07.000Z</time>
      </trkpt>
      <trkpt lat="47.30701" lon="-2.36522">
        <ele>34</ele>
        <time>2019-06-16T07:58:10.000Z</time>
      </trkpt>
      <trkpt lat="47.30713" lon="-2.3651">
        <ele>34</ele>
        <time>2019-06-16T07:58:13.000Z</time>
      </trkpt>
      <trkpt lat="47.30718" lon="-2.36505">
        <ele>34</ele>
        <time>2019-06-16T07:58:14.000Z</time>
      </trkpt>
      <trkpt lat="47.30724" lon="-2.36501">
        <ele>33.599998474121</ele>
        <time>2019-06-16T07:58:15.000Z</time>
      </trkpt>
      <trkpt lat="47.30731" lon="-2.36497">
        <ele>33.200000762939</ele>
        <time>2019-06-16T07:58:16.000Z</time>
      </trkpt>
      <trkpt lat="47.30738" lon="-2.36495">
        <ele>32.400001525879</ele>
        <time>2019-06-16T07:58:17.000Z</time>
      </trkpt>
      <trkpt lat="47.30745" lon="-2.36492">
        <ele>32</ele>
        <time>2019-06-16T07:58:18.000Z</time>
      </trkpt>
      <trkpt lat="47.30772" lon="-2.36481">
        <ele>32</ele>
        <time>2019-06-16T07:58:22.000Z</time>
      </trkpt>
      <trkpt lat="47.30786" lon="-2.36477">
        <ele>32</ele>
        <time>2019-06-16T07:58:24.000Z</time>
      </trkpt>
      <trkpt lat="47.30793" lon="-2.36474">
        <ele>32</ele>
        <time>2019-06-16T07:58:25.000Z</time>
      </trkpt>
      <trkpt lat="47.30799" lon="-2.36471">
        <ele>31.60000038147</ele>
        <time>2019-06-16T07:58:26.000Z</time>
      </trkpt>
      <trkpt lat="47.30806" lon="-2.3647">
        <ele>31.200000762939</ele>
        <time>2019-06-16T07:58:27.000Z</time>
      </trkpt>
      <trkpt lat="47.30812" lon="-2.36471">
        <ele>30.799999237061</ele>
        <time>2019-06-16T07:58:28.000Z</time>
      </trkpt>
      <trkpt lat="47.30819" lon="-2.36475">
        <ele>30.39999961853</ele>
        <time>2019-06-16T07:58:29.000Z</time>
      </trkpt>
      <trkpt lat="47.30824" lon="-2.3648">
        <ele>30</ele>
        <time>2019-06-16T07:58:30.000Z</time>
      </trkpt>
      <trkpt lat="47.30829" lon="-2.36485">
        <ele>30</ele>
        <time>2019-06-16T07:58:31.000Z</time>
      </trkpt>
      <trkpt lat="47.30847" lon="-2.36487">
        <ele>30</ele>
        <time>2019-06-16T07:58:34.000Z</time>
      </trkpt>
      <trkpt lat="47.30853" lon="-2.36485">
        <ele>30</ele>
        <time>2019-06-16T07:58:35.000Z</time>
      </trkpt>
      <trkpt lat="47.30886" lon="-2.36478">
        <ele>30</ele>
        <time>2019-06-16T07:58:40.000Z</time>
      </trkpt>
      <trkpt lat="47.30924" lon="-2.36466">
        <ele>30</ele>
        <time>2019-06-16T07:58:46.000Z</time>
      </trkpt>
      <trkpt lat="47.3096" lon="-2.36455">
        <ele>30</ele>
        <time>2019-06-16T07:58:52.000Z</time>
      </trkpt>
      <trkpt lat="47.30965" lon="-2.36453">
        <ele>30</ele>
        <time>2019-06-16T07:58:53.000Z</time>
      </trkpt>
      <trkpt lat="47.30982" lon="-2.36444">
        <ele>30</ele>
        <time>2019-06-16T07:58:56.000Z</time>
      </trkpt>
      <trkpt lat="47.31021" lon="-2.36426">
        <ele>30</ele>
        <time>2019-06-16T07:59:02.000Z</time>
      </trkpt>
      <trkpt lat="47.31028" lon="-2.36423">
        <ele>30</ele>
        <time>2019-06-16T07:59:03.000Z</time>
      </trkpt>
      <trkpt lat="47.31043" lon="-2.36421">
        <ele>29.60000038147</ele>
        <time>2019-06-16T07:59:05.000Z</time>
      </trkpt>
      <trkpt lat="47.3105" lon="-2.3642">
        <ele>29</ele>
        <time>2019-06-16T07:59:06.000Z</time>
      </trkpt>
      <trkpt lat="47.31058" lon="-2.3642">
        <ele>28.200000762939</ele>
        <time>2019-06-16T07:59:07.000Z</time>
      </trkpt>
      <trkpt lat="47.31065" lon="-2.36419">
        <ele>27.60000038147</ele>
        <time>2019-06-16T07:59:08.000Z</time>
      </trkpt>
      <trkpt lat="47.31095" lon="-2.36417">
        <ele>27.60000038147</ele>
        <time>2019-06-16T07:59:12.000Z</time>
      </trkpt>
      <trkpt lat="47.31102" lon="-2.36416">
        <ele>27.60000038147</ele>
        <time>2019-06-16T07:59:13.000Z</time>
      </trkpt>
      <trkpt lat="47.31117" lon="-2.3641">
        <ele>27.60000038147</ele>
        <time>2019-06-16T07:59:15.000Z</time>
      </trkpt>
      <trkpt lat="47.31131" lon="-2.36401">
        <ele>27.60000038147</ele>
        <time>2019-06-16T07:59:17.000Z</time>
      </trkpt>
      <trkpt lat="47.31163" lon="-2.36378">
        <ele>27.60000038147</ele>
        <time>2019-06-16T07:59:22.000Z</time>
      </trkpt>
      <trkpt lat="47.31191" lon="-2.36356">
        <ele>27.60000038147</ele>
        <time>2019-06-16T07:59:27.000Z</time>
      </trkpt>
      <trkpt lat="47.31235" lon="-2.36333">
        <ele>27.60000038147</ele>
        <time>2019-06-16T07:59:34.000Z</time>
      </trkpt>
      <trkpt lat="47.31263" lon="-2.36315">
        <ele>27.60000038147</ele>
        <time>2019-06-16T07:59:39.000Z</time>
      </trkpt>
      <trkpt lat="47.31294" lon="-2.363">
        <ele>27.60000038147</ele>
        <time>2019-06-16T07:59:44.000Z</time>
      </trkpt>
      <trkpt lat="47.31323" lon="-2.36281">
        <ele>27.60000038147</ele>
        <time>2019-06-16T07:59:49.000Z</time>
      </trkpt>
      <trkpt lat="47.31348" lon="-2.36256">
        <ele>27.60000038147</ele>
        <time>2019-06-16T07:59:54.000Z</time>
      </trkpt>
      <trkpt lat="47.31352" lon="-2.3625">
        <ele>27.60000038147</ele>
        <time>2019-06-16T07:59:55.000Z</time>
      </trkpt>
      <trkpt lat="47.31363" lon="-2.36232">
        <ele>27.60000038147</ele>
        <time>2019-06-16T07:59:58.000Z</time>
      </trkpt>
      <trkpt lat="47.31384" lon="-2.36214">
        <ele>27.60000038147</ele>
        <time>2019-06-16T08:00:03.000Z</time>
      </trkpt>
      <trkpt lat="47.31399" lon="-2.3621">
        <ele>27.60000038147</ele>
        <time>2019-06-16T08:00:06.000Z</time>
      </trkpt>
      <trkpt lat="47.31404" lon="-2.36208">
        <ele>27.60000038147</ele>
        <time>2019-06-16T08:00:07.000Z</time>
      </trkpt>
      <trkpt lat="47.31409" lon="-2.36205">
        <ele>27.60000038147</ele>
        <time>2019-06-16T08:00:08.000Z</time>
      </trkpt>
      <trkpt lat="47.31444" lon="-2.36181">
        <ele>27.60000038147</ele>
        <time>2019-06-16T08:00:15.000Z</time>
      </trkpt>
      <trkpt lat="47.31453" lon="-2.36172">
        <ele>27.60000038147</ele>
        <time>2019-06-16T08:00:17.000Z</time>
      </trkpt>
      <trkpt lat="47.31454" lon="-2.36166">
        <ele>27.60000038147</ele>
        <time>2019-06-16T08:00:18.000Z</time>
      </trkpt>
      <trkpt lat="47.31449" lon="-2.36148">
        <ele>27.60000038147</ele>
        <time>2019-06-16T08:00:21.000Z</time>
      </trkpt>
      <trkpt lat="47.31448" lon="-2.36141">
        <ele>27.60000038147</ele>
        <time>2019-06-16T08:00:22.000Z</time>
      </trkpt>
      <trkpt lat="47.31445" lon="-2.36135">
        <ele>27.60000038147</ele>
        <time>2019-06-16T08:00:23.000Z</time>
      </trkpt>
      <trkpt lat="47.31439" lon="-2.36114">
        <ele>27.60000038147</ele>
        <time>2019-06-16T08:00:26.000Z</time>
      </trkpt>
      <trkpt lat="47.31426" lon="-2.36073">
        <ele>27.60000038147</ele>
        <time>2019-06-16T08:00:31.000Z</time>
      </trkpt>
      <trkpt lat="47.31407" lon="-2.36023">
        <ele>27.60000038147</ele>
        <time>2019-06-16T08:00:37.000Z</time>
      </trkpt>
      <trkpt lat="47.31405" lon="-2.36014">
        <ele>27.200000762939</ele>
        <time>2019-06-16T08:00:38.000Z</time>
      </trkpt>
      <trkpt lat="47.31401" lon="-2.36006">
        <ele>26.799999237061</ele>
        <time>2019-06-16T08:00:39.000Z</time>
      </trkpt>
      <trkpt lat="47.31398" lon="-2.35997">
        <ele>26.39999961853</ele>
        <time>2019-06-16T08:00:40.000Z</time>
      </trkpt>
      <trkpt lat="47.31396" lon="-2.35988">
        <ele>26</ele>
        <time>2019-06-16T08:00:41.000Z</time>
      </trkpt>
      <trkpt lat="47.31393" lon="-2.35979">
        <ele>25.60000038147</ele>
        <time>2019-06-16T08:00:42.000Z</time>
      </trkpt>
      <trkpt lat="47.31386" lon="-2.35961">
        <ele>25.60000038147</ele>
        <time>2019-06-16T08:00:44.000Z</time>
      </trkpt>
      <trkpt lat="47.31382" lon="-2.35952">
        <ele>24.799999237061</ele>
        <time>2019-06-16T08:00:45.000Z</time>
      </trkpt>
      <trkpt lat="47.31377" lon="-2.35943">
        <ele>24.39999961853</ele>
        <time>2019-06-16T08:00:46.000Z</time>
      </trkpt>
      <trkpt lat="47.31373" lon="-2.35935">
        <ele>24</ele>
        <time>2019-06-16T08:00:47.000Z</time>
      </trkpt>
      <trkpt lat="47.31368" lon="-2.35926">
        <ele>23.60000038147</ele>
        <time>2019-06-16T08:00:48.000Z</time>
      </trkpt>
      <trkpt lat="47.31356" lon="-2.35902">
        <ele>23.60000038147</ele>
        <time>2019-06-16T08:00:51.000Z</time>
      </trkpt>
      <trkpt lat="47.31337" lon="-2.35854">
        <ele>23.60000038147</ele>
        <time>2019-06-16T08:00:57.000Z</time>
      </trkpt>
      <trkpt lat="47.31334" lon="-2.35821">
        <ele>23.60000038147</ele>
        <time>2019-06-16T08:01:01.000Z</time>
      </trkpt>
      <trkpt lat="47.31334" lon="-2.35814">
        <ele>23.60000038147</ele>
        <time>2019-06-16T08:01:02.000Z</time>
      </trkpt>
      <trkpt lat="47.3133" lon="-2.35773">
        <ele>24</ele>
        <time>2019-06-16T08:01:07.000Z</time>
      </trkpt>
      <trkpt lat="47.31329" lon="-2.35765">
        <ele>24.39999961853</ele>
        <time>2019-06-16T08:01:08.000Z</time>
      </trkpt>
      <trkpt lat="47.31328" lon="-2.35758">
        <ele>24.799999237061</ele>
        <time>2019-06-16T08:01:09.000Z</time>
      </trkpt>
      <trkpt lat="47.31327" lon="-2.35751">
        <ele>25.60000038147</ele>
        <time>2019-06-16T08:01:10.000Z</time>
      </trkpt>
      <trkpt lat="47.31328" lon="-2.35744">
        <ele>25.60000038147</ele>
        <time>2019-06-16T08:01:11.000Z</time>
      </trkpt>
      <trkpt lat="47.3133" lon="-2.35692">
        <ele>25.60000038147</ele>
        <time>2019-06-16T08:01:17.000Z</time>
      </trkpt>
      <trkpt lat="47.3133" lon="-2.35658">
        <ele>25.60000038147</ele>
        <time>2019-06-16T08:01:21.000Z</time>
      </trkpt>
      <trkpt lat="47.3133" lon="-2.3565">
        <ele>25.60000038147</ele>
        <time>2019-06-16T08:01:22.000Z</time>
      </trkpt>
      <trkpt lat="47.31327" lon="-2.35593">
        <ele>25.60000038147</ele>
        <time>2019-06-16T08:01:29.000Z</time>
      </trkpt>
      <trkpt lat="47.31326" lon="-2.35585">
        <ele>25.60000038147</ele>
        <time>2019-06-16T08:01:30.000Z</time>
      </trkpt>
      <trkpt lat="47.31326" lon="-2.35569">
        <ele>25.60000038147</ele>
        <time>2019-06-16T08:01:32.000Z</time>
      </trkpt>
      <trkpt lat="47.3133" lon="-2.35556">
        <ele>25.60000038147</ele>
        <time>2019-06-16T08:01:34.000Z</time>
      </trkpt>
      <trkpt lat="47.31348" lon="-2.35544">
        <ele>25.60000038147</ele>
        <time>2019-06-16T08:01:37.000Z</time>
      </trkpt>
      <trkpt lat="47.31382" lon="-2.35526">
        <ele>25.60000038147</ele>
        <time>2019-06-16T08:01:42.000Z</time>
      </trkpt>
      <trkpt lat="47.31389" lon="-2.35524">
        <ele>25.60000038147</ele>
        <time>2019-06-16T08:01:43.000Z</time>
      </trkpt>
      <trkpt lat="47.3141" lon="-2.35525">
        <ele>25.60000038147</ele>
        <time>2019-06-16T08:01:46.000Z</time>
      </trkpt>
      <trkpt lat="47.31446" lon="-2.35525">
        <ele>25.60000038147</ele>
        <time>2019-06-16T08:01:51.000Z</time>
      </trkpt>
      <trkpt lat="47.31464" lon="-2.35519">
        <ele>25.60000038147</ele>
        <time>2019-06-16T08:01:54.000Z</time>
      </trkpt>
      <trkpt lat="47.3147" lon="-2.35517">
        <ele>25.200000762939</ele>
        <time>2019-06-16T08:01:55.000Z</time>
      </trkpt>
      <trkpt lat="47.31475" lon="-2.35512">
        <ele>24.799999237061</ele>
        <time>2019-06-16T08:01:56.000Z</time>
      </trkpt>
      <trkpt lat="47.31479" lon="-2.35505">
        <ele>24.200000762939</ele>
        <time>2019-06-16T08:01:57.000Z</time>
      </trkpt>
      <trkpt lat="47.31482" lon="-2.35497">
        <ele>23.799999237061</ele>
        <time>2019-06-16T08:01:58.000Z</time>
      </trkpt>
      <trkpt lat="47.31483" lon="-2.35489">
        <ele>23.39999961853</ele>
        <time>2019-06-16T08:01:59.000Z</time>
      </trkpt>
      <trkpt lat="47.31485" lon="-2.35481">
        <ele>23.39999961853</ele>
        <time>2019-06-16T08:02:00.000Z</time>
      </trkpt>
      <trkpt lat="47.31487" lon="-2.35465">
        <ele>23.39999961853</ele>
        <time>2019-06-16T08:02:02.000Z</time>
      </trkpt>
      <trkpt lat="47.31491" lon="-2.35444">
        <ele>23.39999961853</ele>
        <time>2019-06-16T08:02:05.000Z</time>
      </trkpt>
      <trkpt lat="47.31499" lon="-2.35425">
        <ele>23.39999961853</ele>
        <time>2019-06-16T08:02:08.000Z</time>
      </trkpt>
      <trkpt lat="47.31519" lon="-2.35407">
        <ele>23.39999961853</ele>
        <time>2019-06-16T08:02:12.000Z</time>
      </trkpt>
      <trkpt lat="47.31544" lon="-2.35391">
        <ele>23.39999961853</ele>
        <time>2019-06-16T08:02:17.000Z</time>
      </trkpt>
      <trkpt lat="47.31555" lon="-2.35385">
        <ele>23</ele>
        <time>2019-06-16T08:02:19.000Z</time>
      </trkpt>
      <trkpt lat="47.3156" lon="-2.35382">
        <ele>22.60000038147</ele>
        <time>2019-06-16T08:02:20.000Z</time>
      </trkpt>
      <trkpt lat="47.31566" lon="-2.35379">
        <ele>22.200000762939</ele>
        <time>2019-06-16T08:02:21.000Z</time>
      </trkpt>
      <trkpt lat="47.31571" lon="-2.35376">
        <ele>21.799999237061</ele>
        <time>2019-06-16T08:02:22.000Z</time>
      </trkpt>
      <trkpt lat="47.31576" lon="-2.35373">
        <ele>21.39999961853</ele>
        <time>2019-06-16T08:02:23.000Z</time>
      </trkpt>
      <trkpt lat="47.31591" lon="-2.35366">
        <ele>21.39999961853</ele>
        <time>2019-06-16T08:02:26.000Z</time>
      </trkpt>
      <trkpt lat="47.31606" lon="-2.35363">
        <ele>21.39999961853</ele>
        <time>2019-06-16T08:02:29.000Z</time>
      </trkpt>
      <trkpt lat="47.31623" lon="-2.35366">
        <ele>21.39999961853</ele>
        <time>2019-06-16T08:02:32.000Z</time>
      </trkpt>
      <trkpt lat="47.31636" lon="-2.3537">
        <ele>21.39999961853</ele>
        <time>2019-06-16T08:02:34.000Z</time>
      </trkpt>
      <trkpt lat="47.3165" lon="-2.35372">
        <ele>21.39999961853</ele>
        <time>2019-06-16T08:02:36.000Z</time>
      </trkpt>
      <trkpt lat="47.31656" lon="-2.35374">
        <ele>21.39999961853</ele>
        <time>2019-06-16T08:02:37.000Z</time>
      </trkpt>
      <trkpt lat="47.31664" lon="-2.35373">
        <ele>21.39999961853</ele>
        <time>2019-06-16T08:02:38.000Z</time>
      </trkpt>
      <trkpt lat="47.3167" lon="-2.35372">
        <ele>21.39999961853</ele>
        <time>2019-06-16T08:02:39.000Z</time>
      </trkpt>
      <trkpt lat="47.3171" lon="-2.3537">
        <ele>21.39999961853</ele>
        <time>2019-06-16T08:02:45.000Z</time>
      </trkpt>
      <trkpt lat="47.31738" lon="-2.35367">
        <ele>21</ele>
        <time>2019-06-16T08:02:50.000Z</time>
      </trkpt>
      <trkpt lat="47.31742" lon="-2.3537">
        <ele>20.60000038147</ele>
        <time>2019-06-16T08:02:51.000Z</time>
      </trkpt>
      <trkpt lat="47.31745" lon="-2.35375">
        <ele>20</ele>
        <time>2019-06-16T08:02:52.000Z</time>
      </trkpt>
      <trkpt lat="47.31749" lon="-2.3538">
        <ele>19.60000038147</ele>
        <time>2019-06-16T08:02:53.000Z</time>
      </trkpt>
      <trkpt lat="47.31753" lon="-2.35385">
        <ele>19.200000762939</ele>
        <time>2019-06-16T08:02:54.000Z</time>
      </trkpt>
      <trkpt lat="47.3176" lon="-2.35398">
        <ele>19.200000762939</ele>
        <time>2019-06-16T08:02:56.000Z</time>
      </trkpt>
      <trkpt lat="47.31768" lon="-2.35411">
        <ele>19.200000762939</ele>
        <time>2019-06-16T08:02:58.000Z</time>
      </trkpt>
      <trkpt lat="47.31775" lon="-2.35422">
        <ele>18.799999237061</ele>
        <time>2019-06-16T08:03:00.000Z</time>
      </trkpt>
      <trkpt lat="47.31778" lon="-2.35427">
        <ele>18.39999961853</ele>
        <time>2019-06-16T08:03:01.000Z</time>
      </trkpt>
      <trkpt lat="47.31782" lon="-2.35433">
        <ele>18</ele>
        <time>2019-06-16T08:03:02.000Z</time>
      </trkpt>
      <trkpt lat="47.31786" lon="-2.35438">
        <ele>17.60000038147</ele>
        <time>2019-06-16T08:03:03.000Z</time>
      </trkpt>
      <trkpt lat="47.31789" lon="-2.35444">
        <ele>17.200000762939</ele>
        <time>2019-06-16T08:03:04.000Z</time>
      </trkpt>
      <trkpt lat="47.31799" lon="-2.35462">
        <ele>16.799999237061</ele>
        <time>2019-06-16T08:03:07.000Z</time>
      </trkpt>
      <trkpt lat="47.31803" lon="-2.35468">
        <ele>16.39999961853</ele>
        <time>2019-06-16T08:03:08.000Z</time>
      </trkpt>
      <trkpt lat="47.31807" lon="-2.35475">
        <ele>16</ele>
        <time>2019-06-16T08:03:09.000Z</time>
      </trkpt>
      <trkpt lat="47.3181" lon="-2.35481">
        <ele>15.60000038147</ele>
        <time>2019-06-16T08:03:10.000Z</time>
      </trkpt>
      <trkpt lat="47.31813" lon="-2.35485">
        <ele>15.199999809265</ele>
        <time>2019-06-16T08:03:11.000Z</time>
      </trkpt>
      <trkpt lat="47.31819" lon="-2.35496">
        <ele>15.199999809265</ele>
        <time>2019-06-16T08:03:13.000Z</time>
      </trkpt>
      <trkpt lat="47.31829" lon="-2.35513">
        <ele>15.199999809265</ele>
        <time>2019-06-16T08:03:16.000Z</time>
      </trkpt>
      <trkpt lat="47.31832" lon="-2.35519">
        <ele>15.199999809265</ele>
        <time>2019-06-16T08:03:17.000Z</time>
      </trkpt>
      <trkpt lat="47.31839" lon="-2.35536">
        <ele>15.199999809265</ele>
        <time>2019-06-16T08:03:20.000Z</time>
      </trkpt>
      <trkpt lat="47.31836" lon="-2.35542">
        <ele>15.199999809265</ele>
        <time>2019-06-16T08:03:21.000Z</time>
      </trkpt>
      <trkpt lat="47.31825" lon="-2.35554">
        <ele>15.199999809265</ele>
        <time>2019-06-16T08:03:24.000Z</time>
      </trkpt>
      <trkpt lat="47.31813" lon="-2.35571">
        <ele>15.199999809265</ele>
        <time>2019-06-16T08:03:27.000Z</time>
      </trkpt>
      <trkpt lat="47.3181" lon="-2.35578">
        <ele>15.199999809265</ele>
        <time>2019-06-16T08:03:28.000Z</time>
      </trkpt>
      <trkpt lat="47.31795" lon="-2.35609">
        <ele>15.199999809265</ele>
        <time>2019-06-16T08:03:33.000Z</time>
      </trkpt>
      <trkpt lat="47.31792" lon="-2.35615">
        <ele>15.199999809265</ele>
        <time>2019-06-16T08:03:34.000Z</time>
      </trkpt>
      <trkpt lat="47.31782" lon="-2.35641">
        <ele>15.199999809265</ele>
        <time>2019-06-16T08:03:38.000Z</time>
      </trkpt>
      <trkpt lat="47.31783" lon="-2.35666">
        <ele>15.199999809265</ele>
        <time>2019-06-16T08:03:42.000Z</time>
      </trkpt>
      <trkpt lat="47.31784" lon="-2.35676">
        <ele>15.60000038147</ele>
        <time>2019-06-16T08:03:44.000Z</time>
      </trkpt>
      <trkpt lat="47.31785" lon="-2.35681">
        <ele>16</ele>
        <time>2019-06-16T08:03:45.000Z</time>
      </trkpt>
      <trkpt lat="47.31785" lon="-2.35686">
        <ele>16.39999961853</ele>
        <time>2019-06-16T08:03:46.000Z</time>
      </trkpt>
      <trkpt lat="47.31786" lon="-2.35692">
        <ele>16.799999237061</ele>
        <time>2019-06-16T08:03:47.000Z</time>
      </trkpt>
      <trkpt lat="47.31786" lon="-2.35699">
        <ele>17.200000762939</ele>
        <time>2019-06-16T08:03:48.000Z</time>
      </trkpt>
      <trkpt lat="47.31786" lon="-2.35727">
        <ele>17.200000762939</ele>
        <time>2019-06-16T08:03:53.000Z</time>
      </trkpt>
      <trkpt lat="47.31786" lon="-2.3576">
        <ele>17.60000038147</ele>
        <time>2019-06-16T08:03:59.000Z</time>
      </trkpt>
      <trkpt lat="47.31787" lon="-2.35766">
        <ele>18</ele>
        <time>2019-06-16T08:04:00.000Z</time>
      </trkpt>
      <trkpt lat="47.31788" lon="-2.35773">
        <ele>18.39999961853</ele>
        <time>2019-06-16T08:04:01.000Z</time>
      </trkpt>
      <trkpt lat="47.31789" lon="-2.35779">
        <ele>19</ele>
        <time>2019-06-16T08:04:02.000Z</time>
      </trkpt>
      <trkpt lat="47.31792" lon="-2.35785">
        <ele>19.39999961853</ele>
        <time>2019-06-16T08:04:03.000Z</time>
      </trkpt>
      <trkpt lat="47.31798" lon="-2.35795">
        <ele>19.39999961853</ele>
        <time>2019-06-16T08:04:05.000Z</time>
      </trkpt>
      <trkpt lat="47.31811" lon="-2.35816">
        <ele>19.39999961853</ele>
        <time>2019-06-16T08:04:09.000Z</time>
      </trkpt>
      <trkpt lat="47.31814" lon="-2.3582">
        <ele>19.39999961853</ele>
        <time>2019-06-16T08:04:10.000Z</time>
      </trkpt>
      <trkpt lat="47.31823" lon="-2.35854">
        <ele>19.39999961853</ele>
        <time>2019-06-16T08:04:15.000Z</time>
      </trkpt>
      <trkpt lat="47.31819" lon="-2.35875">
        <ele>19.39999961853</ele>
        <time>2019-06-16T08:04:18.000Z</time>
      </trkpt>
      <trkpt lat="47.31803" lon="-2.35885">
        <ele>19.39999961853</ele>
        <time>2019-06-16T08:04:22.000Z</time>
      </trkpt>
      <trkpt lat="47.31786" lon="-2.35895">
        <ele>19.39999961853</ele>
        <time>2019-06-16T08:04:27.000Z</time>
      </trkpt>
      <trkpt lat="47.31778" lon="-2.35901">
        <ele>19.39999961853</ele>
        <time>2019-06-16T08:04:29.000Z</time>
      </trkpt>
      <trkpt lat="47.31765" lon="-2.35909">
        <ele>19.39999961853</ele>
        <time>2019-06-16T08:04:32.000Z</time>
      </trkpt>
      <trkpt lat="47.31751" lon="-2.35916">
        <ele>19.39999961853</ele>
        <time>2019-06-16T08:04:35.000Z</time>
      </trkpt>
      <trkpt lat="47.31738" lon="-2.35925">
        <ele>19.39999961853</ele>
        <time>2019-06-16T08:04:38.000Z</time>
      </trkpt>
      <trkpt lat="47.31721" lon="-2.35937">
        <ele>19.799999237061</ele>
        <time>2019-06-16T08:04:42.000Z</time>
      </trkpt>
      <trkpt lat="47.31717" lon="-2.35939">
        <ele>20.200000762939</ele>
        <time>2019-06-16T08:04:43.000Z</time>
      </trkpt>
      <trkpt lat="47.31713" lon="-2.35942">
        <ele>20.60000038147</ele>
        <time>2019-06-16T08:04:44.000Z</time>
      </trkpt>
      <trkpt lat="47.31709" lon="-2.35944">
        <ele>21</ele>
        <time>2019-06-16T08:04:45.000Z</time>
      </trkpt>
      <trkpt lat="47.31705" lon="-2.35946">
        <ele>21.39999961853</ele>
        <time>2019-06-16T08:04:46.000Z</time>
      </trkpt>
      <trkpt lat="47.31701" lon="-2.35949">
        <ele>21.39999961853</ele>
        <time>2019-06-16T08:04:47.000Z</time>
      </trkpt>
      <trkpt lat="47.31688" lon="-2.35956">
        <ele>21.39999961853</ele>
        <time>2019-06-16T08:04:50.000Z</time>
      </trkpt>
      <trkpt lat="47.31669" lon="-2.3597">
        <ele>21.39999961853</ele>
        <time>2019-06-16T08:04:55.000Z</time>
      </trkpt>
      <trkpt lat="47.31664" lon="-2.35972">
        <ele>21.39999961853</ele>
        <time>2019-06-16T08:04:56.000Z</time>
      </trkpt>
      <trkpt lat="47.31648" lon="-2.35983">
        <ele>21.799999237061</ele>
        <time>2019-06-16T08:05:00.000Z</time>
      </trkpt>
      <trkpt lat="47.31645" lon="-2.35988">
        <ele>22.200000762939</ele>
        <time>2019-06-16T08:05:01.000Z</time>
      </trkpt>
      <trkpt lat="47.31642" lon="-2.35993">
        <ele>22.60000038147</ele>
        <time>2019-06-16T08:05:02.000Z</time>
      </trkpt>
      <trkpt lat="47.31639" lon="-2.35997">
        <ele>23</ele>
        <time>2019-06-16T08:05:03.000Z</time>
      </trkpt>
      <trkpt lat="47.31636" lon="-2.36001">
        <ele>23.39999961853</ele>
        <time>2019-06-16T08:05:04.000Z</time>
      </trkpt>
      <trkpt lat="47.31622" lon="-2.36015">
        <ele>23.39999961853</ele>
        <time>2019-06-16T08:05:08.000Z</time>
      </trkpt>
      <trkpt lat="47.31605" lon="-2.36033">
        <ele>23.39999961853</ele>
        <time>2019-06-16T08:05:12.000Z</time>
      </trkpt>
      <trkpt lat="47.31596" lon="-2.36041">
        <ele>23.39999961853</ele>
        <time>2019-06-16T08:05:14.000Z</time>
      </trkpt>
      <trkpt lat="47.31592" lon="-2.36047">
        <ele>24</ele>
        <time>2019-06-16T08:05:15.000Z</time>
      </trkpt>
      <trkpt lat="47.31587" lon="-2.36051">
        <ele>24.39999961853</ele>
        <time>2019-06-16T08:05:16.000Z</time>
      </trkpt>
      <trkpt lat="47.31583" lon="-2.36055">
        <ele>25.200000762939</ele>
        <time>2019-06-16T08:05:17.000Z</time>
      </trkpt>
      <trkpt lat="47.31579" lon="-2.36059">
        <ele>25.60000038147</ele>
        <time>2019-06-16T08:05:18.000Z</time>
      </trkpt>
      <trkpt lat="47.31575" lon="-2.36063">
        <ele>25.60000038147</ele>
        <time>2019-06-16T08:05:19.000Z</time>
      </trkpt>
      <trkpt lat="47.31557" lon="-2.36078">
        <ele>25.60000038147</ele>
        <time>2019-06-16T08:05:24.000Z</time>
      </trkpt>
      <trkpt lat="47.31552" lon="-2.36082">
        <ele>25.60000038147</ele>
        <time>2019-06-16T08:05:25.000Z</time>
      </trkpt>
      <trkpt lat="47.31543" lon="-2.36093">
        <ele>25.60000038147</ele>
        <time>2019-06-16T08:05:28.000Z</time>
      </trkpt>
      <trkpt lat="47.31524" lon="-2.36114">
        <ele>25.60000038147</ele>
        <time>2019-06-16T08:05:33.000Z</time>
      </trkpt>
      <trkpt lat="47.315" lon="-2.36144">
        <ele>25.60000038147</ele>
        <time>2019-06-16T08:05:40.000Z</time>
      </trkpt>
      <trkpt lat="47.31478" lon="-2.36168">
        <ele>25.60000038147</ele>
        <time>2019-06-16T08:05:46.000Z</time>
      </trkpt>
      <trkpt lat="47.31467" lon="-2.36182">
        <ele>25.60000038147</ele>
        <time>2019-06-16T08:05:49.000Z</time>
      </trkpt>
      <trkpt lat="47.31466" lon="-2.36195">
        <ele>25.60000038147</ele>
        <time>2019-06-16T08:05:51.000Z</time>
      </trkpt>
      <trkpt lat="47.31469" lon="-2.36208">
        <ele>25.60000038147</ele>
        <time>2019-06-16T08:05:53.000Z</time>
      </trkpt>
      <trkpt lat="47.31473" lon="-2.36223">
        <ele>25.60000038147</ele>
        <time>2019-06-16T08:05:55.000Z</time>
      </trkpt>
      <trkpt lat="47.31485" lon="-2.36267">
        <ele>25.60000038147</ele>
        <time>2019-06-16T08:06:01.000Z</time>
      </trkpt>
      <trkpt lat="47.31497" lon="-2.36322">
        <ele>25.60000038147</ele>
        <time>2019-06-16T08:06:08.000Z</time>
      </trkpt>
      <trkpt lat="47.31498" lon="-2.3634">
        <ele>25.60000038147</ele>
        <time>2019-06-16T08:06:10.000Z</time>
      </trkpt>
      <trkpt lat="47.31497" lon="-2.36365">
        <ele>25.60000038147</ele>
        <time>2019-06-16T08:06:13.000Z</time>
      </trkpt>
      <trkpt lat="47.31496" lon="-2.36373">
        <ele>25.200000762939</ele>
        <time>2019-06-16T08:06:14.000Z</time>
      </trkpt>
      <trkpt lat="47.31496" lon="-2.36382">
        <ele>24.60000038147</ele>
        <time>2019-06-16T08:06:15.000Z</time>
      </trkpt>
      <trkpt lat="47.31496" lon="-2.36391">
        <ele>24.200000762939</ele>
        <time>2019-06-16T08:06:16.000Z</time>
      </trkpt>
      <trkpt lat="47.31495" lon="-2.364">
        <ele>23.799999237061</ele>
        <time>2019-06-16T08:06:17.000Z</time>
      </trkpt>
      <trkpt lat="47.31496" lon="-2.3641">
        <ele>23.39999961853</ele>
        <time>2019-06-16T08:06:18.000Z</time>
      </trkpt>
      <trkpt lat="47.31497" lon="-2.36419">
        <ele>23.39999961853</ele>
        <time>2019-06-16T08:06:19.000Z</time>
      </trkpt>
      <trkpt lat="47.31497" lon="-2.36434">
        <ele>23</ele>
        <time>2019-06-16T08:06:21.000Z</time>
      </trkpt>
      <trkpt lat="47.31497" lon="-2.36439">
        <ele>22.60000038147</ele>
        <time>2019-06-16T08:06:22.000Z</time>
      </trkpt>
      <trkpt lat="47.31497" lon="-2.36443">
        <ele>22.200000762939</ele>
        <time>2019-06-16T08:06:23.000Z</time>
      </trkpt>
      <trkpt lat="47.31497" lon="-2.36446">
        <ele>21.799999237061</ele>
        <time>2019-06-16T08:06:24.000Z</time>
      </trkpt>
      <trkpt lat="47.31497" lon="-2.36448">
        <ele>21.39999961853</ele>
        <time>2019-06-16T08:06:25.000Z</time>
      </trkpt>
      <trkpt lat="47.31496" lon="-2.36449">
        <ele>21.39999961853</ele>
        <time>2019-06-16T08:06:26.000Z</time>
      </trkpt>
      <trkpt lat="47.31496" lon="-2.36449">
        <ele>21.39999961853</ele>
        <time>2019-06-16T08:06:27.000Z</time>
      </trkpt>
      <trkpt lat="47.31499" lon="-2.36458">
        <ele>19.200000762939</ele>
        <time>2019-06-16T08:06:41.000Z</time>
      </trkpt>
      <trkpt lat="47.31499" lon="-2.36467">
        <ele>19.200000762939</ele>
        <time>2019-06-16T08:06:43.000Z</time>
      </trkpt>
      <trkpt lat="47.315" lon="-2.36478">
        <ele>19.200000762939</ele>
        <time>2019-06-16T08:06:45.000Z</time>
      </trkpt>
      <trkpt lat="47.315" lon="-2.36489">
        <ele>19.200000762939</ele>
        <time>2019-06-16T08:06:47.000Z</time>
      </trkpt>
      <trkpt lat="47.315" lon="-2.36512">
        <ele>19.200000762939</ele>
        <time>2019-06-16T08:06:52.000Z</time>
      </trkpt>
      <trkpt lat="47.315" lon="-2.36537">
        <ele>19.200000762939</ele>
        <time>2019-06-16T08:06:58.000Z</time>
      </trkpt>
      <trkpt lat="47.315" lon="-2.36562">
        <ele>19.200000762939</ele>
        <time>2019-06-16T08:07:03.000Z</time>
      </trkpt>
      <trkpt lat="47.31494" lon="-2.36585">
        <ele>19.200000762939</ele>
        <time>2019-06-16T08:07:07.000Z</time>
      </trkpt>
      <trkpt lat="47.31495" lon="-2.366">
        <ele>19.200000762939</ele>
        <time>2019-06-16T08:07:09.000Z</time>
      </trkpt>
      <trkpt lat="47.31498" lon="-2.36616">
        <ele>19.200000762939</ele>
        <time>2019-06-16T08:07:11.000Z</time>
      </trkpt>
      <trkpt lat="47.31505" lon="-2.36642">
        <ele>19.200000762939</ele>
        <time>2019-06-16T08:07:15.000Z</time>
      </trkpt>
      <trkpt lat="47.3151" lon="-2.36656">
        <ele>19.200000762939</ele>
        <time>2019-06-16T08:07:17.000Z</time>
      </trkpt>
      <trkpt lat="47.31517" lon="-2.36682">
        <ele>19.200000762939</ele>
        <time>2019-06-16T08:07:21.000Z</time>
      </trkpt>
      <trkpt lat="47.31522" lon="-2.36694">
        <ele>19.200000762939</ele>
        <time>2019-06-16T08:07:23.000Z</time>
      </trkpt>
      <trkpt lat="47.31525" lon="-2.36708">
        <ele>19.200000762939</ele>
        <time>2019-06-16T08:07:25.000Z</time>
      </trkpt>
      <trkpt lat="47.31528" lon="-2.36721">
        <ele>19.200000762939</ele>
        <time>2019-06-16T08:07:27.000Z</time>
      </trkpt>
      <trkpt lat="47.31539" lon="-2.36763">
        <ele>19.799999237061</ele>
        <time>2019-06-16T08:07:33.000Z</time>
      </trkpt>
      <trkpt lat="47.3154" lon="-2.3677">
        <ele>20.200000762939</ele>
        <time>2019-06-16T08:07:34.000Z</time>
      </trkpt>
      <trkpt lat="47.31542" lon="-2.36776">
        <ele>20.60000038147</ele>
        <time>2019-06-16T08:07:35.000Z</time>
      </trkpt>
      <trkpt lat="47.31543" lon="-2.36782">
        <ele>21</ele>
        <time>2019-06-16T08:07:36.000Z</time>
      </trkpt>
      <trkpt lat="47.31544" lon="-2.36789">
        <ele>21.39999961853</ele>
        <time>2019-06-16T08:07:37.000Z</time>
      </trkpt>
      <trkpt lat="47.31548" lon="-2.36805">
        <ele>21.39999961853</ele>
        <time>2019-06-16T08:07:40.000Z</time>
      </trkpt>
      <trkpt lat="47.31553" lon="-2.36815">
        <ele>21.39999961853</ele>
        <time>2019-06-16T08:07:42.000Z</time>
      </trkpt>
      <trkpt lat="47.31554" lon="-2.36827">
        <ele>21.39999961853</ele>
        <time>2019-06-16T08:07:44.000Z</time>
      </trkpt>
      <trkpt lat="47.31555" lon="-2.36833">
        <ele>22.200000762939</ele>
        <time>2019-06-16T08:07:45.000Z</time>
      </trkpt>
      <trkpt lat="47.31557" lon="-2.36839">
        <ele>22.60000038147</ele>
        <time>2019-06-16T08:07:46.000Z</time>
      </trkpt>
      <trkpt lat="47.31558" lon="-2.36845">
        <ele>23</ele>
        <time>2019-06-16T08:07:47.000Z</time>
      </trkpt>
      <trkpt lat="47.3156" lon="-2.36851">
        <ele>23.39999961853</ele>
        <time>2019-06-16T08:07:48.000Z</time>
      </trkpt>
      <trkpt lat="47.31568" lon="-2.36876">
        <ele>23.39999961853</ele>
        <time>2019-06-16T08:07:52.000Z</time>
      </trkpt>
      <trkpt lat="47.31569" lon="-2.36882">
        <ele>23.39999961853</ele>
        <time>2019-06-16T08:07:53.000Z</time>
      </trkpt>
      <trkpt lat="47.3157" lon="-2.36888">
        <ele>23.799999237061</ele>
        <time>2019-06-16T08:07:54.000Z</time>
      </trkpt>
      <trkpt lat="47.31572" lon="-2.36893">
        <ele>24.200000762939</ele>
        <time>2019-06-16T08:07:55.000Z</time>
      </trkpt>
      <trkpt lat="47.31574" lon="-2.36899">
        <ele>24.60000038147</ele>
        <time>2019-06-16T08:07:56.000Z</time>
      </trkpt>
      <trkpt lat="47.31575" lon="-2.36904">
        <ele>25</ele>
        <time>2019-06-16T08:07:57.000Z</time>
      </trkpt>
      <trkpt lat="47.31577" lon="-2.36909">
        <ele>25.39999961853</ele>
        <time>2019-06-16T08:07:58.000Z</time>
      </trkpt>
      <trkpt lat="47.31588" lon="-2.36942">
        <ele>25.39999961853</ele>
        <time>2019-06-16T08:08:04.000Z</time>
      </trkpt>
      <trkpt lat="47.3159" lon="-2.36948">
        <ele>25.799999237061</ele>
        <time>2019-06-16T08:08:05.000Z</time>
      </trkpt>
      <trkpt lat="47.31592" lon="-2.36954">
        <ele>26.200000762939</ele>
        <time>2019-06-16T08:08:06.000Z</time>
      </trkpt>
      <trkpt lat="47.31593" lon="-2.36959">
        <ele>26.60000038147</ele>
        <time>2019-06-16T08:08:07.000Z</time>
      </trkpt>
      <trkpt lat="47.31595" lon="-2.36965">
        <ele>27.200000762939</ele>
        <time>2019-06-16T08:08:08.000Z</time>
      </trkpt>
      <trkpt lat="47.31597" lon="-2.36971">
        <ele>27.60000038147</ele>
        <time>2019-06-16T08:08:09.000Z</time>
      </trkpt>
      <trkpt lat="47.31602" lon="-2.36988">
        <ele>27.60000038147</ele>
        <time>2019-06-16T08:08:12.000Z</time>
      </trkpt>
      <trkpt lat="47.31615" lon="-2.37027">
        <ele>27.60000038147</ele>
        <time>2019-06-16T08:08:19.000Z</time>
      </trkpt>
      <trkpt lat="47.31617" lon="-2.37033">
        <ele>28</ele>
        <time>2019-06-16T08:08:20.000Z</time>
      </trkpt>
      <trkpt lat="47.3162" lon="-2.37038">
        <ele>28.39999961853</ele>
        <time>2019-06-16T08:08:21.000Z</time>
      </trkpt>
      <trkpt lat="47.31622" lon="-2.37044">
        <ele>28.799999237061</ele>
        <time>2019-06-16T08:08:22.000Z</time>
      </trkpt>
      <trkpt lat="47.31625" lon="-2.3705">
        <ele>29.200000762939</ele>
        <time>2019-06-16T08:08:23.000Z</time>
      </trkpt>
      <trkpt lat="47.31627" lon="-2.37054">
        <ele>29.60000038147</ele>
        <time>2019-06-16T08:08:24.000Z</time>
      </trkpt>
      <trkpt lat="47.31629" lon="-2.3706">
        <ele>29.60000038147</ele>
        <time>2019-06-16T08:08:25.000Z</time>
      </trkpt>
      <trkpt lat="47.31632" lon="-2.37065">
        <ele>29.60000038147</ele>
        <time>2019-06-16T08:08:26.000Z</time>
      </trkpt>
      <trkpt lat="47.31647" lon="-2.37096">
        <ele>29.60000038147</ele>
        <time>2019-06-16T08:08:32.000Z</time>
      </trkpt>
      <trkpt lat="47.31662" lon="-2.37125">
        <ele>29.60000038147</ele>
        <time>2019-06-16T08:08:37.000Z</time>
      </trkpt>
      <trkpt lat="47.31672" lon="-2.37142">
        <ele>29.60000038147</ele>
        <time>2019-06-16T08:08:40.000Z</time>
      </trkpt>
      <trkpt lat="47.31677" lon="-2.37154">
        <ele>29.60000038147</ele>
        <time>2019-06-16T08:08:42.000Z</time>
      </trkpt>
      <trkpt lat="47.31694" lon="-2.37198">
        <ele>29.60000038147</ele>
        <time>2019-06-16T08:08:49.000Z</time>
      </trkpt>
      <trkpt lat="47.3169" lon="-2.37221">
        <ele>29.60000038147</ele>
        <time>2019-06-16T08:08:52.000Z</time>
      </trkpt>
      <trkpt lat="47.31688" lon="-2.37227">
        <ele>29.60000038147</ele>
        <time>2019-06-16T08:08:53.000Z</time>
      </trkpt>
      <trkpt lat="47.31685" lon="-2.37232">
        <ele>29.60000038147</ele>
        <time>2019-06-16T08:08:54.000Z</time>
      </trkpt>
      <trkpt lat="47.3168" lon="-2.37237">
        <ele>30</ele>
        <time>2019-06-16T08:08:55.000Z</time>
      </trkpt>
      <trkpt lat="47.31676" lon="-2.37242">
        <ele>30.39999961853</ele>
        <time>2019-06-16T08:08:56.000Z</time>
      </trkpt>
      <trkpt lat="47.31672" lon="-2.37246">
        <ele>30.799999237061</ele>
        <time>2019-06-16T08:08:57.000Z</time>
      </trkpt>
      <trkpt lat="47.31668" lon="-2.37251">
        <ele>31.200000762939</ele>
        <time>2019-06-16T08:08:58.000Z</time>
      </trkpt>
      <trkpt lat="47.31664" lon="-2.37254">
        <ele>31.799999237061</ele>
        <time>2019-06-16T08:08:59.000Z</time>
      </trkpt>
      <trkpt lat="47.31646" lon="-2.37269">
        <ele>31.799999237061</ele>
        <time>2019-06-16T08:09:03.000Z</time>
      </trkpt>
      <trkpt lat="47.31638" lon="-2.37277">
        <ele>31.799999237061</ele>
        <time>2019-06-16T08:09:05.000Z</time>
      </trkpt>
      <trkpt lat="47.31627" lon="-2.37291">
        <ele>31.799999237061</ele>
        <time>2019-06-16T08:09:08.000Z</time>
      </trkpt>
      <trkpt lat="47.31624" lon="-2.37297">
        <ele>31.799999237061</ele>
        <time>2019-06-16T08:09:09.000Z</time>
      </trkpt>
      <trkpt lat="47.31621" lon="-2.37318">
        <ele>31.799999237061</ele>
        <time>2019-06-16T08:09:12.000Z</time>
      </trkpt>
      <trkpt lat="47.31624" lon="-2.37346">
        <ele>31.799999237061</ele>
        <time>2019-06-16T08:09:16.000Z</time>
      </trkpt>
      <trkpt lat="47.31625" lon="-2.37352">
        <ele>31.799999237061</ele>
        <time>2019-06-16T08:09:17.000Z</time>
      </trkpt>
      <trkpt lat="47.31634" lon="-2.37394">
        <ele>31.799999237061</ele>
        <time>2019-06-16T08:09:23.000Z</time>
      </trkpt>
      <trkpt lat="47.31635" lon="-2.37408">
        <ele>31.799999237061</ele>
        <time>2019-06-16T08:09:25.000Z</time>
      </trkpt>
      <trkpt lat="47.31636" lon="-2.37434">
        <ele>31.799999237061</ele>
        <time>2019-06-16T08:09:29.000Z</time>
      </trkpt>
      <trkpt lat="47.31638" lon="-2.37473">
        <ele>31.200000762939</ele>
        <time>2019-06-16T08:09:35.000Z</time>
      </trkpt>
      <trkpt lat="47.31639" lon="-2.37478">
        <ele>30.799999237061</ele>
        <time>2019-06-16T08:09:36.000Z</time>
      </trkpt>
      <trkpt lat="47.31639" lon="-2.37483">
        <ele>30.39999961853</ele>
        <time>2019-06-16T08:09:37.000Z</time>
      </trkpt>
      <trkpt lat="47.31639" lon="-2.37489">
        <ele>30</ele>
        <time>2019-06-16T08:09:38.000Z</time>
      </trkpt>
      <trkpt lat="47.31639" lon="-2.37495">
        <ele>29.60000038147</ele>
        <time>2019-06-16T08:09:39.000Z</time>
      </trkpt>
      <trkpt lat="47.31637" lon="-2.37502">
        <ele>29.60000038147</ele>
        <time>2019-06-16T08:09:40.000Z</time>
      </trkpt>
      <trkpt lat="47.31635" lon="-2.37514">
        <ele>29.60000038147</ele>
        <time>2019-06-16T08:09:42.000Z</time>
      </trkpt>
      <trkpt lat="47.31633" lon="-2.3752">
        <ele>29.60000038147</ele>
        <time>2019-06-16T08:09:43.000Z</time>
      </trkpt>
      <trkpt lat="47.31625" lon="-2.37538">
        <ele>29.60000038147</ele>
        <time>2019-06-16T08:09:46.000Z</time>
      </trkpt>
      <trkpt lat="47.31623" lon="-2.37544">
        <ele>29.60000038147</ele>
        <time>2019-06-16T08:09:47.000Z</time>
      </trkpt>
      <trkpt lat="47.31618" lon="-2.37564">
        <ele>29.60000038147</ele>
        <time>2019-06-16T08:09:50.000Z</time>
      </trkpt>
      <trkpt lat="47.31615" lon="-2.37578">
        <ele>29.60000038147</ele>
        <time>2019-06-16T08:09:52.000Z</time>
      </trkpt>
      <trkpt lat="47.31615" lon="-2.37585">
        <ele>29.60000038147</ele>
        <time>2019-06-16T08:09:53.000Z</time>
      </trkpt>
      <trkpt lat="47.31615" lon="-2.37619">
        <ele>29.60000038147</ele>
        <time>2019-06-16T08:09:58.000Z</time>
      </trkpt>
      <trkpt lat="47.31619" lon="-2.3764">
        <ele>29.60000038147</ele>
        <time>2019-06-16T08:10:01.000Z</time>
      </trkpt>
      <trkpt lat="47.31631" lon="-2.37653">
        <ele>29.60000038147</ele>
        <time>2019-06-16T08:10:04.000Z</time>
      </trkpt>
      <trkpt lat="47.3164" lon="-2.37659">
        <ele>29.200000762939</ele>
        <time>2019-06-16T08:10:06.000Z</time>
      </trkpt>
      <trkpt lat="47.31645" lon="-2.37662">
        <ele>28.799999237061</ele>
        <time>2019-06-16T08:10:07.000Z</time>
      </trkpt>
      <trkpt lat="47.3165" lon="-2.37665">
        <ele>28.39999961853</ele>
        <time>2019-06-16T08:10:08.000Z</time>
      </trkpt>
      <trkpt lat="47.31654" lon="-2.37669">
        <ele>28</ele>
        <time>2019-06-16T08:10:09.000Z</time>
      </trkpt>
      <trkpt lat="47.31658" lon="-2.37672">
        <ele>27.60000038147</ele>
        <time>2019-06-16T08:10:10.000Z</time>
      </trkpt>
      <trkpt lat="47.31663" lon="-2.37676">
        <ele>27.60000038147</ele>
        <time>2019-06-16T08:10:11.000Z</time>
      </trkpt>
      <trkpt lat="47.31685" lon="-2.37701">
        <ele>27.60000038147</ele>
        <time>2019-06-16T08:10:16.000Z</time>
      </trkpt>
      <trkpt lat="47.31694" lon="-2.37708">
        <ele>27.60000038147</ele>
        <time>2019-06-16T08:10:18.000Z</time>
      </trkpt>
      <trkpt lat="47.31711" lon="-2.37715">
        <ele>27.60000038147</ele>
        <time>2019-06-16T08:10:21.000Z</time>
      </trkpt>
      <trkpt lat="47.31722" lon="-2.37714">
        <ele>27.60000038147</ele>
        <time>2019-06-16T08:10:23.000Z</time>
      </trkpt>
      <trkpt lat="47.31744" lon="-2.37705">
        <ele>27.60000038147</ele>
        <time>2019-06-16T08:10:27.000Z</time>
      </trkpt>
      <trkpt lat="47.3177" lon="-2.37683">
        <ele>27.60000038147</ele>
        <time>2019-06-16T08:10:32.000Z</time>
      </trkpt>
      <trkpt lat="47.31775" lon="-2.37678">
        <ele>27.60000038147</ele>
        <time>2019-06-16T08:10:33.000Z</time>
      </trkpt>
      <trkpt lat="47.31805" lon="-2.37652">
        <ele>27.60000038147</ele>
        <time>2019-06-16T08:10:39.000Z</time>
      </trkpt>
      <trkpt lat="47.3182" lon="-2.37653">
        <ele>27.60000038147</ele>
        <time>2019-06-16T08:10:42.000Z</time>
      </trkpt>
      <trkpt lat="47.31826" lon="-2.37663">
        <ele>27.60000038147</ele>
        <time>2019-06-16T08:10:44.000Z</time>
      </trkpt>
      <trkpt lat="47.31826" lon="-2.3767">
        <ele>27.60000038147</ele>
        <time>2019-06-16T08:10:45.000Z</time>
      </trkpt>
      <trkpt lat="47.3182" lon="-2.37691">
        <ele>27.60000038147</ele>
        <time>2019-06-16T08:10:48.000Z</time>
      </trkpt>
      <trkpt lat="47.31817" lon="-2.37716">
        <ele>27.60000038147</ele>
        <time>2019-06-16T08:10:51.000Z</time>
      </trkpt>
      <trkpt lat="47.31816" lon="-2.37733">
        <ele>27.60000038147</ele>
        <time>2019-06-16T08:10:53.000Z</time>
      </trkpt>
      <trkpt lat="47.31813" lon="-2.37781">
        <ele>27.60000038147</ele>
        <time>2019-06-16T08:10:58.000Z</time>
      </trkpt>
      <trkpt lat="47.31804" lon="-2.37861">
        <ele>27.60000038147</ele>
        <time>2019-06-16T08:11:06.000Z</time>
      </trkpt>
      <trkpt lat="47.31796" lon="-2.37944">
        <ele>27.60000038147</ele>
        <time>2019-06-16T08:11:14.000Z</time>
      </trkpt>
      <trkpt lat="47.31796" lon="-2.37977">
        <ele>27.200000762939</ele>
        <time>2019-06-16T08:11:17.000Z</time>
      </trkpt>
      <trkpt lat="47.31796" lon="-2.37988">
        <ele>26.799999237061</ele>
        <time>2019-06-16T08:11:18.000Z</time>
      </trkpt>
      <trkpt lat="47.31796" lon="-2.37999">
        <ele>26.200000762939</ele>
        <time>2019-06-16T08:11:19.000Z</time>
      </trkpt>
      <trkpt lat="47.31796" lon="-2.38011">
        <ele>25.799999237061</ele>
        <time>2019-06-16T08:11:20.000Z</time>
      </trkpt>
      <trkpt lat="47.31797" lon="-2.38022">
        <ele>25.39999961853</ele>
        <time>2019-06-16T08:11:21.000Z</time>
      </trkpt>
      <trkpt lat="47.318" lon="-2.38064">
        <ele>25</ele>
        <time>2019-06-16T08:11:25.000Z</time>
      </trkpt>
      <trkpt lat="47.31801" lon="-2.38074">
        <ele>24.39999961853</ele>
        <time>2019-06-16T08:11:26.000Z</time>
      </trkpt>
      <trkpt lat="47.31801" lon="-2.38084">
        <ele>23.60000038147</ele>
        <time>2019-06-16T08:11:27.000Z</time>
      </trkpt>
      <trkpt lat="47.31802" lon="-2.38093">
        <ele>23.200000762939</ele>
        <time>2019-06-16T08:11:28.000Z</time>
      </trkpt>
      <trkpt lat="47.31804" lon="-2.38149">
        <ele>23.200000762939</ele>
        <time>2019-06-16T08:11:34.000Z</time>
      </trkpt>
      <trkpt lat="47.31806" lon="-2.38202">
        <ele>23.200000762939</ele>
        <time>2019-06-16T08:11:40.000Z</time>
      </trkpt>
      <trkpt lat="47.31808" lon="-2.38254">
        <ele>23.200000762939</ele>
        <time>2019-06-16T08:11:46.000Z</time>
      </trkpt>
      <trkpt lat="47.31809" lon="-2.38279">
        <ele>23.60000038147</ele>
        <time>2019-06-16T08:11:49.000Z</time>
      </trkpt>
      <trkpt lat="47.31809" lon="-2.38287">
        <ele>24</ele>
        <time>2019-06-16T08:11:50.000Z</time>
      </trkpt>
      <trkpt lat="47.31809" lon="-2.38295">
        <ele>24.39999961853</ele>
        <time>2019-06-16T08:11:51.000Z</time>
      </trkpt>
      <trkpt lat="47.31809" lon="-2.38304">
        <ele>25.200000762939</ele>
        <time>2019-06-16T08:11:52.000Z</time>
      </trkpt>
      <trkpt lat="47.31809" lon="-2.3832">
        <ele>25.200000762939</ele>
        <time>2019-06-16T08:11:54.000Z</time>
      </trkpt>
      <trkpt lat="47.3181" lon="-2.3836">
        <ele>25.60000038147</ele>
        <time>2019-06-16T08:11:59.000Z</time>
      </trkpt>
      <trkpt lat="47.3181" lon="-2.38368">
        <ele>26.200000762939</ele>
        <time>2019-06-16T08:12:00.000Z</time>
      </trkpt>
      <trkpt lat="47.3181" lon="-2.38375">
        <ele>26.60000038147</ele>
        <time>2019-06-16T08:12:01.000Z</time>
      </trkpt>
      <trkpt lat="47.3181" lon="-2.38383">
        <ele>27</ele>
        <time>2019-06-16T08:12:02.000Z</time>
      </trkpt>
      <trkpt lat="47.3181" lon="-2.38391">
        <ele>27.39999961853</ele>
        <time>2019-06-16T08:12:03.000Z</time>
      </trkpt>
      <trkpt lat="47.3181" lon="-2.38454">
        <ele>27.39999961853</ele>
        <time>2019-06-16T08:12:11.000Z</time>
      </trkpt>
      <trkpt lat="47.3181" lon="-2.38497">
        <ele>27.39999961853</ele>
        <time>2019-06-16T08:12:18.000Z</time>
      </trkpt>
      <trkpt lat="47.3181" lon="-2.38508">
        <ele>27.799999237061</ele>
        <time>2019-06-16T08:12:20.000Z</time>
      </trkpt>
      <trkpt lat="47.3181" lon="-2.38512">
        <ele>28.200000762939</ele>
        <time>2019-06-16T08:12:21.000Z</time>
      </trkpt>
      <trkpt lat="47.3181" lon="-2.38516">
        <ele>28.799999237061</ele>
        <time>2019-06-16T08:12:22.000Z</time>
      </trkpt>
      <trkpt lat="47.3181" lon="-2.3852">
        <ele>29.200000762939</ele>
        <time>2019-06-16T08:12:23.000Z</time>
      </trkpt>
      <trkpt lat="47.3181" lon="-2.38523">
        <ele>29.60000038147</ele>
        <time>2019-06-16T08:12:24.000Z</time>
      </trkpt>
      <trkpt lat="47.31811" lon="-2.38535">
        <ele>29.60000038147</ele>
        <time>2019-06-16T08:12:29.000Z</time>
      </trkpt>
      <trkpt lat="47.31812" lon="-2.38535">
        <ele>29.60000038147</ele>
        <time>2019-06-16T08:17:05.000Z</time>
      </trkpt>
      <trkpt lat="47.31816" lon="-2.38537">
        <ele>29.60000038147</ele>
        <time>2019-06-16T08:17:07.000Z</time>
      </trkpt>
      <trkpt lat="47.31825" lon="-2.38536">
        <ele>29.60000038147</ele>
        <time>2019-06-16T08:17:10.000Z</time>
      </trkpt>
      <trkpt lat="47.31832" lon="-2.38535">
        <ele>29.60000038147</ele>
        <time>2019-06-16T08:17:12.000Z</time>
      </trkpt>
      <trkpt lat="47.31839" lon="-2.38533">
        <ele>29.200000762939</ele>
        <time>2019-06-16T08:17:14.000Z</time>
      </trkpt>
      <trkpt lat="47.31842" lon="-2.38531">
        <ele>28.799999237061</ele>
        <time>2019-06-16T08:17:15.000Z</time>
      </trkpt>
      <trkpt lat="47.31844" lon="-2.3853">
        <ele>28.39999961853</ele>
        <time>2019-06-16T08:17:16.000Z</time>
      </trkpt>
      <trkpt lat="47.31848" lon="-2.38529">
        <ele>28</ele>
        <time>2019-06-16T08:17:17.000Z</time>
      </trkpt>
      <trkpt lat="47.31851" lon="-2.38527">
        <ele>27.60000038147</ele>
        <time>2019-06-16T08:17:18.000Z</time>
      </trkpt>
      <trkpt lat="47.31879" lon="-2.38516">
        <ele>27.60000038147</ele>
        <time>2019-06-16T08:17:24.000Z</time>
      </trkpt>
      <trkpt lat="47.31895" lon="-2.38508">
        <ele>27.200000762939</ele>
        <time>2019-06-16T08:17:27.000Z</time>
      </trkpt>
      <trkpt lat="47.31901" lon="-2.38504">
        <ele>26.799999237061</ele>
        <time>2019-06-16T08:17:28.000Z</time>
      </trkpt>
      <trkpt lat="47.31906" lon="-2.38501">
        <ele>26.39999961853</ele>
        <time>2019-06-16T08:17:29.000Z</time>
      </trkpt>
      <trkpt lat="47.31912" lon="-2.38498">
        <ele>26</ele>
        <time>2019-06-16T08:17:30.000Z</time>
      </trkpt>
      <trkpt lat="47.31917" lon="-2.38495">
        <ele>25.60000038147</ele>
        <time>2019-06-16T08:17:31.000Z</time>
      </trkpt>
      <trkpt lat="47.31942" lon="-2.38488">
        <ele>25.60000038147</ele>
        <time>2019-06-16T08:17:35.000Z</time>
      </trkpt>
      <trkpt lat="47.3196" lon="-2.38484">
        <ele>25.60000038147</ele>
        <time>2019-06-16T08:17:38.000Z</time>
      </trkpt>
      <trkpt lat="47.31966" lon="-2.38482">
        <ele>25</ele>
        <time>2019-06-16T08:17:39.000Z</time>
      </trkpt>
      <trkpt lat="47.31972" lon="-2.3848">
        <ele>24.60000038147</ele>
        <time>2019-06-16T08:17:40.000Z</time>
      </trkpt>
      <trkpt lat="47.31977" lon="-2.38478">
        <ele>24.200000762939</ele>
        <time>2019-06-16T08:17:41.000Z</time>
      </trkpt>
      <trkpt lat="47.31982" lon="-2.38476">
        <ele>23.799999237061</ele>
        <time>2019-06-16T08:17:42.000Z</time>
      </trkpt>
      <trkpt lat="47.31987" lon="-2.38473">
        <ele>23.39999961853</ele>
        <time>2019-06-16T08:17:43.000Z</time>
      </trkpt>
      <trkpt lat="47.31992" lon="-2.38471">
        <ele>23.39999961853</ele>
        <time>2019-06-16T08:17:44.000Z</time>
      </trkpt>
      <trkpt lat="47.32001" lon="-2.38468">
        <ele>23.39999961853</ele>
        <time>2019-06-16T08:17:46.000Z</time>
      </trkpt>
      <trkpt lat="47.32033" lon="-2.38456">
        <ele>23.39999961853</ele>
        <time>2019-06-16T08:17:52.000Z</time>
      </trkpt>
      <trkpt lat="47.32043" lon="-2.38453">
        <ele>23</ele>
        <time>2019-06-16T08:17:54.000Z</time>
      </trkpt>
      <trkpt lat="47.32049" lon="-2.38451">
        <ele>22.39999961853</ele>
        <time>2019-06-16T08:17:55.000Z</time>
      </trkpt>
      <trkpt lat="47.32055" lon="-2.38449">
        <ele>22</ele>
        <time>2019-06-16T08:17:56.000Z</time>
      </trkpt>
      <trkpt lat="47.3206" lon="-2.38446">
        <ele>21.60000038147</ele>
        <time>2019-06-16T08:17:57.000Z</time>
      </trkpt>
      <trkpt lat="47.32065" lon="-2.38444">
        <ele>21.200000762939</ele>
        <time>2019-06-16T08:17:58.000Z</time>
      </trkpt>
      <trkpt lat="47.3207" lon="-2.38441">
        <ele>21.200000762939</ele>
        <time>2019-06-16T08:17:59.000Z</time>
      </trkpt>
      <trkpt lat="47.32084" lon="-2.38434">
        <ele>20.39999961853</ele>
        <time>2019-06-16T08:18:02.000Z</time>
      </trkpt>
      <trkpt lat="47.32089" lon="-2.38432">
        <ele>20</ele>
        <time>2019-06-16T08:18:03.000Z</time>
      </trkpt>
      <trkpt lat="47.32093" lon="-2.3843">
        <ele>19.60000038147</ele>
        <time>2019-06-16T08:18:04.000Z</time>
      </trkpt>
      <trkpt lat="47.32098" lon="-2.38429">
        <ele>19.200000762939</ele>
        <time>2019-06-16T08:18:05.000Z</time>
      </trkpt>
      <trkpt lat="47.32102" lon="-2.38427">
        <ele>19.200000762939</ele>
        <time>2019-06-16T08:18:06.000Z</time>
      </trkpt>
      <trkpt lat="47.32125" lon="-2.38413">
        <ele>19.200000762939</ele>
        <time>2019-06-16T08:18:12.000Z</time>
      </trkpt>
      <trkpt lat="47.32129" lon="-2.38408">
        <ele>19.200000762939</ele>
        <time>2019-06-16T08:18:13.000Z</time>
      </trkpt>
      <trkpt lat="47.32139" lon="-2.38395">
        <ele>19.200000762939</ele>
        <time>2019-06-16T08:18:16.000Z</time>
      </trkpt>
      <trkpt lat="47.32149" lon="-2.3838">
        <ele>18.799999237061</ele>
        <time>2019-06-16T08:18:20.000Z</time>
      </trkpt>
      <trkpt lat="47.32151" lon="-2.38376">
        <ele>18.39999961853</ele>
        <time>2019-06-16T08:18:21.000Z</time>
      </trkpt>
      <trkpt lat="47.32153" lon="-2.38372">
        <ele>18</ele>
        <time>2019-06-16T08:18:22.000Z</time>
      </trkpt>
      <trkpt lat="47.32154" lon="-2.38369">
        <ele>17.60000038147</ele>
        <time>2019-06-16T08:18:23.000Z</time>
      </trkpt>
      <trkpt lat="47.32156" lon="-2.38366">
        <ele>17</ele>
        <time>2019-06-16T08:18:24.000Z</time>
      </trkpt>
      <trkpt lat="47.32158" lon="-2.38361">
        <ele>17</ele>
        <time>2019-06-16T08:18:26.000Z</time>
      </trkpt>
      <trkpt lat="47.3217" lon="-2.38343">
        <ele>17</ele>
        <time>2019-06-16T08:18:31.000Z</time>
      </trkpt>
      <trkpt lat="47.32191" lon="-2.38315">
        <ele>17</ele>
        <time>2019-06-16T08:18:38.000Z</time>
      </trkpt>
      <trkpt lat="47.32203" lon="-2.38301">
        <ele>17</ele>
        <time>2019-06-16T08:18:42.000Z</time>
      </trkpt>
      <trkpt lat="47.32219" lon="-2.38296">
        <ele>17</ele>
        <time>2019-06-16T08:18:46.000Z</time>
      </trkpt>
      <trkpt lat="47.32228" lon="-2.38294">
        <ele>17</ele>
        <time>2019-06-16T08:18:48.000Z</time>
      </trkpt>
      <trkpt lat="47.32247" lon="-2.38289">
        <ele>17</ele>
        <time>2019-06-16T08:18:52.000Z</time>
      </trkpt>
      <trkpt lat="47.32273" lon="-2.38287">
        <ele>17</ele>
        <time>2019-06-16T08:18:58.000Z</time>
      </trkpt>
      <trkpt lat="47.32282" lon="-2.38289">
        <ele>17</ele>
        <time>2019-06-16T08:19:00.000Z</time>
      </trkpt>
      <trkpt lat="47.32292" lon="-2.38292">
        <ele>17</ele>
        <time>2019-06-16T08:19:02.000Z</time>
      </trkpt>
      <trkpt lat="47.32311" lon="-2.38298">
        <ele>17</ele>
        <time>2019-06-16T08:19:06.000Z</time>
      </trkpt>
      <trkpt lat="47.32325" lon="-2.38304">
        <ele>17</ele>
        <time>2019-06-16T08:19:09.000Z</time>
      </trkpt>
      <trkpt lat="47.32329" lon="-2.38306">
        <ele>17</ele>
        <time>2019-06-16T08:19:10.000Z</time>
      </trkpt>
      <trkpt lat="47.32337" lon="-2.38309">
        <ele>17.39999961853</ele>
        <time>2019-06-16T08:19:12.000Z</time>
      </trkpt>
      <trkpt lat="47.32342" lon="-2.38311">
        <ele>17.799999237061</ele>
        <time>2019-06-16T08:19:13.000Z</time>
      </trkpt>
      <trkpt lat="47.32346" lon="-2.38313">
        <ele>18.200000762939</ele>
        <time>2019-06-16T08:19:14.000Z</time>
      </trkpt>
      <trkpt lat="47.3235" lon="-2.38315">
        <ele>18.60000038147</ele>
        <time>2019-06-16T08:19:15.000Z</time>
      </trkpt>
      <trkpt lat="47.32355" lon="-2.38317">
        <ele>19</ele>
        <time>2019-06-16T08:19:16.000Z</time>
      </trkpt>
      <trkpt lat="47.32359" lon="-2.38318">
        <ele>19</ele>
        <time>2019-06-16T08:19:17.000Z</time>
      </trkpt>
      <trkpt lat="47.32363" lon="-2.3832">
        <ele>19</ele>
        <time>2019-06-16T08:19:18.000Z</time>
      </trkpt>
      <trkpt lat="47.32376" lon="-2.38326">
        <ele>19.60000038147</ele>
        <time>2019-06-16T08:19:21.000Z</time>
      </trkpt>
      <trkpt lat="47.3238" lon="-2.38327">
        <ele>20</ele>
        <time>2019-06-16T08:19:22.000Z</time>
      </trkpt>
      <trkpt lat="47.32384" lon="-2.38329">
        <ele>20.39999961853</ele>
        <time>2019-06-16T08:19:23.000Z</time>
      </trkpt>
      <trkpt lat="47.32387" lon="-2.38331">
        <ele>20.799999237061</ele>
        <time>2019-06-16T08:19:24.000Z</time>
      </trkpt>
      <trkpt lat="47.32391" lon="-2.38333">
        <ele>21.200000762939</ele>
        <time>2019-06-16T08:19:25.000Z</time>
      </trkpt>
      <trkpt lat="47.32403" lon="-2.3834">
        <ele>21.200000762939</ele>
        <time>2019-06-16T08:19:29.000Z</time>
      </trkpt>
      <trkpt lat="47.32418" lon="-2.38348">
        <ele>21.200000762939</ele>
        <time>2019-06-16T08:19:33.000Z</time>
      </trkpt>
      <trkpt lat="47.3245" lon="-2.38361">
        <ele>21.200000762939</ele>
        <time>2019-06-16T08:19:39.000Z</time>
      </trkpt>
      <trkpt lat="47.32484" lon="-2.38373">
        <ele>21.200000762939</ele>
        <time>2019-06-16T08:19:44.000Z</time>
      </trkpt>
      <trkpt lat="47.3249" lon="-2.38376">
        <ele>21.200000762939</ele>
        <time>2019-06-16T08:19:45.000Z</time>
      </trkpt>
      <trkpt lat="47.32495" lon="-2.38376">
        <ele>21.200000762939</ele>
        <time>2019-06-16T08:19:46.000Z</time>
      </trkpt>
      <trkpt lat="47.32503" lon="-2.38377">
        <ele>21.200000762939</ele>
        <time>2019-06-16T08:19:48.000Z</time>
      </trkpt>
      <trkpt lat="47.32518" lon="-2.38381">
        <ele>21.200000762939</ele>
        <time>2019-06-16T08:19:52.000Z</time>
      </trkpt>
      <trkpt lat="47.32522" lon="-2.38367">
        <ele>21.200000762939</ele>
        <time>2019-06-16T08:19:55.000Z</time>
      </trkpt>
      <trkpt lat="47.32523" lon="-2.3836">
        <ele>21.200000762939</ele>
        <time>2019-06-16T08:19:56.000Z</time>
      </trkpt>
      <trkpt lat="47.32524" lon="-2.38353">
        <ele>21.200000762939</ele>
        <time>2019-06-16T08:19:57.000Z</time>
      </trkpt>
      <trkpt lat="47.32525" lon="-2.38337">
        <ele>21.200000762939</ele>
        <time>2019-06-16T08:19:59.000Z</time>
      </trkpt>
      <trkpt lat="47.32527" lon="-2.3832">
        <ele>21.200000762939</ele>
        <time>2019-06-16T08:20:01.000Z</time>
      </trkpt>
      <trkpt lat="47.32534" lon="-2.38311">
        <ele>21.200000762939</ele>
        <time>2019-06-16T08:20:03.000Z</time>
      </trkpt>
      <trkpt lat="47.32553" lon="-2.38306">
        <ele>21.200000762939</ele>
        <time>2019-06-16T08:20:06.000Z</time>
      </trkpt>
      <trkpt lat="47.32559" lon="-2.38304">
        <ele>21.200000762939</ele>
        <time>2019-06-16T08:20:07.000Z</time>
      </trkpt>
      <trkpt lat="47.32572" lon="-2.383">
        <ele>20.799999237061</ele>
        <time>2019-06-16T08:20:09.000Z</time>
      </trkpt>
      <trkpt lat="47.32579" lon="-2.38298">
        <ele>20.39999961853</ele>
        <time>2019-06-16T08:20:10.000Z</time>
      </trkpt>
      <trkpt lat="47.32585" lon="-2.38296">
        <ele>20</ele>
        <time>2019-06-16T08:20:11.000Z</time>
      </trkpt>
      <trkpt lat="47.32591" lon="-2.38295">
        <ele>19.60000038147</ele>
        <time>2019-06-16T08:20:12.000Z</time>
      </trkpt>
      <trkpt lat="47.32597" lon="-2.38294">
        <ele>19.200000762939</ele>
        <time>2019-06-16T08:20:13.000Z</time>
      </trkpt>
      <trkpt lat="47.32603" lon="-2.38294">
        <ele>19.200000762939</ele>
        <time>2019-06-16T08:20:14.000Z</time>
      </trkpt>
      <trkpt lat="47.32609" lon="-2.38297">
        <ele>19.200000762939</ele>
        <time>2019-06-16T08:20:15.000Z</time>
      </trkpt>
      <trkpt lat="47.32628" lon="-2.38319">
        <ele>19.200000762939</ele>
        <time>2019-06-16T08:20:19.000Z</time>
      </trkpt>
      <trkpt lat="47.32632" lon="-2.38324">
        <ele>19.200000762939</ele>
        <time>2019-06-16T08:20:20.000Z</time>
      </trkpt>
      <trkpt lat="47.32636" lon="-2.38329">
        <ele>19.200000762939</ele>
        <time>2019-06-16T08:20:21.000Z</time>
      </trkpt>
      <trkpt lat="47.32651" lon="-2.38348">
        <ele>19.60000038147</ele>
        <time>2019-06-16T08:20:25.000Z</time>
      </trkpt>
      <trkpt lat="47.32654" lon="-2.38353">
        <ele>20.200000762939</ele>
        <time>2019-06-16T08:20:26.000Z</time>
      </trkpt>
      <trkpt lat="47.32658" lon="-2.38357">
        <ele>20.60000038147</ele>
        <time>2019-06-16T08:20:27.000Z</time>
      </trkpt>
      <trkpt lat="47.32661" lon="-2.38361">
        <ele>21</ele>
        <time>2019-06-16T08:20:28.000Z</time>
      </trkpt>
      <trkpt lat="47.32665" lon="-2.38366">
        <ele>21.39999961853</ele>
        <time>2019-06-16T08:20:29.000Z</time>
      </trkpt>
      <trkpt lat="47.32671" lon="-2.38375">
        <ele>21.39999961853</ele>
        <time>2019-06-16T08:20:31.000Z</time>
      </trkpt>
      <trkpt lat="47.32674" lon="-2.38379">
        <ele>21.799999237061</ele>
        <time>2019-06-16T08:20:32.000Z</time>
      </trkpt>
      <trkpt lat="47.32678" lon="-2.38384">
        <ele>22.200000762939</ele>
        <time>2019-06-16T08:20:33.000Z</time>
      </trkpt>
      <trkpt lat="47.32681" lon="-2.38388">
        <ele>22.799999237061</ele>
        <time>2019-06-16T08:20:34.000Z</time>
      </trkpt>
      <trkpt lat="47.32684" lon="-2.38392">
        <ele>23.200000762939</ele>
        <time>2019-06-16T08:20:35.000Z</time>
      </trkpt>
      <trkpt lat="47.32688" lon="-2.38395">
        <ele>23.60000038147</ele>
        <time>2019-06-16T08:20:36.000Z</time>
      </trkpt>
      <trkpt lat="47.32691" lon="-2.38398">
        <ele>23.60000038147</ele>
        <time>2019-06-16T08:20:37.000Z</time>
      </trkpt>
      <trkpt lat="47.32695" lon="-2.38401">
        <ele>23.60000038147</ele>
        <time>2019-06-16T08:20:38.000Z</time>
      </trkpt>
      <trkpt lat="47.32705" lon="-2.38406">
        <ele>23.60000038147</ele>
        <time>2019-06-16T08:20:41.000Z</time>
      </trkpt>
      <trkpt lat="47.32708" lon="-2.38407">
        <ele>23.60000038147</ele>
        <time>2019-06-16T08:20:42.000Z</time>
      </trkpt>
      <trkpt lat="47.32723" lon="-2.38405">
        <ele>23.60000038147</ele>
        <time>2019-06-16T08:20:46.000Z</time>
      </trkpt>
      <trkpt lat="47.32731" lon="-2.38402">
        <ele>24</ele>
        <time>2019-06-16T08:20:48.000Z</time>
      </trkpt>
      <trkpt lat="47.32735" lon="-2.384">
        <ele>24.39999961853</ele>
        <time>2019-06-16T08:20:49.000Z</time>
      </trkpt>
      <trkpt lat="47.32739" lon="-2.384">
        <ele>24.799999237061</ele>
        <time>2019-06-16T08:20:50.000Z</time>
      </trkpt>
      <trkpt lat="47.32744" lon="-2.384">
        <ele>25.39999961853</ele>
        <time>2019-06-16T08:20:51.000Z</time>
      </trkpt>
      <trkpt lat="47.32748" lon="-2.38399">
        <ele>25.799999237061</ele>
        <time>2019-06-16T08:20:52.000Z</time>
      </trkpt>
      <trkpt lat="47.32765" lon="-2.38394">
        <ele>25.799999237061</ele>
        <time>2019-06-16T08:20:56.000Z</time>
      </trkpt>
      <trkpt lat="47.32769" lon="-2.38393">
        <ele>25.799999237061</ele>
        <time>2019-06-16T08:20:57.000Z</time>
      </trkpt>
      <trkpt lat="47.3278" lon="-2.38385">
        <ele>25.799999237061</ele>
        <time>2019-06-16T08:21:00.000Z</time>
      </trkpt>
      <trkpt lat="47.32782" lon="-2.38379">
        <ele>25.799999237061</ele>
        <time>2019-06-16T08:21:01.000Z</time>
      </trkpt>
      <trkpt lat="47.32784" lon="-2.38358">
        <ele>25.799999237061</ele>
        <time>2019-06-16T08:21:04.000Z</time>
      </trkpt>
      <trkpt lat="47.32785" lon="-2.3835">
        <ele>25.799999237061</ele>
        <time>2019-06-16T08:21:05.000Z</time>
      </trkpt>
      <trkpt lat="47.32792" lon="-2.38317">
        <ele>25.799999237061</ele>
        <time>2019-06-16T08:21:09.000Z</time>
      </trkpt>
      <trkpt lat="47.32797" lon="-2.38298">
        <ele>25.799999237061</ele>
        <time>2019-06-16T08:21:11.000Z</time>
      </trkpt>
      <trkpt lat="47.32814" lon="-2.38235">
        <ele>25.200000762939</ele>
        <time>2019-06-16T08:21:17.000Z</time>
      </trkpt>
      <trkpt lat="47.32817" lon="-2.38223">
        <ele>24.799999237061</ele>
        <time>2019-06-16T08:21:18.000Z</time>
      </trkpt>
      <trkpt lat="47.32821" lon="-2.38211">
        <ele>24.200000762939</ele>
        <time>2019-06-16T08:21:19.000Z</time>
      </trkpt>
      <trkpt lat="47.32825" lon="-2.382">
        <ele>23.799999237061</ele>
        <time>2019-06-16T08:21:20.000Z</time>
      </trkpt>
      <trkpt lat="47.32829" lon="-2.38189">
        <ele>22.799999237061</ele>
        <time>2019-06-16T08:21:21.000Z</time>
      </trkpt>
      <trkpt lat="47.32834" lon="-2.38178">
        <ele>22.39999961853</ele>
        <time>2019-06-16T08:21:22.000Z</time>
      </trkpt>
      <trkpt lat="47.32839" lon="-2.38167">
        <ele>22</ele>
        <time>2019-06-16T08:21:23.000Z</time>
      </trkpt>
      <trkpt lat="47.32844" lon="-2.38157">
        <ele>21.39999961853</ele>
        <time>2019-06-16T08:21:24.000Z</time>
      </trkpt>
      <trkpt lat="47.3285" lon="-2.38147">
        <ele>21</ele>
        <time>2019-06-16T08:21:25.000Z</time>
      </trkpt>
      <trkpt lat="47.3287" lon="-2.3811">
        <ele>20.60000038147</ele>
        <time>2019-06-16T08:21:29.000Z</time>
      </trkpt>
      <trkpt lat="47.32875" lon="-2.38101">
        <ele>20</ele>
        <time>2019-06-16T08:21:30.000Z</time>
      </trkpt>
      <trkpt lat="47.32881" lon="-2.38092">
        <ele>19.60000038147</ele>
        <time>2019-06-16T08:21:31.000Z</time>
      </trkpt>
      <trkpt lat="47.32886" lon="-2.38084">
        <ele>19</ele>
        <time>2019-06-16T08:21:32.000Z</time>
      </trkpt>
      <trkpt lat="47.32892" lon="-2.38075">
        <ele>18.39999961853</ele>
        <time>2019-06-16T08:21:33.000Z</time>
      </trkpt>
      <trkpt lat="47.32918" lon="-2.38031">
        <ele>18.39999961853</ele>
        <time>2019-06-16T08:21:38.000Z</time>
      </trkpt>
      <trkpt lat="47.32945" lon="-2.37991">
        <ele>18</ele>
        <time>2019-06-16T08:21:43.000Z</time>
      </trkpt>
      <trkpt lat="47.32951" lon="-2.37983">
        <ele>17.60000038147</ele>
        <time>2019-06-16T08:21:44.000Z</time>
      </trkpt>
      <trkpt lat="47.32956" lon="-2.37976">
        <ele>16.60000038147</ele>
        <time>2019-06-16T08:21:45.000Z</time>
      </trkpt>
      <trkpt lat="47.32961" lon="-2.37968">
        <ele>16.200000762939</ele>
        <time>2019-06-16T08:21:46.000Z</time>
      </trkpt>
      <trkpt lat="47.32983" lon="-2.37936">
        <ele>16.200000762939</ele>
        <time>2019-06-16T08:21:50.000Z</time>
      </trkpt>
      <trkpt lat="47.33016" lon="-2.37877">
        <ele>16.200000762939</ele>
        <time>2019-06-16T08:21:57.000Z</time>
      </trkpt>
      <trkpt lat="47.33031" lon="-2.37844">
        <ele>16.200000762939</ele>
        <time>2019-06-16T08:22:01.000Z</time>
      </trkpt>
      <trkpt lat="47.33036" lon="-2.37837">
        <ele>16.200000762939</ele>
        <time>2019-06-16T08:22:02.000Z</time>
      </trkpt>
      <trkpt lat="47.33057" lon="-2.37813">
        <ele>15.800000190735</ele>
        <time>2019-06-16T08:22:06.000Z</time>
      </trkpt>
      <trkpt lat="47.33061" lon="-2.37808">
        <ele>15.39999961853</ele>
        <time>2019-06-16T08:22:07.000Z</time>
      </trkpt>
      <trkpt lat="47.33067" lon="-2.37803">
        <ele>15</ele>
        <time>2019-06-16T08:22:08.000Z</time>
      </trkpt>
      <trkpt lat="47.33072" lon="-2.37798">
        <ele>14.60000038147</ele>
        <time>2019-06-16T08:22:09.000Z</time>
      </trkpt>
      <trkpt lat="47.33078" lon="-2.37793">
        <ele>14.199999809265</ele>
        <time>2019-06-16T08:22:10.000Z</time>
      </trkpt>
      <trkpt lat="47.33094" lon="-2.37776">
        <ele>14.199999809265</ele>
        <time>2019-06-16T08:22:13.000Z</time>
      </trkpt>
      <trkpt lat="47.33108" lon="-2.37761">
        <ele>13.60000038147</ele>
        <time>2019-06-16T08:22:16.000Z</time>
      </trkpt>
      <trkpt lat="47.33112" lon="-2.37756">
        <ele>13.199999809265</ele>
        <time>2019-06-16T08:22:17.000Z</time>
      </trkpt>
      <trkpt lat="47.33117" lon="-2.37753">
        <ele>12.800000190735</ele>
        <time>2019-06-16T08:22:18.000Z</time>
      </trkpt>
      <trkpt lat="47.3312" lon="-2.37751">
        <ele>12.199999809265</ele>
        <time>2019-06-16T08:22:19.000Z</time>
      </trkpt>
      <trkpt lat="47.33122" lon="-2.37749">
        <ele>11.800000190735</ele>
        <time>2019-06-16T08:22:20.000Z</time>
      </trkpt>
      <trkpt lat="47.33122" lon="-2.37747">
        <ele>11.800000190735</ele>
        <time>2019-06-16T08:22:21.000Z</time>
      </trkpt>
      <trkpt lat="47.33122" lon="-2.37745">
        <ele>11.800000190735</ele>
        <time>2019-06-16T08:22:22.000Z</time>
      </trkpt>
      <trkpt lat="47.33119" lon="-2.37741">
        <ele>11.800000190735</ele>
        <time>2019-06-16T08:22:25.000Z</time>
      </trkpt>
      <trkpt lat="47.33119" lon="-2.37741">
        <ele>11.800000190735</ele>
        <time>2019-06-16T08:22:26.000Z</time>
      </trkpt>
      <trkpt lat="47.33114" lon="-2.37739">
        <ele>11.800000190735</ele>
        <time>2019-06-16T08:22:37.000Z</time>
      </trkpt>
      <trkpt lat="47.33112" lon="-2.37738">
        <ele>11.800000190735</ele>
        <time>2019-06-16T08:22:38.000Z</time>
      </trkpt>
      <trkpt lat="47.331" lon="-2.37732">
        <ele>11.800000190735</ele>
        <time>2019-06-16T08:22:43.000Z</time>
      </trkpt>
      <trkpt lat="47.33088" lon="-2.37721">
        <ele>11.800000190735</ele>
        <time>2019-06-16T08:22:48.000Z</time>
      </trkpt>
      <trkpt lat="47.33068" lon="-2.37703">
        <ele>11.800000190735</ele>
        <time>2019-06-16T08:22:54.000Z</time>
      </trkpt>
      <trkpt lat="47.33043" lon="-2.37665">
        <ele>11.800000190735</ele>
        <time>2019-06-16T08:23:02.000Z</time>
      </trkpt>
      <trkpt lat="47.33031" lon="-2.37642">
        <ele>11.800000190735</ele>
        <time>2019-06-16T08:23:06.000Z</time>
      </trkpt>
      <trkpt lat="47.33029" lon="-2.37627">
        <ele>11.800000190735</ele>
        <time>2019-06-16T08:23:08.000Z</time>
      </trkpt>
      <trkpt lat="47.33036" lon="-2.37606">
        <ele>11.800000190735</ele>
        <time>2019-06-16T08:23:11.000Z</time>
      </trkpt>
      <trkpt lat="47.3304" lon="-2.37599">
        <ele>11.800000190735</ele>
        <time>2019-06-16T08:23:12.000Z</time>
      </trkpt>
      <trkpt lat="47.33058" lon="-2.37563">
        <ele>11.800000190735</ele>
        <time>2019-06-16T08:23:17.000Z</time>
      </trkpt>
      <trkpt lat="47.33082" lon="-2.37513">
        <ele>11.800000190735</ele>
        <time>2019-06-16T08:23:23.000Z</time>
      </trkpt>
      <trkpt lat="47.3309" lon="-2.37494">
        <ele>11.39999961853</ele>
        <time>2019-06-16T08:23:25.000Z</time>
      </trkpt>
      <trkpt lat="47.33093" lon="-2.37485">
        <ele>11</ele>
        <time>2019-06-16T08:23:26.000Z</time>
      </trkpt>
      <trkpt lat="47.33097" lon="-2.37475">
        <ele>10.60000038147</ele>
        <time>2019-06-16T08:23:27.000Z</time>
      </trkpt>
      <trkpt lat="47.33101" lon="-2.37465">
        <ele>10.199999809265</ele>
        <time>2019-06-16T08:23:28.000Z</time>
      </trkpt>
      <trkpt lat="47.33104" lon="-2.37456">
        <ele>9.8000001907349</ele>
        <time>2019-06-16T08:23:29.000Z</time>
      </trkpt>
      <trkpt lat="47.33108" lon="-2.37435">
        <ele>9.8000001907349</ele>
        <time>2019-06-16T08:23:31.000Z</time>
      </trkpt>
      <trkpt lat="47.33108" lon="-2.37424">
        <ele>9.8000001907349</ele>
        <time>2019-06-16T08:23:32.000Z</time>
      </trkpt>
      <trkpt lat="47.33107" lon="-2.37363">
        <ele>9.8000001907349</ele>
        <time>2019-06-16T08:23:38.000Z</time>
      </trkpt>
      <trkpt lat="47.33106" lon="-2.37356">
        <ele>9.8000001907349</ele>
        <time>2019-06-16T08:23:39.000Z</time>
      </trkpt>
      <trkpt lat="47.33104" lon="-2.3734">
        <ele>9.8000001907349</ele>
        <time>2019-06-16T08:23:41.000Z</time>
      </trkpt>
      <trkpt lat="47.33103" lon="-2.37331">
        <ele>9.8000001907349</ele>
        <time>2019-06-16T08:23:42.000Z</time>
      </trkpt>
      <trkpt lat="47.33103" lon="-2.37304">
        <ele>9.8000001907349</ele>
        <time>2019-06-16T08:23:45.000Z</time>
      </trkpt>
      <trkpt lat="47.33102" lon="-2.37296">
        <ele>9.8000001907349</ele>
        <time>2019-06-16T08:23:46.000Z</time>
      </trkpt>
      <trkpt lat="47.33103" lon="-2.37272">
        <ele>9.8000001907349</ele>
        <time>2019-06-16T08:23:49.000Z</time>
      </trkpt>
      <trkpt lat="47.33103" lon="-2.37257">
        <ele>9.8000001907349</ele>
        <time>2019-06-16T08:23:51.000Z</time>
      </trkpt>
      <trkpt lat="47.33103" lon="-2.37242">
        <ele>10.199999809265</ele>
        <time>2019-06-16T08:23:53.000Z</time>
      </trkpt>
      <trkpt lat="47.33103" lon="-2.37235">
        <ele>10.800000190735</ele>
        <time>2019-06-16T08:23:54.000Z</time>
      </trkpt>
      <trkpt lat="47.33103" lon="-2.37229">
        <ele>11.199999809265</ele>
        <time>2019-06-16T08:23:55.000Z</time>
      </trkpt>
      <trkpt lat="47.33103" lon="-2.37223">
        <ele>11.60000038147</ele>
        <time>2019-06-16T08:23:56.000Z</time>
      </trkpt>
      <trkpt lat="47.33102" lon="-2.37216">
        <ele>12</ele>
        <time>2019-06-16T08:23:57.000Z</time>
      </trkpt>
      <trkpt lat="47.33102" lon="-2.3721">
        <ele>12.60000038147</ele>
        <time>2019-06-16T08:23:58.000Z</time>
      </trkpt>
      <trkpt lat="47.33103" lon="-2.37205">
        <ele>13</ele>
        <time>2019-06-16T08:23:59.000Z</time>
      </trkpt>
      <trkpt lat="47.33102" lon="-2.37199">
        <ele>13.39999961853</ele>
        <time>2019-06-16T08:24:00.000Z</time>
      </trkpt>
      <trkpt lat="47.33102" lon="-2.37194">
        <ele>14</ele>
        <time>2019-06-16T08:24:01.000Z</time>
      </trkpt>
      <trkpt lat="47.33101" lon="-2.37188">
        <ele>14.39999961853</ele>
        <time>2019-06-16T08:24:02.000Z</time>
      </trkpt>
      <trkpt lat="47.33102" lon="-2.37177">
        <ele>14.800000190735</ele>
        <time>2019-06-16T08:24:04.000Z</time>
      </trkpt>
      <trkpt lat="47.33103" lon="-2.37171">
        <ele>15.39999961853</ele>
        <time>2019-06-16T08:24:05.000Z</time>
      </trkpt>
      <trkpt lat="47.33104" lon="-2.37165">
        <ele>15.800000190735</ele>
        <time>2019-06-16T08:24:06.000Z</time>
      </trkpt>
      <trkpt lat="47.33105" lon="-2.3716">
        <ele>16.200000762939</ele>
        <time>2019-06-16T08:24:07.000Z</time>
      </trkpt>
      <trkpt lat="47.33104" lon="-2.37156">
        <ele>16.60000038147</ele>
        <time>2019-06-16T08:24:08.000Z</time>
      </trkpt>
      <trkpt lat="47.33103" lon="-2.37141">
        <ele>16.60000038147</ele>
        <time>2019-06-16T08:24:11.000Z</time>
      </trkpt>
      <trkpt lat="47.33103" lon="-2.37135">
        <ele>17.200000762939</ele>
        <time>2019-06-16T08:24:12.000Z</time>
      </trkpt>
      <trkpt lat="47.33103" lon="-2.37129">
        <ele>18</ele>
        <time>2019-06-16T08:24:13.000Z</time>
      </trkpt>
      <trkpt lat="47.33102" lon="-2.37123">
        <ele>18.39999961853</ele>
        <time>2019-06-16T08:24:14.000Z</time>
      </trkpt>
      <trkpt lat="47.33102" lon="-2.37117">
        <ele>18.799999237061</ele>
        <time>2019-06-16T08:24:15.000Z</time>
      </trkpt>
      <trkpt lat="47.33104" lon="-2.37103">
        <ele>18.799999237061</ele>
        <time>2019-06-16T08:24:17.000Z</time>
      </trkpt>
      <trkpt lat="47.33104" lon="-2.37096">
        <ele>18.799999237061</ele>
        <time>2019-06-16T08:24:18.000Z</time>
      </trkpt>
      <trkpt lat="47.33104" lon="-2.37069">
        <ele>19.200000762939</ele>
        <time>2019-06-16T08:24:22.000Z</time>
      </trkpt>
      <trkpt lat="47.33103" lon="-2.37062">
        <ele>19.60000038147</ele>
        <time>2019-06-16T08:24:23.000Z</time>
      </trkpt>
      <trkpt lat="47.33102" lon="-2.37055">
        <ele>20</ele>
        <time>2019-06-16T08:24:24.000Z</time>
      </trkpt>
      <trkpt lat="47.33102" lon="-2.37048">
        <ele>20.60000038147</ele>
        <time>2019-06-16T08:24:25.000Z</time>
      </trkpt>
      <trkpt lat="47.33102" lon="-2.37041">
        <ele>21</ele>
        <time>2019-06-16T08:24:26.000Z</time>
      </trkpt>
      <trkpt lat="47.33102" lon="-2.37027">
        <ele>21</ele>
        <time>2019-06-16T08:24:28.000Z</time>
      </trkpt>
      <trkpt lat="47.33103" lon="-2.36979">
        <ele>21</ele>
        <time>2019-06-16T08:24:34.000Z</time>
      </trkpt>
      <trkpt lat="47.33103" lon="-2.3693">
        <ele>21</ele>
        <time>2019-06-16T08:24:39.000Z</time>
      </trkpt>
      <trkpt lat="47.33102" lon="-2.36905">
        <ele>21</ele>
        <time>2019-06-16T08:24:42.000Z</time>
      </trkpt>
      <trkpt lat="47.33104" lon="-2.36899">
        <ele>20.39999961853</ele>
        <time>2019-06-16T08:24:43.000Z</time>
      </trkpt>
      <trkpt lat="47.33106" lon="-2.36893">
        <ele>20</ele>
        <time>2019-06-16T08:24:44.000Z</time>
      </trkpt>
      <trkpt lat="47.33109" lon="-2.36888">
        <ele>19.60000038147</ele>
        <time>2019-06-16T08:24:45.000Z</time>
      </trkpt>
      <trkpt lat="47.33113" lon="-2.36883">
        <ele>19.200000762939</ele>
        <time>2019-06-16T08:24:46.000Z</time>
      </trkpt>
      <trkpt lat="47.33117" lon="-2.36878">
        <ele>18.60000038147</ele>
        <time>2019-06-16T08:24:47.000Z</time>
      </trkpt>
      <trkpt lat="47.33138" lon="-2.36856">
        <ele>18.60000038147</ele>
        <time>2019-06-16T08:24:51.000Z</time>
      </trkpt>
      <trkpt lat="47.33172" lon="-2.36825">
        <ele>18.60000038147</ele>
        <time>2019-06-16T08:24:56.000Z</time>
      </trkpt>
      <trkpt lat="47.33204" lon="-2.36794">
        <ele>18.200000762939</ele>
        <time>2019-06-16T08:25:01.000Z</time>
      </trkpt>
      <trkpt lat="47.33212" lon="-2.36788">
        <ele>17.799999237061</ele>
        <time>2019-06-16T08:25:02.000Z</time>
      </trkpt>
      <trkpt lat="47.33219" lon="-2.36781">
        <ele>17</ele>
        <time>2019-06-16T08:25:03.000Z</time>
      </trkpt>
      <trkpt lat="47.33226" lon="-2.36775">
        <ele>16.60000038147</ele>
        <time>2019-06-16T08:25:04.000Z</time>
      </trkpt>
      <trkpt lat="47.33247" lon="-2.36753">
        <ele>16.60000038147</ele>
        <time>2019-06-16T08:25:07.000Z</time>
      </trkpt>
      <trkpt lat="47.33253" lon="-2.36745">
        <ele>16.60000038147</ele>
        <time>2019-06-16T08:25:08.000Z</time>
      </trkpt>
      <trkpt lat="47.33264" lon="-2.36725">
        <ele>16</ele>
        <time>2019-06-16T08:25:10.000Z</time>
      </trkpt>
      <trkpt lat="47.33269" lon="-2.36714">
        <ele>15.60000038147</ele>
        <time>2019-06-16T08:25:11.000Z</time>
      </trkpt>
      <trkpt lat="47.33274" lon="-2.36703">
        <ele>15.199999809265</ele>
        <time>2019-06-16T08:25:12.000Z</time>
      </trkpt>
      <trkpt lat="47.33278" lon="-2.36692">
        <ele>14.60000038147</ele>
        <time>2019-06-16T08:25:13.000Z</time>
      </trkpt>
      <trkpt lat="47.33282" lon="-2.3668">
        <ele>14.199999809265</ele>
        <time>2019-06-16T08:25:14.000Z</time>
      </trkpt>
      <trkpt lat="47.33297" lon="-2.36633">
        <ele>14.199999809265</ele>
        <time>2019-06-16T08:25:18.000Z</time>
      </trkpt>
      <trkpt lat="47.33315" lon="-2.36569">
        <ele>14.199999809265</ele>
        <time>2019-06-16T08:25:24.000Z</time>
      </trkpt>
      <trkpt lat="47.33332" lon="-2.36494">
        <ele>14.199999809265</ele>
        <time>2019-06-16T08:25:32.000Z</time>
      </trkpt>
      <trkpt lat="47.33333" lon="-2.36485">
        <ele>14.199999809265</ele>
        <time>2019-06-16T08:25:33.000Z</time>
      </trkpt>
      <trkpt lat="47.33332" lon="-2.36457">
        <ele>14.199999809265</ele>
        <time>2019-06-16T08:25:36.000Z</time>
      </trkpt>
      <trkpt lat="47.33329" lon="-2.36439">
        <ele>14.199999809265</ele>
        <time>2019-06-16T08:25:38.000Z</time>
      </trkpt>
      <trkpt lat="47.33323" lon="-2.36404">
        <ele>14.199999809265</ele>
        <time>2019-06-16T08:25:42.000Z</time>
      </trkpt>
      <trkpt lat="47.33318" lon="-2.36377">
        <ele>14.60000038147</ele>
        <time>2019-06-16T08:25:45.000Z</time>
      </trkpt>
      <trkpt lat="47.33317" lon="-2.36367">
        <ele>15.199999809265</ele>
        <time>2019-06-16T08:25:46.000Z</time>
      </trkpt>
      <trkpt lat="47.33315" lon="-2.36358">
        <ele>15.60000038147</ele>
        <time>2019-06-16T08:25:47.000Z</time>
      </trkpt>
      <trkpt lat="47.33314" lon="-2.36349">
        <ele>16</ele>
        <time>2019-06-16T08:25:48.000Z</time>
      </trkpt>
      <trkpt lat="47.33313" lon="-2.3634">
        <ele>16.39999961853</ele>
        <time>2019-06-16T08:25:49.000Z</time>
      </trkpt>
      <trkpt lat="47.33308" lon="-2.36276">
        <ele>16.39999961853</ele>
        <time>2019-06-16T08:25:56.000Z</time>
      </trkpt>
      <trkpt lat="47.33309" lon="-2.36243">
        <ele>16.39999961853</ele>
        <time>2019-06-16T08:26:00.000Z</time>
      </trkpt>
      <trkpt lat="47.33314" lon="-2.36229">
        <ele>16.39999961853</ele>
        <time>2019-06-16T08:26:02.000Z</time>
      </trkpt>
      <trkpt lat="47.33327" lon="-2.36207">
        <ele>16.39999961853</ele>
        <time>2019-06-16T08:26:07.000Z</time>
      </trkpt>
      <trkpt lat="47.33339" lon="-2.362">
        <ele>16.39999961853</ele>
        <time>2019-06-16T08:26:12.000Z</time>
      </trkpt>
      <trkpt lat="47.33349" lon="-2.36194">
        <ele>16.39999961853</ele>
        <time>2019-06-16T08:26:18.000Z</time>
      </trkpt>
      <trkpt lat="47.33358" lon="-2.36189">
        <ele>16.39999961853</ele>
        <time>2019-06-16T08:26:23.000Z</time>
      </trkpt>
      <trkpt lat="47.33372" lon="-2.36178">
        <ele>16.39999961853</ele>
        <time>2019-06-16T08:26:31.000Z</time>
      </trkpt>
      <trkpt lat="47.33385" lon="-2.36167">
        <ele>16.39999961853</ele>
        <time>2019-06-16T08:26:38.000Z</time>
      </trkpt>
      <trkpt lat="47.33402" lon="-2.36159">
        <ele>16.39999961853</ele>
        <time>2019-06-16T08:26:46.000Z</time>
      </trkpt>
      <trkpt lat="47.33406" lon="-2.36161">
        <ele>16.39999961853</ele>
        <time>2019-06-16T08:26:48.000Z</time>
      </trkpt>
      <trkpt lat="47.33409" lon="-2.36166">
        <ele>16.39999961853</ele>
        <time>2019-06-16T08:26:50.000Z</time>
      </trkpt>
      <trkpt lat="47.33413" lon="-2.36181">
        <ele>16.799999237061</ele>
        <time>2019-06-16T08:26:55.000Z</time>
      </trkpt>
      <trkpt lat="47.33413" lon="-2.36183">
        <ele>17.200000762939</ele>
        <time>2019-06-16T08:26:56.000Z</time>
      </trkpt>
      <trkpt lat="47.33413" lon="-2.36185">
        <ele>17.799999237061</ele>
        <time>2019-06-16T08:26:57.000Z</time>
      </trkpt>
      <trkpt lat="47.33414" lon="-2.36186">
        <ele>18.200000762939</ele>
        <time>2019-06-16T08:26:58.000Z</time>
      </trkpt>
      <trkpt lat="47.33414" lon="-2.36188">
        <ele>18.60000038147</ele>
        <time>2019-06-16T08:26:59.000Z</time>
      </trkpt>
      <trkpt lat="47.33414" lon="-2.36193">
        <ele>18.60000038147</ele>
        <time>2019-06-16T08:27:02.000Z</time>
      </trkpt>
      <trkpt lat="47.33414" lon="-2.36196">
        <ele>18.60000038147</ele>
        <time>2019-06-16T08:27:04.000Z</time>
      </trkpt>
      <trkpt lat="47.33415" lon="-2.36199">
        <ele>18.60000038147</ele>
        <time>2019-06-16T08:27:07.000Z</time>
      </trkpt>
      <trkpt lat="47.33416" lon="-2.36201">
        <ele>18.60000038147</ele>
        <time>2019-06-16T08:27:14.000Z</time>
      </trkpt>
      <trkpt lat="47.33417" lon="-2.36202">
        <ele>18.60000038147</ele>
        <time>2019-06-16T08:27:17.000Z</time>
      </trkpt>
      <trkpt lat="47.33416" lon="-2.36206">
        <ele>18.60000038147</ele>
        <time>2019-06-16T08:27:56.000Z</time>
      </trkpt>
      <trkpt lat="47.33415" lon="-2.36209">
        <ele>18.60000038147</ele>
        <time>2019-06-16T08:27:57.000Z</time>
      </trkpt>
      <trkpt lat="47.33412" lon="-2.36229">
        <ele>18.60000038147</ele>
        <time>2019-06-16T08:28:01.000Z</time>
      </trkpt>
      <trkpt lat="47.33411" lon="-2.36241">
        <ele>18.60000038147</ele>
        <time>2019-06-16T08:28:03.000Z</time>
      </trkpt>
      <trkpt lat="47.33411" lon="-2.36261">
        <ele>18.60000038147</ele>
        <time>2019-06-16T08:28:06.000Z</time>
      </trkpt>
      <trkpt lat="47.33413" lon="-2.36289">
        <ele>18.60000038147</ele>
        <time>2019-06-16T08:28:10.000Z</time>
      </trkpt>
      <trkpt lat="47.33415" lon="-2.36298">
        <ele>18.60000038147</ele>
        <time>2019-06-16T08:28:11.000Z</time>
      </trkpt>
      <trkpt lat="47.33426" lon="-2.36341">
        <ele>18.60000038147</ele>
        <time>2019-06-16T08:28:17.000Z</time>
      </trkpt>
      <trkpt lat="47.33428" lon="-2.36347">
        <ele>18</ele>
        <time>2019-06-16T08:28:18.000Z</time>
      </trkpt>
      <trkpt lat="47.33431" lon="-2.36353">
        <ele>17.60000038147</ele>
        <time>2019-06-16T08:28:19.000Z</time>
      </trkpt>
      <trkpt lat="47.33433" lon="-2.36359">
        <ele>17.200000762939</ele>
        <time>2019-06-16T08:28:20.000Z</time>
      </trkpt>
      <trkpt lat="47.33434" lon="-2.36364">
        <ele>16.39999961853</ele>
        <time>2019-06-16T08:28:21.000Z</time>
      </trkpt>
      <trkpt lat="47.33436" lon="-2.36369">
        <ele>16.39999961853</ele>
        <time>2019-06-16T08:28:22.000Z</time>
      </trkpt>
      <trkpt lat="47.33443" lon="-2.3639">
        <ele>16.39999961853</ele>
        <time>2019-06-16T08:28:27.000Z</time>
      </trkpt>
      <trkpt lat="47.33444" lon="-2.36395">
        <ele>15.800000190735</ele>
        <time>2019-06-16T08:28:28.000Z</time>
      </trkpt>
      <trkpt lat="47.33446" lon="-2.36398">
        <ele>15.39999961853</ele>
        <time>2019-06-16T08:28:29.000Z</time>
      </trkpt>
      <trkpt lat="47.33448" lon="-2.36401">
        <ele>15</ele>
        <time>2019-06-16T08:28:30.000Z</time>
      </trkpt>
      <trkpt lat="47.33449" lon="-2.36404">
        <ele>14.60000038147</ele>
        <time>2019-06-16T08:28:31.000Z</time>
      </trkpt>
      <trkpt lat="47.33451" lon="-2.36407">
        <ele>14.199999809265</ele>
        <time>2019-06-16T08:28:32.000Z</time>
      </trkpt>
      <trkpt lat="47.33454" lon="-2.36408">
        <ele>14.199999809265</ele>
        <time>2019-06-16T08:28:33.000Z</time>
      </trkpt>
      <trkpt lat="47.33463" lon="-2.36411">
        <ele>14.199999809265</ele>
        <time>2019-06-16T08:28:36.000Z</time>
      </trkpt>
      <trkpt lat="47.33465" lon="-2.36413">
        <ele>14.199999809265</ele>
        <time>2019-06-16T08:28:37.000Z</time>
      </trkpt>
      <trkpt lat="47.33469" lon="-2.36419">
        <ele>14.199999809265</ele>
        <time>2019-06-16T08:28:40.000Z</time>
      </trkpt>
      <trkpt lat="47.33472" lon="-2.36434">
        <ele>14.199999809265</ele>
        <time>2019-06-16T08:28:44.000Z</time>
      </trkpt>
      <trkpt lat="47.33475" lon="-2.36458">
        <ele>14.199999809265</ele>
        <time>2019-06-16T08:28:48.000Z</time>
      </trkpt>
      <trkpt lat="47.33475" lon="-2.36467">
        <ele>14.199999809265</ele>
        <time>2019-06-16T08:28:49.000Z</time>
      </trkpt>
      <trkpt lat="47.33474" lon="-2.36511">
        <ele>13.800000190735</ele>
        <time>2019-06-16T08:28:55.000Z</time>
      </trkpt>
      <trkpt lat="47.33474" lon="-2.36518">
        <ele>13.39999961853</ele>
        <time>2019-06-16T08:28:56.000Z</time>
      </trkpt>
      <trkpt lat="47.33474" lon="-2.36525">
        <ele>13</ele>
        <time>2019-06-16T08:28:57.000Z</time>
      </trkpt>
      <trkpt lat="47.33473" lon="-2.36532">
        <ele>12.60000038147</ele>
        <time>2019-06-16T08:28:58.000Z</time>
      </trkpt>
      <trkpt lat="47.33473" lon="-2.36539">
        <ele>12.199999809265</ele>
        <time>2019-06-16T08:28:59.000Z</time>
      </trkpt>
      <trkpt lat="47.33473" lon="-2.36551">
        <ele>12.199999809265</ele>
        <time>2019-06-16T08:29:01.000Z</time>
      </trkpt>
      <trkpt lat="47.33474" lon="-2.36574">
        <ele>12.199999809265</ele>
        <time>2019-06-16T08:29:05.000Z</time>
      </trkpt>
      <trkpt lat="47.33476" lon="-2.36577">
        <ele>12.199999809265</ele>
        <time>2019-06-16T08:29:06.000Z</time>
      </trkpt>
      <trkpt lat="47.33487" lon="-2.36584">
        <ele>12.199999809265</ele>
        <time>2019-06-16T08:29:09.000Z</time>
      </trkpt>
      <trkpt lat="47.33501" lon="-2.36593">
        <ele>12.199999809265</ele>
        <time>2019-06-16T08:29:13.000Z</time>
      </trkpt>
      <trkpt lat="47.33505" lon="-2.36597">
        <ele>12.199999809265</ele>
        <time>2019-06-16T08:29:14.000Z</time>
      </trkpt>
      <trkpt lat="47.33513" lon="-2.36604">
        <ele>12.199999809265</ele>
        <time>2019-06-16T08:29:16.000Z</time>
      </trkpt>
      <trkpt lat="47.33518" lon="-2.36606">
        <ele>11.800000190735</ele>
        <time>2019-06-16T08:29:17.000Z</time>
      </trkpt>
      <trkpt lat="47.33522" lon="-2.36608">
        <ele>11.39999961853</ele>
        <time>2019-06-16T08:29:18.000Z</time>
      </trkpt>
      <trkpt lat="47.33526" lon="-2.36612">
        <ele>11</ele>
        <time>2019-06-16T08:29:19.000Z</time>
      </trkpt>
      <trkpt lat="47.3353" lon="-2.36617">
        <ele>10.60000038147</ele>
        <time>2019-06-16T08:29:20.000Z</time>
      </trkpt>
      <trkpt lat="47.33533" lon="-2.36622">
        <ele>10.199999809265</ele>
        <time>2019-06-16T08:29:21.000Z</time>
      </trkpt>
      <trkpt lat="47.33538" lon="-2.36628">
        <ele>9.6000003814697</ele>
        <time>2019-06-16T08:29:23.000Z</time>
      </trkpt>
      <trkpt lat="47.33541" lon="-2.36632">
        <ele>9.1999998092651</ele>
        <time>2019-06-16T08:29:24.000Z</time>
      </trkpt>
      <trkpt lat="47.33541" lon="-2.36636">
        <ele>8.8000001907349</ele>
        <time>2019-06-16T08:29:25.000Z</time>
      </trkpt>
      <trkpt lat="47.33539" lon="-2.3664">
        <ele>8</ele>
        <time>2019-06-16T08:29:26.000Z</time>
      </trkpt>
      <trkpt lat="47.33537" lon="-2.36645">
        <ele>7.1999998092651</ele>
        <time>2019-06-16T08:29:27.000Z</time>
      </trkpt>
      <trkpt lat="47.33534" lon="-2.3665">
        <ele>6.5999999046326</ele>
        <time>2019-06-16T08:29:28.000Z</time>
      </trkpt>
      <trkpt lat="47.33531" lon="-2.36655">
        <ele>5.8000001907349</ele>
        <time>2019-06-16T08:29:29.000Z</time>
      </trkpt>
      <trkpt lat="47.33527" lon="-2.36659">
        <ele>5.1999998092651</ele>
        <time>2019-06-16T08:29:30.000Z</time>
      </trkpt>
      <trkpt lat="47.33517" lon="-2.36672">
        <ele>5.1999998092651</ele>
        <time>2019-06-16T08:29:33.000Z</time>
      </trkpt>
      <trkpt lat="47.33504" lon="-2.36693">
        <ele>5.1999998092651</ele>
        <time>2019-06-16T08:29:38.000Z</time>
      </trkpt>
      <trkpt lat="47.33493" lon="-2.36713">
        <ele>5.1999998092651</ele>
        <time>2019-06-16T08:29:43.000Z</time>
      </trkpt>
      <trkpt lat="47.33479" lon="-2.36748">
        <ele>5.1999998092651</ele>
        <time>2019-06-16T08:29:50.000Z</time>
      </trkpt>
      <trkpt lat="47.33471" lon="-2.36777">
        <ele>5.1999998092651</ele>
        <time>2019-06-16T08:29:55.000Z</time>
      </trkpt>
      <trkpt lat="47.33468" lon="-2.36815">
        <ele>5.1999998092651</ele>
        <time>2019-06-16T08:30:00.000Z</time>
      </trkpt>
      <trkpt lat="47.33467" lon="-2.36822">
        <ele>5.1999998092651</ele>
        <time>2019-06-16T08:30:01.000Z</time>
      </trkpt>
      <trkpt lat="47.33459" lon="-2.36846">
        <ele>5.1999998092651</ele>
        <time>2019-06-16T08:30:05.000Z</time>
      </trkpt>
      <trkpt lat="47.33456" lon="-2.36849">
        <ele>5.1999998092651</ele>
        <time>2019-06-16T08:30:06.000Z</time>
      </trkpt>
      <trkpt lat="47.33449" lon="-2.3686">
        <ele>5.1999998092651</ele>
        <time>2019-06-16T08:30:09.000Z</time>
      </trkpt>
      <trkpt lat="47.33444" lon="-2.36875">
        <ele>5.1999998092651</ele>
        <time>2019-06-16T08:30:14.000Z</time>
      </trkpt>
      <trkpt lat="47.33448" lon="-2.36897">
        <ele>5.1999998092651</ele>
        <time>2019-06-16T08:30:19.000Z</time>
      </trkpt>
      <trkpt lat="47.33449" lon="-2.36902">
        <ele>5.5999999046326</ele>
        <time>2019-06-16T08:30:20.000Z</time>
      </trkpt>
      <trkpt lat="47.3345" lon="-2.36909">
        <ele>6</ele>
        <time>2019-06-16T08:30:21.000Z</time>
      </trkpt>
      <trkpt lat="47.33452" lon="-2.36915">
        <ele>6.4000000953674</ele>
        <time>2019-06-16T08:30:22.000Z</time>
      </trkpt>
      <trkpt lat="47.33453" lon="-2.36921">
        <ele>6.8000001907349</ele>
        <time>2019-06-16T08:30:23.000Z</time>
      </trkpt>
      <trkpt lat="47.33453" lon="-2.36926">
        <ele>7.1999998092651</ele>
        <time>2019-06-16T08:30:24.000Z</time>
      </trkpt>
      <trkpt lat="47.33454" lon="-2.36931">
        <ele>7.1999998092651</ele>
        <time>2019-06-16T08:30:25.000Z</time>
      </trkpt>
      <trkpt lat="47.33454" lon="-2.36955">
        <ele>7.1999998092651</ele>
        <time>2019-06-16T08:30:30.000Z</time>
      </trkpt>
      <trkpt lat="47.33462" lon="-2.36978">
        <ele>7.1999998092651</ele>
        <time>2019-06-16T08:30:34.000Z</time>
      </trkpt>
      <trkpt lat="47.33474" lon="-2.37001">
        <ele>7.1999998092651</ele>
        <time>2019-06-16T08:30:39.000Z</time>
      </trkpt>
      <trkpt lat="47.33472" lon="-2.37028">
        <ele>7.1999998092651</ele>
        <time>2019-06-16T08:30:43.000Z</time>
      </trkpt>
      <trkpt lat="47.33471" lon="-2.37049">
        <ele>7.1999998092651</ele>
        <time>2019-06-16T08:30:46.000Z</time>
      </trkpt>
      <trkpt lat="47.3347" lon="-2.37068">
        <ele>7.1999998092651</ele>
        <time>2019-06-16T08:30:49.000Z</time>
      </trkpt>
      <trkpt lat="47.33472" lon="-2.37107">
        <ele>7.1999998092651</ele>
        <time>2019-06-16T08:30:55.000Z</time>
      </trkpt>
      <trkpt lat="47.33475" lon="-2.37132">
        <ele>7.5999999046326</ele>
        <time>2019-06-16T08:30:59.000Z</time>
      </trkpt>
      <trkpt lat="47.33476" lon="-2.37137">
        <ele>8</ele>
        <time>2019-06-16T08:31:00.000Z</time>
      </trkpt>
      <trkpt lat="47.33477" lon="-2.37143">
        <ele>8.3999996185303</ele>
        <time>2019-06-16T08:31:01.000Z</time>
      </trkpt>
      <trkpt lat="47.33477" lon="-2.37149">
        <ele>8.8000001907349</ele>
        <time>2019-06-16T08:31:02.000Z</time>
      </trkpt>
      <trkpt lat="47.33478" lon="-2.37155">
        <ele>9.1999998092651</ele>
        <time>2019-06-16T08:31:03.000Z</time>
      </trkpt>
      <trkpt lat="47.33482" lon="-2.37175">
        <ele>9.1999998092651</ele>
        <time>2019-06-16T08:31:07.000Z</time>
      </trkpt>
      <trkpt lat="47.33487" lon="-2.37206">
        <ele>9.1999998092651</ele>
        <time>2019-06-16T08:31:12.000Z</time>
      </trkpt>
      <trkpt lat="47.33493" lon="-2.37224">
        <ele>9.8000001907349</ele>
        <time>2019-06-16T08:31:15.000Z</time>
      </trkpt>
      <trkpt lat="47.33496" lon="-2.37228">
        <ele>10.199999809265</ele>
        <time>2019-06-16T08:31:16.000Z</time>
      </trkpt>
      <trkpt lat="47.33501" lon="-2.37229">
        <ele>10.60000038147</ele>
        <time>2019-06-16T08:31:17.000Z</time>
      </trkpt>
      <trkpt lat="47.33505" lon="-2.3723">
        <ele>11</ele>
        <time>2019-06-16T08:31:18.000Z</time>
      </trkpt>
      <trkpt lat="47.33509" lon="-2.3723">
        <ele>11.39999961853</ele>
        <time>2019-06-16T08:31:19.000Z</time>
      </trkpt>
      <trkpt lat="47.33522" lon="-2.37232">
        <ele>11.39999961853</ele>
        <time>2019-06-16T08:31:22.000Z</time>
      </trkpt>
      <trkpt lat="47.33534" lon="-2.37232">
        <ele>11.800000190735</ele>
        <time>2019-06-16T08:31:25.000Z</time>
      </trkpt>
      <trkpt lat="47.33538" lon="-2.37232">
        <ele>12.199999809265</ele>
        <time>2019-06-16T08:31:26.000Z</time>
      </trkpt>
      <trkpt lat="47.33541" lon="-2.37231">
        <ele>12.60000038147</ele>
        <time>2019-06-16T08:31:27.000Z</time>
      </trkpt>
      <trkpt lat="47.33546" lon="-2.3723">
        <ele>13.199999809265</ele>
        <time>2019-06-16T08:31:28.000Z</time>
      </trkpt>
      <trkpt lat="47.33549" lon="-2.3723">
        <ele>13.60000038147</ele>
        <time>2019-06-16T08:31:29.000Z</time>
      </trkpt>
      <trkpt lat="47.33559" lon="-2.3723">
        <ele>13.60000038147</ele>
        <time>2019-06-16T08:31:31.000Z</time>
      </trkpt>
      <trkpt lat="47.3357" lon="-2.37233">
        <ele>13.60000038147</ele>
        <time>2019-06-16T08:31:34.000Z</time>
      </trkpt>
      <trkpt lat="47.33592" lon="-2.3723">
        <ele>13.60000038147</ele>
        <time>2019-06-16T08:31:40.000Z</time>
      </trkpt>
      <trkpt lat="47.33598" lon="-2.37226">
        <ele>13.60000038147</ele>
        <time>2019-06-16T08:31:42.000Z</time>
      </trkpt>
      <trkpt lat="47.33599" lon="-2.37216">
        <ele>13.60000038147</ele>
        <time>2019-06-16T08:31:44.000Z</time>
      </trkpt>
      <trkpt lat="47.33599" lon="-2.37184">
        <ele>13.60000038147</ele>
        <time>2019-06-16T08:31:49.000Z</time>
      </trkpt>
      <trkpt lat="47.336" lon="-2.37177">
        <ele>13.60000038147</ele>
        <time>2019-06-16T08:31:50.000Z</time>
      </trkpt>
      <trkpt lat="47.33603" lon="-2.3714">
        <ele>13.60000038147</ele>
        <time>2019-06-16T08:31:55.000Z</time>
      </trkpt>
      <trkpt lat="47.33603" lon="-2.37132">
        <ele>13.60000038147</ele>
        <time>2019-06-16T08:31:56.000Z</time>
      </trkpt>
      <trkpt lat="47.33602" lon="-2.37083">
        <ele>13.60000038147</ele>
        <time>2019-06-16T08:32:03.000Z</time>
      </trkpt>
      <trkpt lat="47.33602" lon="-2.37075">
        <ele>13.60000038147</ele>
        <time>2019-06-16T08:32:04.000Z</time>
      </trkpt>
      <trkpt lat="47.33602" lon="-2.37039">
        <ele>13.60000038147</ele>
        <time>2019-06-16T08:32:09.000Z</time>
      </trkpt>
      <trkpt lat="47.336" lon="-2.37">
        <ele>13.60000038147</ele>
        <time>2019-06-16T08:32:14.000Z</time>
      </trkpt>
      <trkpt lat="47.33602" lon="-2.36975">
        <ele>13.60000038147</ele>
        <time>2019-06-16T08:32:17.000Z</time>
      </trkpt>
      <trkpt lat="47.33604" lon="-2.36958">
        <ele>13.60000038147</ele>
        <time>2019-06-16T08:32:19.000Z</time>
      </trkpt>
      <trkpt lat="47.33606" lon="-2.3695">
        <ele>13.60000038147</ele>
        <time>2019-06-16T08:32:20.000Z</time>
      </trkpt>
      <trkpt lat="47.33617" lon="-2.36928">
        <ele>13.60000038147</ele>
        <time>2019-06-16T08:32:23.000Z</time>
      </trkpt>
      <trkpt lat="47.33625" lon="-2.36917">
        <ele>13.60000038147</ele>
        <time>2019-06-16T08:32:25.000Z</time>
      </trkpt>
      <trkpt lat="47.33642" lon="-2.36893">
        <ele>13.60000038147</ele>
        <time>2019-06-16T08:32:29.000Z</time>
      </trkpt>
      <trkpt lat="47.33676" lon="-2.36855">
        <ele>14</ele>
        <time>2019-06-16T08:32:36.000Z</time>
      </trkpt>
      <trkpt lat="47.3368" lon="-2.3685">
        <ele>14.39999961853</ele>
        <time>2019-06-16T08:32:37.000Z</time>
      </trkpt>
      <trkpt lat="47.33685" lon="-2.36845">
        <ele>14.800000190735</ele>
        <time>2019-06-16T08:32:38.000Z</time>
      </trkpt>
      <trkpt lat="47.33689" lon="-2.36839">
        <ele>15.199999809265</ele>
        <time>2019-06-16T08:32:39.000Z</time>
      </trkpt>
      <trkpt lat="47.33693" lon="-2.36834">
        <ele>15.60000038147</ele>
        <time>2019-06-16T08:32:40.000Z</time>
      </trkpt>
      <trkpt lat="47.33702" lon="-2.36825">
        <ele>15.60000038147</ele>
        <time>2019-06-16T08:32:42.000Z</time>
      </trkpt>
      <trkpt lat="47.33726" lon="-2.36811">
        <ele>15.60000038147</ele>
        <time>2019-06-16T08:32:47.000Z</time>
      </trkpt>
      <trkpt lat="47.3373" lon="-2.36808">
        <ele>15.60000038147</ele>
        <time>2019-06-16T08:32:48.000Z</time>
      </trkpt>
      <trkpt lat="47.3376" lon="-2.36791">
        <ele>15.60000038147</ele>
        <time>2019-06-16T08:32:54.000Z</time>
      </trkpt>
      <trkpt lat="47.33797" lon="-2.36782">
        <ele>15.60000038147</ele>
        <time>2019-06-16T08:32:59.000Z</time>
      </trkpt>
      <trkpt lat="47.33836" lon="-2.36773">
        <ele>15.60000038147</ele>
        <time>2019-06-16T08:33:05.000Z</time>
      </trkpt>
      <trkpt lat="47.33877" lon="-2.36762">
        <ele>15.60000038147</ele>
        <time>2019-06-16T08:33:12.000Z</time>
      </trkpt>
      <trkpt lat="47.33907" lon="-2.36753">
        <ele>15.60000038147</ele>
        <time>2019-06-16T08:33:18.000Z</time>
      </trkpt>
      <trkpt lat="47.3391" lon="-2.36752">
        <ele>15.60000038147</ele>
        <time>2019-06-16T08:33:19.000Z</time>
      </trkpt>
      <trkpt lat="47.33924" lon="-2.36754">
        <ele>15.60000038147</ele>
        <time>2019-06-16T08:33:23.000Z</time>
      </trkpt>
      <trkpt lat="47.33928" lon="-2.36755">
        <ele>15.60000038147</ele>
        <time>2019-06-16T08:33:24.000Z</time>
      </trkpt>
      <trkpt lat="47.33949" lon="-2.36752">
        <ele>15.60000038147</ele>
        <time>2019-06-16T08:33:28.000Z</time>
      </trkpt>
      <trkpt lat="47.33954" lon="-2.3675">
        <ele>15.199999809265</ele>
        <time>2019-06-16T08:33:29.000Z</time>
      </trkpt>
      <trkpt lat="47.3396" lon="-2.36749">
        <ele>14.800000190735</ele>
        <time>2019-06-16T08:33:30.000Z</time>
      </trkpt>
      <trkpt lat="47.33965" lon="-2.36747">
        <ele>14.39999961853</ele>
        <time>2019-06-16T08:33:31.000Z</time>
      </trkpt>
      <trkpt lat="47.33971" lon="-2.36745">
        <ele>14</ele>
        <time>2019-06-16T08:33:32.000Z</time>
      </trkpt>
      <trkpt lat="47.33976" lon="-2.36743">
        <ele>13.39999961853</ele>
        <time>2019-06-16T08:33:33.000Z</time>
      </trkpt>
      <trkpt lat="47.33989" lon="-2.36741">
        <ele>13.39999961853</ele>
        <time>2019-06-16T08:33:35.000Z</time>
      </trkpt>
      <trkpt lat="47.34027" lon="-2.36727">
        <ele>13.39999961853</ele>
        <time>2019-06-16T08:33:41.000Z</time>
      </trkpt>
      <trkpt lat="47.34039" lon="-2.3672">
        <ele>12.60000038147</ele>
        <time>2019-06-16T08:33:43.000Z</time>
      </trkpt>
      <trkpt lat="47.34045" lon="-2.36717">
        <ele>12.199999809265</ele>
        <time>2019-06-16T08:33:44.000Z</time>
      </trkpt>
      <trkpt lat="47.34051" lon="-2.36713">
        <ele>11.800000190735</ele>
        <time>2019-06-16T08:33:45.000Z</time>
      </trkpt>
      <trkpt lat="47.34057" lon="-2.3671">
        <ele>11.39999961853</ele>
        <time>2019-06-16T08:33:46.000Z</time>
      </trkpt>
      <trkpt lat="47.34081" lon="-2.36701">
        <ele>11.39999961853</ele>
        <time>2019-06-16T08:33:50.000Z</time>
      </trkpt>
      <trkpt lat="47.34085" lon="-2.36705">
        <ele>11.39999961853</ele>
        <time>2019-06-16T08:33:51.000Z</time>
      </trkpt>
      <trkpt lat="47.34088" lon="-2.36712">
        <ele>11</ele>
        <time>2019-06-16T08:33:52.000Z</time>
      </trkpt>
      <trkpt lat="47.34089" lon="-2.3672">
        <ele>10.39999961853</ele>
        <time>2019-06-16T08:33:53.000Z</time>
      </trkpt>
      <trkpt lat="47.3409" lon="-2.3673">
        <ele>10</ele>
        <time>2019-06-16T08:33:54.000Z</time>
      </trkpt>
      <trkpt lat="47.34092" lon="-2.36739">
        <ele>9.6000003814697</ele>
        <time>2019-06-16T08:33:55.000Z</time>
      </trkpt>
      <trkpt lat="47.34093" lon="-2.36748">
        <ele>9.1999998092651</ele>
        <time>2019-06-16T08:33:56.000Z</time>
      </trkpt>
      <trkpt lat="47.34101" lon="-2.36792">
        <ele>9.1999998092651</ele>
        <time>2019-06-16T08:34:01.000Z</time>
      </trkpt>
      <trkpt lat="47.34119" lon="-2.36871">
        <ele>9.1999998092651</ele>
        <time>2019-06-16T08:34:09.000Z</time>
      </trkpt>
      <trkpt lat="47.34141" lon="-2.36908">
        <ele>9.1999998092651</ele>
        <time>2019-06-16T08:34:14.000Z</time>
      </trkpt>
      <trkpt lat="47.34149" lon="-2.36921">
        <ele>9.1999998092651</ele>
        <time>2019-06-16T08:34:16.000Z</time>
      </trkpt>
      <trkpt lat="47.34155" lon="-2.36935">
        <ele>9.1999998092651</ele>
        <time>2019-06-16T08:34:18.000Z</time>
      </trkpt>
      <trkpt lat="47.34159" lon="-2.3694">
        <ele>9.1999998092651</ele>
        <time>2019-06-16T08:34:19.000Z</time>
      </trkpt>
      <trkpt lat="47.34172" lon="-2.36959">
        <ele>9.1999998092651</ele>
        <time>2019-06-16T08:34:22.000Z</time>
      </trkpt>
      <trkpt lat="47.34197" lon="-2.36992">
        <ele>9.1999998092651</ele>
        <time>2019-06-16T08:34:28.000Z</time>
      </trkpt>
      <trkpt lat="47.34211" lon="-2.37016">
        <ele>10</ele>
        <time>2019-06-16T08:34:32.000Z</time>
      </trkpt>
      <trkpt lat="47.34214" lon="-2.37023">
        <ele>10.39999961853</ele>
        <time>2019-06-16T08:34:33.000Z</time>
      </trkpt>
      <trkpt lat="47.34217" lon="-2.37029">
        <ele>10.800000190735</ele>
        <time>2019-06-16T08:34:34.000Z</time>
      </trkpt>
      <trkpt lat="47.3422" lon="-2.37035">
        <ele>11.199999809265</ele>
        <time>2019-06-16T08:34:35.000Z</time>
      </trkpt>
      <trkpt lat="47.34231" lon="-2.37059">
        <ele>11.199999809265</ele>
        <time>2019-06-16T08:34:39.000Z</time>
      </trkpt>
      <trkpt lat="47.34233" lon="-2.37063">
        <ele>11.60000038147</ele>
        <time>2019-06-16T08:34:40.000Z</time>
      </trkpt>
      <trkpt lat="47.34237" lon="-2.37065">
        <ele>12.199999809265</ele>
        <time>2019-06-16T08:34:41.000Z</time>
      </trkpt>
      <trkpt lat="47.34241" lon="-2.37063">
        <ele>12.60000038147</ele>
        <time>2019-06-16T08:34:42.000Z</time>
      </trkpt>
      <trkpt lat="47.34245" lon="-2.3706">
        <ele>13</ele>
        <time>2019-06-16T08:34:43.000Z</time>
      </trkpt>
      <trkpt lat="47.34248" lon="-2.37056">
        <ele>13.39999961853</ele>
        <time>2019-06-16T08:34:44.000Z</time>
      </trkpt>
      <trkpt lat="47.34253" lon="-2.37052">
        <ele>13.39999961853</ele>
        <time>2019-06-16T08:34:45.000Z</time>
      </trkpt>
      <trkpt lat="47.34256" lon="-2.37048">
        <ele>13.39999961853</ele>
        <time>2019-06-16T08:34:46.000Z</time>
      </trkpt>
      <trkpt lat="47.34278" lon="-2.3703">
        <ele>13.39999961853</ele>
        <time>2019-06-16T08:34:52.000Z</time>
      </trkpt>
      <trkpt lat="47.34288" lon="-2.37018">
        <ele>13.39999961853</ele>
        <time>2019-06-16T08:34:55.000Z</time>
      </trkpt>
      <trkpt lat="47.34291" lon="-2.37013">
        <ele>13.39999961853</ele>
        <time>2019-06-16T08:34:56.000Z</time>
      </trkpt>
      <trkpt lat="47.34294" lon="-2.37008">
        <ele>13.39999961853</ele>
        <time>2019-06-16T08:34:57.000Z</time>
      </trkpt>
      <trkpt lat="47.34314" lon="-2.36981">
        <ele>13.39999961853</ele>
        <time>2019-06-16T08:35:02.000Z</time>
      </trkpt>
      <trkpt lat="47.34341" lon="-2.36942">
        <ele>13.39999961853</ele>
        <time>2019-06-16T08:35:09.000Z</time>
      </trkpt>
      <trkpt lat="47.34362" lon="-2.36908">
        <ele>13.39999961853</ele>
        <time>2019-06-16T08:35:14.000Z</time>
      </trkpt>
      <trkpt lat="47.34394" lon="-2.36856">
        <ele>13.39999961853</ele>
        <time>2019-06-16T08:35:21.000Z</time>
      </trkpt>
      <trkpt lat="47.34431" lon="-2.36797">
        <ele>13.39999961853</ele>
        <time>2019-06-16T08:35:29.000Z</time>
      </trkpt>
      <trkpt lat="47.34463" lon="-2.36747">
        <ele>13</ele>
        <time>2019-06-16T08:35:36.000Z</time>
      </trkpt>
      <trkpt lat="47.34468" lon="-2.36739">
        <ele>12.60000038147</ele>
        <time>2019-06-16T08:35:37.000Z</time>
      </trkpt>
      <trkpt lat="47.34472" lon="-2.36731">
        <ele>12</ele>
        <time>2019-06-16T08:35:38.000Z</time>
      </trkpt>
      <trkpt lat="47.34477" lon="-2.36724">
        <ele>11.60000038147</ele>
        <time>2019-06-16T08:35:39.000Z</time>
      </trkpt>
      <trkpt lat="47.34481" lon="-2.36715">
        <ele>11.199999809265</ele>
        <time>2019-06-16T08:35:40.000Z</time>
      </trkpt>
      <trkpt lat="47.34493" lon="-2.3669">
        <ele>11.199999809265</ele>
        <time>2019-06-16T08:35:43.000Z</time>
      </trkpt>
      <trkpt lat="47.34506" lon="-2.36663">
        <ele>10.800000190735</ele>
        <time>2019-06-16T08:35:46.000Z</time>
      </trkpt>
      <trkpt lat="47.3451" lon="-2.36654">
        <ele>10.39999961853</ele>
        <time>2019-06-16T08:35:47.000Z</time>
      </trkpt>
      <trkpt lat="47.34513" lon="-2.36645">
        <ele>10</ele>
        <time>2019-06-16T08:35:48.000Z</time>
      </trkpt>
      <trkpt lat="47.34517" lon="-2.36637">
        <ele>9.6000003814697</ele>
        <time>2019-06-16T08:35:49.000Z</time>
      </trkpt>
      <trkpt lat="47.34521" lon="-2.36628">
        <ele>9.1999998092651</ele>
        <time>2019-06-16T08:35:50.000Z</time>
      </trkpt>
      <trkpt lat="47.34545" lon="-2.36568">
        <ele>9.1999998092651</ele>
        <time>2019-06-16T08:35:57.000Z</time>
      </trkpt>
      <trkpt lat="47.34548" lon="-2.3656">
        <ele>8.6000003814697</ele>
        <time>2019-06-16T08:35:58.000Z</time>
      </trkpt>
      <trkpt lat="47.34552" lon="-2.36551">
        <ele>8.1999998092651</ele>
        <time>2019-06-16T08:35:59.000Z</time>
      </trkpt>
      <trkpt lat="47.34555" lon="-2.36543">
        <ele>7.8000001907349</ele>
        <time>2019-06-16T08:36:00.000Z</time>
      </trkpt>
      <trkpt lat="47.34558" lon="-2.36535">
        <ele>7.4000000953674</ele>
        <time>2019-06-16T08:36:01.000Z</time>
      </trkpt>
      <trkpt lat="47.3456" lon="-2.36528">
        <ele>7</ele>
        <time>2019-06-16T08:36:02.000Z</time>
      </trkpt>
      <trkpt lat="47.34581" lon="-2.36473">
        <ele>7</ele>
        <time>2019-06-16T08:36:09.000Z</time>
      </trkpt>
      <trkpt lat="47.34588" lon="-2.36454">
        <ele>6.5999999046326</ele>
        <time>2019-06-16T08:36:12.000Z</time>
      </trkpt>
      <trkpt lat="47.3459" lon="-2.36448">
        <ele>6.1999998092651</ele>
        <time>2019-06-16T08:36:13.000Z</time>
      </trkpt>
      <trkpt lat="47.34591" lon="-2.36443">
        <ele>5.8000001907349</ele>
        <time>2019-06-16T08:36:14.000Z</time>
      </trkpt>
      <trkpt lat="47.34591" lon="-2.3644">
        <ele>5.4000000953674</ele>
        <time>2019-06-16T08:36:15.000Z</time>
      </trkpt>
      <trkpt lat="47.34589" lon="-2.36437">
        <ele>5</ele>
        <time>2019-06-16T08:36:16.000Z</time>
      </trkpt>
      <trkpt lat="47.34585" lon="-2.36428">
        <ele>5</ele>
        <time>2019-06-16T08:36:19.000Z</time>
      </trkpt>
      <trkpt lat="47.34578" lon="-2.36417">
        <ele>5</ele>
        <time>2019-06-16T08:36:22.000Z</time>
      </trkpt>
      <trkpt lat="47.34564" lon="-2.36398">
        <ele>5</ele>
        <time>2019-06-16T08:36:27.000Z</time>
      </trkpt>
      <trkpt lat="47.34561" lon="-2.36393">
        <ele>5</ele>
        <time>2019-06-16T08:36:28.000Z</time>
      </trkpt>
      <trkpt lat="47.34558" lon="-2.36388">
        <ele>5</ele>
        <time>2019-06-16T08:36:29.000Z</time>
      </trkpt>
      <trkpt lat="47.34549" lon="-2.36374">
        <ele>5</ele>
        <time>2019-06-16T08:36:32.000Z</time>
      </trkpt>
      <trkpt lat="47.34545" lon="-2.36362">
        <ele>5</ele>
        <time>2019-06-16T08:36:34.000Z</time>
      </trkpt>
      <trkpt lat="47.34541" lon="-2.36349">
        <ele>4.5999999046326</ele>
        <time>2019-06-16T08:36:36.000Z</time>
      </trkpt>
      <trkpt lat="47.34539" lon="-2.36343">
        <ele>4</ele>
        <time>2019-06-16T08:36:37.000Z</time>
      </trkpt>
      <trkpt lat="47.34537" lon="-2.36338">
        <ele>3.5999999046326</ele>
        <time>2019-06-16T08:36:38.000Z</time>
      </trkpt>
      <trkpt lat="47.34536" lon="-2.36333">
        <ele>3.2000000476837</ele>
        <time>2019-06-16T08:36:39.000Z</time>
      </trkpt>
      <trkpt lat="47.34534" lon="-2.36328">
        <ele>2.7999999523163</ele>
        <time>2019-06-16T08:36:40.000Z</time>
      </trkpt>
      <trkpt lat="47.34526" lon="-2.36304">
        <ele>2.7999999523163</ele>
        <time>2019-06-16T08:36:45.000Z</time>
      </trkpt>
      <trkpt lat="47.34517" lon="-2.3628">
        <ele>2.7999999523163</ele>
        <time>2019-06-16T08:36:50.000Z</time>
      </trkpt>
      <trkpt lat="47.34511" lon="-2.36262">
        <ele>2.7999999523163</ele>
        <time>2019-06-16T08:36:54.000Z</time>
      </trkpt>
      <trkpt lat="47.34502" lon="-2.36232">
        <ele>2.7999999523163</ele>
        <time>2019-06-16T08:37:00.000Z</time>
      </trkpt>
      <trkpt lat="47.34491" lon="-2.36214">
        <ele>2.7999999523163</ele>
        <time>2019-06-16T08:37:06.000Z</time>
      </trkpt>
      <trkpt lat="47.34484" lon="-2.36202">
        <ele>2.7999999523163</ele>
        <time>2019-06-16T08:37:11.000Z</time>
      </trkpt>
      <trkpt lat="47.34472" lon="-2.36183">
        <ele>2.7999999523163</ele>
        <time>2019-06-16T08:37:17.000Z</time>
      </trkpt>
      <trkpt lat="47.34461" lon="-2.36159">
        <ele>2.7999999523163</ele>
        <time>2019-06-16T08:37:24.000Z</time>
      </trkpt>
      <trkpt lat="47.34452" lon="-2.36136">
        <ele>2.7999999523163</ele>
        <time>2019-06-16T08:37:30.000Z</time>
      </trkpt>
      <trkpt lat="47.3444" lon="-2.36106">
        <ele>2.7999999523163</ele>
        <time>2019-06-16T08:37:37.000Z</time>
      </trkpt>
      <trkpt lat="47.34429" lon="-2.36074">
        <ele>2.7999999523163</ele>
        <time>2019-06-16T08:37:43.000Z</time>
      </trkpt>
      <trkpt lat="47.34422" lon="-2.36042">
        <ele>2.7999999523163</ele>
        <time>2019-06-16T08:37:48.000Z</time>
      </trkpt>
      <trkpt lat="47.34416" lon="-2.36022">
        <ele>2.7999999523163</ele>
        <time>2019-06-16T08:37:51.000Z</time>
      </trkpt>
      <trkpt lat="47.34409" lon="-2.36009">
        <ele>2.7999999523163</ele>
        <time>2019-06-16T08:37:53.000Z</time>
      </trkpt>
      <trkpt lat="47.34396" lon="-2.35994">
        <ele>2.7999999523163</ele>
        <time>2019-06-16T08:37:56.000Z</time>
      </trkpt>
      <trkpt lat="47.34391" lon="-2.35991">
        <ele>3.4000000953674</ele>
        <time>2019-06-16T08:37:57.000Z</time>
      </trkpt>
      <trkpt lat="47.34386" lon="-2.35989">
        <ele>3.7999999523163</ele>
        <time>2019-06-16T08:37:58.000Z</time>
      </trkpt>
      <trkpt lat="47.3438" lon="-2.35986">
        <ele>4.1999998092651</ele>
        <time>2019-06-16T08:37:59.000Z</time>
      </trkpt>
      <trkpt lat="47.34375" lon="-2.35984">
        <ele>4.5999999046326</ele>
        <time>2019-06-16T08:38:00.000Z</time>
      </trkpt>
      <trkpt lat="47.34369" lon="-2.35982">
        <ele>5</ele>
        <time>2019-06-16T08:38:01.000Z</time>
      </trkpt>
      <trkpt lat="47.34352" lon="-2.35976">
        <ele>5</ele>
        <time>2019-06-16T08:38:04.000Z</time>
      </trkpt>
      <trkpt lat="47.34323" lon="-2.35961">
        <ele>5</ele>
        <time>2019-06-16T08:38:09.000Z</time>
      </trkpt>
      <trkpt lat="47.34285" lon="-2.3595">
        <ele>5</ele>
        <time>2019-06-16T08:38:15.000Z</time>
      </trkpt>
      <trkpt lat="47.34277" lon="-2.35949">
        <ele>5</ele>
        <time>2019-06-16T08:38:16.000Z</time>
      </trkpt>
      <trkpt lat="47.34256" lon="-2.35949">
        <ele>4.5999999046326</ele>
        <time>2019-06-16T08:38:19.000Z</time>
      </trkpt>
      <trkpt lat="47.34252" lon="-2.35949">
        <ele>4.1999998092651</ele>
        <time>2019-06-16T08:38:20.000Z</time>
      </trkpt>
      <trkpt lat="47.34249" lon="-2.35948">
        <ele>3.5999999046326</ele>
        <time>2019-06-16T08:38:21.000Z</time>
      </trkpt>
      <trkpt lat="47.34246" lon="-2.35947">
        <ele>3</ele>
        <time>2019-06-16T08:38:22.000Z</time>
      </trkpt>
      <trkpt lat="47.34243" lon="-2.35944">
        <ele>2.4000000953674</ele>
        <time>2019-06-16T08:38:23.000Z</time>
      </trkpt>
      <trkpt lat="47.34242" lon="-2.3594">
        <ele>1.7999999523163</ele>
        <time>2019-06-16T08:38:24.000Z</time>
      </trkpt>
      <trkpt lat="47.34242" lon="-2.35933">
        <ele>1.2000000476837</ele>
        <time>2019-06-16T08:38:25.000Z</time>
      </trkpt>
      <trkpt lat="47.34242" lon="-2.35927">
        <ele>0.40000000596046</ele>
        <time>2019-06-16T08:38:26.000Z</time>
      </trkpt>
      <trkpt lat="47.34245" lon="-2.35901">
        <ele>0.40000000596046</ele>
        <time>2019-06-16T08:38:29.000Z</time>
      </trkpt>
      <trkpt lat="47.34248" lon="-2.35882">
        <ele>12.7</ele>
        <time>2019-06-16T08:38:31.000Z</time>
      </trkpt>
      <trkpt lat="47.3425" lon="-2.35872">
        <ele>-0.40000000596046</ele>
        <time>2019-06-16T08:38:32.000Z</time>
      </trkpt>
      <trkpt lat="47.34251" lon="-2.35862">
        <ele>-0.80000001192093</ele>
        <time>2019-06-16T08:38:33.000Z</time>
      </trkpt>
      <trkpt lat="47.3425" lon="-2.35851">
        <ele>-1.2000000476837</ele>
        <time>2019-06-16T08:38:34.000Z</time>
      </trkpt>
      <trkpt lat="47.34248" lon="-2.3584">
        <ele>-1.6000000238419</ele>
        <time>2019-06-16T08:38:35.000Z</time>
      </trkpt>
      <trkpt lat="47.34243" lon="-2.35819">
        <ele>-1.6000000238419</ele>
        <time>2019-06-16T08:38:37.000Z</time>
      </trkpt>
      <trkpt lat="47.3424" lon="-2.3581">
        <ele>-1.6000000238419</ele>
        <time>2019-06-16T08:38:38.000Z</time>
      </trkpt>
      <trkpt lat="47.34225" lon="-2.35763">
        <ele>-1.6000000238419</ele>
        <time>2019-06-16T08:38:43.000Z</time>
      </trkpt>
      <trkpt lat="47.34217" lon="-2.35732">
        <ele>-1.6000000238419</ele>
        <time>2019-06-16T08:38:47.000Z</time>
      </trkpt>
      <trkpt lat="47.34208" lon="-2.35724">
        <ele>-1.6000000238419</ele>
        <time>2019-06-16T08:38:50.000Z</time>
      </trkpt>
      <trkpt lat="47.34207" lon="-2.35721">
        <ele>-1.6000000238419</ele>
        <time>2019-06-16T08:38:51.000Z</time>
      </trkpt>
      <trkpt lat="47.34206" lon="-2.35715">
        <ele>-1.6000000238419</ele>
        <time>2019-06-16T08:38:53.000Z</time>
      </trkpt>
      <trkpt lat="47.34206" lon="-2.35713">
        <ele>-1</ele>
        <time>2019-06-16T08:38:54.000Z</time>
      </trkpt>
      <trkpt lat="47.34206" lon="-2.35712">
        <ele>-0.60000002384186</ele>
        <time>2019-06-16T08:38:55.000Z</time>
      </trkpt>
      <trkpt lat="47.34207" lon="-2.3571">
        <ele>-0.20000000298023</ele>
        <time>2019-06-16T08:38:56.000Z</time>
      </trkpt>
      <trkpt lat="47.34209" lon="-2.35707">
        <ele>0.40000000596046</ele>
        <time>2019-06-16T08:38:57.000Z</time>
      </trkpt>
      <trkpt lat="47.34212" lon="-2.35703">
        <ele>0.80000001192093</ele>
        <time>2019-06-16T08:38:58.000Z</time>
      </trkpt>
      <trkpt lat="47.34225" lon="-2.3569">
        <ele>0.80000001192093</ele>
        <time>2019-06-16T08:39:01.000Z</time>
      </trkpt>
      <trkpt lat="47.34244" lon="-2.35678">
        <ele>0.80000001192093</ele>
        <time>2019-06-16T08:39:04.000Z</time>
      </trkpt>
      <trkpt lat="47.34251" lon="-2.35672">
        <ele>0.80000001192093</ele>
        <time>2019-06-16T08:39:05.000Z</time>
      </trkpt>
      <trkpt lat="47.34258" lon="-2.35666">
        <ele>0.80000001192093</ele>
        <time>2019-06-16T08:39:06.000Z</time>
      </trkpt>
      <trkpt lat="47.34276" lon="-2.35642">
        <ele>0.80000001192093</ele>
        <time>2019-06-16T08:39:09.000Z</time>
      </trkpt>
      <trkpt lat="47.343" lon="-2.35611">
        <ele>0.40000000596046</ele>
        <time>2019-06-16T08:39:13.000Z</time>
      </trkpt>
      <trkpt lat="47.34306" lon="-2.35603">
        <ele>12.5</ele>
        <time>2019-06-16T08:39:14.000Z</time>
      </trkpt>
      <trkpt lat="47.34311" lon="-2.35596">
        <ele>-0.40000000596046</ele>
        <time>2019-06-16T08:39:15.000Z</time>
      </trkpt>
      <trkpt lat="47.34317" lon="-2.35589">
        <ele>-0.80000001192093</ele>
        <time>2019-06-16T08:39:16.000Z</time>
      </trkpt>
      <trkpt lat="47.34322" lon="-2.35581">
        <ele>-1.3999999761581</ele>
        <time>2019-06-16T08:39:17.000Z</time>
      </trkpt>
      <trkpt lat="47.34341" lon="-2.35556">
        <ele>-1.3999999761581</ele>
        <time>2019-06-16T08:39:21.000Z</time>
      </trkpt>
      <trkpt lat="47.34344" lon="-2.35553">
        <ele>-1.3999999761581</ele>
        <time>2019-06-16T08:39:22.000Z</time>
      </trkpt>
      <trkpt lat="47.34349" lon="-2.35543">
        <ele>-1.3999999761581</ele>
        <time>2019-06-16T08:39:25.000Z</time>
      </trkpt>
      <trkpt lat="47.34356" lon="-2.35531">
        <ele>-1.3999999761581</ele>
        <time>2019-06-16T08:39:28.000Z</time>
      </trkpt>
      <trkpt lat="47.34364" lon="-2.35518">
        <ele>-1.3999999761581</ele>
        <time>2019-06-16T08:39:31.000Z</time>
      </trkpt>
      <trkpt lat="47.34368" lon="-2.35514">
        <ele>-1.3999999761581</ele>
        <time>2019-06-16T08:39:32.000Z</time>
      </trkpt>
      <trkpt lat="47.3438" lon="-2.35495">
        <ele>-1.3999999761581</ele>
        <time>2019-06-16T08:39:36.000Z</time>
      </trkpt>
      <trkpt lat="47.34396" lon="-2.35472">
        <ele>-1.3999999761581</ele>
        <time>2019-06-16T08:39:41.000Z</time>
      </trkpt>
      <trkpt lat="47.34411" lon="-2.35439">
        <ele>-1.3999999761581</ele>
        <time>2019-06-16T08:39:46.000Z</time>
      </trkpt>
      <trkpt lat="47.34422" lon="-2.35407">
        <ele>-1.3999999761581</ele>
        <time>2019-06-16T08:39:52.000Z</time>
      </trkpt>
      <trkpt lat="47.34427" lon="-2.35401">
        <ele>-1.3999999761581</ele>
        <time>2019-06-16T08:39:55.000Z</time>
      </trkpt>
      <trkpt lat="47.34429" lon="-2.354">
        <ele>-1.3999999761581</ele>
        <time>2019-06-16T08:39:56.000Z</time>
      </trkpt>
      <trkpt lat="47.34439" lon="-2.35399">
        <ele>-1.3999999761581</ele>
        <time>2019-06-16T08:40:00.000Z</time>
      </trkpt>
      <trkpt lat="47.34453" lon="-2.35401">
        <ele>-1.3999999761581</ele>
        <time>2019-06-16T08:40:05.000Z</time>
      </trkpt>
      <trkpt lat="47.34463" lon="-2.35403">
        <ele>-1.3999999761581</ele>
        <time>2019-06-16T08:40:08.000Z</time>
      </trkpt>
      <trkpt lat="47.34466" lon="-2.35402">
        <ele>-1.7999999523163</ele>
        <time>2019-06-16T08:40:09.000Z</time>
      </trkpt>
      <trkpt lat="47.3447" lon="-2.35399">
        <ele>-2.2000000476837</ele>
        <time>2019-06-16T08:40:10.000Z</time>
      </trkpt>
      <trkpt lat="47.34473" lon="-2.35396">
        <ele>-2.5999999046326</ele>
        <time>2019-06-16T08:40:11.000Z</time>
      </trkpt>
      <trkpt lat="47.34476" lon="-2.35393">
        <ele>-3</ele>
        <time>2019-06-16T08:40:12.000Z</time>
      </trkpt>
      <trkpt lat="47.3448" lon="-2.35389">
        <ele>-3.5999999046326</ele>
        <time>2019-06-16T08:40:13.000Z</time>
      </trkpt>
      <trkpt lat="47.34484" lon="-2.35386">
        <ele>-3.5999999046326</ele>
        <time>2019-06-16T08:40:14.000Z</time>
      </trkpt>
      <trkpt lat="47.34496" lon="-2.35382">
        <ele>-3.5999999046326</ele>
        <time>2019-06-16T08:40:17.000Z</time>
      </trkpt>
      <trkpt lat="47.34505" lon="-2.35379">
        <ele>-3.5999999046326</ele>
        <time>2019-06-16T08:40:19.000Z</time>
      </trkpt>
      <trkpt lat="47.34523" lon="-2.35371">
        <ele>-3.5999999046326</ele>
        <time>2019-06-16T08:40:24.000Z</time>
      </trkpt>
      <trkpt lat="47.34548" lon="-2.35362">
        <ele>-3.5999999046326</ele>
        <time>2019-06-16T08:40:30.000Z</time>
      </trkpt>
      <trkpt lat="47.34566" lon="-2.35361">
        <ele>-3</ele>
        <time>2019-06-16T08:40:35.000Z</time>
      </trkpt>
      <trkpt lat="47.34569" lon="-2.35359">
        <ele>-2.5999999046326</ele>
        <time>2019-06-16T08:40:36.000Z</time>
      </trkpt>
      <trkpt lat="47.34571" lon="-2.35356">
        <ele>-2.2000000476837</ele>
        <time>2019-06-16T08:40:37.000Z</time>
      </trkpt>
      <trkpt lat="47.34572" lon="-2.35354">
        <ele>-1.7999999523163</ele>
        <time>2019-06-16T08:40:38.000Z</time>
      </trkpt>
      <trkpt lat="47.34574" lon="-2.35353">
        <ele>-1.2000000476837</ele>
        <time>2019-06-16T08:40:39.000Z</time>
      </trkpt>
      <trkpt lat="47.34574" lon="-2.35353">
        <ele>-1.2000000476837</ele>
        <time>2019-06-16T08:40:41.000Z</time>
      </trkpt>
      <trkpt lat="47.34575" lon="-2.35352">
        <ele>-1.2000000476837</ele>
        <time>2019-06-16T08:40:42.000Z</time>
      </trkpt>
      <trkpt lat="47.34576" lon="-2.3535">
        <ele>-1.2000000476837</ele>
        <time>2019-06-16T08:40:43.000Z</time>
      </trkpt>
      <trkpt lat="47.34582" lon="-2.35351">
        <ele>-1.2000000476837</ele>
        <time>2019-06-16T08:40:45.000Z</time>
      </trkpt>
      <trkpt lat="47.34585" lon="-2.35352">
        <ele>-1.2000000476837</ele>
        <time>2019-06-16T08:40:46.000Z</time>
      </trkpt>
      <trkpt lat="47.34597" lon="-2.3536">
        <ele>-1.2000000476837</ele>
        <time>2019-06-16T08:40:49.000Z</time>
      </trkpt>
      <trkpt lat="47.34606" lon="-2.35368">
        <ele>-1.2000000476837</ele>
        <time>2019-06-16T08:40:51.000Z</time>
      </trkpt>
      <trkpt lat="47.34635" lon="-2.35394">
        <ele>-1.2000000476837</ele>
        <time>2019-06-16T08:40:57.000Z</time>
      </trkpt>
      <trkpt lat="47.3465" lon="-2.35406">
        <ele>-1.2000000476837</ele>
        <time>2019-06-16T08:41:01.000Z</time>
      </trkpt>
      <trkpt lat="47.34658" lon="-2.35406">
        <ele>-1.2000000476837</ele>
        <time>2019-06-16T08:41:05.000Z</time>
      </trkpt>
      <trkpt lat="47.34662" lon="-2.35403">
        <ele>-1.2000000476837</ele>
        <time>2019-06-16T08:41:07.000Z</time>
      </trkpt>
      <trkpt lat="47.34667" lon="-2.35401">
        <ele>-1.2000000476837</ele>
        <time>2019-06-16T08:41:09.000Z</time>
      </trkpt>
      <trkpt lat="47.34685" lon="-2.35397">
        <ele>-1.2000000476837</ele>
        <time>2019-06-16T08:41:14.000Z</time>
      </trkpt>
      <trkpt lat="47.34691" lon="-2.35393">
        <ele>-1.2000000476837</ele>
        <time>2019-06-16T08:41:17.000Z</time>
      </trkpt>
      <trkpt lat="47.34695" lon="-2.35391">
        <ele>-1.2000000476837</ele>
        <time>2019-06-16T08:41:18.000Z</time>
      </trkpt>
      <trkpt lat="47.34705" lon="-2.35379">
        <ele>-1.2000000476837</ele>
        <time>2019-06-16T08:41:23.000Z</time>
      </trkpt>
      <trkpt lat="47.34718" lon="-2.35358">
        <ele>-1.2000000476837</ele>
        <time>2019-06-16T08:41:28.000Z</time>
      </trkpt>
      <trkpt lat="47.34721" lon="-2.35342">
        <ele>-1.2000000476837</ele>
        <time>2019-06-16T08:41:32.000Z</time>
      </trkpt>
      <trkpt lat="47.34723" lon="-2.3532">
        <ele>-1.2000000476837</ele>
        <time>2019-06-16T08:41:37.000Z</time>
      </trkpt>
      <trkpt lat="47.34733" lon="-2.35302">
        <ele>-1.2000000476837</ele>
        <time>2019-06-16T08:41:41.000Z</time>
      </trkpt>
      <trkpt lat="47.3474" lon="-2.35281">
        <ele>-1.2000000476837</ele>
        <time>2019-06-16T08:41:45.000Z</time>
      </trkpt>
      <trkpt lat="47.34741" lon="-2.35277">
        <ele>-1.2000000476837</ele>
        <time>2019-06-16T08:41:46.000Z</time>
      </trkpt>
      <trkpt lat="47.34745" lon="-2.35251">
        <ele>-1.2000000476837</ele>
        <time>2019-06-16T08:41:50.000Z</time>
      </trkpt>
      <trkpt lat="47.34751" lon="-2.35215">
        <ele>-1.2000000476837</ele>
        <time>2019-06-16T08:41:55.000Z</time>
      </trkpt>
      <trkpt lat="47.34752" lon="-2.35209">
        <ele>-1.2000000476837</ele>
        <time>2019-06-16T08:41:56.000Z</time>
      </trkpt>
      <trkpt lat="47.34754" lon="-2.35199">
        <ele>-1.2000000476837</ele>
        <time>2019-06-16T08:41:58.000Z</time>
      </trkpt>
      <trkpt lat="47.34757" lon="-2.3519">
        <ele>-1.2000000476837</ele>
        <time>2019-06-16T08:42:00.000Z</time>
      </trkpt>
      <trkpt lat="47.34759" lon="-2.35172">
        <ele>-1.2000000476837</ele>
        <time>2019-06-16T08:42:04.000Z</time>
      </trkpt>
      <trkpt lat="47.34759" lon="-2.35167">
        <ele>-1.6000000238419</ele>
        <time>2019-06-16T08:42:05.000Z</time>
      </trkpt>
      <trkpt lat="47.34759" lon="-2.35163">
        <ele>-2</ele>
        <time>2019-06-16T08:42:06.000Z</time>
      </trkpt>
      <trkpt lat="47.34757" lon="-2.35158">
        <ele>-2.4000000953674</ele>
        <time>2019-06-16T08:42:07.000Z</time>
      </trkpt>
      <trkpt lat="47.34756" lon="-2.35156">
        <ele>-2.7999999523163</ele>
        <time>2019-06-16T08:42:08.000Z</time>
      </trkpt>
      <trkpt lat="47.34755" lon="-2.35153">
        <ele>-3.2000000476837</ele>
        <time>2019-06-16T08:42:09.000Z</time>
      </trkpt>
      <trkpt lat="47.34754" lon="-2.35149">
        <ele>-3.2000000476837</ele>
        <time>2019-06-16T08:42:10.000Z</time>
      </trkpt>
      <trkpt lat="47.34748" lon="-2.35137">
        <ele>-3.2000000476837</ele>
        <time>2019-06-16T08:42:14.000Z</time>
      </trkpt>
      <trkpt lat="47.34745" lon="-2.35136">
        <ele>-3.2000000476837</ele>
        <time>2019-06-16T08:42:15.000Z</time>
      </trkpt>
      <trkpt lat="47.34739" lon="-2.3513">
        <ele>-3.2000000476837</ele>
        <time>2019-06-16T08:42:18.000Z</time>
      </trkpt>
      <trkpt lat="47.34732" lon="-2.35108">
        <ele>-3.2000000476837</ele>
        <time>2019-06-16T08:42:22.000Z</time>
      </trkpt>
      <trkpt lat="47.34722" lon="-2.35094">
        <ele>-3.2000000476837</ele>
        <time>2019-06-16T08:42:26.000Z</time>
      </trkpt>
      <trkpt lat="47.34712" lon="-2.35082">
        <ele>-3.2000000476837</ele>
        <time>2019-06-16T08:42:29.000Z</time>
      </trkpt>
      <trkpt lat="47.34705" lon="-2.35073">
        <ele>-3.2000000476837</ele>
        <time>2019-06-16T08:42:31.000Z</time>
      </trkpt>
      <trkpt lat="47.3469" lon="-2.35049">
        <ele>-3.2000000476837</ele>
        <time>2019-06-16T08:42:36.000Z</time>
      </trkpt>
      <trkpt lat="47.34675" lon="-2.35041">
        <ele>-3.2000000476837</ele>
        <time>2019-06-16T08:42:40.000Z</time>
      </trkpt>
      <trkpt lat="47.3466" lon="-2.35042">
        <ele>-3.2000000476837</ele>
        <time>2019-06-16T08:42:45.000Z</time>
      </trkpt>
      <trkpt lat="47.34653" lon="-2.35037">
        <ele>-3.2000000476837</ele>
        <time>2019-06-16T08:42:47.000Z</time>
      </trkpt>
      <trkpt lat="47.34647" lon="-2.35031">
        <ele>-3.2000000476837</ele>
        <time>2019-06-16T08:42:49.000Z</time>
      </trkpt>
      <trkpt lat="47.34633" lon="-2.35014">
        <ele>-3.2000000476837</ele>
        <time>2019-06-16T08:42:54.000Z</time>
      </trkpt>
      <trkpt lat="47.34616" lon="-2.3499">
        <ele>-3.2000000476837</ele>
        <time>2019-06-16T08:43:00.000Z</time>
      </trkpt>
      <trkpt lat="47.34602" lon="-2.34969">
        <ele>-3.2000000476837</ele>
        <time>2019-06-16T08:43:05.000Z</time>
      </trkpt>
      <trkpt lat="47.34587" lon="-2.34939">
        <ele>-3.2000000476837</ele>
        <time>2019-06-16T08:43:11.000Z</time>
      </trkpt>
      <trkpt lat="47.34581" lon="-2.34916">
        <ele>-3.2000000476837</ele>
        <time>2019-06-16T08:43:15.000Z</time>
      </trkpt>
      <trkpt lat="47.34587" lon="-2.34892">
        <ele>-3.2000000476837</ele>
        <time>2019-06-16T08:43:20.000Z</time>
      </trkpt>
      <trkpt lat="47.34601" lon="-2.34859">
        <ele>-3.2000000476837</ele>
        <time>2019-06-16T08:43:25.000Z</time>
      </trkpt>
      <trkpt lat="47.3462" lon="-2.34807">
        <ele>-3.2000000476837</ele>
        <time>2019-06-16T08:43:31.000Z</time>
      </trkpt>
      <trkpt lat="47.34633" lon="-2.34764">
        <ele>-3.2000000476837</ele>
        <time>2019-06-16T08:43:36.000Z</time>
      </trkpt>
      <trkpt lat="47.34634" lon="-2.34755">
        <ele>-3.2000000476837</ele>
        <time>2019-06-16T08:43:37.000Z</time>
      </trkpt>
      <trkpt lat="47.34637" lon="-2.34727">
        <ele>-3.2000000476837</ele>
        <time>2019-06-16T08:43:40.000Z</time>
      </trkpt>
      <trkpt lat="47.34635" lon="-2.34709">
        <ele>-3.2000000476837</ele>
        <time>2019-06-16T08:43:42.000Z</time>
      </trkpt>
      <trkpt lat="47.34632" lon="-2.34676">
        <ele>-3.2000000476837</ele>
        <time>2019-06-16T08:43:46.000Z</time>
      </trkpt>
      <trkpt lat="47.3463" lon="-2.34668">
        <ele>-3.2000000476837</ele>
        <time>2019-06-16T08:43:47.000Z</time>
      </trkpt>
      <trkpt lat="47.34621" lon="-2.34623">
        <ele>-2.7999999523163</ele>
        <time>2019-06-16T08:43:53.000Z</time>
      </trkpt>
      <trkpt lat="47.34619" lon="-2.34615">
        <ele>-2.4000000953674</ele>
        <time>2019-06-16T08:43:54.000Z</time>
      </trkpt>
      <trkpt lat="47.34618" lon="-2.34609">
        <ele>-2</ele>
        <time>2019-06-16T08:43:55.000Z</time>
      </trkpt>
      <trkpt lat="47.34616" lon="-2.34601">
        <ele>-1.6000000238419</ele>
        <time>2019-06-16T08:43:56.000Z</time>
      </trkpt>
      <trkpt lat="47.34616" lon="-2.34593">
        <ele>-1.2000000476837</ele>
        <time>2019-06-16T08:43:57.000Z</time>
      </trkpt>
      <trkpt lat="47.34613" lon="-2.34569">
        <ele>-0.20000000298023</ele>
        <time>2019-06-16T08:44:00.000Z</time>
      </trkpt>
      <trkpt lat="47.34612" lon="-2.34562">
        <ele>0.20000000298023</ele>
        <time>2019-06-16T08:44:01.000Z</time>
      </trkpt>
      <trkpt lat="47.3461" lon="-2.34555">
        <ele>0.60000002384186</ele>
        <time>2019-06-16T08:44:02.000Z</time>
      </trkpt>
      <trkpt lat="47.34609" lon="-2.34548">
        <ele>1</ele>
        <time>2019-06-16T08:44:03.000Z</time>
      </trkpt>
      <trkpt lat="47.34604" lon="-2.34518">
        <ele>1</ele>
        <time>2019-06-16T08:44:07.000Z</time>
      </trkpt>
      <trkpt lat="47.34597" lon="-2.34472">
        <ele>1</ele>
        <time>2019-06-16T08:44:13.000Z</time>
      </trkpt>
      <trkpt lat="47.34597" lon="-2.3443">
        <ele>1</ele>
        <time>2019-06-16T08:44:18.000Z</time>
      </trkpt>
      <trkpt lat="47.34598" lon="-2.34424">
        <ele>1</ele>
        <time>2019-06-16T08:44:19.000Z</time>
      </trkpt>
      <trkpt lat="47.34607" lon="-2.3438">
        <ele>1</ele>
        <time>2019-06-16T08:44:25.000Z</time>
      </trkpt>
      <trkpt lat="47.34625" lon="-2.34313">
        <ele>1</ele>
        <time>2019-06-16T08:44:33.000Z</time>
      </trkpt>
      <trkpt lat="47.3463" lon="-2.34295">
        <ele>1</ele>
        <time>2019-06-16T08:44:35.000Z</time>
      </trkpt>
      <trkpt lat="47.34638" lon="-2.3428">
        <ele>1</ele>
        <time>2019-06-16T08:44:37.000Z</time>
      </trkpt>
      <trkpt lat="47.34643" lon="-2.34274">
        <ele>1</ele>
        <time>2019-06-16T08:44:38.000Z</time>
      </trkpt>
      <trkpt lat="47.34666" lon="-2.34263">
        <ele>1</ele>
        <time>2019-06-16T08:44:41.000Z</time>
      </trkpt>
      <trkpt lat="47.3468" lon="-2.3426">
        <ele>1</ele>
        <time>2019-06-16T08:44:43.000Z</time>
      </trkpt>
      <trkpt lat="47.34701" lon="-2.34258">
        <ele>1</ele>
        <time>2019-06-16T08:44:46.000Z</time>
      </trkpt>
      <trkpt lat="47.34752" lon="-2.34248">
        <ele>1</ele>
        <time>2019-06-16T08:44:54.000Z</time>
      </trkpt>
      <trkpt lat="47.34763" lon="-2.34246">
        <ele>1</ele>
        <time>2019-06-16T08:44:56.000Z</time>
      </trkpt>
      <trkpt lat="47.3478" lon="-2.34241">
        <ele>1</ele>
        <time>2019-06-16T08:44:59.000Z</time>
      </trkpt>
      <trkpt lat="47.34794" lon="-2.34236">
        <ele>1</ele>
        <time>2019-06-16T08:45:02.000Z</time>
      </trkpt>
      <trkpt lat="47.34805" lon="-2.34234">
        <ele>1</ele>
        <time>2019-06-16T08:45:04.000Z</time>
      </trkpt>
      <trkpt lat="47.34816" lon="-2.34233">
        <ele>1</ele>
        <time>2019-06-16T08:45:06.000Z</time>
      </trkpt>
      <trkpt lat="47.3482" lon="-2.34233">
        <ele>1</ele>
        <time>2019-06-16T08:45:07.000Z</time>
      </trkpt>
      <trkpt lat="47.3483" lon="-2.34234">
        <ele>1</ele>
        <time>2019-06-16T08:45:09.000Z</time>
      </trkpt>
      <trkpt lat="47.34835" lon="-2.34236">
        <ele>1.6000000238419</ele>
        <time>2019-06-16T08:45:10.000Z</time>
      </trkpt>
      <trkpt lat="47.34839" lon="-2.34236">
        <ele>2</ele>
        <time>2019-06-16T08:45:11.000Z</time>
      </trkpt>
      <trkpt lat="47.34843" lon="-2.34234">
        <ele>2.4000000953674</ele>
        <time>2019-06-16T08:45:12.000Z</time>
      </trkpt>
      <trkpt lat="47.34847" lon="-2.34235">
        <ele>3</ele>
        <time>2019-06-16T08:45:13.000Z</time>
      </trkpt>
      <trkpt lat="47.34851" lon="-2.34238">
        <ele>3.4000000953674</ele>
        <time>2019-06-16T08:45:14.000Z</time>
      </trkpt>
      <trkpt lat="47.34854" lon="-2.3424">
        <ele>3.4000000953674</ele>
        <time>2019-06-16T08:45:15.000Z</time>
      </trkpt>
      <trkpt lat="47.34856" lon="-2.34241">
        <ele>3.7999999523163</ele>
        <time>2019-06-16T08:45:16.000Z</time>
      </trkpt>
      <trkpt lat="47.34858" lon="-2.34241">
        <ele>4.4000000953674</ele>
        <time>2019-06-16T08:45:17.000Z</time>
      </trkpt>
      <trkpt lat="47.3486" lon="-2.34239">
        <ele>4.8000001907349</ele>
        <time>2019-06-16T08:45:18.000Z</time>
      </trkpt>
      <trkpt lat="47.34862" lon="-2.34236">
        <ele>5.1999998092651</ele>
        <time>2019-06-16T08:45:19.000Z</time>
      </trkpt>
      <trkpt lat="47.34864" lon="-2.34233">
        <ele>5.5999999046326</ele>
        <time>2019-06-16T08:45:20.000Z</time>
      </trkpt>
      <trkpt lat="47.34868" lon="-2.34225">
        <ele>5.5999999046326</ele>
        <time>2019-06-16T08:45:22.000Z</time>
      </trkpt>
      <trkpt lat="47.34869" lon="-2.34223">
        <ele>6.1999998092651</ele>
        <time>2019-06-16T08:45:23.000Z</time>
      </trkpt>
      <trkpt lat="47.3487" lon="-2.3422">
        <ele>6.5999999046326</ele>
        <time>2019-06-16T08:45:24.000Z</time>
      </trkpt>
      <trkpt lat="47.34873" lon="-2.34216">
        <ele>7</ele>
        <time>2019-06-16T08:45:25.000Z</time>
      </trkpt>
      <trkpt lat="47.34875" lon="-2.34213">
        <ele>7.5999999046326</ele>
        <time>2019-06-16T08:45:26.000Z</time>
      </trkpt>
      <trkpt lat="47.34876" lon="-2.3421">
        <ele>8</ele>
        <time>2019-06-16T08:45:27.000Z</time>
      </trkpt>
      <trkpt lat="47.34878" lon="-2.3421">
        <ele>8</ele>
        <time>2019-06-16T08:45:28.000Z</time>
      </trkpt>
      <trkpt lat="47.34884" lon="-2.34208">
        <ele>8.3999996185303</ele>
        <time>2019-06-16T08:45:31.000Z</time>
      </trkpt>
      <trkpt lat="47.34886" lon="-2.34208">
        <ele>8.8000001907349</ele>
        <time>2019-06-16T08:45:32.000Z</time>
      </trkpt>
      <trkpt lat="47.34887" lon="-2.34206">
        <ele>9.1999998092651</ele>
        <time>2019-06-16T08:45:33.000Z</time>
      </trkpt>
      <trkpt lat="47.34887" lon="-2.34207">
        <ele>9.6000003814697</ele>
        <time>2019-06-16T08:45:34.000Z</time>
      </trkpt>
      <trkpt lat="47.34892" lon="-2.34204">
        <ele>12</ele>
        <time>2019-06-16T09:08:07.000Z</time>
      </trkpt>
      <trkpt lat="47.34897" lon="-2.34205">
        <ele>12</ele>
        <time>2019-06-16T09:08:09.000Z</time>
      </trkpt>
      <trkpt lat="47.34904" lon="-2.34208">
        <ele>12</ele>
        <time>2019-06-16T09:08:11.000Z</time>
      </trkpt>
      <trkpt lat="47.34912" lon="-2.34214">
        <ele>12</ele>
        <time>2019-06-16T09:08:13.000Z</time>
      </trkpt>
      <trkpt lat="47.34915" lon="-2.34219">
        <ele>12</ele>
        <time>2019-06-16T09:08:14.000Z</time>
      </trkpt>
      <trkpt lat="47.34922" lon="-2.3423">
        <ele>11.60000038147</ele>
        <time>2019-06-16T09:08:16.000Z</time>
      </trkpt>
      <trkpt lat="47.34925" lon="-2.34236">
        <ele>11.199999809265</ele>
        <time>2019-06-16T09:08:17.000Z</time>
      </trkpt>
      <trkpt lat="47.34928" lon="-2.34243">
        <ele>10.800000190735</ele>
        <time>2019-06-16T09:08:18.000Z</time>
      </trkpt>
      <trkpt lat="47.3493" lon="-2.3425">
        <ele>10.39999961853</ele>
        <time>2019-06-16T09:08:19.000Z</time>
      </trkpt>
      <trkpt lat="47.34933" lon="-2.34258">
        <ele>9.8000001907349</ele>
        <time>2019-06-16T09:08:20.000Z</time>
      </trkpt>
      <trkpt lat="47.34936" lon="-2.34266">
        <ele>9.3999996185303</ele>
        <time>2019-06-16T09:08:21.000Z</time>
      </trkpt>
      <trkpt lat="47.34939" lon="-2.34274">
        <ele>9</ele>
        <time>2019-06-16T09:08:22.000Z</time>
      </trkpt>
      <trkpt lat="47.34942" lon="-2.34282">
        <ele>8.6000003814697</ele>
        <time>2019-06-16T09:08:23.000Z</time>
      </trkpt>
      <trkpt lat="47.34945" lon="-2.3429">
        <ele>8.1999998092651</ele>
        <time>2019-06-16T09:08:24.000Z</time>
      </trkpt>
      <trkpt lat="47.34948" lon="-2.34298">
        <ele>7.8000001907349</ele>
        <time>2019-06-16T09:08:25.000Z</time>
      </trkpt>
      <trkpt lat="47.3495" lon="-2.34307">
        <ele>7.4000000953674</ele>
        <time>2019-06-16T09:08:26.000Z</time>
      </trkpt>
      <trkpt lat="47.34953" lon="-2.34315">
        <ele>7</ele>
        <time>2019-06-16T09:08:27.000Z</time>
      </trkpt>
      <trkpt lat="47.34956" lon="-2.34322">
        <ele>6.5999999046326</ele>
        <time>2019-06-16T09:08:28.000Z</time>
      </trkpt>
      <trkpt lat="47.34959" lon="-2.34329">
        <ele>6</ele>
        <time>2019-06-16T09:08:29.000Z</time>
      </trkpt>
      <trkpt lat="47.34962" lon="-2.34336">
        <ele>5.5999999046326</ele>
        <time>2019-06-16T09:08:30.000Z</time>
      </trkpt>
      <trkpt lat="47.34964" lon="-2.34341">
        <ele>4.5999999046326</ele>
        <time>2019-06-16T09:08:31.000Z</time>
      </trkpt>
      <trkpt lat="47.34967" lon="-2.34346">
        <ele>4.1999998092651</ele>
        <time>2019-06-16T09:08:32.000Z</time>
      </trkpt>
      <trkpt lat="47.34969" lon="-2.34351">
        <ele>3.7999999523163</ele>
        <time>2019-06-16T09:08:33.000Z</time>
      </trkpt>
      <trkpt lat="47.3497" lon="-2.34356">
        <ele>3.2000000476837</ele>
        <time>2019-06-16T09:08:34.000Z</time>
      </trkpt>
      <trkpt lat="47.34973" lon="-2.34362">
        <ele>2.7999999523163</ele>
        <time>2019-06-16T09:08:35.000Z</time>
      </trkpt>
      <trkpt lat="47.34977" lon="-2.34366">
        <ele>2.2000000476837</ele>
        <time>2019-06-16T09:08:36.000Z</time>
      </trkpt>
      <trkpt lat="47.34981" lon="-2.34371">
        <ele>1.7999999523163</ele>
        <time>2019-06-16T09:08:37.000Z</time>
      </trkpt>
      <trkpt lat="47.34985" lon="-2.34376">
        <ele>1.2000000476837</ele>
        <time>2019-06-16T09:08:38.000Z</time>
      </trkpt>
      <trkpt lat="47.34993" lon="-2.34394">
        <ele>1.2000000476837</ele>
        <time>2019-06-16T09:08:41.000Z</time>
      </trkpt>
      <trkpt lat="47.34998" lon="-2.34414">
        <ele>0.80000001192093</ele>
        <time>2019-06-16T09:08:44.000Z</time>
      </trkpt>
      <trkpt lat="47.35" lon="-2.34422">
        <ele>0.40000000596046</ele>
        <time>2019-06-16T09:08:45.000Z</time>
      </trkpt>
      <trkpt lat="47.35001" lon="-2.3443">
        <ele>10.5</ele>
        <time>2019-06-16T09:08:46.000Z</time>
      </trkpt>
      <trkpt lat="47.35003" lon="-2.34438">
        <ele>-0.40000000596046</ele>
        <time>2019-06-16T09:08:47.000Z</time>
      </trkpt>
      <trkpt lat="47.35005" lon="-2.34446">
        <ele>-1</ele>
        <time>2019-06-16T09:08:48.000Z</time>
      </trkpt>
      <trkpt lat="47.35009" lon="-2.34456">
        <ele>-1</ele>
        <time>2019-06-16T09:08:50.000Z</time>
      </trkpt>
      <trkpt lat="47.35011" lon="-2.34459">
        <ele>-1.3999999761581</ele>
        <time>2019-06-16T09:08:51.000Z</time>
      </trkpt>
      <trkpt lat="47.35014" lon="-2.34461">
        <ele>-2</ele>
        <time>2019-06-16T09:08:52.000Z</time>
      </trkpt>
      <trkpt lat="47.35016" lon="-2.34463">
        <ele>-2.4000000953674</ele>
        <time>2019-06-16T09:08:53.000Z</time>
      </trkpt>
      <trkpt lat="47.35018" lon="-2.34465">
        <ele>-3</ele>
        <time>2019-06-16T09:08:54.000Z</time>
      </trkpt>
      <trkpt lat="47.35021" lon="-2.34468">
        <ele>-3.4000000953674</ele>
        <time>2019-06-16T09:08:55.000Z</time>
      </trkpt>
      <trkpt lat="47.35026" lon="-2.34474">
        <ele>-4</ele>
        <time>2019-06-16T09:08:57.000Z</time>
      </trkpt>
      <trkpt lat="47.35029" lon="-2.34479">
        <ele>-4.4000000953674</ele>
        <time>2019-06-16T09:08:58.000Z</time>
      </trkpt>
      <trkpt lat="47.35031" lon="-2.34483">
        <ele>-4.8000001907349</ele>
        <time>2019-06-16T09:08:59.000Z</time>
      </trkpt>
      <trkpt lat="47.35033" lon="-2.34487">
        <ele>-5.1999998092651</ele>
        <time>2019-06-16T09:09:00.000Z</time>
      </trkpt>
      <trkpt lat="47.35035" lon="-2.3449">
        <ele>-5.8000001907349</ele>
        <time>2019-06-16T09:09:01.000Z</time>
      </trkpt>
      <trkpt lat="47.35036" lon="-2.34492">
        <ele>-6.4000000953674</ele>
        <time>2019-06-16T09:09:02.000Z</time>
      </trkpt>
      <trkpt lat="47.35037" lon="-2.34493">
        <ele>-6.8000001907349</ele>
        <time>2019-06-16T09:09:03.000Z</time>
      </trkpt>
      <trkpt lat="47.35038" lon="-2.34494">
        <ele>-7.4000000953674</ele>
        <time>2019-06-16T09:09:04.000Z</time>
      </trkpt>
      <trkpt lat="47.35039" lon="-2.34494">
        <ele>-8</ele>
        <time>2019-06-16T09:09:05.000Z</time>
      </trkpt>
      <trkpt lat="47.35043" lon="-2.34496">
        <ele>-8</ele>
        <time>2019-06-16T09:09:09.000Z</time>
      </trkpt>
      <trkpt lat="47.35045" lon="-2.34493">
        <ele>-8</ele>
        <time>2019-06-16T09:09:14.000Z</time>
      </trkpt>
      <trkpt lat="47.35048" lon="-2.34492">
        <ele>-8</ele>
        <time>2019-06-16T09:09:17.000Z</time>
      </trkpt>
      <trkpt lat="47.35051" lon="-2.34493">
        <ele>-8</ele>
        <time>2019-06-16T09:09:19.000Z</time>
      </trkpt>
      <trkpt lat="47.35058" lon="-2.34498">
        <ele>-8</ele>
        <time>2019-06-16T09:09:24.000Z</time>
      </trkpt>
      <trkpt lat="47.35066" lon="-2.34513">
        <ele>-7.5999999046326</ele>
        <time>2019-06-16T09:09:30.000Z</time>
      </trkpt>
      <trkpt lat="47.35067" lon="-2.34515">
        <ele>-7.1999998092651</ele>
        <time>2019-06-16T09:09:31.000Z</time>
      </trkpt>
      <trkpt lat="47.35068" lon="-2.34518">
        <ele>-6.5999999046326</ele>
        <time>2019-06-16T09:09:32.000Z</time>
      </trkpt>
      <trkpt lat="47.35069" lon="-2.3452">
        <ele>-6.1999998092651</ele>
        <time>2019-06-16T09:09:33.000Z</time>
      </trkpt>
      <trkpt lat="47.3507" lon="-2.34522">
        <ele>-5.8000001907349</ele>
        <time>2019-06-16T09:09:34.000Z</time>
      </trkpt>
      <trkpt lat="47.35071" lon="-2.34523">
        <ele>-5.8000001907349</ele>
        <time>2019-06-16T09:09:36.000Z</time>
      </trkpt>
      <trkpt lat="47.35074" lon="-2.34527">
        <ele>-5.8000001907349</ele>
        <time>2019-06-16T09:09:38.000Z</time>
      </trkpt>
      <trkpt lat="47.35075" lon="-2.34532">
        <ele>-5.4000000953674</ele>
        <time>2019-06-16T09:09:40.000Z</time>
      </trkpt>
      <trkpt lat="47.35076" lon="-2.34534">
        <ele>-5</ele>
        <time>2019-06-16T09:09:41.000Z</time>
      </trkpt>
      <trkpt lat="47.35077" lon="-2.34536">
        <ele>-4.5999999046326</ele>
        <time>2019-06-16T09:09:42.000Z</time>
      </trkpt>
      <trkpt lat="47.35079" lon="-2.34539">
        <ele>-4</ele>
        <time>2019-06-16T09:09:43.000Z</time>
      </trkpt>
      <trkpt lat="47.35082" lon="-2.3454">
        <ele>-3.5999999046326</ele>
        <time>2019-06-16T09:09:44.000Z</time>
      </trkpt>
      <trkpt lat="47.35088" lon="-2.34542">
        <ele>-3.5999999046326</ele>
        <time>2019-06-16T09:09:46.000Z</time>
      </trkpt>
      <trkpt lat="47.35096" lon="-2.34542">
        <ele>-3.5999999046326</ele>
        <time>2019-06-16T09:09:49.000Z</time>
      </trkpt>
      <trkpt lat="47.35107" lon="-2.34538">
        <ele>-3.5999999046326</ele>
        <time>2019-06-16T09:09:53.000Z</time>
      </trkpt>
      <trkpt lat="47.35132" lon="-2.3453">
        <ele>-3.5999999046326</ele>
        <time>2019-06-16T09:10:01.000Z</time>
      </trkpt>
      <trkpt lat="47.35155" lon="-2.34521">
        <ele>-3.5999999046326</ele>
        <time>2019-06-16T09:10:07.000Z</time>
      </trkpt>
      <trkpt lat="47.35183" lon="-2.34509">
        <ele>-3.5999999046326</ele>
        <time>2019-06-16T09:10:13.000Z</time>
      </trkpt>
      <trkpt lat="47.35197" lon="-2.34503">
        <ele>-3.5999999046326</ele>
        <time>2019-06-16T09:10:16.000Z</time>
      </trkpt>
      <trkpt lat="47.35207" lon="-2.345">
        <ele>-3.5999999046326</ele>
        <time>2019-06-16T09:10:18.000Z</time>
      </trkpt>
      <trkpt lat="47.35239" lon="-2.34488">
        <ele>-3.5999999046326</ele>
        <time>2019-06-16T09:10:25.000Z</time>
      </trkpt>
      <trkpt lat="47.35244" lon="-2.34486">
        <ele>-3.5999999046326</ele>
        <time>2019-06-16T09:10:26.000Z</time>
      </trkpt>
      <trkpt lat="47.35259" lon="-2.3448">
        <ele>-3.5999999046326</ele>
        <time>2019-06-16T09:10:29.000Z</time>
      </trkpt>
      <trkpt lat="47.35264" lon="-2.34477">
        <ele>-3.5999999046326</ele>
        <time>2019-06-16T09:10:30.000Z</time>
      </trkpt>
      <trkpt lat="47.3528" lon="-2.34471">
        <ele>-3.5999999046326</ele>
        <time>2019-06-16T09:10:33.000Z</time>
      </trkpt>
      <trkpt lat="47.35289" lon="-2.34471">
        <ele>-3.5999999046326</ele>
        <time>2019-06-16T09:10:35.000Z</time>
      </trkpt>
      <trkpt lat="47.35306" lon="-2.34475">
        <ele>-3.5999999046326</ele>
        <time>2019-06-16T09:10:39.000Z</time>
      </trkpt>
      <trkpt lat="47.35315" lon="-2.3448">
        <ele>-3.5999999046326</ele>
        <time>2019-06-16T09:10:41.000Z</time>
      </trkpt>
      <trkpt lat="47.35348" lon="-2.34507">
        <ele>-3.5999999046326</ele>
        <time>2019-06-16T09:10:48.000Z</time>
      </trkpt>
      <trkpt lat="47.35361" lon="-2.34527">
        <ele>-3.5999999046326</ele>
        <time>2019-06-16T09:10:52.000Z</time>
      </trkpt>
      <trkpt lat="47.35364" lon="-2.34533">
        <ele>-3.5999999046326</ele>
        <time>2019-06-16T09:10:53.000Z</time>
      </trkpt>
      <trkpt lat="47.3538" lon="-2.34565">
        <ele>-3.5999999046326</ele>
        <time>2019-06-16T09:10:59.000Z</time>
      </trkpt>
      <trkpt lat="47.35399" lon="-2.34611">
        <ele>-3.5999999046326</ele>
        <time>2019-06-16T09:11:07.000Z</time>
      </trkpt>
      <trkpt lat="47.35411" lon="-2.34647">
        <ele>-3.5999999046326</ele>
        <time>2019-06-16T09:11:14.000Z</time>
      </trkpt>
      <trkpt lat="47.35426" lon="-2.34686">
        <ele>-3.5999999046326</ele>
        <time>2019-06-16T09:11:22.000Z</time>
      </trkpt>
      <trkpt lat="47.35437" lon="-2.347">
        <ele>-3.5999999046326</ele>
        <time>2019-06-16T09:11:28.000Z</time>
      </trkpt>
      <trkpt lat="47.35438" lon="-2.34701">
        <ele>-3.5999999046326</ele>
        <time>2019-06-16T09:11:30.000Z</time>
      </trkpt>
      <trkpt lat="47.3544" lon="-2.34701">
        <ele>-3.5999999046326</ele>
        <time>2019-06-16T09:11:47.000Z</time>
      </trkpt>
      <trkpt lat="47.35442" lon="-2.34701">
        <ele>-3.5999999046326</ele>
        <time>2019-06-16T09:11:48.000Z</time>
      </trkpt>
      <trkpt lat="47.35445" lon="-2.34699">
        <ele>-3.5999999046326</ele>
        <time>2019-06-16T09:11:49.000Z</time>
      </trkpt>
      <trkpt lat="47.35451" lon="-2.34691">
        <ele>-3.5999999046326</ele>
        <time>2019-06-16T09:11:51.000Z</time>
      </trkpt>
      <trkpt lat="47.35459" lon="-2.34669">
        <ele>-3.5999999046326</ele>
        <time>2019-06-16T09:11:55.000Z</time>
      </trkpt>
      <trkpt lat="47.35467" lon="-2.34645">
        <ele>-3.5999999046326</ele>
        <time>2019-06-16T09:11:59.000Z</time>
      </trkpt>
      <trkpt lat="47.35475" lon="-2.34628">
        <ele>-3.5999999046326</ele>
        <time>2019-06-16T09:12:02.000Z</time>
      </trkpt>
      <trkpt lat="47.35487" lon="-2.34603">
        <ele>-4</ele>
        <time>2019-06-16T09:12:06.000Z</time>
      </trkpt>
      <trkpt lat="47.3549" lon="-2.34596">
        <ele>-4.5999999046326</ele>
        <time>2019-06-16T09:12:07.000Z</time>
      </trkpt>
      <trkpt lat="47.35493" lon="-2.3459">
        <ele>-5</ele>
        <time>2019-06-16T09:12:08.000Z</time>
      </trkpt>
      <trkpt lat="47.35496" lon="-2.34583">
        <ele>-5.4000000953674</ele>
        <time>2019-06-16T09:12:09.000Z</time>
      </trkpt>
      <trkpt lat="47.35499" lon="-2.34576">
        <ele>-5.8000001907349</ele>
        <time>2019-06-16T09:12:10.000Z</time>
      </trkpt>
      <trkpt lat="47.35519" lon="-2.34528">
        <ele>-5.8000001907349</ele>
        <time>2019-06-16T09:12:17.000Z</time>
      </trkpt>
      <trkpt lat="47.35527" lon="-2.34485">
        <ele>-5.8000001907349</ele>
        <time>2019-06-16T09:12:22.000Z</time>
      </trkpt>
      <trkpt lat="47.35535" lon="-2.34429">
        <ele>-5.8000001907349</ele>
        <time>2019-06-16T09:12:29.000Z</time>
      </trkpt>
      <trkpt lat="47.35545" lon="-2.34381">
        <ele>-5.8000001907349</ele>
        <time>2019-06-16T09:12:35.000Z</time>
      </trkpt>
      <trkpt lat="47.35552" lon="-2.34349">
        <ele>-5.4000000953674</ele>
        <time>2019-06-16T09:12:39.000Z</time>
      </trkpt>
      <trkpt lat="47.35554" lon="-2.34341">
        <ele>-5</ele>
        <time>2019-06-16T09:12:40.000Z</time>
      </trkpt>
      <trkpt lat="47.35556" lon="-2.34332">
        <ele>-4.5999999046326</ele>
        <time>2019-06-16T09:12:41.000Z</time>
      </trkpt>
      <trkpt lat="47.35557" lon="-2.34323">
        <ele>-4.1999998092651</ele>
        <time>2019-06-16T09:12:42.000Z</time>
      </trkpt>
      <trkpt lat="47.35559" lon="-2.34315">
        <ele>-3.7999999523163</ele>
        <time>2019-06-16T09:12:43.000Z</time>
      </trkpt>
      <trkpt lat="47.3556" lon="-2.34297">
        <ele>-3.7999999523163</ele>
        <time>2019-06-16T09:12:45.000Z</time>
      </trkpt>
      <trkpt lat="47.35564" lon="-2.34233">
        <ele>-3.7999999523163</ele>
        <time>2019-06-16T09:12:53.000Z</time>
      </trkpt>
      <trkpt lat="47.35567" lon="-2.34189">
        <ele>-3.7999999523163</ele>
        <time>2019-06-16T09:13:00.000Z</time>
      </trkpt>
      <trkpt lat="47.35569" lon="-2.34186">
        <ele>-3.7999999523163</ele>
        <time>2019-06-16T09:13:01.000Z</time>
      </trkpt>
      <trkpt lat="47.35575" lon="-2.34184">
        <ele>-3.7999999523163</ele>
        <time>2019-06-16T09:13:03.000Z</time>
      </trkpt>
      <trkpt lat="47.35588" lon="-2.34185">
        <ele>-3.7999999523163</ele>
        <time>2019-06-16T09:13:06.000Z</time>
      </trkpt>
      <trkpt lat="47.35596" lon="-2.34186">
        <ele>-3.7999999523163</ele>
        <time>2019-06-16T09:13:08.000Z</time>
      </trkpt>
      <trkpt lat="47.35604" lon="-2.34186">
        <ele>-3.7999999523163</ele>
        <time>2019-06-16T09:13:10.000Z</time>
      </trkpt>
      <trkpt lat="47.35608" lon="-2.34186">
        <ele>-3.4000000953674</ele>
        <time>2019-06-16T09:13:11.000Z</time>
      </trkpt>
      <trkpt lat="47.35614" lon="-2.34186">
        <ele>-3</ele>
        <time>2019-06-16T09:13:12.000Z</time>
      </trkpt>
      <trkpt lat="47.3562" lon="-2.34186">
        <ele>-2.5999999046326</ele>
        <time>2019-06-16T09:13:13.000Z</time>
      </trkpt>
      <trkpt lat="47.35624" lon="-2.34187">
        <ele>-2.2000000476837</ele>
        <time>2019-06-16T09:13:14.000Z</time>
      </trkpt>
      <trkpt lat="47.35629" lon="-2.34188">
        <ele>-1.7999999523163</ele>
        <time>2019-06-16T09:13:15.000Z</time>
      </trkpt>
      <trkpt lat="47.35633" lon="-2.34189">
        <ele>-1.7999999523163</ele>
        <time>2019-06-16T09:13:16.000Z</time>
      </trkpt>
      <trkpt lat="47.35651" lon="-2.34195">
        <ele>-1.7999999523163</ele>
        <time>2019-06-16T09:13:20.000Z</time>
      </trkpt>
      <trkpt lat="47.3566" lon="-2.34197">
        <ele>-1.7999999523163</ele>
        <time>2019-06-16T09:13:22.000Z</time>
      </trkpt>
      <trkpt lat="47.3567" lon="-2.34201">
        <ele>-1.3999999761581</ele>
        <time>2019-06-16T09:13:24.000Z</time>
      </trkpt>
      <trkpt lat="47.35676" lon="-2.34202">
        <ele>-1</ele>
        <time>2019-06-16T09:13:25.000Z</time>
      </trkpt>
      <trkpt lat="47.3568" lon="-2.34204">
        <ele>-0.60000002384186</ele>
        <time>2019-06-16T09:13:26.000Z</time>
      </trkpt>
      <trkpt lat="47.35686" lon="-2.34206">
        <ele>0.40000000596046</ele>
        <time>2019-06-16T09:13:27.000Z</time>
      </trkpt>
      <trkpt lat="47.35696" lon="-2.34209">
        <ele>0.40000000596046</ele>
        <time>2019-06-16T09:13:29.000Z</time>
      </trkpt>
      <trkpt lat="47.35706" lon="-2.34211">
        <ele>0.40000000596046</ele>
        <time>2019-06-16T09:13:31.000Z</time>
      </trkpt>
      <trkpt lat="47.35722" lon="-2.34211">
        <ele>0.40000000596046</ele>
        <time>2019-06-16T09:13:34.000Z</time>
      </trkpt>
      <trkpt lat="47.35732" lon="-2.34209">
        <ele>0.80000001192093</ele>
        <time>2019-06-16T09:13:36.000Z</time>
      </trkpt>
      <trkpt lat="47.35737" lon="-2.34208">
        <ele>1.2000000476837</ele>
        <time>2019-06-16T09:13:37.000Z</time>
      </trkpt>
      <trkpt lat="47.35742" lon="-2.34207">
        <ele>1.6000000238419</ele>
        <time>2019-06-16T09:13:38.000Z</time>
      </trkpt>
      <trkpt lat="47.35746" lon="-2.34205">
        <ele>2.2000000476837</ele>
        <time>2019-06-16T09:13:39.000Z</time>
      </trkpt>
      <trkpt lat="47.35751" lon="-2.34204">
        <ele>2.5999999046326</ele>
        <time>2019-06-16T09:13:40.000Z</time>
      </trkpt>
      <trkpt lat="47.35755" lon="-2.34204">
        <ele>2.5999999046326</ele>
        <time>2019-06-16T09:13:41.000Z</time>
      </trkpt>
      <trkpt lat="47.35766" lon="-2.34213">
        <ele>2.5999999046326</ele>
        <time>2019-06-16T09:13:44.000Z</time>
      </trkpt>
      <trkpt lat="47.35767" lon="-2.3422">
        <ele>2.5999999046326</ele>
        <time>2019-06-16T09:13:45.000Z</time>
      </trkpt>
      <trkpt lat="47.35767" lon="-2.34234">
        <ele>2.5999999046326</ele>
        <time>2019-06-16T09:13:47.000Z</time>
      </trkpt>
      <trkpt lat="47.35766" lon="-2.34294">
        <ele>2.5999999046326</ele>
        <time>2019-06-16T09:13:54.000Z</time>
      </trkpt>
      <trkpt lat="47.35769" lon="-2.34322">
        <ele>2.5999999046326</ele>
        <time>2019-06-16T09:13:57.000Z</time>
      </trkpt>
      <trkpt lat="47.35772" lon="-2.34342">
        <ele>2.5999999046326</ele>
        <time>2019-06-16T09:13:59.000Z</time>
      </trkpt>
      <trkpt lat="47.35781" lon="-2.34413">
        <ele>2.5999999046326</ele>
        <time>2019-06-16T09:14:06.000Z</time>
      </trkpt>
      <trkpt lat="47.35788" lon="-2.34479">
        <ele>2.5999999046326</ele>
        <time>2019-06-16T09:14:13.000Z</time>
      </trkpt>
      <trkpt lat="47.3579" lon="-2.34488">
        <ele>2.2000000476837</ele>
        <time>2019-06-16T09:14:14.000Z</time>
      </trkpt>
      <trkpt lat="47.3579" lon="-2.34497">
        <ele>1.6000000238419</ele>
        <time>2019-06-16T09:14:15.000Z</time>
      </trkpt>
      <trkpt lat="47.35792" lon="-2.34506">
        <ele>0.80000001192093</ele>
        <time>2019-06-16T09:14:16.000Z</time>
      </trkpt>
      <trkpt lat="47.35793" lon="-2.34515">
        <ele>0.40000000596046</ele>
        <time>2019-06-16T09:14:17.000Z</time>
      </trkpt>
      <trkpt lat="47.35795" lon="-2.34533">
        <ele>0.40000000596046</ele>
        <time>2019-06-16T09:14:19.000Z</time>
      </trkpt>
      <trkpt lat="47.35802" lon="-2.34576">
        <ele>0.40000000596046</ele>
        <time>2019-06-16T09:14:24.000Z</time>
      </trkpt>
      <trkpt lat="47.35813" lon="-2.34607">
        <ele>0.40000000596046</ele>
        <time>2019-06-16T09:14:28.000Z</time>
      </trkpt>
      <trkpt lat="47.35826" lon="-2.34645">
        <ele>0.40000000596046</ele>
        <time>2019-06-16T09:14:33.000Z</time>
      </trkpt>
      <trkpt lat="47.35833" lon="-2.3466">
        <ele>0.40000000596046</ele>
        <time>2019-06-16T09:14:35.000Z</time>
      </trkpt>
      <trkpt lat="47.3586" lon="-2.34721">
        <ele>0.40000000596046</ele>
        <time>2019-06-16T09:14:43.000Z</time>
      </trkpt>
      <trkpt lat="47.35879" lon="-2.34766">
        <ele>0.40000000596046</ele>
        <time>2019-06-16T09:14:49.000Z</time>
      </trkpt>
      <trkpt lat="47.35895" lon="-2.34804">
        <ele>0.40000000596046</ele>
        <time>2019-06-16T09:14:54.000Z</time>
      </trkpt>
      <trkpt lat="47.35911" lon="-2.34845">
        <ele>0.40000000596046</ele>
        <time>2019-06-16T09:14:59.000Z</time>
      </trkpt>
      <trkpt lat="47.35915" lon="-2.34852">
        <ele>0.40000000596046</ele>
        <time>2019-06-16T09:15:00.000Z</time>
      </trkpt>
      <trkpt lat="47.35931" lon="-2.34864">
        <ele>0.40000000596046</ele>
        <time>2019-06-16T09:15:03.000Z</time>
      </trkpt>
      <trkpt lat="47.35964" lon="-2.34866">
        <ele>0.40000000596046</ele>
        <time>2019-06-16T09:15:08.000Z</time>
      </trkpt>
      <trkpt lat="47.36016" lon="-2.34872">
        <ele>0.40000000596046</ele>
        <time>2019-06-16T09:15:16.000Z</time>
      </trkpt>
      <trkpt lat="47.36059" lon="-2.34876">
        <ele>0.40000000596046</ele>
        <time>2019-06-16T09:15:23.000Z</time>
      </trkpt>
      <trkpt lat="47.3608" lon="-2.34882">
        <ele>0.40000000596046</ele>
        <time>2019-06-16T09:15:27.000Z</time>
      </trkpt>
      <trkpt lat="47.36084" lon="-2.34886">
        <ele>0.40000000596046</ele>
        <time>2019-06-16T09:15:28.000Z</time>
      </trkpt>
      <trkpt lat="47.36086" lon="-2.34894">
        <ele>12.8</ele>
        <time>2019-06-16T09:15:29.000Z</time>
      </trkpt>
      <trkpt lat="47.36087" lon="-2.34902">
        <ele>-0.80000001192093</ele>
        <time>2019-06-16T09:15:30.000Z</time>
      </trkpt>
      <trkpt lat="47.36088" lon="-2.3491">
        <ele>-1.2000000476837</ele>
        <time>2019-06-16T09:15:31.000Z</time>
      </trkpt>
      <trkpt lat="47.36088" lon="-2.3492">
        <ele>-1.6000000238419</ele>
        <time>2019-06-16T09:15:32.000Z</time>
      </trkpt>
      <trkpt lat="47.36092" lon="-2.3496">
        <ele>-1.6000000238419</ele>
        <time>2019-06-16T09:15:36.000Z</time>
      </trkpt>
      <trkpt lat="47.361" lon="-2.35008">
        <ele>-1.6000000238419</ele>
        <time>2019-06-16T09:15:41.000Z</time>
      </trkpt>
      <trkpt lat="47.36101" lon="-2.35017">
        <ele>-1.6000000238419</ele>
        <time>2019-06-16T09:15:42.000Z</time>
      </trkpt>
      <trkpt lat="47.36099" lon="-2.35046">
        <ele>-1.6000000238419</ele>
        <time>2019-06-16T09:15:45.000Z</time>
      </trkpt>
      <trkpt lat="47.36098" lon="-2.35055">
        <ele>-1.6000000238419</ele>
        <time>2019-06-16T09:15:46.000Z</time>
      </trkpt>
      <trkpt lat="47.36093" lon="-2.35129">
        <ele>-1.6000000238419</ele>
        <time>2019-06-16T09:15:54.000Z</time>
      </trkpt>
      <trkpt lat="47.36091" lon="-2.35151">
        <ele>-1.6000000238419</ele>
        <time>2019-06-16T09:15:58.000Z</time>
      </trkpt>
      <trkpt lat="47.36091" lon="-2.35158">
        <ele>-1.6000000238419</ele>
        <time>2019-06-16T09:16:02.000Z</time>
      </trkpt>
      <trkpt lat="47.36091" lon="-2.35162">
        <ele>-3.5999999046326</ele>
        <time>2019-06-16T09:17:14.000Z</time>
      </trkpt>
      <trkpt lat="47.3609" lon="-2.35169">
        <ele>-3.5999999046326</ele>
        <time>2019-06-16T09:17:16.000Z</time>
      </trkpt>
      <trkpt lat="47.36089" lon="-2.35179">
        <ele>-3.5999999046326</ele>
        <time>2019-06-16T09:17:18.000Z</time>
      </trkpt>
      <trkpt lat="47.36079" lon="-2.35204">
        <ele>-3.5999999046326</ele>
        <time>2019-06-16T09:17:23.000Z</time>
      </trkpt>
      <trkpt lat="47.36076" lon="-2.35209">
        <ele>-3.5999999046326</ele>
        <time>2019-06-16T09:17:24.000Z</time>
      </trkpt>
      <trkpt lat="47.36064" lon="-2.35223">
        <ele>-3.5999999046326</ele>
        <time>2019-06-16T09:17:27.000Z</time>
      </trkpt>
      <trkpt lat="47.3606" lon="-2.35229">
        <ele>-3.5999999046326</ele>
        <time>2019-06-16T09:17:28.000Z</time>
      </trkpt>
      <trkpt lat="47.36056" lon="-2.35235">
        <ele>-3.5999999046326</ele>
        <time>2019-06-16T09:17:29.000Z</time>
      </trkpt>
      <trkpt lat="47.36045" lon="-2.35253">
        <ele>-3.5999999046326</ele>
        <time>2019-06-16T09:17:32.000Z</time>
      </trkpt>
      <trkpt lat="47.36034" lon="-2.35269">
        <ele>-3.5999999046326</ele>
        <time>2019-06-16T09:17:35.000Z</time>
      </trkpt>
      <trkpt lat="47.36027" lon="-2.35282">
        <ele>-3.5999999046326</ele>
        <time>2019-06-16T09:17:37.000Z</time>
      </trkpt>
      <trkpt lat="47.36012" lon="-2.35299">
        <ele>-3.5999999046326</ele>
        <time>2019-06-16T09:17:40.000Z</time>
      </trkpt>
      <trkpt lat="47.36007" lon="-2.35305">
        <ele>-3.5999999046326</ele>
        <time>2019-06-16T09:17:41.000Z</time>
      </trkpt>
      <trkpt lat="47.35974" lon="-2.35349">
        <ele>-3.5999999046326</ele>
        <time>2019-06-16T09:17:48.000Z</time>
      </trkpt>
      <trkpt lat="47.35946" lon="-2.35392">
        <ele>-3.5999999046326</ele>
        <time>2019-06-16T09:17:55.000Z</time>
      </trkpt>
      <trkpt lat="47.35937" lon="-2.35406">
        <ele>-3.5999999046326</ele>
        <time>2019-06-16T09:17:59.000Z</time>
      </trkpt>
      <trkpt lat="47.35933" lon="-2.35407">
        <ele>-3.5999999046326</ele>
        <time>2019-06-16T09:18:00.000Z</time>
      </trkpt>
      <trkpt lat="47.35917" lon="-2.35411">
        <ele>-3.5999999046326</ele>
        <time>2019-06-16T09:18:03.000Z</time>
      </trkpt>
      <trkpt lat="47.35911" lon="-2.35415">
        <ele>-3.5999999046326</ele>
        <time>2019-06-16T09:18:04.000Z</time>
      </trkpt>
      <trkpt lat="47.3589" lon="-2.3543">
        <ele>-3.5999999046326</ele>
        <time>2019-06-16T09:18:08.000Z</time>
      </trkpt>
      <trkpt lat="47.35878" lon="-2.35439">
        <ele>-3.5999999046326</ele>
        <time>2019-06-16T09:18:10.000Z</time>
      </trkpt>
      <trkpt lat="47.35849" lon="-2.35459">
        <ele>-3.5999999046326</ele>
        <time>2019-06-16T09:18:15.000Z</time>
      </trkpt>
      <trkpt lat="47.35843" lon="-2.35462">
        <ele>-3.5999999046326</ele>
        <time>2019-06-16T09:18:16.000Z</time>
      </trkpt>
      <trkpt lat="47.35819" lon="-2.35473">
        <ele>-3.5999999046326</ele>
        <time>2019-06-16T09:18:20.000Z</time>
      </trkpt>
      <trkpt lat="47.35807" lon="-2.35478">
        <ele>-3.5999999046326</ele>
        <time>2019-06-16T09:18:22.000Z</time>
      </trkpt>
      <trkpt lat="47.35776" lon="-2.35492">
        <ele>-3.5999999046326</ele>
        <time>2019-06-16T09:18:27.000Z</time>
      </trkpt>
      <trkpt lat="47.35767" lon="-2.35498">
        <ele>-3.5999999046326</ele>
        <time>2019-06-16T09:18:29.000Z</time>
      </trkpt>
      <trkpt lat="47.35752" lon="-2.3551">
        <ele>-3.5999999046326</ele>
        <time>2019-06-16T09:18:32.000Z</time>
      </trkpt>
      <trkpt lat="47.35723" lon="-2.35526">
        <ele>-3.5999999046326</ele>
        <time>2019-06-16T09:18:37.000Z</time>
      </trkpt>
      <trkpt lat="47.35691" lon="-2.3554">
        <ele>-3.5999999046326</ele>
        <time>2019-06-16T09:18:42.000Z</time>
      </trkpt>
      <trkpt lat="47.35658" lon="-2.35563">
        <ele>-3.5999999046326</ele>
        <time>2019-06-16T09:18:47.000Z</time>
      </trkpt>
      <trkpt lat="47.35622" lon="-2.35593">
        <ele>-3.2000000476837</ele>
        <time>2019-06-16T09:18:53.000Z</time>
      </trkpt>
      <trkpt lat="47.35617" lon="-2.35598">
        <ele>-2.7999999523163</ele>
        <time>2019-06-16T09:18:54.000Z</time>
      </trkpt>
      <trkpt lat="47.35612" lon="-2.35603">
        <ele>-2.4000000953674</ele>
        <time>2019-06-16T09:18:55.000Z</time>
      </trkpt>
      <trkpt lat="47.35607" lon="-2.35609">
        <ele>-2</ele>
        <time>2019-06-16T09:18:56.000Z</time>
      </trkpt>
      <trkpt lat="47.35602" lon="-2.35614">
        <ele>-1.6000000238419</ele>
        <time>2019-06-16T09:18:57.000Z</time>
      </trkpt>
      <trkpt lat="47.35589" lon="-2.35629">
        <ele>-1.6000000238419</ele>
        <time>2019-06-16T09:19:00.000Z</time>
      </trkpt>
      <trkpt lat="47.35585" lon="-2.35633">
        <ele>-1.6000000238419</ele>
        <time>2019-06-16T09:19:01.000Z</time>
      </trkpt>
      <trkpt lat="47.35541" lon="-2.3567">
        <ele>-1.6000000238419</ele>
        <time>2019-06-16T09:19:11.000Z</time>
      </trkpt>
      <trkpt lat="47.35531" lon="-2.35679">
        <ele>-1.6000000238419</ele>
        <time>2019-06-16T09:19:13.000Z</time>
      </trkpt>
      <trkpt lat="47.35527" lon="-2.35683">
        <ele>-0.60000002384186</ele>
        <time>2019-06-16T09:19:14.000Z</time>
      </trkpt>
      <trkpt lat="47.35523" lon="-2.35688">
        <ele>-0.20000000298023</ele>
        <time>2019-06-16T09:19:15.000Z</time>
      </trkpt>
      <trkpt lat="47.35519" lon="-2.35693">
        <ele>0.20000000298023</ele>
        <time>2019-06-16T09:19:16.000Z</time>
      </trkpt>
      <trkpt lat="47.35515" lon="-2.35698">
        <ele>0.80000001192093</ele>
        <time>2019-06-16T09:19:17.000Z</time>
      </trkpt>
      <trkpt lat="47.35497" lon="-2.35719">
        <ele>0.80000001192093</ele>
        <time>2019-06-16T09:19:21.000Z</time>
      </trkpt>
      <trkpt lat="47.35485" lon="-2.35736">
        <ele>0.80000001192093</ele>
        <time>2019-06-16T09:19:24.000Z</time>
      </trkpt>
      <trkpt lat="47.35477" lon="-2.3575">
        <ele>0.80000001192093</ele>
        <time>2019-06-16T09:19:26.000Z</time>
      </trkpt>
      <trkpt lat="47.35469" lon="-2.35763">
        <ele>0.80000001192093</ele>
        <time>2019-06-16T09:19:28.000Z</time>
      </trkpt>
      <trkpt lat="47.35465" lon="-2.35769">
        <ele>0.80000001192093</ele>
        <time>2019-06-16T09:19:29.000Z</time>
      </trkpt>
      <trkpt lat="47.35452" lon="-2.35787">
        <ele>0.80000001192093</ele>
        <time>2019-06-16T09:19:32.000Z</time>
      </trkpt>
      <trkpt lat="47.3543" lon="-2.35813">
        <ele>0.80000001192093</ele>
        <time>2019-06-16T09:19:37.000Z</time>
      </trkpt>
      <trkpt lat="47.35426" lon="-2.35819">
        <ele>0.80000001192093</ele>
        <time>2019-06-16T09:19:38.000Z</time>
      </trkpt>
      <trkpt lat="47.35398" lon="-2.35861">
        <ele>0.80000001192093</ele>
        <time>2019-06-16T09:19:45.000Z</time>
      </trkpt>
      <trkpt lat="47.35374" lon="-2.35888">
        <ele>0.80000001192093</ele>
        <time>2019-06-16T09:19:50.000Z</time>
      </trkpt>
      <trkpt lat="47.35369" lon="-2.35893">
        <ele>0.80000001192093</ele>
        <time>2019-06-16T09:19:51.000Z</time>
      </trkpt>
      <trkpt lat="47.35339" lon="-2.35929">
        <ele>0.80000001192093</ele>
        <time>2019-06-16T09:19:57.000Z</time>
      </trkpt>
      <trkpt lat="47.35317" lon="-2.35976">
        <ele>0.80000001192093</ele>
        <time>2019-06-16T09:20:03.000Z</time>
      </trkpt>
      <trkpt lat="47.3531" lon="-2.35992">
        <ele>0.20000000298023</ele>
        <time>2019-06-16T09:20:05.000Z</time>
      </trkpt>
      <trkpt lat="47.35306" lon="-2.36">
        <ele>-0.20000000298023</ele>
        <time>2019-06-16T09:20:06.000Z</time>
      </trkpt>
      <trkpt lat="47.35302" lon="-2.36008">
        <ele>-0.60000002384186</ele>
        <time>2019-06-16T09:20:07.000Z</time>
      </trkpt>
      <trkpt lat="47.35297" lon="-2.36015">
        <ele>-1</ele>
        <time>2019-06-16T09:20:08.000Z</time>
      </trkpt>
      <trkpt lat="47.35292" lon="-2.36021">
        <ele>-1.6000000238419</ele>
        <time>2019-06-16T09:20:09.000Z</time>
      </trkpt>
      <trkpt lat="47.35277" lon="-2.36038">
        <ele>-1.6000000238419</ele>
        <time>2019-06-16T09:20:12.000Z</time>
      </trkpt>
      <trkpt lat="47.35267" lon="-2.36046">
        <ele>-1.6000000238419</ele>
        <time>2019-06-16T09:20:14.000Z</time>
      </trkpt>
      <trkpt lat="47.35241" lon="-2.36067">
        <ele>-1.6000000238419</ele>
        <time>2019-06-16T09:20:19.000Z</time>
      </trkpt>
      <trkpt lat="47.35207" lon="-2.36097">
        <ele>-1.6000000238419</ele>
        <time>2019-06-16T09:20:25.000Z</time>
      </trkpt>
      <trkpt lat="47.35167" lon="-2.36128">
        <ele>-1.6000000238419</ele>
        <time>2019-06-16T09:20:32.000Z</time>
      </trkpt>
      <trkpt lat="47.35137" lon="-2.36152">
        <ele>-1.6000000238419</ele>
        <time>2019-06-16T09:20:38.000Z</time>
      </trkpt>
      <trkpt lat="47.35105" lon="-2.36172">
        <ele>-1.6000000238419</ele>
        <time>2019-06-16T09:20:45.000Z</time>
      </trkpt>
      <trkpt lat="47.35101" lon="-2.36174">
        <ele>-1.6000000238419</ele>
        <time>2019-06-16T09:20:46.000Z</time>
      </trkpt>
      <trkpt lat="47.35082" lon="-2.36178">
        <ele>-1.6000000238419</ele>
        <time>2019-06-16T09:20:50.000Z</time>
      </trkpt>
      <trkpt lat="47.35078" lon="-2.36179">
        <ele>-1.6000000238419</ele>
        <time>2019-06-16T09:20:51.000Z</time>
      </trkpt>
      <trkpt lat="47.35073" lon="-2.36179">
        <ele>-1.6000000238419</ele>
        <time>2019-06-16T09:20:52.000Z</time>
      </trkpt>
      <trkpt lat="47.3506" lon="-2.3618">
        <ele>-1.6000000238419</ele>
        <time>2019-06-16T09:20:55.000Z</time>
      </trkpt>
      <trkpt lat="47.35034" lon="-2.36173">
        <ele>-1.2000000476837</ele>
        <time>2019-06-16T09:21:01.000Z</time>
      </trkpt>
      <trkpt lat="47.3503" lon="-2.36172">
        <ele>-0.80000001192093</ele>
        <time>2019-06-16T09:21:02.000Z</time>
      </trkpt>
      <trkpt lat="47.35026" lon="-2.36171">
        <ele>-0.40000000596046</ele>
        <time>2019-06-16T09:21:03.000Z</time>
      </trkpt>
      <trkpt lat="47.35021" lon="-2.36169">
        <ele>0.20000000298023</ele>
        <time>2019-06-16T09:21:04.000Z</time>
      </trkpt>
      <trkpt lat="47.35016" lon="-2.36169">
        <ele>0.60000002384186</ele>
        <time>2019-06-16T09:21:05.000Z</time>
      </trkpt>
      <trkpt lat="47.35012" lon="-2.36169">
        <ele>0.60000002384186</ele>
        <time>2019-06-16T09:21:06.000Z</time>
      </trkpt>
      <trkpt lat="47.34998" lon="-2.3617">
        <ele>0.60000002384186</ele>
        <time>2019-06-16T09:21:09.000Z</time>
      </trkpt>
      <trkpt lat="47.34993" lon="-2.36172">
        <ele>0.60000002384186</ele>
        <time>2019-06-16T09:21:10.000Z</time>
      </trkpt>
      <trkpt lat="47.34984" lon="-2.36177">
        <ele>0.60000002384186</ele>
        <time>2019-06-16T09:21:12.000Z</time>
      </trkpt>
      <trkpt lat="47.34972" lon="-2.36188">
        <ele>0.60000002384186</ele>
        <time>2019-06-16T09:21:15.000Z</time>
      </trkpt>
      <trkpt lat="47.34968" lon="-2.36191">
        <ele>1</ele>
        <time>2019-06-16T09:21:16.000Z</time>
      </trkpt>
      <trkpt lat="47.34964" lon="-2.36196">
        <ele>2</ele>
        <time>2019-06-16T09:21:17.000Z</time>
      </trkpt>
      <trkpt lat="47.34961" lon="-2.362">
        <ele>2.5999999046326</ele>
        <time>2019-06-16T09:21:18.000Z</time>
      </trkpt>
      <trkpt lat="47.34957" lon="-2.36204">
        <ele>3</ele>
        <time>2019-06-16T09:21:19.000Z</time>
      </trkpt>
      <trkpt lat="47.34947" lon="-2.36219">
        <ele>3</ele>
        <time>2019-06-16T09:21:22.000Z</time>
      </trkpt>
      <trkpt lat="47.34917" lon="-2.36255">
        <ele>3</ele>
        <time>2019-06-16T09:21:30.000Z</time>
      </trkpt>
      <trkpt lat="47.34913" lon="-2.36259">
        <ele>3.5999999046326</ele>
        <time>2019-06-16T09:21:31.000Z</time>
      </trkpt>
      <trkpt lat="47.34908" lon="-2.36263">
        <ele>4</ele>
        <time>2019-06-16T09:21:32.000Z</time>
      </trkpt>
      <trkpt lat="47.34903" lon="-2.36267">
        <ele>4.4000000953674</ele>
        <time>2019-06-16T09:21:33.000Z</time>
      </trkpt>
      <trkpt lat="47.34899" lon="-2.3627">
        <ele>4.8000001907349</ele>
        <time>2019-06-16T09:21:34.000Z</time>
      </trkpt>
      <trkpt lat="47.34895" lon="-2.36274">
        <ele>5.1999998092651</ele>
        <time>2019-06-16T09:21:35.000Z</time>
      </trkpt>
      <trkpt lat="47.34886" lon="-2.36282">
        <ele>5.1999998092651</ele>
        <time>2019-06-16T09:21:37.000Z</time>
      </trkpt>
      <trkpt lat="47.34873" lon="-2.36291">
        <ele>5.1999998092651</ele>
        <time>2019-06-16T09:21:40.000Z</time>
      </trkpt>
      <trkpt lat="47.34863" lon="-2.36298">
        <ele>5.1999998092651</ele>
        <time>2019-06-16T09:21:42.000Z</time>
      </trkpt>
      <trkpt lat="47.34841" lon="-2.36315">
        <ele>5.5999999046326</ele>
        <time>2019-06-16T09:21:47.000Z</time>
      </trkpt>
      <trkpt lat="47.3484" lon="-2.3632">
        <ele>6.1999998092651</ele>
        <time>2019-06-16T09:21:48.000Z</time>
      </trkpt>
      <trkpt lat="47.34842" lon="-2.36325">
        <ele>6.5999999046326</ele>
        <time>2019-06-16T09:21:49.000Z</time>
      </trkpt>
      <trkpt lat="47.34846" lon="-2.36329">
        <ele>7.1999998092651</ele>
        <time>2019-06-16T09:21:50.000Z</time>
      </trkpt>
      <trkpt lat="47.3485" lon="-2.36331">
        <ele>7.5999999046326</ele>
        <time>2019-06-16T09:21:51.000Z</time>
      </trkpt>
      <trkpt lat="47.34855" lon="-2.36333">
        <ele>7.5999999046326</ele>
        <time>2019-06-16T09:21:52.000Z</time>
      </trkpt>
      <trkpt lat="47.34859" lon="-2.36335">
        <ele>7.5999999046326</ele>
        <time>2019-06-16T09:21:53.000Z</time>
      </trkpt>
      <trkpt lat="47.34895" lon="-2.36358">
        <ele>7.5999999046326</ele>
        <time>2019-06-16T09:22:00.000Z</time>
      </trkpt>
      <trkpt lat="47.34939" lon="-2.36386">
        <ele>7.5999999046326</ele>
        <time>2019-06-16T09:22:07.000Z</time>
      </trkpt>
      <trkpt lat="47.34946" lon="-2.3639">
        <ele>7.1999998092651</ele>
        <time>2019-06-16T09:22:08.000Z</time>
      </trkpt>
      <trkpt lat="47.34953" lon="-2.36395">
        <ele>6.8000001907349</ele>
        <time>2019-06-16T09:22:09.000Z</time>
      </trkpt>
      <trkpt lat="47.3496" lon="-2.364">
        <ele>6.4000000953674</ele>
        <time>2019-06-16T09:22:10.000Z</time>
      </trkpt>
      <trkpt lat="47.34968" lon="-2.36405">
        <ele>6</ele>
        <time>2019-06-16T09:22:11.000Z</time>
      </trkpt>
      <trkpt lat="47.34975" lon="-2.3641">
        <ele>5.4000000953674</ele>
        <time>2019-06-16T09:22:12.000Z</time>
      </trkpt>
      <trkpt lat="47.34983" lon="-2.36415">
        <ele>4.8000001907349</ele>
        <time>2019-06-16T09:22:13.000Z</time>
      </trkpt>
      <trkpt lat="47.3499" lon="-2.36419">
        <ele>4.4000000953674</ele>
        <time>2019-06-16T09:22:14.000Z</time>
      </trkpt>
      <trkpt lat="47.34997" lon="-2.36425">
        <ele>3.7999999523163</ele>
        <time>2019-06-16T09:22:15.000Z</time>
      </trkpt>
      <trkpt lat="47.35003" lon="-2.36433">
        <ele>3.4000000953674</ele>
        <time>2019-06-16T09:22:16.000Z</time>
      </trkpt>
      <trkpt lat="47.35013" lon="-2.36462">
        <ele>3.4000000953674</ele>
        <time>2019-06-16T09:22:19.000Z</time>
      </trkpt>
      <trkpt lat="47.35027" lon="-2.365">
        <ele>3.4000000953674</ele>
        <time>2019-06-16T09:22:23.000Z</time>
      </trkpt>
      <trkpt lat="47.35031" lon="-2.36507">
        <ele>3.4000000953674</ele>
        <time>2019-06-16T09:22:24.000Z</time>
      </trkpt>
      <trkpt lat="47.35051" lon="-2.36541">
        <ele>3.4000000953674</ele>
        <time>2019-06-16T09:22:29.000Z</time>
      </trkpt>
      <trkpt lat="47.3507" lon="-2.36589">
        <ele>3.4000000953674</ele>
        <time>2019-06-16T09:22:35.000Z</time>
      </trkpt>
      <trkpt lat="47.35088" lon="-2.36641">
        <ele>3.4000000953674</ele>
        <time>2019-06-16T09:22:41.000Z</time>
      </trkpt>
      <trkpt lat="47.351" lon="-2.36675">
        <ele>3.7999999523163</ele>
        <time>2019-06-16T09:22:45.000Z</time>
      </trkpt>
      <trkpt lat="47.35102" lon="-2.36684">
        <ele>4.1999998092651</ele>
        <time>2019-06-16T09:22:46.000Z</time>
      </trkpt>
      <trkpt lat="47.35105" lon="-2.36693">
        <ele>4.5999999046326</ele>
        <time>2019-06-16T09:22:47.000Z</time>
      </trkpt>
      <trkpt lat="47.35108" lon="-2.36702">
        <ele>5</ele>
        <time>2019-06-16T09:22:48.000Z</time>
      </trkpt>
      <trkpt lat="47.3511" lon="-2.3671">
        <ele>5.4000000953674</ele>
        <time>2019-06-16T09:22:49.000Z</time>
      </trkpt>
      <trkpt lat="47.35119" lon="-2.36747">
        <ele>6</ele>
        <time>2019-06-16T09:22:53.000Z</time>
      </trkpt>
      <trkpt lat="47.35121" lon="-2.36756">
        <ele>6.4000000953674</ele>
        <time>2019-06-16T09:22:54.000Z</time>
      </trkpt>
      <trkpt lat="47.35123" lon="-2.36764">
        <ele>6.8000001907349</ele>
        <time>2019-06-16T09:22:55.000Z</time>
      </trkpt>
      <trkpt lat="47.35126" lon="-2.36773">
        <ele>7.8000001907349</ele>
        <time>2019-06-16T09:22:56.000Z</time>
      </trkpt>
      <trkpt lat="47.35131" lon="-2.368">
        <ele>7.8000001907349</ele>
        <time>2019-06-16T09:22:59.000Z</time>
      </trkpt>
      <trkpt lat="47.35133" lon="-2.36809">
        <ele>7.8000001907349</ele>
        <time>2019-06-16T09:23:00.000Z</time>
      </trkpt>
      <trkpt lat="47.35142" lon="-2.36855">
        <ele>7.8000001907349</ele>
        <time>2019-06-16T09:23:05.000Z</time>
      </trkpt>
      <trkpt lat="47.35153" lon="-2.36892">
        <ele>7.8000001907349</ele>
        <time>2019-06-16T09:23:09.000Z</time>
      </trkpt>
      <trkpt lat="47.35159" lon="-2.3691">
        <ele>7.8000001907349</ele>
        <time>2019-06-16T09:23:11.000Z</time>
      </trkpt>
      <trkpt lat="47.3518" lon="-2.36955">
        <ele>7.8000001907349</ele>
        <time>2019-06-16T09:23:17.000Z</time>
      </trkpt>
      <trkpt lat="47.35205" lon="-2.3701">
        <ele>7.8000001907349</ele>
        <time>2019-06-16T09:23:24.000Z</time>
      </trkpt>
      <trkpt lat="47.35207" lon="-2.37019">
        <ele>7.8000001907349</ele>
        <time>2019-06-16T09:23:25.000Z</time>
      </trkpt>
      <trkpt lat="47.35216" lon="-2.37046">
        <ele>7.8000001907349</ele>
        <time>2019-06-16T09:23:28.000Z</time>
      </trkpt>
      <trkpt lat="47.35228" lon="-2.37101">
        <ele>7.8000001907349</ele>
        <time>2019-06-16T09:23:34.000Z</time>
      </trkpt>
      <trkpt lat="47.35232" lon="-2.37119">
        <ele>7.8000001907349</ele>
        <time>2019-06-16T09:23:36.000Z</time>
      </trkpt>
      <trkpt lat="47.35236" lon="-2.37137">
        <ele>7.8000001907349</ele>
        <time>2019-06-16T09:23:38.000Z</time>
      </trkpt>
      <trkpt lat="47.35243" lon="-2.37167">
        <ele>7.8000001907349</ele>
        <time>2019-06-16T09:23:42.000Z</time>
      </trkpt>
      <trkpt lat="47.35246" lon="-2.37174">
        <ele>7.8000001907349</ele>
        <time>2019-06-16T09:23:43.000Z</time>
      </trkpt>
      <trkpt lat="47.35254" lon="-2.37185">
        <ele>6.8000001907349</ele>
        <time>2019-06-16T09:23:45.000Z</time>
      </trkpt>
      <trkpt lat="47.35257" lon="-2.3719">
        <ele>6.4000000953674</ele>
        <time>2019-06-16T09:23:46.000Z</time>
      </trkpt>
      <trkpt lat="47.3526" lon="-2.37195">
        <ele>6</ele>
        <time>2019-06-16T09:23:47.000Z</time>
      </trkpt>
      <trkpt lat="47.35263" lon="-2.372">
        <ele>5.5999999046326</ele>
        <time>2019-06-16T09:23:48.000Z</time>
      </trkpt>
      <trkpt lat="47.35273" lon="-2.37214">
        <ele>5.5999999046326</ele>
        <time>2019-06-16T09:23:51.000Z</time>
      </trkpt>
      <trkpt lat="47.35279" lon="-2.37223">
        <ele>5.5999999046326</ele>
        <time>2019-06-16T09:23:53.000Z</time>
      </trkpt>
      <trkpt lat="47.35279" lon="-2.37228">
        <ele>5.5999999046326</ele>
        <time>2019-06-16T09:23:54.000Z</time>
      </trkpt>
      <trkpt lat="47.35282" lon="-2.37252">
        <ele>5.5999999046326</ele>
        <time>2019-06-16T09:23:58.000Z</time>
      </trkpt>
      <trkpt lat="47.35283" lon="-2.37259">
        <ele>5.5999999046326</ele>
        <time>2019-06-16T09:23:59.000Z</time>
      </trkpt>
      <trkpt lat="47.35282" lon="-2.37292">
        <ele>5.5999999046326</ele>
        <time>2019-06-16T09:24:04.000Z</time>
      </trkpt>
      <trkpt lat="47.35283" lon="-2.37335">
        <ele>5.5999999046326</ele>
        <time>2019-06-16T09:24:11.000Z</time>
      </trkpt>
      <trkpt lat="47.35285" lon="-2.37385">
        <ele>5.5999999046326</ele>
        <time>2019-06-16T09:24:18.000Z</time>
      </trkpt>
      <trkpt lat="47.35285" lon="-2.37392">
        <ele>5.5999999046326</ele>
        <time>2019-06-16T09:24:19.000Z</time>
      </trkpt>
      <trkpt lat="47.35283" lon="-2.37426">
        <ele>5.5999999046326</ele>
        <time>2019-06-16T09:24:24.000Z</time>
      </trkpt>
      <trkpt lat="47.35272" lon="-2.37441">
        <ele>5.5999999046326</ele>
        <time>2019-06-16T09:24:27.000Z</time>
      </trkpt>
      <trkpt lat="47.35262" lon="-2.37445">
        <ele>5.5999999046326</ele>
        <time>2019-06-16T09:24:29.000Z</time>
      </trkpt>
      <trkpt lat="47.35246" lon="-2.37451">
        <ele>5.5999999046326</ele>
        <time>2019-06-16T09:24:32.000Z</time>
      </trkpt>
      <trkpt lat="47.35211" lon="-2.37463">
        <ele>5.5999999046326</ele>
        <time>2019-06-16T09:24:38.000Z</time>
      </trkpt>
      <trkpt lat="47.35198" lon="-2.37467">
        <ele>5.5999999046326</ele>
        <time>2019-06-16T09:24:40.000Z</time>
      </trkpt>
      <trkpt lat="47.35173" lon="-2.37477">
        <ele>5.5999999046326</ele>
        <time>2019-06-16T09:24:44.000Z</time>
      </trkpt>
      <trkpt lat="47.35131" lon="-2.37501">
        <ele>5.5999999046326</ele>
        <time>2019-06-16T09:24:51.000Z</time>
      </trkpt>
      <trkpt lat="47.35098" lon="-2.37524">
        <ele>5.5999999046326</ele>
        <time>2019-06-16T09:24:57.000Z</time>
      </trkpt>
      <trkpt lat="47.3506" lon="-2.37553">
        <ele>5.5999999046326</ele>
        <time>2019-06-16T09:25:04.000Z</time>
      </trkpt>
      <trkpt lat="47.35019" lon="-2.37589">
        <ele>5.5999999046326</ele>
        <time>2019-06-16T09:25:11.000Z</time>
      </trkpt>
      <trkpt lat="47.3498" lon="-2.37622">
        <ele>5.5999999046326</ele>
        <time>2019-06-16T09:25:17.000Z</time>
      </trkpt>
      <trkpt lat="47.34958" lon="-2.37635">
        <ele>5</ele>
        <time>2019-06-16T09:25:20.000Z</time>
      </trkpt>
      <trkpt lat="47.3495" lon="-2.37639">
        <ele>4.5999999046326</ele>
        <time>2019-06-16T09:25:21.000Z</time>
      </trkpt>
      <trkpt lat="47.34942" lon="-2.37642">
        <ele>4</ele>
        <time>2019-06-16T09:25:22.000Z</time>
      </trkpt>
      <trkpt lat="47.34934" lon="-2.37645">
        <ele>3.5999999046326</ele>
        <time>2019-06-16T09:25:23.000Z</time>
      </trkpt>
      <trkpt lat="47.34926" lon="-2.37648">
        <ele>3.2000000476837</ele>
        <time>2019-06-16T09:25:24.000Z</time>
      </trkpt>
      <trkpt lat="47.34898" lon="-2.37658">
        <ele>3.2000000476837</ele>
        <time>2019-06-16T09:25:28.000Z</time>
      </trkpt>
      <trkpt lat="47.34864" lon="-2.37672">
        <ele>3.2000000476837</ele>
        <time>2019-06-16T09:25:33.000Z</time>
      </trkpt>
      <trkpt lat="47.34852" lon="-2.37682">
        <ele>3.2000000476837</ele>
        <time>2019-06-16T09:25:35.000Z</time>
      </trkpt>
      <trkpt lat="47.34814" lon="-2.37722">
        <ele>3.2000000476837</ele>
        <time>2019-06-16T09:25:42.000Z</time>
      </trkpt>
      <trkpt lat="47.34791" lon="-2.37765">
        <ele>3.2000000476837</ele>
        <time>2019-06-16T09:25:47.000Z</time>
      </trkpt>
      <trkpt lat="47.34772" lon="-2.37811">
        <ele>3.2000000476837</ele>
        <time>2019-06-16T09:25:52.000Z</time>
      </trkpt>
      <trkpt lat="47.34767" lon="-2.3782">
        <ele>3.2000000476837</ele>
        <time>2019-06-16T09:25:53.000Z</time>
      </trkpt>
      <trkpt lat="47.34757" lon="-2.37851">
        <ele>3.2000000476837</ele>
        <time>2019-06-16T09:25:56.000Z</time>
      </trkpt>
      <trkpt lat="47.34754" lon="-2.37861">
        <ele>3.2000000476837</ele>
        <time>2019-06-16T09:25:57.000Z</time>
      </trkpt>
      <trkpt lat="47.34731" lon="-2.3792">
        <ele>3.2000000476837</ele>
        <time>2019-06-16T09:26:03.000Z</time>
      </trkpt>
      <trkpt lat="47.34702" lon="-2.37957">
        <ele>3.2000000476837</ele>
        <time>2019-06-16T09:26:08.000Z</time>
      </trkpt>
      <trkpt lat="47.34664" lon="-2.37995">
        <ele>3.2000000476837</ele>
        <time>2019-06-16T09:26:14.000Z</time>
      </trkpt>
      <trkpt lat="47.34626" lon="-2.38026">
        <ele>3.2000000476837</ele>
        <time>2019-06-16T09:26:20.000Z</time>
      </trkpt>
      <trkpt lat="47.34613" lon="-2.38038">
        <ele>3.2000000476837</ele>
        <time>2019-06-16T09:26:23.000Z</time>
      </trkpt>
      <trkpt lat="47.34611" lon="-2.38044">
        <ele>3.2000000476837</ele>
        <time>2019-06-16T09:26:24.000Z</time>
      </trkpt>
      <trkpt lat="47.34611" lon="-2.38064">
        <ele>3.2000000476837</ele>
        <time>2019-06-16T09:26:27.000Z</time>
      </trkpt>
      <trkpt lat="47.34621" lon="-2.38082">
        <ele>3.2000000476837</ele>
        <time>2019-06-16T09:26:30.000Z</time>
      </trkpt>
      <trkpt lat="47.34624" lon="-2.38088">
        <ele>3.2000000476837</ele>
        <time>2019-06-16T09:26:31.000Z</time>
      </trkpt>
      <trkpt lat="47.34643" lon="-2.38123">
        <ele>3.2000000476837</ele>
        <time>2019-06-16T09:26:36.000Z</time>
      </trkpt>
      <trkpt lat="47.34647" lon="-2.3814">
        <ele>3.2000000476837</ele>
        <time>2019-06-16T09:26:38.000Z</time>
      </trkpt>
      <trkpt lat="47.34649" lon="-2.38158">
        <ele>3.2000000476837</ele>
        <time>2019-06-16T09:26:40.000Z</time>
      </trkpt>
      <trkpt lat="47.34651" lon="-2.38213">
        <ele>3.2000000476837</ele>
        <time>2019-06-16T09:26:46.000Z</time>
      </trkpt>
      <trkpt lat="47.34653" lon="-2.38287">
        <ele>3.2000000476837</ele>
        <time>2019-06-16T09:26:54.000Z</time>
      </trkpt>
      <trkpt lat="47.34654" lon="-2.38338">
        <ele>3.2000000476837</ele>
        <time>2019-06-16T09:27:00.000Z</time>
      </trkpt>
      <trkpt lat="47.34655" lon="-2.38363">
        <ele>2.5999999046326</ele>
        <time>2019-06-16T09:27:03.000Z</time>
      </trkpt>
      <trkpt lat="47.34656" lon="-2.38371">
        <ele>2.2000000476837</ele>
        <time>2019-06-16T09:27:04.000Z</time>
      </trkpt>
      <trkpt lat="47.34656" lon="-2.3838">
        <ele>1.7999999523163</ele>
        <time>2019-06-16T09:27:05.000Z</time>
      </trkpt>
      <trkpt lat="47.34657" lon="-2.38389">
        <ele>1.3999999761581</ele>
        <time>2019-06-16T09:27:06.000Z</time>
      </trkpt>
      <trkpt lat="47.34659" lon="-2.38397">
        <ele>1</ele>
        <time>2019-06-16T09:27:07.000Z</time>
      </trkpt>
      <trkpt lat="47.34665" lon="-2.38423">
        <ele>1</ele>
        <time>2019-06-16T09:27:10.000Z</time>
      </trkpt>
      <trkpt lat="47.34668" lon="-2.38432">
        <ele>1</ele>
        <time>2019-06-16T09:27:11.000Z</time>
      </trkpt>
      <trkpt lat="47.34675" lon="-2.38457">
        <ele>1</ele>
        <time>2019-06-16T09:27:14.000Z</time>
      </trkpt>
      <trkpt lat="47.34681" lon="-2.38482">
        <ele>1</ele>
        <time>2019-06-16T09:27:17.000Z</time>
      </trkpt>
      <trkpt lat="47.34681" lon="-2.38491">
        <ele>1</ele>
        <time>2019-06-16T09:27:18.000Z</time>
      </trkpt>
      <trkpt lat="47.34685" lon="-2.38517">
        <ele>1</ele>
        <time>2019-06-16T09:27:21.000Z</time>
      </trkpt>
      <trkpt lat="47.34685" lon="-2.38526">
        <ele>1</ele>
        <time>2019-06-16T09:27:22.000Z</time>
      </trkpt>
      <trkpt lat="47.34688" lon="-2.38563">
        <ele>1</ele>
        <time>2019-06-16T09:27:26.000Z</time>
      </trkpt>
      <trkpt lat="47.34688" lon="-2.38589">
        <ele>1</ele>
        <time>2019-06-16T09:27:29.000Z</time>
      </trkpt>
      <trkpt lat="47.34688" lon="-2.38605">
        <ele>1</ele>
        <time>2019-06-16T09:27:31.000Z</time>
      </trkpt>
      <trkpt lat="47.34689" lon="-2.38664">
        <ele>1</ele>
        <time>2019-06-16T09:27:38.000Z</time>
      </trkpt>
      <trkpt lat="47.34691" lon="-2.38698">
        <ele>0.60000002384186</ele>
        <time>2019-06-16T09:27:42.000Z</time>
      </trkpt>
      <trkpt lat="47.34692" lon="-2.38707">
        <ele>0.20000000298023</ele>
        <time>2019-06-16T09:27:43.000Z</time>
      </trkpt>
      <trkpt lat="47.34692" lon="-2.38716">
        <ele>-0.20000000298023</ele>
        <time>2019-06-16T09:27:44.000Z</time>
      </trkpt>
      <trkpt lat="47.34693" lon="-2.38725">
        <ele>-0.60000002384186</ele>
        <time>2019-06-16T09:27:45.000Z</time>
      </trkpt>
      <trkpt lat="47.34693" lon="-2.38734">
        <ele>-1</ele>
        <time>2019-06-16T09:27:46.000Z</time>
      </trkpt>
      <trkpt lat="47.34694" lon="-2.38758">
        <ele>-1</ele>
        <time>2019-06-16T09:27:49.000Z</time>
      </trkpt>
      <trkpt lat="47.34696" lon="-2.38767">
        <ele>-1</ele>
        <time>2019-06-16T09:27:50.000Z</time>
      </trkpt>
      <trkpt lat="47.34697" lon="-2.38775">
        <ele>-1</ele>
        <time>2019-06-16T09:27:51.000Z</time>
      </trkpt>
      <trkpt lat="47.34698" lon="-2.38795">
        <ele>-1</ele>
        <time>2019-06-16T09:27:54.000Z</time>
      </trkpt>
      <trkpt lat="47.34698" lon="-2.38801">
        <ele>-1</ele>
        <time>2019-06-16T09:27:55.000Z</time>
      </trkpt>
      <trkpt lat="47.347" lon="-2.38823">
        <ele>-1</ele>
        <time>2019-06-16T09:27:59.000Z</time>
      </trkpt>
      <trkpt lat="47.34701" lon="-2.38859">
        <ele>-1</ele>
        <time>2019-06-16T09:28:04.000Z</time>
      </trkpt>
      <trkpt lat="47.34702" lon="-2.38889">
        <ele>-1</ele>
        <time>2019-06-16T09:28:08.000Z</time>
      </trkpt>
      <trkpt lat="47.34703" lon="-2.38905">
        <ele>-1</ele>
        <time>2019-06-16T09:28:10.000Z</time>
      </trkpt>
      <trkpt lat="47.34703" lon="-2.38912">
        <ele>-1</ele>
        <time>2019-06-16T09:28:11.000Z</time>
      </trkpt>
      <trkpt lat="47.34703" lon="-2.38935">
        <ele>-1</ele>
        <time>2019-06-16T09:28:14.000Z</time>
      </trkpt>
      <trkpt lat="47.34703" lon="-2.38946">
        <ele>-1</ele>
        <time>2019-06-16T09:28:16.000Z</time>
      </trkpt>
      <trkpt lat="47.34702" lon="-2.38959">
        <ele>-1</ele>
        <time>2019-06-16T09:28:20.000Z</time>
      </trkpt>
      <trkpt lat="47.34702" lon="-2.38962">
        <ele>-1</ele>
        <time>2019-06-16T09:28:21.000Z</time>
      </trkpt>
      <trkpt lat="47.34702" lon="-2.38985">
        <ele>-1</ele>
        <time>2019-06-16T09:28:26.000Z</time>
      </trkpt>
      <trkpt lat="47.34698" lon="-2.39021">
        <ele>-1</ele>
        <time>2019-06-16T09:28:32.000Z</time>
      </trkpt>
      <trkpt lat="47.34693" lon="-2.39073">
        <ele>-1</ele>
        <time>2019-06-16T09:28:40.000Z</time>
      </trkpt>
      <trkpt lat="47.34687" lon="-2.39098">
        <ele>-1</ele>
        <time>2019-06-16T09:28:44.000Z</time>
      </trkpt>
      <trkpt lat="47.34686" lon="-2.39105">
        <ele>-1</ele>
        <time>2019-06-16T09:28:45.000Z</time>
      </trkpt>
      <trkpt lat="47.34685" lon="-2.39118">
        <ele>-1</ele>
        <time>2019-06-16T09:28:47.000Z</time>
      </trkpt>
      <trkpt lat="47.34686" lon="-2.39139">
        <ele>-1</ele>
        <time>2019-06-16T09:28:50.000Z</time>
      </trkpt>
      <trkpt lat="47.34686" lon="-2.39145">
        <ele>-1</ele>
        <time>2019-06-16T09:28:51.000Z</time>
      </trkpt>
      <trkpt lat="47.34686" lon="-2.39152">
        <ele>-1</ele>
        <time>2019-06-16T09:28:52.000Z</time>
      </trkpt>
      <trkpt lat="47.34688" lon="-2.39171">
        <ele>-1</ele>
        <time>2019-06-16T09:28:55.000Z</time>
      </trkpt>
      <trkpt lat="47.3469" lon="-2.39185">
        <ele>-1</ele>
        <time>2019-06-16T09:28:57.000Z</time>
      </trkpt>
      <trkpt lat="47.34696" lon="-2.39202">
        <ele>-1</ele>
        <time>2019-06-16T09:29:00.000Z</time>
      </trkpt>
      <trkpt lat="47.34701" lon="-2.39229">
        <ele>-1</ele>
        <time>2019-06-16T09:29:05.000Z</time>
      </trkpt>
      <trkpt lat="47.34698" lon="-2.39235">
        <ele>-1</ele>
        <time>2019-06-16T09:29:06.000Z</time>
      </trkpt>
      <trkpt lat="47.34685" lon="-2.3926">
        <ele>-1</ele>
        <time>2019-06-16T09:29:11.000Z</time>
      </trkpt>
      <trkpt lat="47.34671" lon="-2.39286">
        <ele>-1</ele>
        <time>2019-06-16T09:29:17.000Z</time>
      </trkpt>
      <trkpt lat="47.34661" lon="-2.39308">
        <ele>-0.60000002384186</ele>
        <time>2019-06-16T09:29:23.000Z</time>
      </trkpt>
      <trkpt lat="47.3466" lon="-2.39312">
        <ele>-0.20000000298023</ele>
        <time>2019-06-16T09:29:24.000Z</time>
      </trkpt>
      <trkpt lat="47.34659" lon="-2.39317">
        <ele>0.20000000298023</ele>
        <time>2019-06-16T09:29:25.000Z</time>
      </trkpt>
      <trkpt lat="47.34656" lon="-2.39323">
        <ele>0.60000002384186</ele>
        <time>2019-06-16T09:29:26.000Z</time>
      </trkpt>
      <trkpt lat="47.34654" lon="-2.39328">
        <ele>1</ele>
        <time>2019-06-16T09:29:27.000Z</time>
      </trkpt>
      <trkpt lat="47.34651" lon="-2.39331">
        <ele>1</ele>
        <time>2019-06-16T09:29:28.000Z</time>
      </trkpt>
      <trkpt lat="47.34648" lon="-2.39336">
        <ele>1</ele>
        <time>2019-06-16T09:29:29.000Z</time>
      </trkpt>
      <trkpt lat="47.34629" lon="-2.39363">
        <ele>1</ele>
        <time>2019-06-16T09:29:35.000Z</time>
      </trkpt>
      <trkpt lat="47.34623" lon="-2.39373">
        <ele>1</ele>
        <time>2019-06-16T09:29:37.000Z</time>
      </trkpt>
      <trkpt lat="47.3462" lon="-2.39378">
        <ele>1.6000000238419</ele>
        <time>2019-06-16T09:29:38.000Z</time>
      </trkpt>
      <trkpt lat="47.34617" lon="-2.39383">
        <ele>2</ele>
        <time>2019-06-16T09:29:39.000Z</time>
      </trkpt>
      <trkpt lat="47.34613" lon="-2.39389">
        <ele>2.4000000953674</ele>
        <time>2019-06-16T09:29:40.000Z</time>
      </trkpt>
      <trkpt lat="47.34611" lon="-2.39394">
        <ele>2.7999999523163</ele>
        <time>2019-06-16T09:29:41.000Z</time>
      </trkpt>
      <trkpt lat="47.34608" lon="-2.39399">
        <ele>3.4000000953674</ele>
        <time>2019-06-16T09:29:42.000Z</time>
      </trkpt>
      <trkpt lat="47.34606" lon="-2.39403">
        <ele>3.4000000953674</ele>
        <time>2019-06-16T09:29:43.000Z</time>
      </trkpt>
      <trkpt lat="47.34588" lon="-2.39432">
        <ele>3.4000000953674</ele>
        <time>2019-06-16T09:29:49.000Z</time>
      </trkpt>
      <trkpt lat="47.34585" lon="-2.39435">
        <ele>3.4000000953674</ele>
        <time>2019-06-16T09:29:50.000Z</time>
      </trkpt>
      <trkpt lat="47.34574" lon="-2.39446">
        <ele>3.7999999523163</ele>
        <time>2019-06-16T09:29:53.000Z</time>
      </trkpt>
      <trkpt lat="47.34572" lon="-2.3945">
        <ele>4.1999998092651</ele>
        <time>2019-06-16T09:29:54.000Z</time>
      </trkpt>
      <trkpt lat="47.34568" lon="-2.39452">
        <ele>4.5999999046326</ele>
        <time>2019-06-16T09:29:55.000Z</time>
      </trkpt>
      <trkpt lat="47.34565" lon="-2.39455">
        <ele>5.4000000953674</ele>
        <time>2019-06-16T09:29:56.000Z</time>
      </trkpt>
      <trkpt lat="47.34554" lon="-2.39477">
        <ele>5.4000000953674</ele>
        <time>2019-06-16T09:30:01.000Z</time>
      </trkpt>
      <trkpt lat="47.3455" lon="-2.39508">
        <ele>5.4000000953674</ele>
        <time>2019-06-16T09:30:07.000Z</time>
      </trkpt>
      <trkpt lat="47.34544" lon="-2.39541">
        <ele>5.4000000953674</ele>
        <time>2019-06-16T09:30:13.000Z</time>
      </trkpt>
      <trkpt lat="47.34543" lon="-2.39547">
        <ele>5.4000000953674</ele>
        <time>2019-06-16T09:30:14.000Z</time>
      </trkpt>
      <trkpt lat="47.34542" lon="-2.39552">
        <ele>5.8000001907349</ele>
        <time>2019-06-16T09:30:15.000Z</time>
      </trkpt>
      <trkpt lat="47.3454" lon="-2.39557">
        <ele>6.1999998092651</ele>
        <time>2019-06-16T09:30:16.000Z</time>
      </trkpt>
      <trkpt lat="47.34538" lon="-2.39562">
        <ele>6.5999999046326</ele>
        <time>2019-06-16T09:30:17.000Z</time>
      </trkpt>
      <trkpt lat="47.34536" lon="-2.39567">
        <ele>7</ele>
        <time>2019-06-16T09:30:18.000Z</time>
      </trkpt>
      <trkpt lat="47.34533" lon="-2.39572">
        <ele>7.4000000953674</ele>
        <time>2019-06-16T09:30:19.000Z</time>
      </trkpt>
      <trkpt lat="47.34523" lon="-2.39593">
        <ele>7.4000000953674</ele>
        <time>2019-06-16T09:30:23.000Z</time>
      </trkpt>
      <trkpt lat="47.34521" lon="-2.39599">
        <ele>7.4000000953674</ele>
        <time>2019-06-16T09:30:24.000Z</time>
      </trkpt>
      <trkpt lat="47.34511" lon="-2.39625">
        <ele>7.4000000953674</ele>
        <time>2019-06-16T09:30:28.000Z</time>
      </trkpt>
      <trkpt lat="47.34505" lon="-2.3964">
        <ele>7.4000000953674</ele>
        <time>2019-06-16T09:30:31.000Z</time>
      </trkpt>
      <trkpt lat="47.34502" lon="-2.39646">
        <ele>7.4000000953674</ele>
        <time>2019-06-16T09:30:32.000Z</time>
      </trkpt>
      <trkpt lat="47.34491" lon="-2.39667">
        <ele>7.4000000953674</ele>
        <time>2019-06-16T09:30:36.000Z</time>
      </trkpt>
      <trkpt lat="47.34485" lon="-2.39671">
        <ele>7.4000000953674</ele>
        <time>2019-06-16T09:30:37.000Z</time>
      </trkpt>
      <trkpt lat="47.34476" lon="-2.39689">
        <ele>7.4000000953674</ele>
        <time>2019-06-16T09:30:40.000Z</time>
      </trkpt>
      <trkpt lat="47.3447" lon="-2.39718">
        <ele>7</ele>
        <time>2019-06-16T09:30:44.000Z</time>
      </trkpt>
      <trkpt lat="47.34469" lon="-2.39725">
        <ele>6.5999999046326</ele>
        <time>2019-06-16T09:30:45.000Z</time>
      </trkpt>
      <trkpt lat="47.34468" lon="-2.39733">
        <ele>5.8000001907349</ele>
        <time>2019-06-16T09:30:46.000Z</time>
      </trkpt>
      <trkpt lat="47.34468" lon="-2.39741">
        <ele>5.4000000953674</ele>
        <time>2019-06-16T09:30:47.000Z</time>
      </trkpt>
      <trkpt lat="47.34468" lon="-2.39756">
        <ele>5.4000000953674</ele>
        <time>2019-06-16T09:30:49.000Z</time>
      </trkpt>
      <trkpt lat="47.34471" lon="-2.39761">
        <ele>5.4000000953674</ele>
        <time>2019-06-16T09:30:50.000Z</time>
      </trkpt>
      <trkpt lat="47.3448" lon="-2.39767">
        <ele>5.4000000953674</ele>
        <time>2019-06-16T09:30:53.000Z</time>
      </trkpt>
      <trkpt lat="47.34495" lon="-2.39773">
        <ele>5.4000000953674</ele>
        <time>2019-06-16T09:30:58.000Z</time>
      </trkpt>
      <trkpt lat="47.3451" lon="-2.39781">
        <ele>5.4000000953674</ele>
        <time>2019-06-16T09:31:03.000Z</time>
      </trkpt>
      <trkpt lat="47.34518" lon="-2.39791">
        <ele>5.4000000953674</ele>
        <time>2019-06-16T09:31:08.000Z</time>
      </trkpt>
      <trkpt lat="47.34523" lon="-2.39793">
        <ele>5.4000000953674</ele>
        <time>2019-06-16T09:31:13.000Z</time>
      </trkpt>
      <trkpt lat="47.34524" lon="-2.39794">
        <ele>5.4000000953674</ele>
        <time>2019-06-16T09:31:15.000Z</time>
      </trkpt>
      <trkpt lat="47.34527" lon="-2.39796">
        <ele>5.4000000953674</ele>
        <time>2019-06-16T09:31:17.000Z</time>
      </trkpt>
      <trkpt lat="47.34539" lon="-2.3981">
        <ele>5.4000000953674</ele>
        <time>2019-06-16T09:31:22.000Z</time>
      </trkpt>
      <trkpt lat="47.34557" lon="-2.39826">
        <ele>5.4000000953674</ele>
        <time>2019-06-16T09:31:27.000Z</time>
      </trkpt>
      <trkpt lat="47.34561" lon="-2.3983">
        <ele>5.4000000953674</ele>
        <time>2019-06-16T09:31:28.000Z</time>
      </trkpt>
      <trkpt lat="47.34579" lon="-2.39847">
        <ele>5.4000000953674</ele>
        <time>2019-06-16T09:31:33.000Z</time>
      </trkpt>
      <trkpt lat="47.34583" lon="-2.3985">
        <ele>5.4000000953674</ele>
        <time>2019-06-16T09:31:34.000Z</time>
      </trkpt>
      <trkpt lat="47.34604" lon="-2.39859">
        <ele>5.4000000953674</ele>
        <time>2019-06-16T09:31:38.000Z</time>
      </trkpt>
      <trkpt lat="47.34608" lon="-2.39863">
        <ele>5.4000000953674</ele>
        <time>2019-06-16T09:31:39.000Z</time>
      </trkpt>
      <trkpt lat="47.34613" lon="-2.39875">
        <ele>5.4000000953674</ele>
        <time>2019-06-16T09:31:41.000Z</time>
      </trkpt>
      <trkpt lat="47.34614" lon="-2.39904">
        <ele>5.4000000953674</ele>
        <time>2019-06-16T09:31:45.000Z</time>
      </trkpt>
      <trkpt lat="47.3461" lon="-2.39914">
        <ele>5.4000000953674</ele>
        <time>2019-06-16T09:31:47.000Z</time>
      </trkpt>
      <trkpt lat="47.34607" lon="-2.39925">
        <ele>5.4000000953674</ele>
        <time>2019-06-16T09:31:49.000Z</time>
      </trkpt>
      <trkpt lat="47.34597" lon="-2.39946">
        <ele>5.4000000953674</ele>
        <time>2019-06-16T09:31:55.000Z</time>
      </trkpt>
      <trkpt lat="47.34596" lon="-2.3995">
        <ele>5.4000000953674</ele>
        <time>2019-06-16T09:31:59.000Z</time>
      </trkpt>
      <trkpt lat="47.34596" lon="-2.39954">
        <ele>5.4000000953674</ele>
        <time>2019-06-16T09:32:04.000Z</time>
      </trkpt>
      <trkpt lat="47.34594" lon="-2.39964">
        <ele>5.4000000953674</ele>
        <time>2019-06-16T09:32:07.000Z</time>
      </trkpt>
      <trkpt lat="47.3459" lon="-2.39986">
        <ele>5.4000000953674</ele>
        <time>2019-06-16T09:32:11.000Z</time>
      </trkpt>
      <trkpt lat="47.34598" lon="-2.40009">
        <ele>5.4000000953674</ele>
        <time>2019-06-16T09:32:15.000Z</time>
      </trkpt>
      <trkpt lat="47.34616" lon="-2.40038">
        <ele>5.4000000953674</ele>
        <time>2019-06-16T09:32:20.000Z</time>
      </trkpt>
      <trkpt lat="47.34642" lon="-2.40081">
        <ele>5.4000000953674</ele>
        <time>2019-06-16T09:32:27.000Z</time>
      </trkpt>
      <trkpt lat="47.34662" lon="-2.40111">
        <ele>5.4000000953674</ele>
        <time>2019-06-16T09:32:32.000Z</time>
      </trkpt>
      <trkpt lat="47.34667" lon="-2.40116">
        <ele>5.4000000953674</ele>
        <time>2019-06-16T09:32:33.000Z</time>
      </trkpt>
      <trkpt lat="47.3469" lon="-2.40128">
        <ele>5.4000000953674</ele>
        <time>2019-06-16T09:32:37.000Z</time>
      </trkpt>
      <trkpt lat="47.34721" lon="-2.40134">
        <ele>5.4000000953674</ele>
        <time>2019-06-16T09:32:42.000Z</time>
      </trkpt>
      <trkpt lat="47.34732" lon="-2.40144">
        <ele>5.4000000953674</ele>
        <time>2019-06-16T09:32:44.000Z</time>
      </trkpt>
      <trkpt lat="47.34742" lon="-2.40154">
        <ele>5.4000000953674</ele>
        <time>2019-06-16T09:32:46.000Z</time>
      </trkpt>
      <trkpt lat="47.34747" lon="-2.4016">
        <ele>5.4000000953674</ele>
        <time>2019-06-16T09:32:47.000Z</time>
      </trkpt>
      <trkpt lat="47.3477" lon="-2.40198">
        <ele>5.4000000953674</ele>
        <time>2019-06-16T09:32:53.000Z</time>
      </trkpt>
      <trkpt lat="47.34779" lon="-2.4021">
        <ele>5.4000000953674</ele>
        <time>2019-06-16T09:32:55.000Z</time>
      </trkpt>
      <trkpt lat="47.34796" lon="-2.40222">
        <ele>5.4000000953674</ele>
        <time>2019-06-16T09:32:58.000Z</time>
      </trkpt>
      <trkpt lat="47.34802" lon="-2.40228">
        <ele>5.4000000953674</ele>
        <time>2019-06-16T09:32:59.000Z</time>
      </trkpt>
      <trkpt lat="47.34812" lon="-2.40244">
        <ele>5.4000000953674</ele>
        <time>2019-06-16T09:33:01.000Z</time>
      </trkpt>
      <trkpt lat="47.34819" lon="-2.40262">
        <ele>5.4000000953674</ele>
        <time>2019-06-16T09:33:03.000Z</time>
      </trkpt>
      <trkpt lat="47.34826" lon="-2.40279">
        <ele>5</ele>
        <time>2019-06-16T09:33:05.000Z</time>
      </trkpt>
      <trkpt lat="47.34831" lon="-2.40287">
        <ele>4.4000000953674</ele>
        <time>2019-06-16T09:33:06.000Z</time>
      </trkpt>
      <trkpt lat="47.34835" lon="-2.40294">
        <ele>4</ele>
        <time>2019-06-16T09:33:07.000Z</time>
      </trkpt>
      <trkpt lat="47.3484" lon="-2.40301">
        <ele>3.5999999046326</ele>
        <time>2019-06-16T09:33:08.000Z</time>
      </trkpt>
      <trkpt lat="47.34845" lon="-2.40309">
        <ele>3.2000000476837</ele>
        <time>2019-06-16T09:33:09.000Z</time>
      </trkpt>
      <trkpt lat="47.34853" lon="-2.40326">
        <ele>3.2000000476837</ele>
        <time>2019-06-16T09:33:11.000Z</time>
      </trkpt>
      <trkpt lat="47.34859" lon="-2.40344">
        <ele>3.2000000476837</ele>
        <time>2019-06-16T09:33:13.000Z</time>
      </trkpt>
      <trkpt lat="47.34864" lon="-2.40364">
        <ele>3.2000000476837</ele>
        <time>2019-06-16T09:33:15.000Z</time>
      </trkpt>
      <trkpt lat="47.34872" lon="-2.40412">
        <ele>2.7999999523163</ele>
        <time>2019-06-16T09:33:20.000Z</time>
      </trkpt>
      <trkpt lat="47.34874" lon="-2.40422">
        <ele>2.4000000953674</ele>
        <time>2019-06-16T09:33:21.000Z</time>
      </trkpt>
      <trkpt lat="47.34875" lon="-2.40432">
        <ele>2</ele>
        <time>2019-06-16T09:33:22.000Z</time>
      </trkpt>
      <trkpt lat="47.34877" lon="-2.40441">
        <ele>1.6000000238419</ele>
        <time>2019-06-16T09:33:23.000Z</time>
      </trkpt>
      <trkpt lat="47.34879" lon="-2.40452">
        <ele>1</ele>
        <time>2019-06-16T09:33:24.000Z</time>
      </trkpt>
      <trkpt lat="47.34883" lon="-2.40483">
        <ele>1</ele>
        <time>2019-06-16T09:33:27.000Z</time>
      </trkpt>
      <trkpt lat="47.34889" lon="-2.40529">
        <ele>0.60000002384186</ele>
        <time>2019-06-16T09:33:31.000Z</time>
      </trkpt>
      <trkpt lat="47.34891" lon="-2.40539">
        <ele>0.20000000298023</ele>
        <time>2019-06-16T09:33:32.000Z</time>
      </trkpt>
      <trkpt lat="47.34891" lon="-2.4055">
        <ele>-0.20000000298023</ele>
        <time>2019-06-16T09:33:33.000Z</time>
      </trkpt>
      <trkpt lat="47.34891" lon="-2.40562">
        <ele>-0.60000002384186</ele>
        <time>2019-06-16T09:33:34.000Z</time>
      </trkpt>
      <trkpt lat="47.34889" lon="-2.40574">
        <ele>-1</ele>
        <time>2019-06-16T09:33:35.000Z</time>
      </trkpt>
      <trkpt lat="47.34885" lon="-2.40583">
        <ele>-1</ele>
        <time>2019-06-16T09:33:36.000Z</time>
      </trkpt>
      <trkpt lat="47.34871" lon="-2.40605">
        <ele>-1</ele>
        <time>2019-06-16T09:33:39.000Z</time>
      </trkpt>
      <trkpt lat="47.34856" lon="-2.40613">
        <ele>-1</ele>
        <time>2019-06-16T09:33:41.000Z</time>
      </trkpt>
      <trkpt lat="47.34845" lon="-2.40624">
        <ele>-1</ele>
        <time>2019-06-16T09:33:43.000Z</time>
      </trkpt>
      <trkpt lat="47.34832" lon="-2.40656">
        <ele>-1</ele>
        <time>2019-06-16T09:33:47.000Z</time>
      </trkpt>
      <trkpt lat="47.34828" lon="-2.40673">
        <ele>-1</ele>
        <time>2019-06-16T09:33:49.000Z</time>
      </trkpt>
      <trkpt lat="47.34825" lon="-2.40695">
        <ele>-1</ele>
        <time>2019-06-16T09:33:52.000Z</time>
      </trkpt>
      <trkpt lat="47.34823" lon="-2.40717">
        <ele>-1</ele>
        <time>2019-06-16T09:33:55.000Z</time>
      </trkpt>
      <trkpt lat="47.34823" lon="-2.40732">
        <ele>-1</ele>
        <time>2019-06-16T09:33:57.000Z</time>
      </trkpt>
      <trkpt lat="47.34823" lon="-2.40739">
        <ele>-1</ele>
        <time>2019-06-16T09:33:58.000Z</time>
      </trkpt>
      <trkpt lat="47.34829" lon="-2.40766">
        <ele>-1</ele>
        <time>2019-06-16T09:34:02.000Z</time>
      </trkpt>
      <trkpt lat="47.34845" lon="-2.40775">
        <ele>-1</ele>
        <time>2019-06-16T09:34:05.000Z</time>
      </trkpt>
      <trkpt lat="47.34857" lon="-2.40775">
        <ele>-1</ele>
        <time>2019-06-16T09:34:07.000Z</time>
      </trkpt>
      <trkpt lat="47.34873" lon="-2.40776">
        <ele>-1</ele>
        <time>2019-06-16T09:34:10.000Z</time>
      </trkpt>
      <trkpt lat="47.34893" lon="-2.40782">
        <ele>-0.60000002384186</ele>
        <time>2019-06-16T09:34:14.000Z</time>
      </trkpt>
      <trkpt lat="47.34898" lon="-2.40787">
        <ele>-0.20000000298023</ele>
        <time>2019-06-16T09:34:15.000Z</time>
      </trkpt>
      <trkpt lat="47.34901" lon="-2.40793">
        <ele>0.20000000298023</ele>
        <time>2019-06-16T09:34:16.000Z</time>
      </trkpt>
      <trkpt lat="47.34905" lon="-2.408">
        <ele>0.60000002384186</ele>
        <time>2019-06-16T09:34:17.000Z</time>
      </trkpt>
      <trkpt lat="47.34908" lon="-2.40805">
        <ele>1</ele>
        <time>2019-06-16T09:34:18.000Z</time>
      </trkpt>
      <trkpt lat="47.34911" lon="-2.4081">
        <ele>1</ele>
        <time>2019-06-16T09:34:19.000Z</time>
      </trkpt>
      <trkpt lat="47.34932" lon="-2.40852">
        <ele>1</ele>
        <time>2019-06-16T09:34:26.000Z</time>
      </trkpt>
      <trkpt lat="47.34936" lon="-2.40866">
        <ele>1</ele>
        <time>2019-06-16T09:34:28.000Z</time>
      </trkpt>
      <trkpt lat="47.34937" lon="-2.40879">
        <ele>1</ele>
        <time>2019-06-16T09:34:30.000Z</time>
      </trkpt>
      <trkpt lat="47.34936" lon="-2.4091">
        <ele>1</ele>
        <time>2019-06-16T09:34:34.000Z</time>
      </trkpt>
      <trkpt lat="47.34935" lon="-2.40925">
        <ele>1</ele>
        <time>2019-06-16T09:34:36.000Z</time>
      </trkpt>
      <trkpt lat="47.34934" lon="-2.40949">
        <ele>1</ele>
        <time>2019-06-16T09:34:39.000Z</time>
      </trkpt>
      <trkpt lat="47.34929" lon="-2.40997">
        <ele>1</ele>
        <time>2019-06-16T09:34:45.000Z</time>
      </trkpt>
      <trkpt lat="47.34929" lon="-2.41006">
        <ele>1</ele>
        <time>2019-06-16T09:34:46.000Z</time>
      </trkpt>
      <trkpt lat="47.3493" lon="-2.41032">
        <ele>1</ele>
        <time>2019-06-16T09:34:49.000Z</time>
      </trkpt>
      <trkpt lat="47.34931" lon="-2.41039">
        <ele>1</ele>
        <time>2019-06-16T09:34:50.000Z</time>
      </trkpt>
      <trkpt lat="47.34936" lon="-2.41063">
        <ele>1</ele>
        <time>2019-06-16T09:34:53.000Z</time>
      </trkpt>
      <trkpt lat="47.34941" lon="-2.41073">
        <ele>1</ele>
        <time>2019-06-16T09:34:54.000Z</time>
      </trkpt>
      <trkpt lat="47.34957" lon="-2.41112">
        <ele>1</ele>
        <time>2019-06-16T09:34:58.000Z</time>
      </trkpt>
      <trkpt lat="47.34961" lon="-2.41122">
        <ele>1</ele>
        <time>2019-06-16T09:34:59.000Z</time>
      </trkpt>
      <trkpt lat="47.34965" lon="-2.4113">
        <ele>1</ele>
        <time>2019-06-16T09:35:00.000Z</time>
      </trkpt>
      <trkpt lat="47.34975" lon="-2.41155">
        <ele>1</ele>
        <time>2019-06-16T09:35:03.000Z</time>
      </trkpt>
      <trkpt lat="47.34981" lon="-2.41171">
        <ele>1</ele>
        <time>2019-06-16T09:35:05.000Z</time>
      </trkpt>
      <trkpt lat="47.34991" lon="-2.41195">
        <ele>1</ele>
        <time>2019-06-16T09:35:08.000Z</time>
      </trkpt>
      <trkpt lat="47.35012" lon="-2.41241">
        <ele>1</ele>
        <time>2019-06-16T09:35:14.000Z</time>
      </trkpt>
      <trkpt lat="47.35031" lon="-2.41288">
        <ele>1</ele>
        <time>2019-06-16T09:35:20.000Z</time>
      </trkpt>
      <trkpt lat="47.35052" lon="-2.41336">
        <ele>1</ele>
        <time>2019-06-16T09:35:26.000Z</time>
      </trkpt>
      <trkpt lat="47.35072" lon="-2.41382">
        <ele>0.60000002384186</ele>
        <time>2019-06-16T09:35:32.000Z</time>
      </trkpt>
      <trkpt lat="47.35075" lon="-2.4139">
        <ele>0.20000000298023</ele>
        <time>2019-06-16T09:35:33.000Z</time>
      </trkpt>
      <trkpt lat="47.35077" lon="-2.41397">
        <ele>-0.20000000298023</ele>
        <time>2019-06-16T09:35:34.000Z</time>
      </trkpt>
      <trkpt lat="47.35078" lon="-2.41404">
        <ele>-0.80000001192093</ele>
        <time>2019-06-16T09:35:35.000Z</time>
      </trkpt>
      <trkpt lat="47.35075" lon="-2.4141">
        <ele>-1.2000000476837</ele>
        <time>2019-06-16T09:35:36.000Z</time>
      </trkpt>
      <trkpt lat="47.35061" lon="-2.41418">
        <ele>-1.2000000476837</ele>
        <time>2019-06-16T09:35:39.000Z</time>
      </trkpt>
      <trkpt lat="47.35056" lon="-2.4142">
        <ele>-1.2000000476837</ele>
        <time>2019-06-16T09:35:40.000Z</time>
      </trkpt>
      <trkpt lat="47.35033" lon="-2.41431">
        <ele>-1.2000000476837</ele>
        <time>2019-06-16T09:35:44.000Z</time>
      </trkpt>
      <trkpt lat="47.34992" lon="-2.41449">
        <ele>-1.2000000476837</ele>
        <time>2019-06-16T09:35:51.000Z</time>
      </trkpt>
      <trkpt lat="47.34966" lon="-2.41461">
        <ele>-1.2000000476837</ele>
        <time>2019-06-16T09:35:56.000Z</time>
      </trkpt>
      <trkpt lat="47.3496" lon="-2.41463">
        <ele>-1.2000000476837</ele>
        <time>2019-06-16T09:35:57.000Z</time>
      </trkpt>
      <trkpt lat="47.34949" lon="-2.41466">
        <ele>-1.2000000476837</ele>
        <time>2019-06-16T09:35:59.000Z</time>
      </trkpt>
      <trkpt lat="47.34928" lon="-2.41473">
        <ele>-1.2000000476837</ele>
        <time>2019-06-16T09:36:03.000Z</time>
      </trkpt>
      <trkpt lat="47.34897" lon="-2.4148">
        <ele>-1.2000000476837</ele>
        <time>2019-06-16T09:36:08.000Z</time>
      </trkpt>
      <trkpt lat="47.34868" lon="-2.41489">
        <ele>-1.2000000476837</ele>
        <time>2019-06-16T09:36:13.000Z</time>
      </trkpt>
      <trkpt lat="47.34852" lon="-2.41492">
        <ele>-1.2000000476837</ele>
        <time>2019-06-16T09:36:16.000Z</time>
      </trkpt>
      <trkpt lat="47.34847" lon="-2.41494">
        <ele>-1.2000000476837</ele>
        <time>2019-06-16T09:36:17.000Z</time>
      </trkpt>
      <trkpt lat="47.3482" lon="-2.41502">
        <ele>-1.2000000476837</ele>
        <time>2019-06-16T09:36:22.000Z</time>
      </trkpt>
      <trkpt lat="47.34809" lon="-2.41506">
        <ele>-1.2000000476837</ele>
        <time>2019-06-16T09:36:24.000Z</time>
      </trkpt>
      <trkpt lat="47.348" lon="-2.41511">
        <ele>-1.2000000476837</ele>
        <time>2019-06-16T09:36:26.000Z</time>
      </trkpt>
      <trkpt lat="47.34778" lon="-2.41519">
        <ele>-1.2000000476837</ele>
        <time>2019-06-16T09:36:30.000Z</time>
      </trkpt>
      <trkpt lat="47.34742" lon="-2.41532">
        <ele>-1.2000000476837</ele>
        <time>2019-06-16T09:36:36.000Z</time>
      </trkpt>
      <trkpt lat="47.34736" lon="-2.41534">
        <ele>-0.80000001192093</ele>
        <time>2019-06-16T09:36:37.000Z</time>
      </trkpt>
      <trkpt lat="47.3473" lon="-2.41536">
        <ele>-0.20000000298023</ele>
        <time>2019-06-16T09:36:38.000Z</time>
      </trkpt>
      <trkpt lat="47.34724" lon="-2.41537">
        <ele>0.20000000298023</ele>
        <time>2019-06-16T09:36:39.000Z</time>
      </trkpt>
      <trkpt lat="47.34719" lon="-2.41539">
        <ele>0.60000002384186</ele>
        <time>2019-06-16T09:36:40.000Z</time>
      </trkpt>
      <trkpt lat="47.34714" lon="-2.41541">
        <ele>1</ele>
        <time>2019-06-16T09:36:41.000Z</time>
      </trkpt>
      <trkpt lat="47.34709" lon="-2.41543">
        <ele>1</ele>
        <time>2019-06-16T09:36:42.000Z</time>
      </trkpt>
      <trkpt lat="47.34681" lon="-2.41552">
        <ele>1</ele>
        <time>2019-06-16T09:36:47.000Z</time>
      </trkpt>
      <trkpt lat="47.34659" lon="-2.41556">
        <ele>1.3999999761581</ele>
        <time>2019-06-16T09:36:51.000Z</time>
      </trkpt>
      <trkpt lat="47.34655" lon="-2.41557">
        <ele>1.7999999523163</ele>
        <time>2019-06-16T09:36:52.000Z</time>
      </trkpt>
      <trkpt lat="47.34651" lon="-2.41559">
        <ele>2.2000000476837</ele>
        <time>2019-06-16T09:36:53.000Z</time>
      </trkpt>
      <trkpt lat="47.34648" lon="-2.4156">
        <ele>2.5999999046326</ele>
        <time>2019-06-16T09:36:54.000Z</time>
      </trkpt>
      <trkpt lat="47.34645" lon="-2.4156">
        <ele>3</ele>
        <time>2019-06-16T09:36:55.000Z</time>
      </trkpt>
      <trkpt lat="47.34636" lon="-2.41563">
        <ele>3</ele>
        <time>2019-06-16T09:36:58.000Z</time>
      </trkpt>
      <trkpt lat="47.34622" lon="-2.41567">
        <ele>3</ele>
        <time>2019-06-16T09:37:04.000Z</time>
      </trkpt>
      <trkpt lat="47.34623" lon="-2.41566">
        <ele>3</ele>
        <time>2019-06-16T09:37:05.000Z</time>
      </trkpt>
      <trkpt lat="47.34621" lon="-2.41571">
        <ele>3</ele>
        <time>2019-06-16T09:38:05.000Z</time>
      </trkpt>
      <trkpt lat="47.34617" lon="-2.41573">
        <ele>3</ele>
        <time>2019-06-16T09:38:06.000Z</time>
      </trkpt>
      <trkpt lat="47.34595" lon="-2.41583">
        <ele>3</ele>
        <time>2019-06-16T09:38:11.000Z</time>
      </trkpt>
      <trkpt lat="47.34566" lon="-2.41596">
        <ele>3</ele>
        <time>2019-06-16T09:38:17.000Z</time>
      </trkpt>
      <trkpt lat="47.34561" lon="-2.41598">
        <ele>3</ele>
        <time>2019-06-16T09:38:18.000Z</time>
      </trkpt>
      <trkpt lat="47.34519" lon="-2.41615">
        <ele>3</ele>
        <time>2019-06-16T09:38:26.000Z</time>
      </trkpt>
      <trkpt lat="47.34514" lon="-2.41617">
        <ele>3.4000000953674</ele>
        <time>2019-06-16T09:38:27.000Z</time>
      </trkpt>
      <trkpt lat="47.34509" lon="-2.41619">
        <ele>3.7999999523163</ele>
        <time>2019-06-16T09:38:28.000Z</time>
      </trkpt>
      <trkpt lat="47.34504" lon="-2.41621">
        <ele>4.1999998092651</ele>
        <time>2019-06-16T09:38:29.000Z</time>
      </trkpt>
      <trkpt lat="47.34499" lon="-2.41624">
        <ele>4.5999999046326</ele>
        <time>2019-06-16T09:38:30.000Z</time>
      </trkpt>
      <trkpt lat="47.34493" lon="-2.41627">
        <ele>5</ele>
        <time>2019-06-16T09:38:31.000Z</time>
      </trkpt>
      <trkpt lat="47.34488" lon="-2.4163">
        <ele>5</ele>
        <time>2019-06-16T09:38:32.000Z</time>
      </trkpt>
      <trkpt lat="47.34459" lon="-2.41653">
        <ele>5</ele>
        <time>2019-06-16T09:38:38.000Z</time>
      </trkpt>
      <trkpt lat="47.34454" lon="-2.41657">
        <ele>5</ele>
        <time>2019-06-16T09:38:39.000Z</time>
      </trkpt>
      <trkpt lat="47.3445" lon="-2.41663">
        <ele>5</ele>
        <time>2019-06-16T09:38:40.000Z</time>
      </trkpt>
      <trkpt lat="47.34435" lon="-2.41684">
        <ele>5</ele>
        <time>2019-06-16T09:38:44.000Z</time>
      </trkpt>
      <trkpt lat="47.34429" lon="-2.41689">
        <ele>5</ele>
        <time>2019-06-16T09:38:45.000Z</time>
      </trkpt>
      <trkpt lat="47.34425" lon="-2.41693">
        <ele>5.5999999046326</ele>
        <time>2019-06-16T09:38:46.000Z</time>
      </trkpt>
      <trkpt lat="47.3442" lon="-2.41697">
        <ele>6</ele>
        <time>2019-06-16T09:38:47.000Z</time>
      </trkpt>
      <trkpt lat="47.34415" lon="-2.41701">
        <ele>6.4000000953674</ele>
        <time>2019-06-16T09:38:48.000Z</time>
      </trkpt>
      <trkpt lat="47.3441" lon="-2.41705">
        <ele>6.8000001907349</ele>
        <time>2019-06-16T09:38:49.000Z</time>
      </trkpt>
      <trkpt lat="47.34405" lon="-2.41708">
        <ele>7.1999998092651</ele>
        <time>2019-06-16T09:38:50.000Z</time>
      </trkpt>
      <trkpt lat="47.34391" lon="-2.41717">
        <ele>7.1999998092651</ele>
        <time>2019-06-16T09:38:53.000Z</time>
      </trkpt>
      <trkpt lat="47.34381" lon="-2.41721">
        <ele>7.1999998092651</ele>
        <time>2019-06-16T09:38:55.000Z</time>
      </trkpt>
      <trkpt lat="47.34371" lon="-2.41725">
        <ele>7.1999998092651</ele>
        <time>2019-06-16T09:38:57.000Z</time>
      </trkpt>
      <trkpt lat="47.34361" lon="-2.41731">
        <ele>7.5999999046326</ele>
        <time>2019-06-16T09:38:59.000Z</time>
      </trkpt>
      <trkpt lat="47.34356" lon="-2.41734">
        <ele>8.6000003814697</ele>
        <time>2019-06-16T09:39:00.000Z</time>
      </trkpt>
      <trkpt lat="47.34351" lon="-2.41737">
        <ele>9</ele>
        <time>2019-06-16T09:39:01.000Z</time>
      </trkpt>
      <trkpt lat="47.34346" lon="-2.4174">
        <ele>9.6000003814697</ele>
        <time>2019-06-16T09:39:02.000Z</time>
      </trkpt>
      <trkpt lat="47.34337" lon="-2.41746">
        <ele>9.6000003814697</ele>
        <time>2019-06-16T09:39:04.000Z</time>
      </trkpt>
      <trkpt lat="47.34316" lon="-2.41755">
        <ele>9.6000003814697</ele>
        <time>2019-06-16T09:39:08.000Z</time>
      </trkpt>
      <trkpt lat="47.34305" lon="-2.41759">
        <ele>9.6000003814697</ele>
        <time>2019-06-16T09:39:10.000Z</time>
      </trkpt>
      <trkpt lat="47.3429" lon="-2.41768">
        <ele>9.6000003814697</ele>
        <time>2019-06-16T09:39:13.000Z</time>
      </trkpt>
      <trkpt lat="47.34281" lon="-2.41773">
        <ele>9.6000003814697</ele>
        <time>2019-06-16T09:39:15.000Z</time>
      </trkpt>
      <trkpt lat="47.34272" lon="-2.41779">
        <ele>10</ele>
        <time>2019-06-16T09:39:17.000Z</time>
      </trkpt>
      <trkpt lat="47.34267" lon="-2.41782">
        <ele>10.39999961853</ele>
        <time>2019-06-16T09:39:18.000Z</time>
      </trkpt>
      <trkpt lat="47.34264" lon="-2.41784">
        <ele>10.800000190735</ele>
        <time>2019-06-16T09:39:19.000Z</time>
      </trkpt>
      <trkpt lat="47.34258" lon="-2.41787">
        <ele>11.199999809265</ele>
        <time>2019-06-16T09:39:20.000Z</time>
      </trkpt>
      <trkpt lat="47.34253" lon="-2.41789">
        <ele>11.60000038147</ele>
        <time>2019-06-16T09:39:21.000Z</time>
      </trkpt>
      <trkpt lat="47.34242" lon="-2.41785">
        <ele>11.60000038147</ele>
        <time>2019-06-16T09:39:23.000Z</time>
      </trkpt>
      <trkpt lat="47.34233" lon="-2.41766">
        <ele>11.60000038147</ele>
        <time>2019-06-16T09:39:26.000Z</time>
      </trkpt>
      <trkpt lat="47.34219" lon="-2.41719">
        <ele>11.60000038147</ele>
        <time>2019-06-16T09:39:33.000Z</time>
      </trkpt>
      <trkpt lat="47.34215" lon="-2.41708">
        <ele>11.60000038147</ele>
        <time>2019-06-16T09:39:35.000Z</time>
      </trkpt>
      <trkpt lat="47.34205" lon="-2.41699">
        <ele>11.60000038147</ele>
        <time>2019-06-16T09:39:38.000Z</time>
      </trkpt>
      <trkpt lat="47.34189" lon="-2.41704">
        <ele>11.60000038147</ele>
        <time>2019-06-16T09:39:42.000Z</time>
      </trkpt>
      <trkpt lat="47.34178" lon="-2.41714">
        <ele>11.60000038147</ele>
        <time>2019-06-16T09:39:45.000Z</time>
      </trkpt>
      <trkpt lat="47.34167" lon="-2.41727">
        <ele>11.60000038147</ele>
        <time>2019-06-16T09:39:48.000Z</time>
      </trkpt>
      <trkpt lat="47.34146" lon="-2.41748">
        <ele>12</ele>
        <time>2019-06-16T09:39:54.000Z</time>
      </trkpt>
      <trkpt lat="47.34143" lon="-2.41752">
        <ele>12.39999961853</ele>
        <time>2019-06-16T09:39:55.000Z</time>
      </trkpt>
      <trkpt lat="47.34139" lon="-2.41755">
        <ele>12.800000190735</ele>
        <time>2019-06-16T09:39:56.000Z</time>
      </trkpt>
      <trkpt lat="47.34135" lon="-2.41758">
        <ele>13.199999809265</ele>
        <time>2019-06-16T09:39:57.000Z</time>
      </trkpt>
      <trkpt lat="47.34131" lon="-2.41761">
        <ele>13.60000038147</ele>
        <time>2019-06-16T09:39:58.000Z</time>
      </trkpt>
      <trkpt lat="47.34123" lon="-2.41766">
        <ele>13.60000038147</ele>
        <time>2019-06-16T09:40:00.000Z</time>
      </trkpt>
      <trkpt lat="47.34102" lon="-2.41784">
        <ele>13.60000038147</ele>
        <time>2019-06-16T09:40:06.000Z</time>
      </trkpt>
      <trkpt lat="47.34079" lon="-2.41806">
        <ele>13.60000038147</ele>
        <time>2019-06-16T09:40:13.000Z</time>
      </trkpt>
      <trkpt lat="47.34063" lon="-2.41823">
        <ele>14</ele>
        <time>2019-06-16T09:40:18.000Z</time>
      </trkpt>
      <trkpt lat="47.3406" lon="-2.41827">
        <ele>14.60000038147</ele>
        <time>2019-06-16T09:40:19.000Z</time>
      </trkpt>
      <trkpt lat="47.34057" lon="-2.41831">
        <ele>15</ele>
        <time>2019-06-16T09:40:20.000Z</time>
      </trkpt>
      <trkpt lat="47.34055" lon="-2.41836">
        <ele>15.39999961853</ele>
        <time>2019-06-16T09:40:21.000Z</time>
      </trkpt>
      <trkpt lat="47.34052" lon="-2.4184">
        <ele>15.800000190735</ele>
        <time>2019-06-16T09:40:22.000Z</time>
      </trkpt>
      <trkpt lat="47.34038" lon="-2.41861">
        <ele>15.800000190735</ele>
        <time>2019-06-16T09:40:27.000Z</time>
      </trkpt>
      <trkpt lat="47.34032" lon="-2.4187">
        <ele>15.800000190735</ele>
        <time>2019-06-16T09:40:29.000Z</time>
      </trkpt>
      <trkpt lat="47.34022" lon="-2.41885">
        <ele>15.800000190735</ele>
        <time>2019-06-16T09:40:32.000Z</time>
      </trkpt>
      <trkpt lat="47.34016" lon="-2.41894">
        <ele>16.200000762939</ele>
        <time>2019-06-16T09:40:34.000Z</time>
      </trkpt>
      <trkpt lat="47.34013" lon="-2.41899">
        <ele>16.60000038147</ele>
        <time>2019-06-16T09:40:35.000Z</time>
      </trkpt>
      <trkpt lat="47.3401" lon="-2.41904">
        <ele>17</ele>
        <time>2019-06-16T09:40:36.000Z</time>
      </trkpt>
      <trkpt lat="47.34008" lon="-2.41909">
        <ele>17.39999961853</ele>
        <time>2019-06-16T09:40:37.000Z</time>
      </trkpt>
      <trkpt lat="47.34005" lon="-2.41913">
        <ele>17.799999237061</ele>
        <time>2019-06-16T09:40:38.000Z</time>
      </trkpt>
      <trkpt lat="47.3398" lon="-2.41949">
        <ele>17.799999237061</ele>
        <time>2019-06-16T09:40:46.000Z</time>
      </trkpt>
      <trkpt lat="47.33962" lon="-2.41972">
        <ele>18.200000762939</ele>
        <time>2019-06-16T09:40:51.000Z</time>
      </trkpt>
      <trkpt lat="47.33958" lon="-2.41976">
        <ele>18.799999237061</ele>
        <time>2019-06-16T09:40:52.000Z</time>
      </trkpt>
      <trkpt lat="47.33955" lon="-2.41981">
        <ele>19.200000762939</ele>
        <time>2019-06-16T09:40:53.000Z</time>
      </trkpt>
      <trkpt lat="47.33951" lon="-2.41985">
        <ele>19.60000038147</ele>
        <time>2019-06-16T09:40:54.000Z</time>
      </trkpt>
      <trkpt lat="47.33947" lon="-2.41989">
        <ele>20</ele>
        <time>2019-06-16T09:40:55.000Z</time>
      </trkpt>
      <trkpt lat="47.33935" lon="-2.42002">
        <ele>20</ele>
        <time>2019-06-16T09:40:58.000Z</time>
      </trkpt>
      <trkpt lat="47.33899" lon="-2.42036">
        <ele>20</ele>
        <time>2019-06-16T09:41:06.000Z</time>
      </trkpt>
      <trkpt lat="47.33891" lon="-2.42044">
        <ele>20</ele>
        <time>2019-06-16T09:41:08.000Z</time>
      </trkpt>
      <trkpt lat="47.33878" lon="-2.42054">
        <ele>20</ele>
        <time>2019-06-16T09:41:11.000Z</time>
      </trkpt>
      <trkpt lat="47.33837" lon="-2.42081">
        <ele>20</ele>
        <time>2019-06-16T09:41:20.000Z</time>
      </trkpt>
      <trkpt lat="47.33821" lon="-2.42093">
        <ele>20</ele>
        <time>2019-06-16T09:41:24.000Z</time>
      </trkpt>
      <trkpt lat="47.33811" lon="-2.42099">
        <ele>20</ele>
        <time>2019-06-16T09:41:26.000Z</time>
      </trkpt>
      <trkpt lat="47.33801" lon="-2.42101">
        <ele>20</ele>
        <time>2019-06-16T09:41:28.000Z</time>
      </trkpt>
      <trkpt lat="47.33797" lon="-2.42102">
        <ele>20</ele>
        <time>2019-06-16T09:41:29.000Z</time>
      </trkpt>
      <trkpt lat="47.33787" lon="-2.42106">
        <ele>20</ele>
        <time>2019-06-16T09:41:31.000Z</time>
      </trkpt>
      <trkpt lat="47.33778" lon="-2.4211">
        <ele>20.39999961853</ele>
        <time>2019-06-16T09:41:33.000Z</time>
      </trkpt>
      <trkpt lat="47.33773" lon="-2.42112">
        <ele>20.799999237061</ele>
        <time>2019-06-16T09:41:34.000Z</time>
      </trkpt>
      <trkpt lat="47.33768" lon="-2.42114">
        <ele>21.200000762939</ele>
        <time>2019-06-16T09:41:35.000Z</time>
      </trkpt>
      <trkpt lat="47.33763" lon="-2.42116">
        <ele>21.799999237061</ele>
        <time>2019-06-16T09:41:36.000Z</time>
      </trkpt>
      <trkpt lat="47.33759" lon="-2.42118">
        <ele>22.200000762939</ele>
        <time>2019-06-16T09:41:37.000Z</time>
      </trkpt>
      <trkpt lat="47.33737" lon="-2.42127">
        <ele>22.200000762939</ele>
        <time>2019-06-16T09:41:42.000Z</time>
      </trkpt>
      <trkpt lat="47.33723" lon="-2.42131">
        <ele>22.200000762939</ele>
        <time>2019-06-16T09:41:45.000Z</time>
      </trkpt>
      <trkpt lat="47.33705" lon="-2.42137">
        <ele>22.200000762939</ele>
        <time>2019-06-16T09:41:49.000Z</time>
      </trkpt>
      <trkpt lat="47.33685" lon="-2.42142">
        <ele>22.200000762939</ele>
        <time>2019-06-16T09:41:54.000Z</time>
      </trkpt>
      <trkpt lat="47.33677" lon="-2.42144">
        <ele>22.60000038147</ele>
        <time>2019-06-16T09:41:56.000Z</time>
      </trkpt>
      <trkpt lat="47.33673" lon="-2.42145">
        <ele>23</ele>
        <time>2019-06-16T09:41:57.000Z</time>
      </trkpt>
      <trkpt lat="47.33669" lon="-2.42146">
        <ele>23.39999961853</ele>
        <time>2019-06-16T09:41:58.000Z</time>
      </trkpt>
      <trkpt lat="47.33665" lon="-2.42147">
        <ele>23.799999237061</ele>
        <time>2019-06-16T09:41:59.000Z</time>
      </trkpt>
      <trkpt lat="47.33661" lon="-2.42148">
        <ele>24.39999961853</ele>
        <time>2019-06-16T09:42:00.000Z</time>
      </trkpt>
      <trkpt lat="47.33657" lon="-2.42149">
        <ele>24.39999961853</ele>
        <time>2019-06-16T09:42:01.000Z</time>
      </trkpt>
      <trkpt lat="47.3364" lon="-2.42152">
        <ele>24.39999961853</ele>
        <time>2019-06-16T09:42:06.000Z</time>
      </trkpt>
      <trkpt lat="47.33635" lon="-2.42152">
        <ele>24.39999961853</ele>
        <time>2019-06-16T09:42:08.000Z</time>
      </trkpt>
      <trkpt lat="47.33632" lon="-2.42154">
        <ele>24.39999961853</ele>
        <time>2019-06-16T09:42:09.000Z</time>
      </trkpt>
      <trkpt lat="47.33613" lon="-2.42159">
        <ele>24.799999237061</ele>
        <time>2019-06-16T09:42:14.000Z</time>
      </trkpt>
      <trkpt lat="47.33609" lon="-2.42161">
        <ele>25.200000762939</ele>
        <time>2019-06-16T09:42:15.000Z</time>
      </trkpt>
      <trkpt lat="47.33605" lon="-2.42162">
        <ele>25.60000038147</ele>
        <time>2019-06-16T09:42:16.000Z</time>
      </trkpt>
      <trkpt lat="47.33601" lon="-2.42164">
        <ele>26</ele>
        <time>2019-06-16T09:42:17.000Z</time>
      </trkpt>
      <trkpt lat="47.33597" lon="-2.42166">
        <ele>26.60000038147</ele>
        <time>2019-06-16T09:42:18.000Z</time>
      </trkpt>
      <trkpt lat="47.3359" lon="-2.42172">
        <ele>26.60000038147</ele>
        <time>2019-06-16T09:42:20.000Z</time>
      </trkpt>
      <trkpt lat="47.33582" lon="-2.4218">
        <ele>26.60000038147</ele>
        <time>2019-06-16T09:42:24.000Z</time>
      </trkpt>
      <trkpt lat="47.33575" lon="-2.42176">
        <ele>26.60000038147</ele>
        <time>2019-06-16T09:42:28.000Z</time>
      </trkpt>
      <trkpt lat="47.33567" lon="-2.42169">
        <ele>26.60000038147</ele>
        <time>2019-06-16T09:42:32.000Z</time>
      </trkpt>
      <trkpt lat="47.33565" lon="-2.42167">
        <ele>26.60000038147</ele>
        <time>2019-06-16T09:42:33.000Z</time>
      </trkpt>
      <trkpt lat="47.33562" lon="-2.42164">
        <ele>26.60000038147</ele>
        <time>2019-06-16T09:42:35.000Z</time>
      </trkpt>
      <trkpt lat="47.33559" lon="-2.42159">
        <ele>26.60000038147</ele>
        <time>2019-06-16T09:42:37.000Z</time>
      </trkpt>
      <trkpt lat="47.33554" lon="-2.42158">
        <ele>26.60000038147</ele>
        <time>2019-06-16T09:42:41.000Z</time>
      </trkpt>
      <trkpt lat="47.33554" lon="-2.42159">
        <ele>26.60000038147</ele>
        <time>2019-06-16T09:42:49.000Z</time>
      </trkpt>
      <trkpt lat="47.33553" lon="-2.42167">
        <ele>26.60000038147</ele>
        <time>2019-06-16T09:42:52.000Z</time>
      </trkpt>
      <trkpt lat="47.33555" lon="-2.42171">
        <ele>27</ele>
        <time>2019-06-16T09:42:53.000Z</time>
      </trkpt>
      <trkpt lat="47.33557" lon="-2.42175">
        <ele>27.39999961853</ele>
        <time>2019-06-16T09:42:54.000Z</time>
      </trkpt>
      <trkpt lat="47.3356" lon="-2.42178">
        <ele>27.799999237061</ele>
        <time>2019-06-16T09:42:55.000Z</time>
      </trkpt>
      <trkpt lat="47.33562" lon="-2.42181">
        <ele>28.200000762939</ele>
        <time>2019-06-16T09:42:56.000Z</time>
      </trkpt>
      <trkpt lat="47.33562" lon="-2.42185">
        <ele>28.60000038147</ele>
        <time>2019-06-16T09:42:57.000Z</time>
      </trkpt>
      <trkpt lat="47.33559" lon="-2.42191">
        <ele>28.60000038147</ele>
        <time>2019-06-16T09:42:59.000Z</time>
      </trkpt>
      <trkpt lat="47.3355" lon="-2.42189">
        <ele>28.60000038147</ele>
        <time>2019-06-16T09:43:02.000Z</time>
      </trkpt>
      <trkpt lat="47.33547" lon="-2.42186">
        <ele>28.60000038147</ele>
        <time>2019-06-16T09:43:03.000Z</time>
      </trkpt>
      <trkpt lat="47.33535" lon="-2.4217">
        <ele>28.60000038147</ele>
        <time>2019-06-16T09:43:08.000Z</time>
      </trkpt>
      <trkpt lat="47.33529" lon="-2.42164">
        <ele>28.60000038147</ele>
        <time>2019-06-16T09:43:13.000Z</time>
      </trkpt>
      <trkpt lat="47.33525" lon="-2.42159">
        <ele>28.60000038147</ele>
        <time>2019-06-16T09:43:19.000Z</time>
      </trkpt>
      <trkpt lat="47.33524" lon="-2.42156">
        <ele>28.60000038147</ele>
        <time>2019-06-16T09:43:25.000Z</time>
      </trkpt>
      <trkpt lat="47.33516" lon="-2.42151">
        <ele>28.60000038147</ele>
        <time>2019-06-16T09:43:30.000Z</time>
      </trkpt>
      <trkpt lat="47.33509" lon="-2.42146">
        <ele>28.60000038147</ele>
        <time>2019-06-16T09:43:36.000Z</time>
      </trkpt>
      <trkpt lat="47.33502" lon="-2.42138">
        <ele>28.60000038147</ele>
        <time>2019-06-16T09:43:43.000Z</time>
      </trkpt>
      <trkpt lat="47.33498" lon="-2.42135">
        <ele>28.60000038147</ele>
        <time>2019-06-16T09:43:45.000Z</time>
      </trkpt>
      <trkpt lat="47.33494" lon="-2.42129">
        <ele>28.60000038147</ele>
        <time>2019-06-16T09:43:47.000Z</time>
      </trkpt>
      <trkpt lat="47.3348" lon="-2.42116">
        <ele>28.60000038147</ele>
        <time>2019-06-16T09:43:53.000Z</time>
      </trkpt>
      <trkpt lat="47.33468" lon="-2.421">
        <ele>28.60000038147</ele>
        <time>2019-06-16T09:43:58.000Z</time>
      </trkpt>
      <trkpt lat="47.33456" lon="-2.4209">
        <ele>28.60000038147</ele>
        <time>2019-06-16T09:44:03.000Z</time>
      </trkpt>
      <trkpt lat="47.33452" lon="-2.42089">
        <ele>28.60000038147</ele>
        <time>2019-06-16T09:44:04.000Z</time>
      </trkpt>
      <trkpt lat="47.33444" lon="-2.42083">
        <ele>28.60000038147</ele>
        <time>2019-06-16T09:44:06.000Z</time>
      </trkpt>
      <trkpt lat="47.33436" lon="-2.42076">
        <ele>28.60000038147</ele>
        <time>2019-06-16T09:44:08.000Z</time>
      </trkpt>
      <trkpt lat="47.33419" lon="-2.4206">
        <ele>28.60000038147</ele>
        <time>2019-06-16T09:44:13.000Z</time>
      </trkpt>
      <trkpt lat="47.33403" lon="-2.42045">
        <ele>28.60000038147</ele>
        <time>2019-06-16T09:44:18.000Z</time>
      </trkpt>
      <trkpt lat="47.3339" lon="-2.42047">
        <ele>28.60000038147</ele>
        <time>2019-06-16T09:44:22.000Z</time>
      </trkpt>
      <trkpt lat="47.33386" lon="-2.42047">
        <ele>28.60000038147</ele>
        <time>2019-06-16T09:44:23.000Z</time>
      </trkpt>
      <trkpt lat="47.33378" lon="-2.42042">
        <ele>28.60000038147</ele>
        <time>2019-06-16T09:44:25.000Z</time>
      </trkpt>
      <trkpt lat="47.33372" lon="-2.42035">
        <ele>28.60000038147</ele>
        <time>2019-06-16T09:44:27.000Z</time>
      </trkpt>
      <trkpt lat="47.33365" lon="-2.42028">
        <ele>28.60000038147</ele>
        <time>2019-06-16T09:44:29.000Z</time>
      </trkpt>
      <trkpt lat="47.33356" lon="-2.42024">
        <ele>28.60000038147</ele>
        <time>2019-06-16T09:44:31.000Z</time>
      </trkpt>
      <trkpt lat="47.33348" lon="-2.42025">
        <ele>28.60000038147</ele>
        <time>2019-06-16T09:44:33.000Z</time>
      </trkpt>
      <trkpt lat="47.33338" lon="-2.42024">
        <ele>28.60000038147</ele>
        <time>2019-06-16T09:44:36.000Z</time>
      </trkpt>
      <trkpt lat="47.33334" lon="-2.42024">
        <ele>28.60000038147</ele>
        <time>2019-06-16T09:44:38.000Z</time>
      </trkpt>
      <trkpt lat="47.3333" lon="-2.42027">
        <ele>28.60000038147</ele>
        <time>2019-06-16T09:44:40.000Z</time>
      </trkpt>
      <trkpt lat="47.33325" lon="-2.42041">
        <ele>28.60000038147</ele>
        <time>2019-06-16T09:44:45.000Z</time>
      </trkpt>
      <trkpt lat="47.33322" lon="-2.42046">
        <ele>28.60000038147</ele>
        <time>2019-06-16T09:44:47.000Z</time>
      </trkpt>
      <trkpt lat="47.33314" lon="-2.42061">
        <ele>28.60000038147</ele>
        <time>2019-06-16T09:44:52.000Z</time>
      </trkpt>
      <trkpt lat="47.33307" lon="-2.42078">
        <ele>28.60000038147</ele>
        <time>2019-06-16T09:44:57.000Z</time>
      </trkpt>
      <trkpt lat="47.33295" lon="-2.42108">
        <ele>28.60000038147</ele>
        <time>2019-06-16T09:45:04.000Z</time>
      </trkpt>
      <trkpt lat="47.33281" lon="-2.42129">
        <ele>28.60000038147</ele>
        <time>2019-06-16T09:45:11.000Z</time>
      </trkpt>
      <trkpt lat="47.33261" lon="-2.42145">
        <ele>28.60000038147</ele>
        <time>2019-06-16T09:45:17.000Z</time>
      </trkpt>
      <trkpt lat="47.33254" lon="-2.4216">
        <ele>29.200000762939</ele>
        <time>2019-06-16T09:45:20.000Z</time>
      </trkpt>
      <trkpt lat="47.33253" lon="-2.42166">
        <ele>29.60000038147</ele>
        <time>2019-06-16T09:45:21.000Z</time>
      </trkpt>
      <trkpt lat="47.33253" lon="-2.42172">
        <ele>30</ele>
        <time>2019-06-16T09:45:22.000Z</time>
      </trkpt>
      <trkpt lat="47.33252" lon="-2.42178">
        <ele>30.39999961853</ele>
        <time>2019-06-16T09:45:23.000Z</time>
      </trkpt>
      <trkpt lat="47.33251" lon="-2.42184">
        <ele>30.799999237061</ele>
        <time>2019-06-16T09:45:24.000Z</time>
      </trkpt>
      <trkpt lat="47.33248" lon="-2.42194">
        <ele>30.799999237061</ele>
        <time>2019-06-16T09:45:26.000Z</time>
      </trkpt>
      <trkpt lat="47.33246" lon="-2.42199">
        <ele>30.799999237061</ele>
        <time>2019-06-16T09:45:27.000Z</time>
      </trkpt>
      <trkpt lat="47.33236" lon="-2.42213">
        <ele>30.799999237061</ele>
        <time>2019-06-16T09:45:30.000Z</time>
      </trkpt>
      <trkpt lat="47.3323" lon="-2.42221">
        <ele>30.799999237061</ele>
        <time>2019-06-16T09:45:32.000Z</time>
      </trkpt>
      <trkpt lat="47.33205" lon="-2.4225">
        <ele>30.799999237061</ele>
        <time>2019-06-16T09:45:39.000Z</time>
      </trkpt>
      <trkpt lat="47.3318" lon="-2.42278">
        <ele>30.799999237061</ele>
        <time>2019-06-16T09:45:45.000Z</time>
      </trkpt>
      <trkpt lat="47.33149" lon="-2.42315">
        <ele>30.799999237061</ele>
        <time>2019-06-16T09:45:52.000Z</time>
      </trkpt>
      <trkpt lat="47.33118" lon="-2.42351">
        <ele>30.799999237061</ele>
        <time>2019-06-16T09:45:59.000Z</time>
      </trkpt>
      <trkpt lat="47.33091" lon="-2.4238">
        <ele>30.799999237061</ele>
        <time>2019-06-16T09:46:05.000Z</time>
      </trkpt>
      <trkpt lat="47.33087" lon="-2.42385">
        <ele>30.799999237061</ele>
        <time>2019-06-16T09:46:06.000Z</time>
      </trkpt>
      <trkpt lat="47.33083" lon="-2.4239">
        <ele>30.799999237061</ele>
        <time>2019-06-16T09:46:07.000Z</time>
      </trkpt>
      <trkpt lat="47.33074" lon="-2.42399">
        <ele>30.799999237061</ele>
        <time>2019-06-16T09:46:09.000Z</time>
      </trkpt>
      <trkpt lat="47.33066" lon="-2.42409">
        <ele>30.799999237061</ele>
        <time>2019-06-16T09:46:11.000Z</time>
      </trkpt>
      <trkpt lat="47.33057" lon="-2.42418">
        <ele>30.799999237061</ele>
        <time>2019-06-16T09:46:13.000Z</time>
      </trkpt>
      <trkpt lat="47.33045" lon="-2.42431">
        <ele>30.799999237061</ele>
        <time>2019-06-16T09:46:17.000Z</time>
      </trkpt>
      <trkpt lat="47.33042" lon="-2.42432">
        <ele>30.799999237061</ele>
        <time>2019-06-16T09:46:20.000Z</time>
      </trkpt>
      <trkpt lat="47.33041" lon="-2.42436">
        <ele>30.799999237061</ele>
        <time>2019-06-16T09:46:57.000Z</time>
      </trkpt>
      <trkpt lat="47.3304" lon="-2.42452">
        <ele>30.799999237061</ele>
        <time>2019-06-16T09:47:01.000Z</time>
      </trkpt>
      <trkpt lat="47.33031" lon="-2.42459">
        <ele>30.799999237061</ele>
        <time>2019-06-16T09:47:04.000Z</time>
      </trkpt>
      <trkpt lat="47.33022" lon="-2.4246">
        <ele>30.799999237061</ele>
        <time>2019-06-16T09:47:06.000Z</time>
      </trkpt>
      <trkpt lat="47.33007" lon="-2.42465">
        <ele>30.799999237061</ele>
        <time>2019-06-16T09:47:10.000Z</time>
      </trkpt>
      <trkpt lat="47.3299" lon="-2.42479">
        <ele>30.799999237061</ele>
        <time>2019-06-16T09:47:15.000Z</time>
      </trkpt>
      <trkpt lat="47.32961" lon="-2.42502">
        <ele>30.799999237061</ele>
        <time>2019-06-16T09:47:22.000Z</time>
      </trkpt>
      <trkpt lat="47.32931" lon="-2.42533">
        <ele>30.799999237061</ele>
        <time>2019-06-16T09:47:29.000Z</time>
      </trkpt>
      <trkpt lat="47.32903" lon="-2.4257">
        <ele>30.799999237061</ele>
        <time>2019-06-16T09:47:36.000Z</time>
      </trkpt>
      <trkpt lat="47.32897" lon="-2.42581">
        <ele>30.799999237061</ele>
        <time>2019-06-16T09:47:38.000Z</time>
      </trkpt>
      <trkpt lat="47.32895" lon="-2.42587">
        <ele>30.799999237061</ele>
        <time>2019-06-16T09:47:40.000Z</time>
      </trkpt>
      <trkpt lat="47.32895" lon="-2.42595">
        <ele>30.799999237061</ele>
        <time>2019-06-16T09:47:45.000Z</time>
      </trkpt>
      <trkpt lat="47.32892" lon="-2.42612">
        <ele>30.799999237061</ele>
        <time>2019-06-16T09:47:49.000Z</time>
      </trkpt>
      <trkpt lat="47.32886" lon="-2.42644">
        <ele>30.799999237061</ele>
        <time>2019-06-16T09:47:54.000Z</time>
      </trkpt>
      <trkpt lat="47.3288" lon="-2.42676">
        <ele>30.799999237061</ele>
        <time>2019-06-16T09:47:59.000Z</time>
      </trkpt>
      <trkpt lat="47.3288" lon="-2.42682">
        <ele>30.799999237061</ele>
        <time>2019-06-16T09:48:00.000Z</time>
      </trkpt>
      <trkpt lat="47.32877" lon="-2.42703">
        <ele>31.799999237061</ele>
        <time>2019-06-16T09:48:05.000Z</time>
      </trkpt>
      <trkpt lat="47.32876" lon="-2.42705">
        <ele>32.200000762939</ele>
        <time>2019-06-16T09:48:06.000Z</time>
      </trkpt>
      <trkpt lat="47.32875" lon="-2.42707">
        <ele>32.599998474121</ele>
        <time>2019-06-16T09:48:07.000Z</time>
      </trkpt>
      <trkpt lat="47.32874" lon="-2.4271">
        <ele>33</ele>
        <time>2019-06-16T09:48:08.000Z</time>
      </trkpt>
      <trkpt lat="47.32872" lon="-2.42717">
        <ele>33</ele>
        <time>2019-06-16T09:48:10.000Z</time>
      </trkpt>
      <trkpt lat="47.32867" lon="-2.4272">
        <ele>33</ele>
        <time>2019-06-16T09:48:12.000Z</time>
      </trkpt>
      <trkpt lat="47.32852" lon="-2.4272">
        <ele>33</ele>
        <time>2019-06-16T09:48:16.000Z</time>
      </trkpt>
      <trkpt lat="47.32844" lon="-2.4272">
        <ele>33</ele>
        <time>2019-06-16T09:48:18.000Z</time>
      </trkpt>
      <trkpt lat="47.32827" lon="-2.42718">
        <ele>33</ele>
        <time>2019-06-16T09:48:23.000Z</time>
      </trkpt>
      <trkpt lat="47.32812" lon="-2.42715">
        <ele>33</ele>
        <time>2019-06-16T09:48:28.000Z</time>
      </trkpt>
      <trkpt lat="47.32795" lon="-2.42704">
        <ele>33</ele>
        <time>2019-06-16T09:48:34.000Z</time>
      </trkpt>
      <trkpt lat="47.32781" lon="-2.42698">
        <ele>33</ele>
        <time>2019-06-16T09:48:37.000Z</time>
      </trkpt>
      <trkpt lat="47.3277" lon="-2.42696">
        <ele>33</ele>
        <time>2019-06-16T09:48:39.000Z</time>
      </trkpt>
      <trkpt lat="47.32756" lon="-2.42695">
        <ele>33</ele>
        <time>2019-06-16T09:48:42.000Z</time>
      </trkpt>
      <trkpt lat="47.32749" lon="-2.42694">
        <ele>33</ele>
        <time>2019-06-16T09:48:44.000Z</time>
      </trkpt>
      <trkpt lat="47.32731" lon="-2.42693">
        <ele>33</ele>
        <time>2019-06-16T09:48:49.000Z</time>
      </trkpt>
      <trkpt lat="47.32722" lon="-2.427">
        <ele>33</ele>
        <time>2019-06-16T09:48:52.000Z</time>
      </trkpt>
      <trkpt lat="47.32719" lon="-2.42702">
        <ele>33</ele>
        <time>2019-06-16T09:48:53.000Z</time>
      </trkpt>
      <trkpt lat="47.32709" lon="-2.427">
        <ele>33</ele>
        <time>2019-06-16T09:48:56.000Z</time>
      </trkpt>
      <trkpt lat="47.32691" lon="-2.42695">
        <ele>33</ele>
        <time>2019-06-16T09:49:00.000Z</time>
      </trkpt>
      <trkpt lat="47.32677" lon="-2.42703">
        <ele>33</ele>
        <time>2019-06-16T09:49:03.000Z</time>
      </trkpt>
      <trkpt lat="47.32669" lon="-2.42709">
        <ele>33</ele>
        <time>2019-06-16T09:49:05.000Z</time>
      </trkpt>
      <trkpt lat="47.3266" lon="-2.42715">
        <ele>33</ele>
        <time>2019-06-16T09:49:07.000Z</time>
      </trkpt>
      <trkpt lat="47.32641" lon="-2.42731">
        <ele>33</ele>
        <time>2019-06-16T09:49:11.000Z</time>
      </trkpt>
      <trkpt lat="47.32631" lon="-2.42739">
        <ele>32.599998474121</ele>
        <time>2019-06-16T09:49:13.000Z</time>
      </trkpt>
      <trkpt lat="47.32626" lon="-2.42742">
        <ele>32.200000762939</ele>
        <time>2019-06-16T09:49:14.000Z</time>
      </trkpt>
      <trkpt lat="47.32621" lon="-2.42745">
        <ele>31.799999237061</ele>
        <time>2019-06-16T09:49:15.000Z</time>
      </trkpt>
      <trkpt lat="47.32615" lon="-2.42747">
        <ele>31.200000762939</ele>
        <time>2019-06-16T09:49:16.000Z</time>
      </trkpt>
      <trkpt lat="47.32609" lon="-2.42748">
        <ele>30.799999237061</ele>
        <time>2019-06-16T09:49:17.000Z</time>
      </trkpt>
      <trkpt lat="47.32586" lon="-2.42754">
        <ele>30.799999237061</ele>
        <time>2019-06-16T09:49:22.000Z</time>
      </trkpt>
      <trkpt lat="47.32577" lon="-2.42758">
        <ele>30.799999237061</ele>
        <time>2019-06-16T09:49:24.000Z</time>
      </trkpt>
      <trkpt lat="47.32562" lon="-2.42766">
        <ele>30.799999237061</ele>
        <time>2019-06-16T09:49:27.000Z</time>
      </trkpt>
      <trkpt lat="47.32524" lon="-2.42789">
        <ele>30.799999237061</ele>
        <time>2019-06-16T09:49:34.000Z</time>
      </trkpt>
      <trkpt lat="47.32513" lon="-2.42796">
        <ele>30.39999961853</ele>
        <time>2019-06-16T09:49:36.000Z</time>
      </trkpt>
      <trkpt lat="47.32508" lon="-2.428">
        <ele>30</ele>
        <time>2019-06-16T09:49:37.000Z</time>
      </trkpt>
      <trkpt lat="47.32502" lon="-2.42804">
        <ele>29.60000038147</ele>
        <time>2019-06-16T09:49:38.000Z</time>
      </trkpt>
      <trkpt lat="47.32496" lon="-2.42808">
        <ele>29.200000762939</ele>
        <time>2019-06-16T09:49:39.000Z</time>
      </trkpt>
      <trkpt lat="47.32491" lon="-2.42811">
        <ele>28.799999237061</ele>
        <time>2019-06-16T09:49:40.000Z</time>
      </trkpt>
      <trkpt lat="47.32485" lon="-2.42815">
        <ele>28.799999237061</ele>
        <time>2019-06-16T09:49:41.000Z</time>
      </trkpt>
      <trkpt lat="47.32468" lon="-2.42827">
        <ele>28.39999961853</ele>
        <time>2019-06-16T09:49:44.000Z</time>
      </trkpt>
      <trkpt lat="47.32462" lon="-2.42831">
        <ele>27.799999237061</ele>
        <time>2019-06-16T09:49:45.000Z</time>
      </trkpt>
      <trkpt lat="47.32457" lon="-2.42836">
        <ele>27.39999961853</ele>
        <time>2019-06-16T09:49:46.000Z</time>
      </trkpt>
      <trkpt lat="47.32451" lon="-2.42841">
        <ele>26.799999237061</ele>
        <time>2019-06-16T09:49:47.000Z</time>
      </trkpt>
      <trkpt lat="47.32445" lon="-2.42845">
        <ele>26.200000762939</ele>
        <time>2019-06-16T09:49:48.000Z</time>
      </trkpt>
      <trkpt lat="47.32431" lon="-2.42861">
        <ele>26.200000762939</ele>
        <time>2019-06-16T09:49:51.000Z</time>
      </trkpt>
      <trkpt lat="47.32425" lon="-2.42876">
        <ele>25.799999237061</ele>
        <time>2019-06-16T09:49:53.000Z</time>
      </trkpt>
      <trkpt lat="47.32423" lon="-2.42883">
        <ele>25.39999961853</ele>
        <time>2019-06-16T09:49:54.000Z</time>
      </trkpt>
      <trkpt lat="47.32421" lon="-2.4289">
        <ele>25</ele>
        <time>2019-06-16T09:49:55.000Z</time>
      </trkpt>
      <trkpt lat="47.32418" lon="-2.42896">
        <ele>24.60000038147</ele>
        <time>2019-06-16T09:49:56.000Z</time>
      </trkpt>
      <trkpt lat="47.32413" lon="-2.429">
        <ele>24.200000762939</ele>
        <time>2019-06-16T09:49:57.000Z</time>
      </trkpt>
      <trkpt lat="47.32398" lon="-2.42899">
        <ele>24.200000762939</ele>
        <time>2019-06-16T09:50:00.000Z</time>
      </trkpt>
      <trkpt lat="47.32392" lon="-2.42899">
        <ele>24.200000762939</ele>
        <time>2019-06-16T09:50:01.000Z</time>
      </trkpt>
      <trkpt lat="47.32368" lon="-2.42899">
        <ele>24.200000762939</ele>
        <time>2019-06-16T09:50:05.000Z</time>
      </trkpt>
      <trkpt lat="47.32334" lon="-2.42899">
        <ele>24.200000762939</ele>
        <time>2019-06-16T09:50:11.000Z</time>
      </trkpt>
      <trkpt lat="47.32306" lon="-2.42891">
        <ele>24.200000762939</ele>
        <time>2019-06-16T09:50:16.000Z</time>
      </trkpt>
      <trkpt lat="47.323" lon="-2.42889">
        <ele>24.200000762939</ele>
        <time>2019-06-16T09:50:17.000Z</time>
      </trkpt>
      <trkpt lat="47.32259" lon="-2.42874">
        <ele>24.200000762939</ele>
        <time>2019-06-16T09:50:24.000Z</time>
      </trkpt>
      <trkpt lat="47.32241" lon="-2.42868">
        <ele>24.200000762939</ele>
        <time>2019-06-16T09:50:27.000Z</time>
      </trkpt>
      <trkpt lat="47.32229" lon="-2.42864">
        <ele>24.200000762939</ele>
        <time>2019-06-16T09:50:29.000Z</time>
      </trkpt>
      <trkpt lat="47.32182" lon="-2.42854">
        <ele>24.200000762939</ele>
        <time>2019-06-16T09:50:36.000Z</time>
      </trkpt>
      <trkpt lat="47.32138" lon="-2.42846">
        <ele>23.799999237061</ele>
        <time>2019-06-16T09:50:42.000Z</time>
      </trkpt>
      <trkpt lat="47.32131" lon="-2.42845">
        <ele>23.39999961853</ele>
        <time>2019-06-16T09:50:43.000Z</time>
      </trkpt>
      <trkpt lat="47.32123" lon="-2.42843">
        <ele>23</ele>
        <time>2019-06-16T09:50:44.000Z</time>
      </trkpt>
      <trkpt lat="47.32116" lon="-2.42842">
        <ele>22.60000038147</ele>
        <time>2019-06-16T09:50:45.000Z</time>
      </trkpt>
      <trkpt lat="47.32108" lon="-2.42841">
        <ele>22.200000762939</ele>
        <time>2019-06-16T09:50:46.000Z</time>
      </trkpt>
      <trkpt lat="47.321" lon="-2.4284">
        <ele>21.60000038147</ele>
        <time>2019-06-16T09:50:47.000Z</time>
      </trkpt>
      <trkpt lat="47.32093" lon="-2.42838">
        <ele>21.200000762939</ele>
        <time>2019-06-16T09:50:48.000Z</time>
      </trkpt>
      <trkpt lat="47.32085" lon="-2.42837">
        <ele>20.60000038147</ele>
        <time>2019-06-16T09:50:49.000Z</time>
      </trkpt>
      <trkpt lat="47.32077" lon="-2.42835">
        <ele>20.200000762939</ele>
        <time>2019-06-16T09:50:50.000Z</time>
      </trkpt>
      <trkpt lat="47.32029" lon="-2.42831">
        <ele>20.200000762939</ele>
        <time>2019-06-16T09:50:56.000Z</time>
      </trkpt>
      <trkpt lat="47.32021" lon="-2.4283">
        <ele>19.799999237061</ele>
        <time>2019-06-16T09:50:57.000Z</time>
      </trkpt>
      <trkpt lat="47.32013" lon="-2.4283">
        <ele>18.799999237061</ele>
        <time>2019-06-16T09:50:58.000Z</time>
      </trkpt>
      <trkpt lat="47.32005" lon="-2.42829">
        <ele>18.39999961853</ele>
        <time>2019-06-16T09:50:59.000Z</time>
      </trkpt>
      <trkpt lat="47.31997" lon="-2.42829">
        <ele>18</ele>
        <time>2019-06-16T09:51:00.000Z</time>
      </trkpt>
      <trkpt lat="47.3199" lon="-2.42829">
        <ele>18</ele>
        <time>2019-06-16T09:51:01.000Z</time>
      </trkpt>
      <trkpt lat="47.31942" lon="-2.42826">
        <ele>18</ele>
        <time>2019-06-16T09:51:08.000Z</time>
      </trkpt>
      <trkpt lat="47.31907" lon="-2.42824">
        <ele>18</ele>
        <time>2019-06-16T09:51:14.000Z</time>
      </trkpt>
      <trkpt lat="47.31862" lon="-2.42814">
        <ele>18</ele>
        <time>2019-06-16T09:51:22.000Z</time>
      </trkpt>
      <trkpt lat="47.31838" lon="-2.42806">
        <ele>17.39999961853</ele>
        <time>2019-06-16T09:51:26.000Z</time>
      </trkpt>
      <trkpt lat="47.31832" lon="-2.42804">
        <ele>17</ele>
        <time>2019-06-16T09:51:27.000Z</time>
      </trkpt>
      <trkpt lat="47.31825" lon="-2.42802">
        <ele>16.60000038147</ele>
        <time>2019-06-16T09:51:28.000Z</time>
      </trkpt>
      <trkpt lat="47.31819" lon="-2.42801">
        <ele>16.200000762939</ele>
        <time>2019-06-16T09:51:29.000Z</time>
      </trkpt>
      <trkpt lat="47.31813" lon="-2.42799">
        <ele>15.60000038147</ele>
        <time>2019-06-16T09:51:30.000Z</time>
      </trkpt>
      <trkpt lat="47.31792" lon="-2.42795">
        <ele>15.199999809265</ele>
        <time>2019-06-16T09:51:33.000Z</time>
      </trkpt>
      <trkpt lat="47.31785" lon="-2.42793">
        <ele>14.800000190735</ele>
        <time>2019-06-16T09:51:34.000Z</time>
      </trkpt>
      <trkpt lat="47.31778" lon="-2.42792">
        <ele>14.39999961853</ele>
        <time>2019-06-16T09:51:35.000Z</time>
      </trkpt>
      <trkpt lat="47.31772" lon="-2.4279">
        <ele>14</ele>
        <time>2019-06-16T09:51:36.000Z</time>
      </trkpt>
      <trkpt lat="47.31767" lon="-2.42788">
        <ele>13.60000038147</ele>
        <time>2019-06-16T09:51:37.000Z</time>
      </trkpt>
      <trkpt lat="47.31763" lon="-2.42787">
        <ele>13.60000038147</ele>
        <time>2019-06-16T09:51:38.000Z</time>
      </trkpt>
      <trkpt lat="47.31761" lon="-2.42786">
        <ele>13.199999809265</ele>
        <time>2019-06-16T09:51:39.000Z</time>
      </trkpt>
      <trkpt lat="47.31759" lon="-2.42785">
        <ele>12.800000190735</ele>
        <time>2019-06-16T09:51:40.000Z</time>
      </trkpt>
      <trkpt lat="47.31758" lon="-2.42784">
        <ele>12.39999961853</ele>
        <time>2019-06-16T09:51:41.000Z</time>
      </trkpt>
      <trkpt lat="47.31758" lon="-2.42784">
        <ele>12</ele>
        <time>2019-06-16T09:51:42.000Z</time>
      </trkpt>
      <trkpt lat="47.31758" lon="-2.42784">
        <ele>11.60000038147</ele>
        <time>2019-06-16T09:51:43.000Z</time>
      </trkpt>
      <trkpt lat="47.31758" lon="-2.42784">
        <ele>11.60000038147</ele>
        <time>2019-06-16T09:51:45.000Z</time>
      </trkpt>
      <trkpt lat="47.31758" lon="-2.42784">
        <ele>11.60000038147</ele>
        <time>2019-06-16T09:52:52.000Z</time>
      </trkpt>
      <trkpt lat="47.3176" lon="-2.42784">
        <ele>11.60000038147</ele>
        <time>2019-06-16T09:52:53.000Z</time>
      </trkpt>
      <trkpt lat="47.31772" lon="-2.42788">
        <ele>11.60000038147</ele>
        <time>2019-06-16T09:52:57.000Z</time>
      </trkpt>
      <trkpt lat="47.31789" lon="-2.42792">
        <ele>11.60000038147</ele>
        <time>2019-06-16T09:53:02.000Z</time>
      </trkpt>
      <trkpt lat="47.31808" lon="-2.42796">
        <ele>11.60000038147</ele>
        <time>2019-06-16T09:53:07.000Z</time>
      </trkpt>
      <trkpt lat="47.31812" lon="-2.42797">
        <ele>11.60000038147</ele>
        <time>2019-06-16T09:53:08.000Z</time>
      </trkpt>
      <trkpt lat="47.31832" lon="-2.42802">
        <ele>11.60000038147</ele>
        <time>2019-06-16T09:53:13.000Z</time>
      </trkpt>
      <trkpt lat="47.31836" lon="-2.42804">
        <ele>11.60000038147</ele>
        <time>2019-06-16T09:53:14.000Z</time>
      </trkpt>
      <trkpt lat="47.31848" lon="-2.42807">
        <ele>12</ele>
        <time>2019-06-16T09:53:17.000Z</time>
      </trkpt>
      <trkpt lat="47.31852" lon="-2.42809">
        <ele>12.39999961853</ele>
        <time>2019-06-16T09:53:18.000Z</time>
      </trkpt>
      <trkpt lat="47.31856" lon="-2.42811">
        <ele>13</ele>
        <time>2019-06-16T09:53:19.000Z</time>
      </trkpt>
      <trkpt lat="47.31861" lon="-2.42812">
        <ele>13.39999961853</ele>
        <time>2019-06-16T09:53:20.000Z</time>
      </trkpt>
      <trkpt lat="47.31865" lon="-2.42813">
        <ele>13.800000190735</ele>
        <time>2019-06-16T09:53:21.000Z</time>
      </trkpt>
      <trkpt lat="47.31882" lon="-2.42817">
        <ele>14.60000038147</ele>
        <time>2019-06-16T09:53:26.000Z</time>
      </trkpt>
      <trkpt lat="47.31895" lon="-2.4282">
        <ele>15.39999961853</ele>
        <time>2019-06-16T09:53:28.000Z</time>
      </trkpt>
      <trkpt lat="47.31899" lon="-2.42821">
        <ele>15.800000190735</ele>
        <time>2019-06-16T09:53:29.000Z</time>
      </trkpt>
      <trkpt lat="47.31912" lon="-2.42823">
        <ele>15.800000190735</ele>
        <time>2019-06-16T09:53:32.000Z</time>
      </trkpt>
      <trkpt lat="47.3192" lon="-2.42824">
        <ele>15.800000190735</ele>
        <time>2019-06-16T09:53:34.000Z</time>
      </trkpt>
      <trkpt lat="47.31948" lon="-2.42826">
        <ele>15.800000190735</ele>
        <time>2019-06-16T09:53:40.000Z</time>
      </trkpt>
      <trkpt lat="47.31982" lon="-2.42828">
        <ele>15.800000190735</ele>
        <time>2019-06-16T09:53:46.000Z</time>
      </trkpt>
      <trkpt lat="47.32006" lon="-2.42831">
        <ele>15.800000190735</ele>
        <time>2019-06-16T09:53:51.000Z</time>
      </trkpt>
      <trkpt lat="47.32013" lon="-2.42836">
        <ele>15.800000190735</ele>
        <time>2019-06-16T09:53:55.000Z</time>
      </trkpt>
      <trkpt lat="47.3201" lon="-2.42851">
        <ele>15.800000190735</ele>
        <time>2019-06-16T09:53:58.000Z</time>
      </trkpt>
      <trkpt lat="47.31997" lon="-2.42864">
        <ele>15.800000190735</ele>
        <time>2019-06-16T09:54:01.000Z</time>
      </trkpt>
      <trkpt lat="47.31992" lon="-2.42869">
        <ele>15.800000190735</ele>
        <time>2019-06-16T09:54:02.000Z</time>
      </trkpt>
      <trkpt lat="47.31976" lon="-2.42889">
        <ele>15.800000190735</ele>
        <time>2019-06-16T09:54:05.000Z</time>
      </trkpt>
      <trkpt lat="47.31947" lon="-2.42924">
        <ele>15.39999961853</ele>
        <time>2019-06-16T09:54:10.000Z</time>
      </trkpt>
      <trkpt lat="47.31941" lon="-2.42931">
        <ele>15</ele>
        <time>2019-06-16T09:54:11.000Z</time>
      </trkpt>
      <trkpt lat="47.31935" lon="-2.42939">
        <ele>14.60000038147</ele>
        <time>2019-06-16T09:54:12.000Z</time>
      </trkpt>
      <trkpt lat="47.31929" lon="-2.42946">
        <ele>14</ele>
        <time>2019-06-16T09:54:13.000Z</time>
      </trkpt>
      <trkpt lat="47.31923" lon="-2.42953">
        <ele>13.60000038147</ele>
        <time>2019-06-16T09:54:14.000Z</time>
      </trkpt>
      <trkpt lat="47.31911" lon="-2.42968">
        <ele>13.199999809265</ele>
        <time>2019-06-16T09:54:16.000Z</time>
      </trkpt>
      <trkpt lat="47.31905" lon="-2.42976">
        <ele>12.800000190735</ele>
        <time>2019-06-16T09:54:17.000Z</time>
      </trkpt>
      <trkpt lat="47.31899" lon="-2.42983">
        <ele>12.39999961853</ele>
        <time>2019-06-16T09:54:18.000Z</time>
      </trkpt>
      <trkpt lat="47.31893" lon="-2.42989">
        <ele>12</ele>
        <time>2019-06-16T09:54:19.000Z</time>
      </trkpt>
      <trkpt lat="47.31887" lon="-2.42995">
        <ele>11.60000038147</ele>
        <time>2019-06-16T09:54:20.000Z</time>
      </trkpt>
      <trkpt lat="47.31869" lon="-2.43008">
        <ele>11.60000038147</ele>
        <time>2019-06-16T09:54:23.000Z</time>
      </trkpt>
      <trkpt lat="47.31856" lon="-2.43014">
        <ele>11.60000038147</ele>
        <time>2019-06-16T09:54:25.000Z</time>
      </trkpt>
      <trkpt lat="47.31843" lon="-2.43017">
        <ele>11</ele>
        <time>2019-06-16T09:54:27.000Z</time>
      </trkpt>
      <trkpt lat="47.31837" lon="-2.43016">
        <ele>10.60000038147</ele>
        <time>2019-06-16T09:54:28.000Z</time>
      </trkpt>
      <trkpt lat="47.3183" lon="-2.43015">
        <ele>10.199999809265</ele>
        <time>2019-06-16T09:54:29.000Z</time>
      </trkpt>
      <trkpt lat="47.31823" lon="-2.43013">
        <ele>9.8000001907349</ele>
        <time>2019-06-16T09:54:30.000Z</time>
      </trkpt>
      <trkpt lat="47.31817" lon="-2.4301">
        <ele>9.1999998092651</ele>
        <time>2019-06-16T09:54:31.000Z</time>
      </trkpt>
      <trkpt lat="47.31805" lon="-2.43004">
        <ele>9.1999998092651</ele>
        <time>2019-06-16T09:54:33.000Z</time>
      </trkpt>
      <trkpt lat="47.31762" lon="-2.42985">
        <ele>8.8000001907349</ele>
        <time>2019-06-16T09:54:39.000Z</time>
      </trkpt>
      <trkpt lat="47.31754" lon="-2.42982">
        <ele>7.8000001907349</ele>
        <time>2019-06-16T09:54:40.000Z</time>
      </trkpt>
      <trkpt lat="47.31746" lon="-2.42978">
        <ele>7.4000000953674</ele>
        <time>2019-06-16T09:54:41.000Z</time>
      </trkpt>
      <trkpt lat="47.31737" lon="-2.42974">
        <ele>7</ele>
        <time>2019-06-16T09:54:42.000Z</time>
      </trkpt>
      <trkpt lat="47.3171" lon="-2.42963">
        <ele>7</ele>
        <time>2019-06-16T09:54:45.000Z</time>
      </trkpt>
      <trkpt lat="47.31664" lon="-2.42946">
        <ele>6.4000000953674</ele>
        <time>2019-06-16T09:54:50.000Z</time>
      </trkpt>
      <trkpt lat="47.31654" lon="-2.42943">
        <ele>6</ele>
        <time>2019-06-16T09:54:51.000Z</time>
      </trkpt>
      <trkpt lat="47.31644" lon="-2.42939">
        <ele>5.4000000953674</ele>
        <time>2019-06-16T09:54:52.000Z</time>
      </trkpt>
      <trkpt lat="47.31633" lon="-2.42935">
        <ele>5</ele>
        <time>2019-06-16T09:54:53.000Z</time>
      </trkpt>
      <trkpt lat="47.31624" lon="-2.42931">
        <ele>4.4000000953674</ele>
        <time>2019-06-16T09:54:54.000Z</time>
      </trkpt>
      <trkpt lat="47.31613" lon="-2.42927">
        <ele>4</ele>
        <time>2019-06-16T09:54:55.000Z</time>
      </trkpt>
      <trkpt lat="47.31604" lon="-2.42923">
        <ele>3.5999999046326</ele>
        <time>2019-06-16T09:54:56.000Z</time>
      </trkpt>
      <trkpt lat="47.31594" lon="-2.42919">
        <ele>3.2000000476837</ele>
        <time>2019-06-16T09:54:57.000Z</time>
      </trkpt>
      <trkpt lat="47.31585" lon="-2.42916">
        <ele>2.7999999523163</ele>
        <time>2019-06-16T09:54:58.000Z</time>
      </trkpt>
      <trkpt lat="47.31575" lon="-2.42912">
        <ele>2.4000000953674</ele>
        <time>2019-06-16T09:54:59.000Z</time>
      </trkpt>
      <trkpt lat="47.31556" lon="-2.42907">
        <ele>1.7999999523163</ele>
        <time>2019-06-16T09:55:01.000Z</time>
      </trkpt>
      <trkpt lat="47.31547" lon="-2.42906">
        <ele>1.3999999761581</ele>
        <time>2019-06-16T09:55:02.000Z</time>
      </trkpt>
      <trkpt lat="47.31537" lon="-2.42905">
        <ele>1</ele>
        <time>2019-06-16T09:55:03.000Z</time>
      </trkpt>
      <trkpt lat="47.31528" lon="-2.42906">
        <ele>0.60000002384186</ele>
        <time>2019-06-16T09:55:04.000Z</time>
      </trkpt>
      <trkpt lat="47.31519" lon="-2.42907">
        <ele>-0.60000002384186</ele>
        <time>2019-06-16T09:55:05.000Z</time>
      </trkpt>
      <trkpt lat="47.31511" lon="-2.42908">
        <ele>-1</ele>
        <time>2019-06-16T09:55:06.000Z</time>
      </trkpt>
      <trkpt lat="47.31502" lon="-2.42907">
        <ele>-1.6000000238419</ele>
        <time>2019-06-16T09:55:07.000Z</time>
      </trkpt>
      <trkpt lat="47.31494" lon="-2.42905">
        <ele>-2.2000000476837</ele>
        <time>2019-06-16T09:55:08.000Z</time>
      </trkpt>
      <trkpt lat="47.31488" lon="-2.429">
        <ele>-2.7999999523163</ele>
        <time>2019-06-16T09:55:09.000Z</time>
      </trkpt>
      <trkpt lat="47.3148" lon="-2.42893">
        <ele>-3.2000000476837</ele>
        <time>2019-06-16T09:55:11.000Z</time>
      </trkpt>
      <trkpt lat="47.31477" lon="-2.4289">
        <ele>-3.5999999046326</ele>
        <time>2019-06-16T09:55:12.000Z</time>
      </trkpt>
      <trkpt lat="47.31475" lon="-2.42888">
        <ele>-4.1999998092651</ele>
        <time>2019-06-16T09:55:13.000Z</time>
      </trkpt>
      <trkpt lat="47.31474" lon="-2.42885">
        <ele>-4.5999999046326</ele>
        <time>2019-06-16T09:55:14.000Z</time>
      </trkpt>
      <trkpt lat="47.31472" lon="-2.42884">
        <ele>-5</ele>
        <time>2019-06-16T09:55:15.000Z</time>
      </trkpt>
      <trkpt lat="47.31463" lon="-2.42869">
        <ele>-5</ele>
        <time>2019-06-16T09:55:19.000Z</time>
      </trkpt>
      <trkpt lat="47.31463" lon="-2.42845">
        <ele>-5</ele>
        <time>2019-06-16T09:55:22.000Z</time>
      </trkpt>
      <trkpt lat="47.31463" lon="-2.42835">
        <ele>-5</ele>
        <time>2019-06-16T09:55:23.000Z</time>
      </trkpt>
      <trkpt lat="47.31462" lon="-2.42826">
        <ele>-5</ele>
        <time>2019-06-16T09:55:24.000Z</time>
      </trkpt>
      <trkpt lat="47.31459" lon="-2.42797">
        <ele>-5</ele>
        <time>2019-06-16T09:55:27.000Z</time>
      </trkpt>
      <trkpt lat="47.31443" lon="-2.42741">
        <ele>-5</ele>
        <time>2019-06-16T09:55:33.000Z</time>
      </trkpt>
      <trkpt lat="47.31416" lon="-2.42693">
        <ele>-5</ele>
        <time>2019-06-16T09:55:39.000Z</time>
      </trkpt>
      <trkpt lat="47.31379" lon="-2.42634">
        <ele>-5</ele>
        <time>2019-06-16T09:55:47.000Z</time>
      </trkpt>
      <trkpt lat="47.31375" lon="-2.42626">
        <ele>-5.4000000953674</ele>
        <time>2019-06-16T09:55:48.000Z</time>
      </trkpt>
      <trkpt lat="47.31371" lon="-2.42617">
        <ele>-5.8000001907349</ele>
        <time>2019-06-16T09:55:49.000Z</time>
      </trkpt>
      <trkpt lat="47.31368" lon="-2.42608">
        <ele>-6.1999998092651</ele>
        <time>2019-06-16T09:55:50.000Z</time>
      </trkpt>
      <trkpt lat="47.31364" lon="-2.42599">
        <ele>-6.5999999046326</ele>
        <time>2019-06-16T09:55:51.000Z</time>
      </trkpt>
      <trkpt lat="47.31361" lon="-2.42589">
        <ele>-7</ele>
        <time>2019-06-16T09:55:52.000Z</time>
      </trkpt>
      <trkpt lat="47.31352" lon="-2.42529">
        <ele>-7</ele>
        <time>2019-06-16T09:55:58.000Z</time>
      </trkpt>
      <trkpt lat="47.31344" lon="-2.42472">
        <ele>-7</ele>
        <time>2019-06-16T09:56:04.000Z</time>
      </trkpt>
      <trkpt lat="47.31328" lon="-2.42431">
        <ele>-7</ele>
        <time>2019-06-16T09:56:09.000Z</time>
      </trkpt>
      <trkpt lat="47.31299" lon="-2.42384">
        <ele>-7</ele>
        <time>2019-06-16T09:56:15.000Z</time>
      </trkpt>
      <trkpt lat="47.31263" lon="-2.42334">
        <ele>-7</ele>
        <time>2019-06-16T09:56:22.000Z</time>
      </trkpt>
      <trkpt lat="47.31224" lon="-2.4229">
        <ele>-7</ele>
        <time>2019-06-16T09:56:29.000Z</time>
      </trkpt>
      <trkpt lat="47.31219" lon="-2.42282">
        <ele>-7</ele>
        <time>2019-06-16T09:56:30.000Z</time>
      </trkpt>
      <trkpt lat="47.31207" lon="-2.42257">
        <ele>-7</ele>
        <time>2019-06-16T09:56:33.000Z</time>
      </trkpt>
      <trkpt lat="47.31179" lon="-2.422">
        <ele>-7</ele>
        <time>2019-06-16T09:56:41.000Z</time>
      </trkpt>
      <trkpt lat="47.31175" lon="-2.42192">
        <ele>-7.4000000953674</ele>
        <time>2019-06-16T09:56:42.000Z</time>
      </trkpt>
      <trkpt lat="47.31171" lon="-2.42184">
        <ele>-7.8000001907349</ele>
        <time>2019-06-16T09:56:43.000Z</time>
      </trkpt>
      <trkpt lat="47.31168" lon="-2.42177">
        <ele>-8.1999998092651</ele>
        <time>2019-06-16T09:56:44.000Z</time>
      </trkpt>
      <trkpt lat="47.31165" lon="-2.42169">
        <ele>-9</ele>
        <time>2019-06-16T09:56:45.000Z</time>
      </trkpt>
      <trkpt lat="47.3115" lon="-2.42138">
        <ele>-9</ele>
        <time>2019-06-16T09:56:49.000Z</time>
      </trkpt>
      <trkpt lat="47.31127" lon="-2.42086">
        <ele>-9</ele>
        <time>2019-06-16T09:56:56.000Z</time>
      </trkpt>
      <trkpt lat="47.31105" lon="-2.42032">
        <ele>-9</ele>
        <time>2019-06-16T09:57:03.000Z</time>
      </trkpt>
      <trkpt lat="47.31092" lon="-2.41992">
        <ele>-8.6000003814697</ele>
        <time>2019-06-16T09:57:08.000Z</time>
      </trkpt>
      <trkpt lat="47.3109" lon="-2.41984">
        <ele>-8.1999998092651</ele>
        <time>2019-06-16T09:57:09.000Z</time>
      </trkpt>
      <trkpt lat="47.31088" lon="-2.41976">
        <ele>-7.1999998092651</ele>
        <time>2019-06-16T09:57:10.000Z</time>
      </trkpt>
      <trkpt lat="47.31086" lon="-2.41968">
        <ele>-6.8000001907349</ele>
        <time>2019-06-16T09:57:11.000Z</time>
      </trkpt>
      <trkpt lat="47.31081" lon="-2.41953">
        <ele>-6.8000001907349</ele>
        <time>2019-06-16T09:57:13.000Z</time>
      </trkpt>
      <trkpt lat="47.31077" lon="-2.41949">
        <ele>-7.1999998092651</ele>
        <time>2019-06-16T09:57:14.000Z</time>
      </trkpt>
      <trkpt lat="47.31072" lon="-2.41947">
        <ele>-7.5999999046326</ele>
        <time>2019-06-16T09:57:15.000Z</time>
      </trkpt>
      <trkpt lat="47.31066" lon="-2.41949">
        <ele>-8</ele>
        <time>2019-06-16T09:57:16.000Z</time>
      </trkpt>
      <trkpt lat="47.31061" lon="-2.41954">
        <ele>-8.3999996185303</ele>
        <time>2019-06-16T09:57:17.000Z</time>
      </trkpt>
      <trkpt lat="47.31057" lon="-2.4196">
        <ele>-8.8000001907349</ele>
        <time>2019-06-16T09:57:18.000Z</time>
      </trkpt>
      <trkpt lat="47.31054" lon="-2.41965">
        <ele>-8.8000001907349</ele>
        <time>2019-06-16T09:57:19.000Z</time>
      </trkpt>
      <trkpt lat="47.31036" lon="-2.41985">
        <ele>-8.8000001907349</ele>
        <time>2019-06-16T09:57:23.000Z</time>
      </trkpt>
      <trkpt lat="47.31007" lon="-2.4202">
        <ele>-8.8000001907349</ele>
        <time>2019-06-16T09:57:29.000Z</time>
      </trkpt>
      <trkpt lat="47.31003" lon="-2.42026">
        <ele>-8.8000001907349</ele>
        <time>2019-06-16T09:57:30.000Z</time>
      </trkpt>
      <trkpt lat="47.3097" lon="-2.4206">
        <ele>-8.8000001907349</ele>
        <time>2019-06-16T09:57:36.000Z</time>
      </trkpt>
      <trkpt lat="47.30932" lon="-2.42098">
        <ele>-8.8000001907349</ele>
        <time>2019-06-16T09:57:43.000Z</time>
      </trkpt>
      <trkpt lat="47.30895" lon="-2.42139">
        <ele>-8.8000001907349</ele>
        <time>2019-06-16T09:57:50.000Z</time>
      </trkpt>
      <trkpt lat="47.3088" lon="-2.4216">
        <ele>-9.3999996185303</ele>
        <time>2019-06-16T09:57:53.000Z</time>
      </trkpt>
      <trkpt lat="47.30875" lon="-2.42168">
        <ele>-9.8000001907349</ele>
        <time>2019-06-16T09:57:54.000Z</time>
      </trkpt>
      <trkpt lat="47.30871" lon="-2.42175">
        <ele>-10.199999809265</ele>
        <time>2019-06-16T09:57:55.000Z</time>
      </trkpt>
      <trkpt lat="47.30867" lon="-2.42184">
        <ele>-10.60000038147</ele>
        <time>2019-06-16T09:57:56.000Z</time>
      </trkpt>
      <trkpt lat="47.30863" lon="-2.42192">
        <ele>-11</ele>
        <time>2019-06-16T09:57:57.000Z</time>
      </trkpt>
      <trkpt lat="47.30855" lon="-2.42206">
        <ele>-11</ele>
        <time>2019-06-16T09:57:59.000Z</time>
      </trkpt>
      <trkpt lat="47.30844" lon="-2.4221">
        <ele>-11</ele>
        <time>2019-06-16T09:58:01.000Z</time>
      </trkpt>
      <trkpt lat="47.30838" lon="-2.4221">
        <ele>-11.39999961853</ele>
        <time>2019-06-16T09:58:02.000Z</time>
      </trkpt>
      <trkpt lat="47.30831" lon="-2.42208">
        <ele>-12</ele>
        <time>2019-06-16T09:58:03.000Z</time>
      </trkpt>
      <trkpt lat="47.30824" lon="-2.42206">
        <ele>-12.39999961853</ele>
        <time>2019-06-16T09:58:04.000Z</time>
      </trkpt>
      <trkpt lat="47.30818" lon="-2.42203">
        <ele>-13</ele>
        <time>2019-06-16T09:58:05.000Z</time>
      </trkpt>
      <trkpt lat="47.30812" lon="-2.42198">
        <ele>-13.39999961853</ele>
        <time>2019-06-16T09:58:06.000Z</time>
      </trkpt>
      <trkpt lat="47.30801" lon="-2.42185">
        <ele>-13.39999961853</ele>
        <time>2019-06-16T09:58:08.000Z</time>
      </trkpt>
      <trkpt lat="47.30796" lon="-2.42177">
        <ele>-13.39999961853</ele>
        <time>2019-06-16T09:58:09.000Z</time>
      </trkpt>
      <trkpt lat="47.30792" lon="-2.4217">
        <ele>-13.39999961853</ele>
        <time>2019-06-16T09:58:10.000Z</time>
      </trkpt>
      <trkpt lat="47.3078" lon="-2.42148">
        <ele>-13.39999961853</ele>
        <time>2019-06-16T09:58:13.000Z</time>
      </trkpt>
      <trkpt lat="47.30756" lon="-2.42101">
        <ele>-13.39999961853</ele>
        <time>2019-06-16T09:58:19.000Z</time>
      </trkpt>
      <trkpt lat="47.30752" lon="-2.42092">
        <ele>-13.39999961853</ele>
        <time>2019-06-16T09:58:20.000Z</time>
      </trkpt>
      <trkpt lat="47.30739" lon="-2.42071">
        <ele>-13.39999961853</ele>
        <time>2019-06-16T09:58:23.000Z</time>
      </trkpt>
      <trkpt lat="47.30724" lon="-2.42051">
        <ele>-13.39999961853</ele>
        <time>2019-06-16T09:58:26.000Z</time>
      </trkpt>
      <trkpt lat="47.30713" lon="-2.42042">
        <ele>-13.39999961853</ele>
        <time>2019-06-16T09:58:28.000Z</time>
      </trkpt>
      <trkpt lat="47.30702" lon="-2.42032">
        <ele>-13.39999961853</ele>
        <time>2019-06-16T09:58:30.000Z</time>
      </trkpt>
      <trkpt lat="47.30686" lon="-2.42015">
        <ele>-13.39999961853</ele>
        <time>2019-06-16T09:58:33.000Z</time>
      </trkpt>
      <trkpt lat="47.30655" lon="-2.4197">
        <ele>-13.39999961853</ele>
        <time>2019-06-16T09:58:40.000Z</time>
      </trkpt>
      <trkpt lat="47.30646" lon="-2.41946">
        <ele>-13.39999961853</ele>
        <time>2019-06-16T09:58:43.000Z</time>
      </trkpt>
      <trkpt lat="47.30642" lon="-2.4193">
        <ele>-13.39999961853</ele>
        <time>2019-06-16T09:58:45.000Z</time>
      </trkpt>
      <trkpt lat="47.30638" lon="-2.41914">
        <ele>-13.39999961853</ele>
        <time>2019-06-16T09:58:47.000Z</time>
      </trkpt>
      <trkpt lat="47.30628" lon="-2.41883">
        <ele>-13.39999961853</ele>
        <time>2019-06-16T09:58:51.000Z</time>
      </trkpt>
      <trkpt lat="47.30604" lon="-2.41829">
        <ele>-13.39999961853</ele>
        <time>2019-06-16T09:58:58.000Z</time>
      </trkpt>
      <trkpt lat="47.30587" lon="-2.41791">
        <ele>-13.39999961853</ele>
        <time>2019-06-16T09:59:03.000Z</time>
      </trkpt>
      <trkpt lat="47.30572" lon="-2.4175">
        <ele>-13.39999961853</ele>
        <time>2019-06-16T09:59:08.000Z</time>
      </trkpt>
      <trkpt lat="47.30564" lon="-2.41736">
        <ele>-13.39999961853</ele>
        <time>2019-06-16T09:59:10.000Z</time>
      </trkpt>
      <trkpt lat="47.30536" lon="-2.41691">
        <ele>-13.39999961853</ele>
        <time>2019-06-16T09:59:17.000Z</time>
      </trkpt>
      <trkpt lat="47.30512" lon="-2.41651">
        <ele>-13.39999961853</ele>
        <time>2019-06-16T09:59:23.000Z</time>
      </trkpt>
      <trkpt lat="47.30504" lon="-2.41617">
        <ele>-13.39999961853</ele>
        <time>2019-06-16T09:59:27.000Z</time>
      </trkpt>
      <trkpt lat="47.30498" lon="-2.41564">
        <ele>-13.39999961853</ele>
        <time>2019-06-16T09:59:33.000Z</time>
      </trkpt>
      <trkpt lat="47.30494" lon="-2.41549">
        <ele>-13.39999961853</ele>
        <time>2019-06-16T09:59:35.000Z</time>
      </trkpt>
      <trkpt lat="47.30486" lon="-2.41527">
        <ele>-13.39999961853</ele>
        <time>2019-06-16T09:59:38.000Z</time>
      </trkpt>
      <trkpt lat="47.30485" lon="-2.41519">
        <ele>-13.39999961853</ele>
        <time>2019-06-16T09:59:39.000Z</time>
      </trkpt>
      <trkpt lat="47.30486" lon="-2.41496">
        <ele>-13.39999961853</ele>
        <time>2019-06-16T09:59:42.000Z</time>
      </trkpt>
      <trkpt lat="47.30495" lon="-2.41473">
        <ele>-13.39999961853</ele>
        <time>2019-06-16T09:59:45.000Z</time>
      </trkpt>
      <trkpt lat="47.30501" lon="-2.41458">
        <ele>-13.39999961853</ele>
        <time>2019-06-16T09:59:47.000Z</time>
      </trkpt>
      <trkpt lat="47.30503" lon="-2.41449">
        <ele>-13.39999961853</ele>
        <time>2019-06-16T09:59:48.000Z</time>
      </trkpt>
      <trkpt lat="47.30505" lon="-2.4143">
        <ele>-13.39999961853</ele>
        <time>2019-06-16T09:59:50.000Z</time>
      </trkpt>
      <trkpt lat="47.30504" lon="-2.41421">
        <ele>-13.39999961853</ele>
        <time>2019-06-16T09:59:51.000Z</time>
      </trkpt>
      <trkpt lat="47.30501" lon="-2.41402">
        <ele>-13.39999961853</ele>
        <time>2019-06-16T09:59:53.000Z</time>
      </trkpt>
      <trkpt lat="47.30498" lon="-2.41394">
        <ele>-13.39999961853</ele>
        <time>2019-06-16T09:59:54.000Z</time>
      </trkpt>
      <trkpt lat="47.30493" lon="-2.41366">
        <ele>-13.39999961853</ele>
        <time>2019-06-16T09:59:57.000Z</time>
      </trkpt>
      <trkpt lat="47.30474" lon="-2.41294">
        <ele>-13.39999961853</ele>
        <time>2019-06-16T10:00:05.000Z</time>
      </trkpt>
      <trkpt lat="47.30462" lon="-2.41241">
        <ele>-13.39999961853</ele>
        <time>2019-06-16T10:00:11.000Z</time>
      </trkpt>
      <trkpt lat="47.30454" lon="-2.4119">
        <ele>-13.39999961853</ele>
        <time>2019-06-16T10:00:17.000Z</time>
      </trkpt>
      <trkpt lat="47.30446" lon="-2.41161">
        <ele>-13.39999961853</ele>
        <time>2019-06-16T10:00:21.000Z</time>
      </trkpt>
      <trkpt lat="47.30432" lon="-2.41154">
        <ele>-13.39999961853</ele>
        <time>2019-06-16T10:00:24.000Z</time>
      </trkpt>
      <trkpt lat="47.30403" lon="-2.41156">
        <ele>-13.39999961853</ele>
        <time>2019-06-16T10:00:28.000Z</time>
      </trkpt>
      <trkpt lat="47.30376" lon="-2.41153">
        <ele>-13.39999961853</ele>
        <time>2019-06-16T10:00:32.000Z</time>
      </trkpt>
      <trkpt lat="47.30369" lon="-2.4115">
        <ele>-13.39999961853</ele>
        <time>2019-06-16T10:00:33.000Z</time>
      </trkpt>
      <trkpt lat="47.30332" lon="-2.41136">
        <ele>-13.39999961853</ele>
        <time>2019-06-16T10:00:39.000Z</time>
      </trkpt>
      <trkpt lat="47.30313" lon="-2.4113">
        <ele>-13.39999961853</ele>
        <time>2019-06-16T10:00:43.000Z</time>
      </trkpt>
      <trkpt lat="47.30309" lon="-2.41129">
        <ele>-13.39999961853</ele>
        <time>2019-06-16T10:00:44.000Z</time>
      </trkpt>
      <trkpt lat="47.30297" lon="-2.41137">
        <ele>-13.39999961853</ele>
        <time>2019-06-16T10:00:47.000Z</time>
      </trkpt>
      <trkpt lat="47.3029" lon="-2.41146">
        <ele>-13.39999961853</ele>
        <time>2019-06-16T10:00:49.000Z</time>
      </trkpt>
      <trkpt lat="47.30281" lon="-2.41163">
        <ele>-13.39999961853</ele>
        <time>2019-06-16T10:00:52.000Z</time>
      </trkpt>
      <trkpt lat="47.30278" lon="-2.41168">
        <ele>-13.39999961853</ele>
        <time>2019-06-16T10:00:53.000Z</time>
      </trkpt>
      <trkpt lat="47.30268" lon="-2.4119">
        <ele>-13.39999961853</ele>
        <time>2019-06-16T10:00:57.000Z</time>
      </trkpt>
      <trkpt lat="47.3026" lon="-2.41208">
        <ele>-13</ele>
        <time>2019-06-16T10:01:00.000Z</time>
      </trkpt>
      <trkpt lat="47.30257" lon="-2.41214">
        <ele>-12.60000038147</ele>
        <time>2019-06-16T10:01:01.000Z</time>
      </trkpt>
      <trkpt lat="47.30254" lon="-2.41221">
        <ele>-12.199999809265</ele>
        <time>2019-06-16T10:01:02.000Z</time>
      </trkpt>
      <trkpt lat="47.30251" lon="-2.41228">
        <ele>-11.60000038147</ele>
        <time>2019-06-16T10:01:03.000Z</time>
      </trkpt>
      <trkpt lat="47.30248" lon="-2.41234">
        <ele>-11.199999809265</ele>
        <time>2019-06-16T10:01:04.000Z</time>
      </trkpt>
      <trkpt lat="47.30244" lon="-2.4124">
        <ele>-11.199999809265</ele>
        <time>2019-06-16T10:01:05.000Z</time>
      </trkpt>
      <trkpt lat="47.30224" lon="-2.41266">
        <ele>-11.199999809265</ele>
        <time>2019-06-16T10:01:10.000Z</time>
      </trkpt>
      <trkpt lat="47.30212" lon="-2.41282">
        <ele>-11.199999809265</ele>
        <time>2019-06-16T10:01:13.000Z</time>
      </trkpt>
      <trkpt lat="47.30188" lon="-2.41322">
        <ele>-11.199999809265</ele>
        <time>2019-06-16T10:01:20.000Z</time>
      </trkpt>
      <trkpt lat="47.30169" lon="-2.41368">
        <ele>-11.199999809265</ele>
        <time>2019-06-16T10:01:27.000Z</time>
      </trkpt>
      <trkpt lat="47.30146" lon="-2.41419">
        <ele>-11.199999809265</ele>
        <time>2019-06-16T10:01:35.000Z</time>
      </trkpt>
      <trkpt lat="47.30134" lon="-2.41444">
        <ele>-11.199999809265</ele>
        <time>2019-06-16T10:01:39.000Z</time>
      </trkpt>
      <trkpt lat="47.30125" lon="-2.41451">
        <ele>-11.199999809265</ele>
        <time>2019-06-16T10:01:41.000Z</time>
      </trkpt>
      <trkpt lat="47.30115" lon="-2.41457">
        <ele>-11.199999809265</ele>
        <time>2019-06-16T10:01:43.000Z</time>
      </trkpt>
      <trkpt lat="47.30096" lon="-2.41467">
        <ele>-11.199999809265</ele>
        <time>2019-06-16T10:01:47.000Z</time>
      </trkpt>
      <trkpt lat="47.30064" lon="-2.41486">
        <ele>-11.199999809265</ele>
        <time>2019-06-16T10:01:54.000Z</time>
      </trkpt>
      <trkpt lat="47.30055" lon="-2.41493">
        <ele>-11.199999809265</ele>
        <time>2019-06-16T10:01:56.000Z</time>
      </trkpt>
      <trkpt lat="47.30037" lon="-2.41504">
        <ele>-11.199999809265</ele>
        <time>2019-06-16T10:02:00.000Z</time>
      </trkpt>
      <trkpt lat="47.30006" lon="-2.41517">
        <ele>-11.199999809265</ele>
        <time>2019-06-16T10:02:06.000Z</time>
      </trkpt>
      <trkpt lat="47.29974" lon="-2.41523">
        <ele>-11.199999809265</ele>
        <time>2019-06-16T10:02:12.000Z</time>
      </trkpt>
      <trkpt lat="47.29939" lon="-2.41526">
        <ele>-11.199999809265</ele>
        <time>2019-06-16T10:02:19.000Z</time>
      </trkpt>
      <trkpt lat="47.29935" lon="-2.41528">
        <ele>-11.199999809265</ele>
        <time>2019-06-16T10:02:20.000Z</time>
      </trkpt>
      <trkpt lat="47.29927" lon="-2.4154">
        <ele>-11.199999809265</ele>
        <time>2019-06-16T10:02:23.000Z</time>
      </trkpt>
      <trkpt lat="47.29923" lon="-2.41552">
        <ele>-11.199999809265</ele>
        <time>2019-06-16T10:02:25.000Z</time>
      </trkpt>
      <trkpt lat="47.29922" lon="-2.41558">
        <ele>-11.199999809265</ele>
        <time>2019-06-16T10:02:26.000Z</time>
      </trkpt>
      <trkpt lat="47.29923" lon="-2.4157">
        <ele>-11.199999809265</ele>
        <time>2019-06-16T10:02:28.000Z</time>
      </trkpt>
      <trkpt lat="47.29927" lon="-2.41601">
        <ele>-11.60000038147</ele>
        <time>2019-06-16T10:02:33.000Z</time>
      </trkpt>
      <trkpt lat="47.29927" lon="-2.41608">
        <ele>-12</ele>
        <time>2019-06-16T10:02:34.000Z</time>
      </trkpt>
      <trkpt lat="47.29928" lon="-2.41615">
        <ele>-12.39999961853</ele>
        <time>2019-06-16T10:02:35.000Z</time>
      </trkpt>
      <trkpt lat="47.29927" lon="-2.41622">
        <ele>-12.800000190735</ele>
        <time>2019-06-16T10:02:36.000Z</time>
      </trkpt>
      <trkpt lat="47.29927" lon="-2.41629">
        <ele>-13.199999809265</ele>
        <time>2019-06-16T10:02:37.000Z</time>
      </trkpt>
      <trkpt lat="47.29926" lon="-2.41643">
        <ele>-13.199999809265</ele>
        <time>2019-06-16T10:02:39.000Z</time>
      </trkpt>
      <trkpt lat="47.29927" lon="-2.4165">
        <ele>-13.199999809265</ele>
        <time>2019-06-16T10:02:40.000Z</time>
      </trkpt>
      <trkpt lat="47.29932" lon="-2.41678">
        <ele>-13.199999809265</ele>
        <time>2019-06-16T10:02:44.000Z</time>
      </trkpt>
      <trkpt lat="47.29938" lon="-2.41712">
        <ele>-13.199999809265</ele>
        <time>2019-06-16T10:02:49.000Z</time>
      </trkpt>
      <trkpt lat="47.29937" lon="-2.41718">
        <ele>-13.199999809265</ele>
        <time>2019-06-16T10:02:50.000Z</time>
      </trkpt>
      <trkpt lat="47.29929" lon="-2.41732">
        <ele>-13.199999809265</ele>
        <time>2019-06-16T10:02:53.000Z</time>
      </trkpt>
      <trkpt lat="47.29921" lon="-2.41739">
        <ele>-13.199999809265</ele>
        <time>2019-06-16T10:02:55.000Z</time>
      </trkpt>
      <trkpt lat="47.29908" lon="-2.41752">
        <ele>-13.199999809265</ele>
        <time>2019-06-16T10:02:58.000Z</time>
      </trkpt>
      <trkpt lat="47.2989" lon="-2.41766">
        <ele>-13.199999809265</ele>
        <time>2019-06-16T10:03:02.000Z</time>
      </trkpt>
      <trkpt lat="47.2988" lon="-2.41767">
        <ele>-13.199999809265</ele>
        <time>2019-06-16T10:03:04.000Z</time>
      </trkpt>
      <trkpt lat="47.29871" lon="-2.41762">
        <ele>-13.199999809265</ele>
        <time>2019-06-16T10:03:06.000Z</time>
      </trkpt>
      <trkpt lat="47.2986" lon="-2.41758">
        <ele>-13.199999809265</ele>
        <time>2019-06-16T10:03:08.000Z</time>
      </trkpt>
      <trkpt lat="47.29853" lon="-2.41758">
        <ele>-13.199999809265</ele>
        <time>2019-06-16T10:03:09.000Z</time>
      </trkpt>
      <trkpt lat="47.29843" lon="-2.41765">
        <ele>-13.199999809265</ele>
        <time>2019-06-16T10:03:11.000Z</time>
      </trkpt>
      <trkpt lat="47.29827" lon="-2.41789">
        <ele>-13.199999809265</ele>
        <time>2019-06-16T10:03:15.000Z</time>
      </trkpt>
      <trkpt lat="47.29818" lon="-2.41799">
        <ele>-13.199999809265</ele>
        <time>2019-06-16T10:03:17.000Z</time>
      </trkpt>
      <trkpt lat="47.29804" lon="-2.41813">
        <ele>-13.199999809265</ele>
        <time>2019-06-16T10:03:20.000Z</time>
      </trkpt>
      <trkpt lat="47.29781" lon="-2.4183">
        <ele>-13.199999809265</ele>
        <time>2019-06-16T10:03:26.000Z</time>
      </trkpt>
      <trkpt lat="47.29773" lon="-2.41832">
        <ele>-13.199999809265</ele>
        <time>2019-06-16T10:03:29.000Z</time>
      </trkpt>
      <trkpt lat="47.29771" lon="-2.41829">
        <ele>-13.199999809265</ele>
        <time>2019-06-16T10:03:30.000Z</time>
      </trkpt>
      <trkpt lat="47.29769" lon="-2.41811">
        <ele>-13.199999809265</ele>
        <time>2019-06-16T10:03:34.000Z</time>
      </trkpt>
      <trkpt lat="47.2977" lon="-2.41806">
        <ele>-13.199999809265</ele>
        <time>2019-06-16T10:03:35.000Z</time>
      </trkpt>
      <trkpt lat="47.29769" lon="-2.41782">
        <ele>-13.199999809265</ele>
        <time>2019-06-16T10:03:40.000Z</time>
      </trkpt>
      <trkpt lat="47.29769" lon="-2.41758">
        <ele>-13.199999809265</ele>
        <time>2019-06-16T10:03:45.000Z</time>
      </trkpt>
      <trkpt lat="47.29764" lon="-2.4175">
        <ele>-13.199999809265</ele>
        <time>2019-06-16T10:03:47.000Z</time>
      </trkpt>
      <trkpt lat="47.29761" lon="-2.41748">
        <ele>-13.199999809265</ele>
        <time>2019-06-16T10:03:48.000Z</time>
      </trkpt>
      <trkpt lat="47.29753" lon="-2.4175">
        <ele>-13.199999809265</ele>
        <time>2019-06-16T10:03:51.000Z</time>
      </trkpt>
      <trkpt lat="47.29753" lon="-2.4175">
        <ele>-13.199999809265</ele>
        <time>2019-06-16T10:03:53.000Z</time>
      </trkpt>
      <trkpt lat="47.29751" lon="-2.41751">
        <ele>-13.199999809265</ele>
        <time>2019-06-16T10:04:26.000Z</time>
      </trkpt>
      <trkpt lat="47.29741" lon="-2.41757">
        <ele>-13.199999809265</ele>
        <time>2019-06-16T10:04:31.000Z</time>
      </trkpt>
      <trkpt lat="47.29729" lon="-2.41769">
        <ele>-13.199999809265</ele>
        <time>2019-06-16T10:04:36.000Z</time>
      </trkpt>
      <trkpt lat="47.29712" lon="-2.41796">
        <ele>-13.199999809265</ele>
        <time>2019-06-16T10:04:42.000Z</time>
      </trkpt>
      <trkpt lat="47.29699" lon="-2.41816">
        <ele>-13.199999809265</ele>
        <time>2019-06-16T10:04:46.000Z</time>
      </trkpt>
      <trkpt lat="47.29691" lon="-2.41822">
        <ele>-13.199999809265</ele>
        <time>2019-06-16T10:04:48.000Z</time>
      </trkpt>
      <trkpt lat="47.29677" lon="-2.41823">
        <ele>-13.199999809265</ele>
        <time>2019-06-16T10:04:51.000Z</time>
      </trkpt>
      <trkpt lat="47.29672" lon="-2.41823">
        <ele>-13.199999809265</ele>
        <time>2019-06-16T10:04:52.000Z</time>
      </trkpt>
      <trkpt lat="47.29668" lon="-2.41825">
        <ele>-13.199999809265</ele>
        <time>2019-06-16T10:04:53.000Z</time>
      </trkpt>
      <trkpt lat="47.2965" lon="-2.41829">
        <ele>-13.199999809265</ele>
        <time>2019-06-16T10:04:57.000Z</time>
      </trkpt>
      <trkpt lat="47.29637" lon="-2.41811">
        <ele>-13.199999809265</ele>
        <time>2019-06-16T10:05:01.000Z</time>
      </trkpt>
      <trkpt lat="47.29635" lon="-2.41782">
        <ele>-13.199999809265</ele>
        <time>2019-06-16T10:05:05.000Z</time>
      </trkpt>
      <trkpt lat="47.29626" lon="-2.41761">
        <ele>-13.199999809265</ele>
        <time>2019-06-16T10:05:08.000Z</time>
      </trkpt>
      <trkpt lat="47.29613" lon="-2.41745">
        <ele>-13.199999809265</ele>
        <time>2019-06-16T10:05:11.000Z</time>
      </trkpt>
      <trkpt lat="47.29604" lon="-2.41735">
        <ele>-13.199999809265</ele>
        <time>2019-06-16T10:05:13.000Z</time>
      </trkpt>
      <trkpt lat="47.29595" lon="-2.41726">
        <ele>-13.199999809265</ele>
        <time>2019-06-16T10:05:15.000Z</time>
      </trkpt>
      <trkpt lat="47.2958" lon="-2.41715">
        <ele>-13.199999809265</ele>
        <time>2019-06-16T10:05:18.000Z</time>
      </trkpt>
      <trkpt lat="47.29575" lon="-2.41712">
        <ele>-13.199999809265</ele>
        <time>2019-06-16T10:05:19.000Z</time>
      </trkpt>
      <trkpt lat="47.29559" lon="-2.41706">
        <ele>-13.199999809265</ele>
        <time>2019-06-16T10:05:22.000Z</time>
      </trkpt>
      <trkpt lat="47.29548" lon="-2.4169">
        <ele>-13.199999809265</ele>
        <time>2019-06-16T10:05:25.000Z</time>
      </trkpt>
      <trkpt lat="47.29546" lon="-2.41684">
        <ele>-13.199999809265</ele>
        <time>2019-06-16T10:05:26.000Z</time>
      </trkpt>
      <trkpt lat="47.29543" lon="-2.41677">
        <ele>-13.199999809265</ele>
        <time>2019-06-16T10:05:27.000Z</time>
      </trkpt>
      <trkpt lat="47.29532" lon="-2.41648">
        <ele>-13.199999809265</ele>
        <time>2019-06-16T10:05:31.000Z</time>
      </trkpt>
      <trkpt lat="47.29529" lon="-2.41632">
        <ele>-13.199999809265</ele>
        <time>2019-06-16T10:05:33.000Z</time>
      </trkpt>
      <trkpt lat="47.29525" lon="-2.41605">
        <ele>-13.199999809265</ele>
        <time>2019-06-16T10:05:36.000Z</time>
      </trkpt>
      <trkpt lat="47.29525" lon="-2.41595">
        <ele>-13.199999809265</ele>
        <time>2019-06-16T10:05:37.000Z</time>
      </trkpt>
      <trkpt lat="47.29531" lon="-2.41568">
        <ele>-13.199999809265</ele>
        <time>2019-06-16T10:05:40.000Z</time>
      </trkpt>
      <trkpt lat="47.29533" lon="-2.41559">
        <ele>-13.199999809265</ele>
        <time>2019-06-16T10:05:41.000Z</time>
      </trkpt>
      <trkpt lat="47.29541" lon="-2.41535">
        <ele>-13.199999809265</ele>
        <time>2019-06-16T10:05:44.000Z</time>
      </trkpt>
      <trkpt lat="47.2954" lon="-2.41526">
        <ele>-13.199999809265</ele>
        <time>2019-06-16T10:05:45.000Z</time>
      </trkpt>
      <trkpt lat="47.29534" lon="-2.41495">
        <ele>-13.199999809265</ele>
        <time>2019-06-16T10:05:49.000Z</time>
      </trkpt>
      <trkpt lat="47.29532" lon="-2.41488">
        <ele>-13.199999809265</ele>
        <time>2019-06-16T10:05:50.000Z</time>
      </trkpt>
      <trkpt lat="47.29526" lon="-2.41476">
        <ele>-13.199999809265</ele>
        <time>2019-06-16T10:05:52.000Z</time>
      </trkpt>
      <trkpt lat="47.29519" lon="-2.41474">
        <ele>-13.199999809265</ele>
        <time>2019-06-16T10:05:53.000Z</time>
      </trkpt>
      <trkpt lat="47.29498" lon="-2.41479">
        <ele>-13.199999809265</ele>
        <time>2019-06-16T10:05:56.000Z</time>
      </trkpt>
      <trkpt lat="47.29476" lon="-2.41484">
        <ele>-13.199999809265</ele>
        <time>2019-06-16T10:06:00.000Z</time>
      </trkpt>
      <trkpt lat="47.2947" lon="-2.41482">
        <ele>-13.199999809265</ele>
        <time>2019-06-16T10:06:01.000Z</time>
      </trkpt>
      <trkpt lat="47.29463" lon="-2.41483">
        <ele>-13.199999809265</ele>
        <time>2019-06-16T10:06:02.000Z</time>
      </trkpt>
      <trkpt lat="47.2945" lon="-2.41487">
        <ele>-13.199999809265</ele>
        <time>2019-06-16T10:06:04.000Z</time>
      </trkpt>
      <trkpt lat="47.29438" lon="-2.41486">
        <ele>-13.199999809265</ele>
        <time>2019-06-16T10:06:06.000Z</time>
      </trkpt>
      <trkpt lat="47.29426" lon="-2.41479">
        <ele>-13.199999809265</ele>
        <time>2019-06-16T10:06:08.000Z</time>
      </trkpt>
      <trkpt lat="47.29417" lon="-2.41469">
        <ele>-13.199999809265</ele>
        <time>2019-06-16T10:06:10.000Z</time>
      </trkpt>
      <trkpt lat="47.29404" lon="-2.41452">
        <ele>-13.199999809265</ele>
        <time>2019-06-16T10:06:13.000Z</time>
      </trkpt>
      <trkpt lat="47.294" lon="-2.41446">
        <ele>-13.199999809265</ele>
        <time>2019-06-16T10:06:14.000Z</time>
      </trkpt>
      <trkpt lat="47.29388" lon="-2.41417">
        <ele>-13.199999809265</ele>
        <time>2019-06-16T10:06:18.000Z</time>
      </trkpt>
      <trkpt lat="47.29371" lon="-2.41377">
        <ele>-13.199999809265</ele>
        <time>2019-06-16T10:06:24.000Z</time>
      </trkpt>
      <trkpt lat="47.29367" lon="-2.41371">
        <ele>-13.199999809265</ele>
        <time>2019-06-16T10:06:25.000Z</time>
      </trkpt>
      <trkpt lat="47.29351" lon="-2.41349">
        <ele>-13.199999809265</ele>
        <time>2019-06-16T10:06:29.000Z</time>
      </trkpt>
      <trkpt lat="47.29349" lon="-2.41328">
        <ele>-13.60000038147</ele>
        <time>2019-06-16T10:06:32.000Z</time>
      </trkpt>
      <trkpt lat="47.29352" lon="-2.41321">
        <ele>-14</ele>
        <time>2019-06-16T10:06:33.000Z</time>
      </trkpt>
      <trkpt lat="47.29355" lon="-2.41315">
        <ele>-14.39999961853</ele>
        <time>2019-06-16T10:06:34.000Z</time>
      </trkpt>
      <trkpt lat="47.29358" lon="-2.41308">
        <ele>-14.800000190735</ele>
        <time>2019-06-16T10:06:35.000Z</time>
      </trkpt>
      <trkpt lat="47.29361" lon="-2.41299">
        <ele>-15.199999809265</ele>
        <time>2019-06-16T10:06:36.000Z</time>
      </trkpt>
      <trkpt lat="47.29361" lon="-2.41283">
        <ele>-15.199999809265</ele>
        <time>2019-06-16T10:06:38.000Z</time>
      </trkpt>
      <trkpt lat="47.29359" lon="-2.41266">
        <ele>-15.199999809265</ele>
        <time>2019-06-16T10:06:40.000Z</time>
      </trkpt>
      <trkpt lat="47.29356" lon="-2.41249">
        <ele>-15.199999809265</ele>
        <time>2019-06-16T10:06:42.000Z</time>
      </trkpt>
      <trkpt lat="47.29354" lon="-2.41241">
        <ele>-15.199999809265</ele>
        <time>2019-06-16T10:06:43.000Z</time>
      </trkpt>
      <trkpt lat="47.29345" lon="-2.41229">
        <ele>-15.199999809265</ele>
        <time>2019-06-16T10:06:45.000Z</time>
      </trkpt>
      <trkpt lat="47.29311" lon="-2.41193">
        <ele>-15.199999809265</ele>
        <time>2019-06-16T10:06:51.000Z</time>
      </trkpt>
      <trkpt lat="47.29302" lon="-2.41181">
        <ele>-15.199999809265</ele>
        <time>2019-06-16T10:06:53.000Z</time>
      </trkpt>
      <trkpt lat="47.29296" lon="-2.41167">
        <ele>-15.199999809265</ele>
        <time>2019-06-16T10:06:55.000Z</time>
      </trkpt>
      <trkpt lat="47.29291" lon="-2.41152">
        <ele>-15.199999809265</ele>
        <time>2019-06-16T10:06:57.000Z</time>
      </trkpt>
      <trkpt lat="47.29278" lon="-2.41131">
        <ele>-15.199999809265</ele>
        <time>2019-06-16T10:07:00.000Z</time>
      </trkpt>
      <trkpt lat="47.29254" lon="-2.41101">
        <ele>-15.199999809265</ele>
        <time>2019-06-16T10:07:05.000Z</time>
      </trkpt>
      <trkpt lat="47.2925" lon="-2.41095">
        <ele>-15.199999809265</ele>
        <time>2019-06-16T10:07:06.000Z</time>
      </trkpt>
      <trkpt lat="47.29246" lon="-2.41071">
        <ele>-15.199999809265</ele>
        <time>2019-06-16T10:07:09.000Z</time>
      </trkpt>
      <trkpt lat="47.29254" lon="-2.41057">
        <ele>-15.199999809265</ele>
        <time>2019-06-16T10:07:11.000Z</time>
      </trkpt>
      <trkpt lat="47.29255" lon="-2.41047">
        <ele>-15.199999809265</ele>
        <time>2019-06-16T10:07:12.000Z</time>
      </trkpt>
      <trkpt lat="47.29252" lon="-2.41031">
        <ele>-15.199999809265</ele>
        <time>2019-06-16T10:07:14.000Z</time>
      </trkpt>
      <trkpt lat="47.29238" lon="-2.41014">
        <ele>-15.199999809265</ele>
        <time>2019-06-16T10:07:17.000Z</time>
      </trkpt>
      <trkpt lat="47.29231" lon="-2.40999">
        <ele>-15.199999809265</ele>
        <time>2019-06-16T10:07:19.000Z</time>
      </trkpt>
      <trkpt lat="47.29221" lon="-2.40976">
        <ele>-15.199999809265</ele>
        <time>2019-06-16T10:07:22.000Z</time>
      </trkpt>
      <trkpt lat="47.29211" lon="-2.40954">
        <ele>-15.199999809265</ele>
        <time>2019-06-16T10:07:25.000Z</time>
      </trkpt>
      <trkpt lat="47.29206" lon="-2.4095">
        <ele>-15.199999809265</ele>
        <time>2019-06-16T10:07:26.000Z</time>
      </trkpt>
      <trkpt lat="47.29182" lon="-2.40942">
        <ele>-15.199999809265</ele>
        <time>2019-06-16T10:07:30.000Z</time>
      </trkpt>
      <trkpt lat="47.2917" lon="-2.40938">
        <ele>-15.199999809265</ele>
        <time>2019-06-16T10:07:32.000Z</time>
      </trkpt>
      <trkpt lat="47.29162" lon="-2.40923">
        <ele>-15.199999809265</ele>
        <time>2019-06-16T10:07:34.000Z</time>
      </trkpt>
      <trkpt lat="47.29163" lon="-2.40897">
        <ele>-15.199999809265</ele>
        <time>2019-06-16T10:07:37.000Z</time>
      </trkpt>
      <trkpt lat="47.2917" lon="-2.40871">
        <ele>-15.199999809265</ele>
        <time>2019-06-16T10:07:40.000Z</time>
      </trkpt>
      <trkpt lat="47.29174" lon="-2.40853">
        <ele>-15.199999809265</ele>
        <time>2019-06-16T10:07:42.000Z</time>
      </trkpt>
      <trkpt lat="47.29173" lon="-2.40815">
        <ele>-15.199999809265</ele>
        <time>2019-06-16T10:07:46.000Z</time>
      </trkpt>
      <trkpt lat="47.29183" lon="-2.4078">
        <ele>-15.199999809265</ele>
        <time>2019-06-16T10:07:50.000Z</time>
      </trkpt>
      <trkpt lat="47.29186" lon="-2.40772">
        <ele>-15.199999809265</ele>
        <time>2019-06-16T10:07:51.000Z</time>
      </trkpt>
      <trkpt lat="47.29196" lon="-2.40746">
        <ele>-15.199999809265</ele>
        <time>2019-06-16T10:07:54.000Z</time>
      </trkpt>
      <trkpt lat="47.29201" lon="-2.40739">
        <ele>-15.199999809265</ele>
        <time>2019-06-16T10:07:55.000Z</time>
      </trkpt>
      <trkpt lat="47.29216" lon="-2.40719">
        <ele>-15.199999809265</ele>
        <time>2019-06-16T10:07:58.000Z</time>
      </trkpt>
      <trkpt lat="47.29224" lon="-2.40704">
        <ele>-15.199999809265</ele>
        <time>2019-06-16T10:08:00.000Z</time>
      </trkpt>
      <trkpt lat="47.29231" lon="-2.40687">
        <ele>-15.199999809265</ele>
        <time>2019-06-16T10:08:02.000Z</time>
      </trkpt>
      <trkpt lat="47.29233" lon="-2.40667">
        <ele>-15.199999809265</ele>
        <time>2019-06-16T10:08:04.000Z</time>
      </trkpt>
      <trkpt lat="47.29231" lon="-2.40638">
        <ele>-15.199999809265</ele>
        <time>2019-06-16T10:08:07.000Z</time>
      </trkpt>
      <trkpt lat="47.29228" lon="-2.40629">
        <ele>-15.199999809265</ele>
        <time>2019-06-16T10:08:08.000Z</time>
      </trkpt>
      <trkpt lat="47.29211" lon="-2.4061">
        <ele>-15.199999809265</ele>
        <time>2019-06-16T10:08:11.000Z</time>
      </trkpt>
      <trkpt lat="47.29191" lon="-2.40614">
        <ele>-15.199999809265</ele>
        <time>2019-06-16T10:08:14.000Z</time>
      </trkpt>
      <trkpt lat="47.29181" lon="-2.40624">
        <ele>-15.199999809265</ele>
        <time>2019-06-16T10:08:16.000Z</time>
      </trkpt>
      <trkpt lat="47.29176" lon="-2.40627">
        <ele>-14.800000190735</ele>
        <time>2019-06-16T10:08:17.000Z</time>
      </trkpt>
      <trkpt lat="47.29171" lon="-2.40631">
        <ele>-14.39999961853</ele>
        <time>2019-06-16T10:08:18.000Z</time>
      </trkpt>
      <trkpt lat="47.29166" lon="-2.40635">
        <ele>-14</ele>
        <time>2019-06-16T10:08:19.000Z</time>
      </trkpt>
      <trkpt lat="47.29161" lon="-2.40638">
        <ele>-13.39999961853</ele>
        <time>2019-06-16T10:08:20.000Z</time>
      </trkpt>
      <trkpt lat="47.29156" lon="-2.40642">
        <ele>-13</ele>
        <time>2019-06-16T10:08:21.000Z</time>
      </trkpt>
      <trkpt lat="47.2915" lon="-2.40643">
        <ele>-13</ele>
        <time>2019-06-16T10:08:22.000Z</time>
      </trkpt>
      <trkpt lat="47.29146" lon="-2.4064">
        <ele>-13</ele>
        <time>2019-06-16T10:08:23.000Z</time>
      </trkpt>
      <trkpt lat="47.29142" lon="-2.40627">
        <ele>-13</ele>
        <time>2019-06-16T10:08:25.000Z</time>
      </trkpt>
      <trkpt lat="47.29142" lon="-2.40613">
        <ele>-13.39999961853</ele>
        <time>2019-06-16T10:08:27.000Z</time>
      </trkpt>
      <trkpt lat="47.29141" lon="-2.40605">
        <ele>-14</ele>
        <time>2019-06-16T10:08:28.000Z</time>
      </trkpt>
      <trkpt lat="47.29139" lon="-2.40598">
        <ele>-14.39999961853</ele>
        <time>2019-06-16T10:08:29.000Z</time>
      </trkpt>
      <trkpt lat="47.29137" lon="-2.40592">
        <ele>-14.800000190735</ele>
        <time>2019-06-16T10:08:30.000Z</time>
      </trkpt>
      <trkpt lat="47.29134" lon="-2.40585">
        <ele>-15.199999809265</ele>
        <time>2019-06-16T10:08:31.000Z</time>
      </trkpt>
      <trkpt lat="47.29127" lon="-2.40573">
        <ele>-15.199999809265</ele>
        <time>2019-06-16T10:08:33.000Z</time>
      </trkpt>
      <trkpt lat="47.29122" lon="-2.40567">
        <ele>-15.199999809265</ele>
        <time>2019-06-16T10:08:34.000Z</time>
      </trkpt>
      <trkpt lat="47.29118" lon="-2.40562">
        <ele>-15.199999809265</ele>
        <time>2019-06-16T10:08:35.000Z</time>
      </trkpt>
      <trkpt lat="47.29101" lon="-2.40543">
        <ele>-15.199999809265</ele>
        <time>2019-06-16T10:08:39.000Z</time>
      </trkpt>
      <trkpt lat="47.291" lon="-2.40519">
        <ele>-15.199999809265</ele>
        <time>2019-06-16T10:08:42.000Z</time>
      </trkpt>
      <trkpt lat="47.29112" lon="-2.40502">
        <ele>-15.199999809265</ele>
        <time>2019-06-16T10:08:45.000Z</time>
      </trkpt>
      <trkpt lat="47.29128" lon="-2.40492">
        <ele>-15.199999809265</ele>
        <time>2019-06-16T10:08:48.000Z</time>
      </trkpt>
      <trkpt lat="47.29134" lon="-2.40489">
        <ele>-15.199999809265</ele>
        <time>2019-06-16T10:08:49.000Z</time>
      </trkpt>
      <trkpt lat="47.29146" lon="-2.40486">
        <ele>-15.199999809265</ele>
        <time>2019-06-16T10:08:51.000Z</time>
      </trkpt>
      <trkpt lat="47.29159" lon="-2.40491">
        <ele>-15.199999809265</ele>
        <time>2019-06-16T10:08:53.000Z</time>
      </trkpt>
      <trkpt lat="47.29173" lon="-2.40514">
        <ele>-15.199999809265</ele>
        <time>2019-06-16T10:08:56.000Z</time>
      </trkpt>
      <trkpt lat="47.29176" lon="-2.4052">
        <ele>-15.199999809265</ele>
        <time>2019-06-16T10:08:57.000Z</time>
      </trkpt>
      <trkpt lat="47.29181" lon="-2.40524">
        <ele>-15.199999809265</ele>
        <time>2019-06-16T10:08:58.000Z</time>
      </trkpt>
      <trkpt lat="47.29187" lon="-2.40521">
        <ele>-15.199999809265</ele>
        <time>2019-06-16T10:08:59.000Z</time>
      </trkpt>
      <trkpt lat="47.29209" lon="-2.40509">
        <ele>-15.199999809265</ele>
        <time>2019-06-16T10:09:03.000Z</time>
      </trkpt>
      <trkpt lat="47.29246" lon="-2.40485">
        <ele>-15.199999809265</ele>
        <time>2019-06-16T10:09:09.000Z</time>
      </trkpt>
      <trkpt lat="47.29277" lon="-2.40471">
        <ele>-15.199999809265</ele>
        <time>2019-06-16T10:09:14.000Z</time>
      </trkpt>
      <trkpt lat="47.29289" lon="-2.40463">
        <ele>-15.199999809265</ele>
        <time>2019-06-16T10:09:16.000Z</time>
      </trkpt>
      <trkpt lat="47.29297" lon="-2.40446">
        <ele>-15.199999809265</ele>
        <time>2019-06-16T10:09:18.000Z</time>
      </trkpt>
      <trkpt lat="47.29306" lon="-2.40419">
        <ele>-15.199999809265</ele>
        <time>2019-06-16T10:09:21.000Z</time>
      </trkpt>
      <trkpt lat="47.29309" lon="-2.404">
        <ele>-15.199999809265</ele>
        <time>2019-06-16T10:09:23.000Z</time>
      </trkpt>
      <trkpt lat="47.29301" lon="-2.40377">
        <ele>-15.199999809265</ele>
        <time>2019-06-16T10:09:26.000Z</time>
      </trkpt>
      <trkpt lat="47.29296" lon="-2.4037">
        <ele>-15.199999809265</ele>
        <time>2019-06-16T10:09:27.000Z</time>
      </trkpt>
      <trkpt lat="47.29291" lon="-2.40355">
        <ele>-15.199999809265</ele>
        <time>2019-06-16T10:09:29.000Z</time>
      </trkpt>
      <trkpt lat="47.2929" lon="-2.40347">
        <ele>-15.199999809265</ele>
        <time>2019-06-16T10:09:30.000Z</time>
      </trkpt>
      <trkpt lat="47.29299" lon="-2.40329">
        <ele>-15.199999809265</ele>
        <time>2019-06-16T10:09:33.000Z</time>
      </trkpt>
      <trkpt lat="47.29313" lon="-2.40314">
        <ele>-15.199999809265</ele>
        <time>2019-06-16T10:09:36.000Z</time>
      </trkpt>
      <trkpt lat="47.29322" lon="-2.40303">
        <ele>-15.199999809265</ele>
        <time>2019-06-16T10:09:38.000Z</time>
      </trkpt>
      <trkpt lat="47.29352" lon="-2.4027">
        <ele>-15.199999809265</ele>
        <time>2019-06-16T10:09:44.000Z</time>
      </trkpt>
      <trkpt lat="47.29368" lon="-2.40254">
        <ele>-15.199999809265</ele>
        <time>2019-06-16T10:09:47.000Z</time>
      </trkpt>
      <trkpt lat="47.29378" lon="-2.40244">
        <ele>-15.199999809265</ele>
        <time>2019-06-16T10:09:49.000Z</time>
      </trkpt>
      <trkpt lat="47.29383" lon="-2.40241">
        <ele>-15.199999809265</ele>
        <time>2019-06-16T10:09:50.000Z</time>
      </trkpt>
      <trkpt lat="47.29406" lon="-2.40228">
        <ele>-15.199999809265</ele>
        <time>2019-06-16T10:09:54.000Z</time>
      </trkpt>
      <trkpt lat="47.29429" lon="-2.40216">
        <ele>-15.199999809265</ele>
        <time>2019-06-16T10:09:58.000Z</time>
      </trkpt>
      <trkpt lat="47.29435" lon="-2.40218">
        <ele>-15.199999809265</ele>
        <time>2019-06-16T10:09:59.000Z</time>
      </trkpt>
      <trkpt lat="47.29449" lon="-2.40203">
        <ele>-15.199999809265</ele>
        <time>2019-06-16T10:10:02.000Z</time>
      </trkpt>
      <trkpt lat="47.29453" lon="-2.40177">
        <ele>-15.199999809265</ele>
        <time>2019-06-16T10:10:05.000Z</time>
      </trkpt>
      <trkpt lat="47.29456" lon="-2.40143">
        <ele>-15.199999809265</ele>
        <time>2019-06-16T10:10:09.000Z</time>
      </trkpt>
      <trkpt lat="47.29456" lon="-2.40125">
        <ele>-15.199999809265</ele>
        <time>2019-06-16T10:10:11.000Z</time>
      </trkpt>
      <trkpt lat="47.29459" lon="-2.40098">
        <ele>-15.199999809265</ele>
        <time>2019-06-16T10:10:14.000Z</time>
      </trkpt>
      <trkpt lat="47.29463" lon="-2.40071">
        <ele>-15.199999809265</ele>
        <time>2019-06-16T10:10:17.000Z</time>
      </trkpt>
      <trkpt lat="47.29463" lon="-2.40044">
        <ele>-15.199999809265</ele>
        <time>2019-06-16T10:10:20.000Z</time>
      </trkpt>
      <trkpt lat="47.29461" lon="-2.39992">
        <ele>-15.199999809265</ele>
        <time>2019-06-16T10:10:26.000Z</time>
      </trkpt>
      <trkpt lat="47.29462" lon="-2.39983">
        <ele>-15.199999809265</ele>
        <time>2019-06-16T10:10:27.000Z</time>
      </trkpt>
      <trkpt lat="47.29465" lon="-2.39961">
        <ele>-15.199999809265</ele>
        <time>2019-06-16T10:10:30.000Z</time>
      </trkpt>
      <trkpt lat="47.29468" lon="-2.39953">
        <ele>-15.199999809265</ele>
        <time>2019-06-16T10:10:31.000Z</time>
      </trkpt>
      <trkpt lat="47.29481" lon="-2.39919">
        <ele>-15.199999809265</ele>
        <time>2019-06-16T10:10:36.000Z</time>
      </trkpt>
      <trkpt lat="47.29481" lon="-2.39913">
        <ele>-15.199999809265</ele>
        <time>2019-06-16T10:10:37.000Z</time>
      </trkpt>
      <trkpt lat="47.29492" lon="-2.39898">
        <ele>-15.199999809265</ele>
        <time>2019-06-16T10:10:41.000Z</time>
      </trkpt>
      <trkpt lat="47.29497" lon="-2.39893">
        <ele>-15.199999809265</ele>
        <time>2019-06-16T10:10:42.000Z</time>
      </trkpt>
      <trkpt lat="47.29502" lon="-2.39888">
        <ele>-15.199999809265</ele>
        <time>2019-06-16T10:10:43.000Z</time>
      </trkpt>
      <trkpt lat="47.2951" lon="-2.39876">
        <ele>-15.199999809265</ele>
        <time>2019-06-16T10:10:45.000Z</time>
      </trkpt>
      <trkpt lat="47.29534" lon="-2.39828">
        <ele>-15.199999809265</ele>
        <time>2019-06-16T10:10:52.000Z</time>
      </trkpt>
      <trkpt lat="47.29554" lon="-2.39785">
        <ele>-15.199999809265</ele>
        <time>2019-06-16T10:10:58.000Z</time>
      </trkpt>
      <trkpt lat="47.29556" lon="-2.39777">
        <ele>-15.199999809265</ele>
        <time>2019-06-16T10:10:59.000Z</time>
      </trkpt>
      <trkpt lat="47.29567" lon="-2.39755">
        <ele>-15.199999809265</ele>
        <time>2019-06-16T10:11:02.000Z</time>
      </trkpt>
      <trkpt lat="47.29574" lon="-2.39741">
        <ele>-15.199999809265</ele>
        <time>2019-06-16T10:11:04.000Z</time>
      </trkpt>
      <trkpt lat="47.29603" lon="-2.39687">
        <ele>-15.199999809265</ele>
        <time>2019-06-16T10:11:12.000Z</time>
      </trkpt>
      <trkpt lat="47.29623" lon="-2.39651">
        <ele>-15.199999809265</ele>
        <time>2019-06-16T10:11:18.000Z</time>
      </trkpt>
      <trkpt lat="47.29625" lon="-2.39645">
        <ele>-15.199999809265</ele>
        <time>2019-06-16T10:11:19.000Z</time>
      </trkpt>
      <trkpt lat="47.29629" lon="-2.3962">
        <ele>-15.199999809265</ele>
        <time>2019-06-16T10:11:23.000Z</time>
      </trkpt>
      <trkpt lat="47.29628" lon="-2.39604">
        <ele>-15.199999809265</ele>
        <time>2019-06-16T10:11:28.000Z</time>
      </trkpt>
      <trkpt lat="47.29628" lon="-2.39604">
        <ele>-15.199999809265</ele>
        <time>2019-06-16T10:11:29.000Z</time>
      </trkpt>
      <trkpt lat="47.29628" lon="-2.39601">
        <ele>-15.199999809265</ele>
        <time>2019-06-16T10:12:20.000Z</time>
      </trkpt>
      <trkpt lat="47.29628" lon="-2.39594">
        <ele>-15.199999809265</ele>
        <time>2019-06-16T10:12:22.000Z</time>
      </trkpt>
      <trkpt lat="47.29627" lon="-2.39578">
        <ele>-15.199999809265</ele>
        <time>2019-06-16T10:12:26.000Z</time>
      </trkpt>
      <trkpt lat="47.29619" lon="-2.39577">
        <ele>-15.199999809265</ele>
        <time>2019-06-16T10:12:30.000Z</time>
      </trkpt>
      <trkpt lat="47.29614" lon="-2.39573">
        <ele>-14.800000190735</ele>
        <time>2019-06-16T10:12:32.000Z</time>
      </trkpt>
      <trkpt lat="47.29613" lon="-2.3957">
        <ele>-14.39999961853</ele>
        <time>2019-06-16T10:12:33.000Z</time>
      </trkpt>
      <trkpt lat="47.29612" lon="-2.39569">
        <ele>-14</ele>
        <time>2019-06-16T10:12:34.000Z</time>
      </trkpt>
      <trkpt lat="47.29612" lon="-2.39569">
        <ele>-13.60000038147</ele>
        <time>2019-06-16T10:12:35.000Z</time>
      </trkpt>
      <trkpt lat="47.29613" lon="-2.39566">
        <ele>-13.199999809265</ele>
        <time>2019-06-16T10:12:36.000Z</time>
      </trkpt>
      <trkpt lat="47.29615" lon="-2.39563">
        <ele>-13.199999809265</ele>
        <time>2019-06-16T10:12:37.000Z</time>
      </trkpt>
      <trkpt lat="47.29617" lon="-2.3956">
        <ele>-13.199999809265</ele>
        <time>2019-06-16T10:12:38.000Z</time>
      </trkpt>
      <trkpt lat="47.29618" lon="-2.39556">
        <ele>-12.800000190735</ele>
        <time>2019-06-16T10:12:39.000Z</time>
      </trkpt>
      <trkpt lat="47.29618" lon="-2.39554">
        <ele>-12.199999809265</ele>
        <time>2019-06-16T10:12:40.000Z</time>
      </trkpt>
      <trkpt lat="47.29615" lon="-2.39554">
        <ele>-11.800000190735</ele>
        <time>2019-06-16T10:12:41.000Z</time>
      </trkpt>
      <trkpt lat="47.29613" lon="-2.39555">
        <ele>-11.39999961853</ele>
        <time>2019-06-16T10:12:42.000Z</time>
      </trkpt>
      <trkpt lat="47.29611" lon="-2.39556">
        <ele>-11</ele>
        <time>2019-06-16T10:12:43.000Z</time>
      </trkpt>
      <trkpt lat="47.29607" lon="-2.39555">
        <ele>-11</ele>
        <time>2019-06-16T10:12:45.000Z</time>
      </trkpt>
      <trkpt lat="47.29597" lon="-2.39552">
        <ele>-10.60000038147</ele>
        <time>2019-06-16T10:12:49.000Z</time>
      </trkpt>
      <trkpt lat="47.29594" lon="-2.39552">
        <ele>-10.199999809265</ele>
        <time>2019-06-16T10:12:50.000Z</time>
      </trkpt>
      <trkpt lat="47.29592" lon="-2.39552">
        <ele>-9.8000001907349</ele>
        <time>2019-06-16T10:12:51.000Z</time>
      </trkpt>
      <trkpt lat="47.29589" lon="-2.39551">
        <ele>-9.3999996185303</ele>
        <time>2019-06-16T10:12:52.000Z</time>
      </trkpt>
      <trkpt lat="47.29587" lon="-2.3955">
        <ele>-9</ele>
        <time>2019-06-16T10:12:53.000Z</time>
      </trkpt>
      <trkpt lat="47.29578" lon="-2.39549">
        <ele>-9</ele>
        <time>2019-06-16T10:12:56.000Z</time>
      </trkpt>
      <trkpt lat="47.29562" lon="-2.39544">
        <ele>-9</ele>
        <time>2019-06-16T10:13:01.000Z</time>
      </trkpt>
      <trkpt lat="47.29556" lon="-2.39541">
        <ele>-9</ele>
        <time>2019-06-16T10:13:06.000Z</time>
      </trkpt>
      <trkpt lat="47.29554" lon="-2.39539">
        <ele>-9</ele>
        <time>2019-06-16T10:13:07.000Z</time>
      </trkpt>
      <trkpt lat="47.29553" lon="-2.39537">
        <ele>-9.3999996185303</ele>
        <time>2019-06-16T10:13:08.000Z</time>
      </trkpt>
      <trkpt lat="47.29553" lon="-2.39533">
        <ele>-9.8000001907349</ele>
        <time>2019-06-16T10:13:09.000Z</time>
      </trkpt>
      <trkpt lat="47.29554" lon="-2.39529">
        <ele>-10.199999809265</ele>
        <time>2019-06-16T10:13:10.000Z</time>
      </trkpt>
      <trkpt lat="47.29554" lon="-2.39524">
        <ele>-10.60000038147</ele>
        <time>2019-06-16T10:13:11.000Z</time>
      </trkpt>
      <trkpt lat="47.29553" lon="-2.39519">
        <ele>-11</ele>
        <time>2019-06-16T10:13:12.000Z</time>
      </trkpt>
      <trkpt lat="47.29553" lon="-2.39512">
        <ele>-11</ele>
        <time>2019-06-16T10:13:13.000Z</time>
      </trkpt>
      <trkpt lat="47.29554" lon="-2.395">
        <ele>-11</ele>
        <time>2019-06-16T10:13:15.000Z</time>
      </trkpt>
      <trkpt lat="47.29554" lon="-2.39495">
        <ele>-11.39999961853</ele>
        <time>2019-06-16T10:13:16.000Z</time>
      </trkpt>
      <trkpt lat="47.29556" lon="-2.39489">
        <ele>-12</ele>
        <time>2019-06-16T10:13:17.000Z</time>
      </trkpt>
      <trkpt lat="47.29557" lon="-2.39485">
        <ele>-12.39999961853</ele>
        <time>2019-06-16T10:13:18.000Z</time>
      </trkpt>
      <trkpt lat="47.29555" lon="-2.39484">
        <ele>-13</ele>
        <time>2019-06-16T10:13:19.000Z</time>
      </trkpt>
      <trkpt lat="47.29551" lon="-2.39486">
        <ele>-13.39999961853</ele>
        <time>2019-06-16T10:13:20.000Z</time>
      </trkpt>
      <trkpt lat="47.29547" lon="-2.39485">
        <ele>-13.39999961853</ele>
        <time>2019-06-16T10:13:21.000Z</time>
      </trkpt>
      <trkpt lat="47.2954" lon="-2.39482">
        <ele>-13.39999961853</ele>
        <time>2019-06-16T10:13:23.000Z</time>
      </trkpt>
      <trkpt lat="47.2953" lon="-2.39475">
        <ele>-13.39999961853</ele>
        <time>2019-06-16T10:13:26.000Z</time>
      </trkpt>
      <trkpt lat="47.29508" lon="-2.39468">
        <ele>-13.39999961853</ele>
        <time>2019-06-16T10:13:32.000Z</time>
      </trkpt>
      <trkpt lat="47.29493" lon="-2.39467">
        <ele>-13.39999961853</ele>
        <time>2019-06-16T10:13:36.000Z</time>
      </trkpt>
      <trkpt lat="47.29467" lon="-2.39468">
        <ele>-13.39999961853</ele>
        <time>2019-06-16T10:13:41.000Z</time>
      </trkpt>
      <trkpt lat="47.29446" lon="-2.39467">
        <ele>-13.39999961853</ele>
        <time>2019-06-16T10:13:46.000Z</time>
      </trkpt>
      <trkpt lat="47.29437" lon="-2.39467">
        <ele>-13.39999961853</ele>
        <time>2019-06-16T10:13:48.000Z</time>
      </trkpt>
      <trkpt lat="47.29424" lon="-2.39465">
        <ele>-13.39999961853</ele>
        <time>2019-06-16T10:13:51.000Z</time>
      </trkpt>
      <trkpt lat="47.29415" lon="-2.39464">
        <ele>-13.39999961853</ele>
        <time>2019-06-16T10:13:53.000Z</time>
      </trkpt>
      <trkpt lat="47.29411" lon="-2.39464">
        <ele>-13.39999961853</ele>
        <time>2019-06-16T10:13:54.000Z</time>
      </trkpt>
      <trkpt lat="47.29387" lon="-2.39462">
        <ele>-13.39999961853</ele>
        <time>2019-06-16T10:14:00.000Z</time>
      </trkpt>
      <trkpt lat="47.29367" lon="-2.39462">
        <ele>-13</ele>
        <time>2019-06-16T10:14:05.000Z</time>
      </trkpt>
      <trkpt lat="47.29363" lon="-2.3946">
        <ele>-12.60000038147</ele>
        <time>2019-06-16T10:14:06.000Z</time>
      </trkpt>
      <trkpt lat="47.29359" lon="-2.39456">
        <ele>-12</ele>
        <time>2019-06-16T10:14:07.000Z</time>
      </trkpt>
      <trkpt lat="47.29356" lon="-2.39452">
        <ele>-11.60000038147</ele>
        <time>2019-06-16T10:14:08.000Z</time>
      </trkpt>
      <trkpt lat="47.29353" lon="-2.39447">
        <ele>-11.199999809265</ele>
        <time>2019-06-16T10:14:09.000Z</time>
      </trkpt>
      <trkpt lat="47.29349" lon="-2.39423">
        <ele>-11.199999809265</ele>
        <time>2019-06-16T10:14:13.000Z</time>
      </trkpt>
      <trkpt lat="47.29347" lon="-2.39379">
        <ele>-11.199999809265</ele>
        <time>2019-06-16T10:14:20.000Z</time>
      </trkpt>
      <trkpt lat="47.29342" lon="-2.39326">
        <ele>-11.199999809265</ele>
        <time>2019-06-16T10:14:29.000Z</time>
      </trkpt>
      <trkpt lat="47.29339" lon="-2.39323">
        <ele>-11.199999809265</ele>
        <time>2019-06-16T10:14:30.000Z</time>
      </trkpt>
      <trkpt lat="47.29337" lon="-2.39321">
        <ele>-11.60000038147</ele>
        <time>2019-06-16T10:14:31.000Z</time>
      </trkpt>
      <trkpt lat="47.29335" lon="-2.39318">
        <ele>-12</ele>
        <time>2019-06-16T10:14:32.000Z</time>
      </trkpt>
      <trkpt lat="47.29335" lon="-2.39316">
        <ele>-12.39999961853</ele>
        <time>2019-06-16T10:14:33.000Z</time>
      </trkpt>
      <trkpt lat="47.29336" lon="-2.39314">
        <ele>-12.800000190735</ele>
        <time>2019-06-16T10:14:34.000Z</time>
      </trkpt>
      <trkpt lat="47.29337" lon="-2.39313">
        <ele>-13.199999809265</ele>
        <time>2019-06-16T10:14:35.000Z</time>
      </trkpt>
      <trkpt lat="47.29339" lon="-2.39313">
        <ele>-13.199999809265</ele>
        <time>2019-06-16T10:14:36.000Z</time>
      </trkpt>
      <trkpt lat="47.29341" lon="-2.39312">
        <ele>-13.199999809265</ele>
        <time>2019-06-16T10:14:37.000Z</time>
      </trkpt>
      <trkpt lat="47.29344" lon="-2.39313">
        <ele>-13.199999809265</ele>
        <time>2019-06-16T10:14:39.000Z</time>
      </trkpt>
      <trkpt lat="47.29348" lon="-2.3932">
        <ele>-13.199999809265</ele>
        <time>2019-06-16T10:14:42.000Z</time>
      </trkpt>
      <trkpt lat="47.29349" lon="-2.39328">
        <ele>-13.199999809265</ele>
        <time>2019-06-16T10:14:45.000Z</time>
      </trkpt>
      <trkpt lat="47.29348" lon="-2.39329">
        <ele>-13.199999809265</ele>
        <time>2019-06-16T10:14:46.000Z</time>
      </trkpt>
      <trkpt lat="47.29347" lon="-2.3933">
        <ele>-13.199999809265</ele>
        <time>2019-06-16T10:14:47.000Z</time>
      </trkpt>
      <trkpt lat="47.29339" lon="-2.39322">
        <ele>-13.199999809265</ele>
        <time>2019-06-16T10:14:51.000Z</time>
      </trkpt>
      <trkpt lat="47.29342" lon="-2.39312">
        <ele>-13.199999809265</ele>
        <time>2019-06-16T10:14:54.000Z</time>
      </trkpt>
      <trkpt lat="47.29348" lon="-2.39317">
        <ele>-13.199999809265</ele>
        <time>2019-06-16T10:14:58.000Z</time>
      </trkpt>
      <trkpt lat="47.29349" lon="-2.39328">
        <ele>-13.199999809265</ele>
        <time>2019-06-16T10:15:02.000Z</time>
      </trkpt>
      <trkpt lat="47.29348" lon="-2.39332">
        <ele>-13.199999809265</ele>
        <time>2019-06-16T10:15:04.000Z</time>
      </trkpt>
      <trkpt lat="47.29346" lon="-2.39334">
        <ele>-13.199999809265</ele>
        <time>2019-06-16T10:15:06.000Z</time>
      </trkpt>
      <trkpt lat="47.29344" lon="-2.39332">
        <ele>-13.199999809265</ele>
        <time>2019-06-16T10:15:08.000Z</time>
      </trkpt>
      <trkpt lat="47.2934" lon="-2.39322">
        <ele>-13.199999809265</ele>
        <time>2019-06-16T10:15:12.000Z</time>
      </trkpt>
      <trkpt lat="47.2934" lon="-2.3932">
        <ele>-13.199999809265</ele>
        <time>2019-06-16T10:15:13.000Z</time>
      </trkpt>
      <trkpt lat="47.29341" lon="-2.39315">
        <ele>-13.199999809265</ele>
        <time>2019-06-16T10:15:15.000Z</time>
      </trkpt>
      <trkpt lat="47.29343" lon="-2.39309">
        <ele>-13.199999809265</ele>
        <time>2019-06-16T10:15:18.000Z</time>
      </trkpt>
      <trkpt lat="47.29348" lon="-2.39308">
        <ele>-13.199999809265</ele>
        <time>2019-06-16T10:15:23.000Z</time>
      </trkpt>
      <trkpt lat="47.29349" lon="-2.39313">
        <ele>-13.199999809265</ele>
        <time>2019-06-16T10:15:25.000Z</time>
      </trkpt>
      <trkpt lat="47.29348" lon="-2.3932">
        <ele>-13.199999809265</ele>
        <time>2019-06-16T10:15:27.000Z</time>
      </trkpt>
      <trkpt lat="47.29336" lon="-2.39323">
        <ele>-13.199999809265</ele>
        <time>2019-06-16T10:15:31.000Z</time>
      </trkpt>
      <trkpt lat="47.29326" lon="-2.39318">
        <ele>-13.199999809265</ele>
        <time>2019-06-16T10:15:33.000Z</time>
      </trkpt>
      <trkpt lat="47.29315" lon="-2.39311">
        <ele>-13.199999809265</ele>
        <time>2019-06-16T10:15:35.000Z</time>
      </trkpt>
      <trkpt lat="47.29276" lon="-2.39292">
        <ele>-13.199999809265</ele>
        <time>2019-06-16T10:15:42.000Z</time>
      </trkpt>
      <trkpt lat="47.29258" lon="-2.39293">
        <ele>-13.199999809265</ele>
        <time>2019-06-16T10:15:45.000Z</time>
      </trkpt>
      <trkpt lat="47.29246" lon="-2.39299">
        <ele>-13.199999809265</ele>
        <time>2019-06-16T10:15:47.000Z</time>
      </trkpt>
      <trkpt lat="47.29206" lon="-2.3932">
        <ele>-13.199999809265</ele>
        <time>2019-06-16T10:15:54.000Z</time>
      </trkpt>
      <trkpt lat="47.2916" lon="-2.39336">
        <ele>-13.199999809265</ele>
        <time>2019-06-16T10:16:02.000Z</time>
      </trkpt>
      <trkpt lat="47.29155" lon="-2.39339">
        <ele>-13.199999809265</ele>
        <time>2019-06-16T10:16:03.000Z</time>
      </trkpt>
      <trkpt lat="47.29143" lon="-2.39353">
        <ele>-13.199999809265</ele>
        <time>2019-06-16T10:16:06.000Z</time>
      </trkpt>
      <trkpt lat="47.2914" lon="-2.39359">
        <ele>-13.199999809265</ele>
        <time>2019-06-16T10:16:07.000Z</time>
      </trkpt>
      <trkpt lat="47.29127" lon="-2.39367">
        <ele>-13.199999809265</ele>
        <time>2019-06-16T10:16:10.000Z</time>
      </trkpt>
      <trkpt lat="47.29123" lon="-2.39368">
        <ele>-13.199999809265</ele>
        <time>2019-06-16T10:16:11.000Z</time>
      </trkpt>
      <trkpt lat="47.29114" lon="-2.39371">
        <ele>-13.199999809265</ele>
        <time>2019-06-16T10:16:13.000Z</time>
      </trkpt>
      <trkpt lat="47.29099" lon="-2.3938">
        <ele>-13.199999809265</ele>
        <time>2019-06-16T10:16:17.000Z</time>
      </trkpt>
      <trkpt lat="47.29094" lon="-2.39379">
        <ele>-12.800000190735</ele>
        <time>2019-06-16T10:16:18.000Z</time>
      </trkpt>
      <trkpt lat="47.2909" lon="-2.39377">
        <ele>-12.39999961853</ele>
        <time>2019-06-16T10:16:19.000Z</time>
      </trkpt>
      <trkpt lat="47.29085" lon="-2.39373">
        <ele>-12</ele>
        <time>2019-06-16T10:16:20.000Z</time>
      </trkpt>
      <trkpt lat="47.29081" lon="-2.39368">
        <ele>-11.60000038147</ele>
        <time>2019-06-16T10:16:21.000Z</time>
      </trkpt>
      <trkpt lat="47.29076" lon="-2.39362">
        <ele>-11</ele>
        <time>2019-06-16T10:16:22.000Z</time>
      </trkpt>
      <trkpt lat="47.29059" lon="-2.39352">
        <ele>-11</ele>
        <time>2019-06-16T10:16:25.000Z</time>
      </trkpt>
      <trkpt lat="47.29033" lon="-2.39339">
        <ele>-11.60000038147</ele>
        <time>2019-06-16T10:16:29.000Z</time>
      </trkpt>
      <trkpt lat="47.29026" lon="-2.39336">
        <ele>-12</ele>
        <time>2019-06-16T10:16:30.000Z</time>
      </trkpt>
      <trkpt lat="47.2902" lon="-2.39333">
        <ele>-12.39999961853</ele>
        <time>2019-06-16T10:16:31.000Z</time>
      </trkpt>
      <trkpt lat="47.29013" lon="-2.3933">
        <ele>-12.800000190735</ele>
        <time>2019-06-16T10:16:32.000Z</time>
      </trkpt>
      <trkpt lat="47.29006" lon="-2.39327">
        <ele>-13.199999809265</ele>
        <time>2019-06-16T10:16:33.000Z</time>
      </trkpt>
      <trkpt lat="47.2897" lon="-2.39317">
        <ele>-13.199999809265</ele>
        <time>2019-06-16T10:16:39.000Z</time>
      </trkpt>
      <trkpt lat="47.28949" lon="-2.39317">
        <ele>-13.199999809265</ele>
        <time>2019-06-16T10:16:43.000Z</time>
      </trkpt>
      <trkpt lat="47.2894" lon="-2.393">
        <ele>-13.199999809265</ele>
        <time>2019-06-16T10:16:46.000Z</time>
      </trkpt>
      <trkpt lat="47.28933" lon="-2.39269">
        <ele>-13.199999809265</ele>
        <time>2019-06-16T10:16:50.000Z</time>
      </trkpt>
      <trkpt lat="47.28931" lon="-2.39251">
        <ele>-13.199999809265</ele>
        <time>2019-06-16T10:16:52.000Z</time>
      </trkpt>
      <trkpt lat="47.28929" lon="-2.3919">
        <ele>-13.199999809265</ele>
        <time>2019-06-16T10:16:59.000Z</time>
      </trkpt>
      <trkpt lat="47.28933" lon="-2.39127">
        <ele>-13.199999809265</ele>
        <time>2019-06-16T10:17:06.000Z</time>
      </trkpt>
      <trkpt lat="47.28943" lon="-2.39054">
        <ele>-13.199999809265</ele>
        <time>2019-06-16T10:17:14.000Z</time>
      </trkpt>
      <trkpt lat="47.28946" lon="-2.39025">
        <ele>-13.199999809265</ele>
        <time>2019-06-16T10:17:17.000Z</time>
      </trkpt>
      <trkpt lat="47.28947" lon="-2.38995">
        <ele>-13.199999809265</ele>
        <time>2019-06-16T10:17:20.000Z</time>
      </trkpt>
      <trkpt lat="47.28953" lon="-2.38927">
        <ele>-13.199999809265</ele>
        <time>2019-06-16T10:17:27.000Z</time>
      </trkpt>
      <trkpt lat="47.28958" lon="-2.3885">
        <ele>-13.199999809265</ele>
        <time>2019-06-16T10:17:35.000Z</time>
      </trkpt>
      <trkpt lat="47.28959" lon="-2.38779">
        <ele>-13.199999809265</ele>
        <time>2019-06-16T10:17:42.000Z</time>
      </trkpt>
      <trkpt lat="47.28957" lon="-2.38701">
        <ele>-13.199999809265</ele>
        <time>2019-06-16T10:17:50.000Z</time>
      </trkpt>
      <trkpt lat="47.28957" lon="-2.38681">
        <ele>-13.199999809265</ele>
        <time>2019-06-16T10:17:52.000Z</time>
      </trkpt>
      <trkpt lat="47.28956" lon="-2.38641">
        <ele>-13.199999809265</ele>
        <time>2019-06-16T10:17:56.000Z</time>
      </trkpt>
      <trkpt lat="47.28952" lon="-2.3856">
        <ele>-13.199999809265</ele>
        <time>2019-06-16T10:18:04.000Z</time>
      </trkpt>
      <trkpt lat="47.28944" lon="-2.38483">
        <ele>-13.199999809265</ele>
        <time>2019-06-16T10:18:12.000Z</time>
      </trkpt>
      <trkpt lat="47.2894" lon="-2.38427">
        <ele>-13.199999809265</ele>
        <time>2019-06-16T10:18:18.000Z</time>
      </trkpt>
      <trkpt lat="47.28934" lon="-2.3835">
        <ele>-13.199999809265</ele>
        <time>2019-06-16T10:18:26.000Z</time>
      </trkpt>
      <trkpt lat="47.28934" lon="-2.38279">
        <ele>-13.199999809265</ele>
        <time>2019-06-16T10:18:33.000Z</time>
      </trkpt>
      <trkpt lat="47.28936" lon="-2.3824">
        <ele>-13.199999809265</ele>
        <time>2019-06-16T10:18:37.000Z</time>
      </trkpt>
      <trkpt lat="47.28932" lon="-2.38226">
        <ele>-13.199999809265</ele>
        <time>2019-06-16T10:18:39.000Z</time>
      </trkpt>
      <trkpt lat="47.28918" lon="-2.38214">
        <ele>-13.199999809265</ele>
        <time>2019-06-16T10:18:42.000Z</time>
      </trkpt>
      <trkpt lat="47.28908" lon="-2.38206">
        <ele>-13.199999809265</ele>
        <time>2019-06-16T10:18:44.000Z</time>
      </trkpt>
      <trkpt lat="47.28901" lon="-2.38185">
        <ele>-13.199999809265</ele>
        <time>2019-06-16T10:18:47.000Z</time>
      </trkpt>
      <trkpt lat="47.28901" lon="-2.38167">
        <ele>-13.199999809265</ele>
        <time>2019-06-16T10:18:49.000Z</time>
      </trkpt>
      <trkpt lat="47.28904" lon="-2.38132">
        <ele>-13.199999809265</ele>
        <time>2019-06-16T10:18:53.000Z</time>
      </trkpt>
      <trkpt lat="47.28907" lon="-2.38072">
        <ele>-13.199999809265</ele>
        <time>2019-06-16T10:19:00.000Z</time>
      </trkpt>
      <trkpt lat="47.28909" lon="-2.38035">
        <ele>-13.199999809265</ele>
        <time>2019-06-16T10:19:05.000Z</time>
      </trkpt>
      <trkpt lat="47.28914" lon="-2.3798">
        <ele>-13.199999809265</ele>
        <time>2019-06-16T10:19:11.000Z</time>
      </trkpt>
      <trkpt lat="47.28917" lon="-2.37912">
        <ele>-13.199999809265</ele>
        <time>2019-06-16T10:19:18.000Z</time>
      </trkpt>
      <trkpt lat="47.28923" lon="-2.37838">
        <ele>-13.199999809265</ele>
        <time>2019-06-16T10:19:26.000Z</time>
      </trkpt>
      <trkpt lat="47.28927" lon="-2.3779">
        <ele>-13.199999809265</ele>
        <time>2019-06-16T10:19:32.000Z</time>
      </trkpt>
      <trkpt lat="47.28931" lon="-2.37734">
        <ele>-13.199999809265</ele>
        <time>2019-06-16T10:19:39.000Z</time>
      </trkpt>
      <trkpt lat="47.28934" lon="-2.37706">
        <ele>-13.199999809265</ele>
        <time>2019-06-16T10:19:43.000Z</time>
      </trkpt>
      <trkpt lat="47.28935" lon="-2.377">
        <ele>-13.199999809265</ele>
        <time>2019-06-16T10:19:44.000Z</time>
      </trkpt>
      <trkpt lat="47.28938" lon="-2.37667">
        <ele>-13.199999809265</ele>
        <time>2019-06-16T10:19:49.000Z</time>
      </trkpt>
      <trkpt lat="47.28938" lon="-2.37661">
        <ele>-13.199999809265</ele>
        <time>2019-06-16T10:19:50.000Z</time>
      </trkpt>
      <trkpt lat="47.28929" lon="-2.37648">
        <ele>-13.199999809265</ele>
        <time>2019-06-16T10:19:53.000Z</time>
      </trkpt>
      <trkpt lat="47.28918" lon="-2.37647">
        <ele>-13.199999809265</ele>
        <time>2019-06-16T10:19:56.000Z</time>
      </trkpt>
      <trkpt lat="47.28913" lon="-2.37648">
        <ele>-13.199999809265</ele>
        <time>2019-06-16T10:19:57.000Z</time>
      </trkpt>
      <trkpt lat="47.28886" lon="-2.37654">
        <ele>-13.199999809265</ele>
        <time>2019-06-16T10:20:03.000Z</time>
      </trkpt>
      <trkpt lat="47.28882" lon="-2.37655">
        <ele>-13.199999809265</ele>
        <time>2019-06-16T10:20:04.000Z</time>
      </trkpt>
      <trkpt lat="47.28877" lon="-2.37656">
        <ele>-12.800000190735</ele>
        <time>2019-06-16T10:20:05.000Z</time>
      </trkpt>
      <trkpt lat="47.28873" lon="-2.37657">
        <ele>-12.39999961853</ele>
        <time>2019-06-16T10:20:06.000Z</time>
      </trkpt>
      <trkpt lat="47.28868" lon="-2.37656">
        <ele>-11.800000190735</ele>
        <time>2019-06-16T10:20:07.000Z</time>
      </trkpt>
      <trkpt lat="47.28864" lon="-2.37653">
        <ele>-11.39999961853</ele>
        <time>2019-06-16T10:20:08.000Z</time>
      </trkpt>
      <trkpt lat="47.2886" lon="-2.37649">
        <ele>-11</ele>
        <time>2019-06-16T10:20:09.000Z</time>
      </trkpt>
      <trkpt lat="47.28858" lon="-2.37644">
        <ele>-11</ele>
        <time>2019-06-16T10:20:10.000Z</time>
      </trkpt>
      <trkpt lat="47.28857" lon="-2.37642">
        <ele>-11</ele>
        <time>2019-06-16T10:20:11.000Z</time>
      </trkpt>
      <trkpt lat="47.28857" lon="-2.37641">
        <ele>-11</ele>
        <time>2019-06-16T10:20:12.000Z</time>
      </trkpt>
      <trkpt lat="47.28855" lon="-2.37634">
        <ele>-11</ele>
        <time>2019-06-16T10:20:39.000Z</time>
      </trkpt>
      <trkpt lat="47.28854" lon="-2.37632">
        <ele>-11</ele>
        <time>2019-06-16T10:20:40.000Z</time>
      </trkpt>
      <trkpt lat="47.28853" lon="-2.37613">
        <ele>-11.39999961853</ele>
        <time>2019-06-16T10:20:44.000Z</time>
      </trkpt>
      <trkpt lat="47.28853" lon="-2.37607">
        <ele>-11.800000190735</ele>
        <time>2019-06-16T10:20:45.000Z</time>
      </trkpt>
      <trkpt lat="47.28855" lon="-2.37601">
        <ele>-12.199999809265</ele>
        <time>2019-06-16T10:20:46.000Z</time>
      </trkpt>
      <trkpt lat="47.28857" lon="-2.37595">
        <ele>-12.60000038147</ele>
        <time>2019-06-16T10:20:47.000Z</time>
      </trkpt>
      <trkpt lat="47.28859" lon="-2.37589">
        <ele>-13</ele>
        <time>2019-06-16T10:20:48.000Z</time>
      </trkpt>
      <trkpt lat="47.28878" lon="-2.37541">
        <ele>-13</ele>
        <time>2019-06-16T10:20:56.000Z</time>
      </trkpt>
      <trkpt lat="47.28881" lon="-2.37535">
        <ele>-13</ele>
        <time>2019-06-16T10:20:57.000Z</time>
      </trkpt>
      <trkpt lat="47.28882" lon="-2.37522">
        <ele>-13</ele>
        <time>2019-06-16T10:20:59.000Z</time>
      </trkpt>
      <trkpt lat="47.28882" lon="-2.37516">
        <ele>-12.60000038147</ele>
        <time>2019-06-16T10:21:00.000Z</time>
      </trkpt>
      <trkpt lat="47.28882" lon="-2.37509">
        <ele>-12.199999809265</ele>
        <time>2019-06-16T10:21:01.000Z</time>
      </trkpt>
      <trkpt lat="47.2888" lon="-2.37502">
        <ele>-11.800000190735</ele>
        <time>2019-06-16T10:21:02.000Z</time>
      </trkpt>
      <trkpt lat="47.28879" lon="-2.37494">
        <ele>-11.39999961853</ele>
        <time>2019-06-16T10:21:03.000Z</time>
      </trkpt>
      <trkpt lat="47.28878" lon="-2.37486">
        <ele>-11</ele>
        <time>2019-06-16T10:21:04.000Z</time>
      </trkpt>
      <trkpt lat="47.28876" lon="-2.37463">
        <ele>-11</ele>
        <time>2019-06-16T10:21:07.000Z</time>
      </trkpt>
      <trkpt lat="47.28873" lon="-2.37448">
        <ele>-11</ele>
        <time>2019-06-16T10:21:09.000Z</time>
      </trkpt>
      <trkpt lat="47.28862" lon="-2.37386">
        <ele>-11</ele>
        <time>2019-06-16T10:21:17.000Z</time>
      </trkpt>
      <trkpt lat="47.28859" lon="-2.37348">
        <ele>-11</ele>
        <time>2019-06-16T10:21:22.000Z</time>
      </trkpt>
      <trkpt lat="47.28858" lon="-2.37341">
        <ele>-11</ele>
        <time>2019-06-16T10:21:23.000Z</time>
      </trkpt>
      <trkpt lat="47.28851" lon="-2.37285">
        <ele>-11</ele>
        <time>2019-06-16T10:21:30.000Z</time>
      </trkpt>
      <trkpt lat="47.28849" lon="-2.37259">
        <ele>-11</ele>
        <time>2019-06-16T10:21:33.000Z</time>
      </trkpt>
      <trkpt lat="47.28845" lon="-2.37245">
        <ele>-11</ele>
        <time>2019-06-16T10:21:35.000Z</time>
      </trkpt>
      <trkpt lat="47.28843" lon="-2.37238">
        <ele>-11</ele>
        <time>2019-06-16T10:21:36.000Z</time>
      </trkpt>
      <trkpt lat="47.28829" lon="-2.37196">
        <ele>-11</ele>
        <time>2019-06-16T10:21:42.000Z</time>
      </trkpt>
      <trkpt lat="47.28825" lon="-2.37159">
        <ele>-10.60000038147</ele>
        <time>2019-06-16T10:21:47.000Z</time>
      </trkpt>
      <trkpt lat="47.28824" lon="-2.37153">
        <ele>-10.199999809265</ele>
        <time>2019-06-16T10:21:48.000Z</time>
      </trkpt>
      <trkpt lat="47.28824" lon="-2.37147">
        <ele>-9.1999998092651</ele>
        <time>2019-06-16T10:21:49.000Z</time>
      </trkpt>
      <trkpt lat="47.28824" lon="-2.3714">
        <ele>-8.8000001907349</ele>
        <time>2019-06-16T10:21:50.000Z</time>
      </trkpt>
      <trkpt lat="47.28824" lon="-2.37128">
        <ele>-8.8000001907349</ele>
        <time>2019-06-16T10:21:52.000Z</time>
      </trkpt>
      <trkpt lat="47.28824" lon="-2.37115">
        <ele>-8.8000001907349</ele>
        <time>2019-06-16T10:21:56.000Z</time>
      </trkpt>
      <trkpt lat="47.28824" lon="-2.37114">
        <ele>-8.8000001907349</ele>
        <time>2019-06-16T10:21:57.000Z</time>
      </trkpt>
      <trkpt lat="47.28815" lon="-2.3712">
        <ele>-7.1999998092651</ele>
        <time>2019-06-16T10:22:12.000Z</time>
      </trkpt>
      <trkpt lat="47.28813" lon="-2.3712">
        <ele>-6.5999999046326</ele>
        <time>2019-06-16T10:22:13.000Z</time>
      </trkpt>
      <trkpt lat="47.28811" lon="-2.3712">
        <ele>-6.5999999046326</ele>
        <time>2019-06-16T10:22:14.000Z</time>
      </trkpt>
      <trkpt lat="47.28809" lon="-2.3712">
        <ele>-6.1999998092651</ele>
        <time>2019-06-16T10:22:15.000Z</time>
      </trkpt>
      <trkpt lat="47.28806" lon="-2.3712">
        <ele>-5.8000001907349</ele>
        <time>2019-06-16T10:22:16.000Z</time>
      </trkpt>
      <trkpt lat="47.28804" lon="-2.3712">
        <ele>-5.4000000953674</ele>
        <time>2019-06-16T10:22:17.000Z</time>
      </trkpt>
      <trkpt lat="47.28803" lon="-2.37119">
        <ele>-4.8000001907349</ele>
        <time>2019-06-16T10:22:18.000Z</time>
      </trkpt>
      <trkpt lat="47.28801" lon="-2.37116">
        <ele>-4.4000000953674</ele>
        <time>2019-06-16T10:22:19.000Z</time>
      </trkpt>
      <trkpt lat="47.28799" lon="-2.37113">
        <ele>-4.4000000953674</ele>
        <time>2019-06-16T10:22:20.000Z</time>
      </trkpt>
      <trkpt lat="47.28795" lon="-2.37096">
        <ele>-4.4000000953674</ele>
        <time>2019-06-16T10:22:25.000Z</time>
      </trkpt>
      <trkpt lat="47.28794" lon="-2.37092">
        <ele>-4</ele>
        <time>2019-06-16T10:22:26.000Z</time>
      </trkpt>
      <trkpt lat="47.28793" lon="-2.37089">
        <ele>-3.5999999046326</ele>
        <time>2019-06-16T10:22:27.000Z</time>
      </trkpt>
      <trkpt lat="47.28793" lon="-2.37086">
        <ele>-3</ele>
        <time>2019-06-16T10:22:28.000Z</time>
      </trkpt>
      <trkpt lat="47.28792" lon="-2.37083">
        <ele>-2.5999999046326</ele>
        <time>2019-06-16T10:22:29.000Z</time>
      </trkpt>
      <trkpt lat="47.28791" lon="-2.3708">
        <ele>-2.2000000476837</ele>
        <time>2019-06-16T10:22:30.000Z</time>
      </trkpt>
      <trkpt lat="47.28791" lon="-2.37077">
        <ele>-2.2000000476837</ele>
        <time>2019-06-16T10:22:31.000Z</time>
      </trkpt>
      <trkpt lat="47.2879" lon="-2.37075">
        <ele>-1.7999999523163</ele>
        <time>2019-06-16T10:22:32.000Z</time>
      </trkpt>
      <trkpt lat="47.28789" lon="-2.37072">
        <ele>-1.3999999761581</ele>
        <time>2019-06-16T10:22:33.000Z</time>
      </trkpt>
      <trkpt lat="47.28788" lon="-2.37069">
        <ele>-1</ele>
        <time>2019-06-16T10:22:34.000Z</time>
      </trkpt>
      <trkpt lat="47.28787" lon="-2.37066">
        <ele>-0.60000002384186</ele>
        <time>2019-06-16T10:22:35.000Z</time>
      </trkpt>
      <trkpt lat="47.28786" lon="-2.37063">
        <ele>-0.20000000298023</ele>
        <time>2019-06-16T10:22:36.000Z</time>
      </trkpt>
      <trkpt lat="47.28785" lon="-2.3706">
        <ele>-0.20000000298023</ele>
        <time>2019-06-16T10:22:37.000Z</time>
      </trkpt>
      <trkpt lat="47.28783" lon="-2.37049">
        <ele>0.20000000298023</ele>
        <time>2019-06-16T10:22:40.000Z</time>
      </trkpt>
      <trkpt lat="47.28782" lon="-2.37046">
        <ele>0.80000001192093</ele>
        <time>2019-06-16T10:22:41.000Z</time>
      </trkpt>
      <trkpt lat="47.28782" lon="-2.37043">
        <ele>1.2000000476837</ele>
        <time>2019-06-16T10:22:42.000Z</time>
      </trkpt>
      <trkpt lat="47.28781" lon="-2.37037">
        <ele>1.6000000238419</ele>
        <time>2019-06-16T10:22:43.000Z</time>
      </trkpt>
      <trkpt lat="47.2878" lon="-2.37034">
        <ele>2</ele>
        <time>2019-06-16T10:22:44.000Z</time>
      </trkpt>
      <trkpt lat="47.28778" lon="-2.37026">
        <ele>2</ele>
        <time>2019-06-16T10:22:46.000Z</time>
      </trkpt>
      <trkpt lat="47.28775" lon="-2.37018">
        <ele>2</ele>
        <time>2019-06-16T10:22:48.000Z</time>
      </trkpt>
      <trkpt lat="47.28766" lon="-2.37002">
        <ele>2</ele>
        <time>2019-06-16T10:22:51.000Z</time>
      </trkpt>
      <trkpt lat="47.28758" lon="-2.36985">
        <ele>2</ele>
        <time>2019-06-16T10:22:54.000Z</time>
      </trkpt>
      <trkpt lat="47.28757" lon="-2.36967">
        <ele>2</ele>
        <time>2019-06-16T10:22:58.000Z</time>
      </trkpt>
      <trkpt lat="47.28758" lon="-2.36962">
        <ele>2</ele>
        <time>2019-06-16T10:22:59.000Z</time>
      </trkpt>
      <trkpt lat="47.28759" lon="-2.3695">
        <ele>1.3999999761581</ele>
        <time>2019-06-16T10:23:02.000Z</time>
      </trkpt>
      <trkpt lat="47.28759" lon="-2.36947">
        <ele>1</ele>
        <time>2019-06-16T10:23:03.000Z</time>
      </trkpt>
      <trkpt lat="47.28758" lon="-2.36944">
        <ele>16</ele>
        <time>2019-06-16T10:23:04.000Z</time>
      </trkpt>
      <trkpt lat="47.28756" lon="-2.36942">
        <ele>-0.40000000596046</ele>
        <time>2019-06-16T10:23:05.000Z</time>
      </trkpt>
      <trkpt lat="47.28754" lon="-2.3694">
        <ele>-0.40000000596046</ele>
        <time>2019-06-16T10:23:06.000Z</time>
      </trkpt>
      <trkpt lat="47.2874" lon="-2.3693">
        <ele>-0.40000000596046</ele>
        <time>2019-06-16T10:23:10.000Z</time>
      </trkpt>
      <trkpt lat="47.28737" lon="-2.36927">
        <ele>-0.40000000596046</ele>
        <time>2019-06-16T10:23:11.000Z</time>
      </trkpt>
      <trkpt lat="47.28727" lon="-2.36913">
        <ele>-0.40000000596046</ele>
        <time>2019-06-16T10:23:15.000Z</time>
      </trkpt>
      <trkpt lat="47.28707" lon="-2.36877">
        <ele>-0.40000000596046</ele>
        <time>2019-06-16T10:23:20.000Z</time>
      </trkpt>
      <trkpt lat="47.2869" lon="-2.36844">
        <ele>19.9</ele>
        <time>2019-06-16T10:23:25.000Z</time>
      </trkpt>
      <trkpt lat="47.28685" lon="-2.36836">
        <ele>0.40000000596046</ele>
        <time>2019-06-16T10:23:26.000Z</time>
      </trkpt>
      <trkpt lat="47.28682" lon="-2.3683">
        <ele>0.80000001192093</ele>
        <time>2019-06-16T10:23:27.000Z</time>
      </trkpt>
      <trkpt lat="47.28679" lon="-2.36824">
        <ele>1.2000000476837</ele>
        <time>2019-06-16T10:23:28.000Z</time>
      </trkpt>
      <trkpt lat="47.28677" lon="-2.36819">
        <ele>1.6000000238419</ele>
        <time>2019-06-16T10:23:29.000Z</time>
      </trkpt>
      <trkpt lat="47.28668" lon="-2.36805">
        <ele>1.6000000238419</ele>
        <time>2019-06-16T10:23:32.000Z</time>
      </trkpt>
      <trkpt lat="47.28662" lon="-2.36801">
        <ele>1.6000000238419</ele>
        <time>2019-06-16T10:23:34.000Z</time>
      </trkpt>
      <trkpt lat="47.28656" lon="-2.36801">
        <ele>1.6000000238419</ele>
        <time>2019-06-16T10:23:36.000Z</time>
      </trkpt>
      <trkpt lat="47.28649" lon="-2.36809">
        <ele>1.6000000238419</ele>
        <time>2019-06-16T10:23:39.000Z</time>
      </trkpt>
      <trkpt lat="47.28641" lon="-2.3682">
        <ele>1.6000000238419</ele>
        <time>2019-06-16T10:23:41.000Z</time>
      </trkpt>
      <trkpt lat="47.28614" lon="-2.36842">
        <ele>1.6000000238419</ele>
        <time>2019-06-16T10:23:46.000Z</time>
      </trkpt>
      <trkpt lat="47.28596" lon="-2.36838">
        <ele>1.6000000238419</ele>
        <time>2019-06-16T10:23:49.000Z</time>
      </trkpt>
      <trkpt lat="47.28581" lon="-2.36815">
        <ele>1.6000000238419</ele>
        <time>2019-06-16T10:23:53.000Z</time>
      </trkpt>
      <trkpt lat="47.28578" lon="-2.36809">
        <ele>1.6000000238419</ele>
        <time>2019-06-16T10:23:54.000Z</time>
      </trkpt>
      <trkpt lat="47.28564" lon="-2.36788">
        <ele>1.6000000238419</ele>
        <time>2019-06-16T10:23:58.000Z</time>
      </trkpt>
      <trkpt lat="47.28561" lon="-2.36782">
        <ele>1.6000000238419</ele>
        <time>2019-06-16T10:23:59.000Z</time>
      </trkpt>
      <trkpt lat="47.28549" lon="-2.3676">
        <ele>1.6000000238419</ele>
        <time>2019-06-16T10:24:03.000Z</time>
      </trkpt>
      <trkpt lat="47.28534" lon="-2.36731">
        <ele>1.6000000238419</ele>
        <time>2019-06-16T10:24:09.000Z</time>
      </trkpt>
      <trkpt lat="47.28527" lon="-2.36717">
        <ele>2</ele>
        <time>2019-06-16T10:24:12.000Z</time>
      </trkpt>
      <trkpt lat="47.28524" lon="-2.36713">
        <ele>2.4000000953674</ele>
        <time>2019-06-16T10:24:13.000Z</time>
      </trkpt>
      <trkpt lat="47.28522" lon="-2.3671">
        <ele>3</ele>
        <time>2019-06-16T10:24:14.000Z</time>
      </trkpt>
      <trkpt lat="47.28519" lon="-2.36706">
        <ele>3.4000000953674</ele>
        <time>2019-06-16T10:24:15.000Z</time>
      </trkpt>
      <trkpt lat="47.28517" lon="-2.36703">
        <ele>3.7999999523163</ele>
        <time>2019-06-16T10:24:16.000Z</time>
      </trkpt>
      <trkpt lat="47.28507" lon="-2.36688">
        <ele>4.1999998092651</ele>
        <time>2019-06-16T10:24:20.000Z</time>
      </trkpt>
      <trkpt lat="47.28504" lon="-2.36686">
        <ele>4.5999999046326</ele>
        <time>2019-06-16T10:24:21.000Z</time>
      </trkpt>
      <trkpt lat="47.28501" lon="-2.36684">
        <ele>5.1999998092651</ele>
        <time>2019-06-16T10:24:22.000Z</time>
      </trkpt>
      <trkpt lat="47.28498" lon="-2.36681">
        <ele>5.5999999046326</ele>
        <time>2019-06-16T10:24:23.000Z</time>
      </trkpt>
      <trkpt lat="47.28495" lon="-2.36677">
        <ele>6</ele>
        <time>2019-06-16T10:24:24.000Z</time>
      </trkpt>
      <trkpt lat="47.28493" lon="-2.36672">
        <ele>6</ele>
        <time>2019-06-16T10:24:25.000Z</time>
      </trkpt>
      <trkpt lat="47.2849" lon="-2.36667">
        <ele>6</ele>
        <time>2019-06-16T10:24:26.000Z</time>
      </trkpt>
      <trkpt lat="47.28487" lon="-2.36649">
        <ele>6</ele>
        <time>2019-06-16T10:24:29.000Z</time>
      </trkpt>
      <trkpt lat="47.28485" lon="-2.36643">
        <ele>6</ele>
        <time>2019-06-16T10:24:30.000Z</time>
      </trkpt>
      <trkpt lat="47.28483" lon="-2.36631">
        <ele>6</ele>
        <time>2019-06-16T10:24:32.000Z</time>
      </trkpt>
      <trkpt lat="47.28471" lon="-2.36582">
        <ele>6</ele>
        <time>2019-06-16T10:24:40.000Z</time>
      </trkpt>
      <trkpt lat="47.28471" lon="-2.3657">
        <ele>6</ele>
        <time>2019-06-16T10:24:42.000Z</time>
      </trkpt>
      <trkpt lat="47.28475" lon="-2.36559">
        <ele>6</ele>
        <time>2019-06-16T10:24:44.000Z</time>
      </trkpt>
      <trkpt lat="47.28481" lon="-2.3655">
        <ele>6</ele>
        <time>2019-06-16T10:24:46.000Z</time>
      </trkpt>
      <trkpt lat="47.28484" lon="-2.36546">
        <ele>6</ele>
        <time>2019-06-16T10:24:47.000Z</time>
      </trkpt>
      <trkpt lat="47.2849" lon="-2.36538">
        <ele>6</ele>
        <time>2019-06-16T10:24:49.000Z</time>
      </trkpt>
      <trkpt lat="47.28506" lon="-2.36521">
        <ele>6.4000000953674</ele>
        <time>2019-06-16T10:24:54.000Z</time>
      </trkpt>
      <trkpt lat="47.28509" lon="-2.36518">
        <ele>7</ele>
        <time>2019-06-16T10:24:55.000Z</time>
      </trkpt>
      <trkpt lat="47.28512" lon="-2.36515">
        <ele>7.4000000953674</ele>
        <time>2019-06-16T10:24:56.000Z</time>
      </trkpt>
      <trkpt lat="47.28515" lon="-2.36511">
        <ele>7.8000001907349</ele>
        <time>2019-06-16T10:24:57.000Z</time>
      </trkpt>
      <trkpt lat="47.28517" lon="-2.36507">
        <ele>8.1999998092651</ele>
        <time>2019-06-16T10:24:58.000Z</time>
      </trkpt>
      <trkpt lat="47.28521" lon="-2.365">
        <ele>8.1999998092651</ele>
        <time>2019-06-16T10:25:00.000Z</time>
      </trkpt>
      <trkpt lat="47.2852" lon="-2.36493">
        <ele>8.6000003814697</ele>
        <time>2019-06-16T10:25:02.000Z</time>
      </trkpt>
      <trkpt lat="47.2852" lon="-2.36488">
        <ele>9</ele>
        <time>2019-06-16T10:25:03.000Z</time>
      </trkpt>
      <trkpt lat="47.2852" lon="-2.36484">
        <ele>9.6000003814697</ele>
        <time>2019-06-16T10:25:04.000Z</time>
      </trkpt>
      <trkpt lat="47.2852" lon="-2.3648">
        <ele>10</ele>
        <time>2019-06-16T10:25:05.000Z</time>
      </trkpt>
      <trkpt lat="47.2852" lon="-2.36475">
        <ele>10.39999961853</ele>
        <time>2019-06-16T10:25:06.000Z</time>
      </trkpt>
      <trkpt lat="47.28517" lon="-2.36466">
        <ele>10.39999961853</ele>
        <time>2019-06-16T10:25:08.000Z</time>
      </trkpt>
      <trkpt lat="47.28509" lon="-2.3645">
        <ele>10.39999961853</ele>
        <time>2019-06-16T10:25:12.000Z</time>
      </trkpt>
      <trkpt lat="47.28491" lon="-2.36436">
        <ele>10.39999961853</ele>
        <time>2019-06-16T10:25:17.000Z</time>
      </trkpt>
      <trkpt lat="47.28478" lon="-2.36423">
        <ele>10.39999961853</ele>
        <time>2019-06-16T10:25:22.000Z</time>
      </trkpt>
      <trkpt lat="47.28467" lon="-2.36412">
        <ele>10.39999961853</ele>
        <time>2019-06-16T10:25:26.000Z</time>
      </trkpt>
      <trkpt lat="47.28451" lon="-2.36393">
        <ele>10.39999961853</ele>
        <time>2019-06-16T10:25:31.000Z</time>
      </trkpt>
      <trkpt lat="47.28435" lon="-2.36375">
        <ele>10.39999961853</ele>
        <time>2019-06-16T10:25:36.000Z</time>
      </trkpt>
      <trkpt lat="47.28419" lon="-2.3636">
        <ele>10.39999961853</ele>
        <time>2019-06-16T10:25:41.000Z</time>
      </trkpt>
      <trkpt lat="47.284" lon="-2.36341">
        <ele>10.39999961853</ele>
        <time>2019-06-16T10:25:46.000Z</time>
      </trkpt>
      <trkpt lat="47.28365" lon="-2.36314">
        <ele>10</ele>
        <time>2019-06-16T10:25:53.000Z</time>
      </trkpt>
      <trkpt lat="47.28359" lon="-2.36309">
        <ele>9.6000003814697</ele>
        <time>2019-06-16T10:25:54.000Z</time>
      </trkpt>
      <trkpt lat="47.28353" lon="-2.36305">
        <ele>9.1999998092651</ele>
        <time>2019-06-16T10:25:55.000Z</time>
      </trkpt>
      <trkpt lat="47.28347" lon="-2.363">
        <ele>8.8000001907349</ele>
        <time>2019-06-16T10:25:56.000Z</time>
      </trkpt>
      <trkpt lat="47.28342" lon="-2.36296">
        <ele>8</ele>
        <time>2019-06-16T10:25:57.000Z</time>
      </trkpt>
      <trkpt lat="47.28336" lon="-2.3629">
        <ele>7.5999999046326</ele>
        <time>2019-06-16T10:25:58.000Z</time>
      </trkpt>
      <trkpt lat="47.2833" lon="-2.36284">
        <ele>7</ele>
        <time>2019-06-16T10:25:59.000Z</time>
      </trkpt>
      <trkpt lat="47.28323" lon="-2.36278">
        <ele>6.5999999046326</ele>
        <time>2019-06-16T10:26:00.000Z</time>
      </trkpt>
      <trkpt lat="47.28319" lon="-2.36272">
        <ele>6.1999998092651</ele>
        <time>2019-06-16T10:26:01.000Z</time>
      </trkpt>
      <trkpt lat="47.28313" lon="-2.36266">
        <ele>6.1999998092651</ele>
        <time>2019-06-16T10:26:02.000Z</time>
      </trkpt>
      <trkpt lat="47.28307" lon="-2.36262">
        <ele>6.1999998092651</ele>
        <time>2019-06-16T10:26:03.000Z</time>
      </trkpt>
      <trkpt lat="47.28298" lon="-2.36255">
        <ele>5.8000001907349</ele>
        <time>2019-06-16T10:26:05.000Z</time>
      </trkpt>
      <trkpt lat="47.28294" lon="-2.36253">
        <ele>5.4000000953674</ele>
        <time>2019-06-16T10:26:06.000Z</time>
      </trkpt>
      <trkpt lat="47.2829" lon="-2.36251">
        <ele>5</ele>
        <time>2019-06-16T10:26:07.000Z</time>
      </trkpt>
      <trkpt lat="47.28286" lon="-2.36248">
        <ele>4.5999999046326</ele>
        <time>2019-06-16T10:26:08.000Z</time>
      </trkpt>
      <trkpt lat="47.28281" lon="-2.36244">
        <ele>4.1999998092651</ele>
        <time>2019-06-16T10:26:09.000Z</time>
      </trkpt>
      <trkpt lat="47.2827" lon="-2.36228">
        <ele>4.1999998092651</ele>
        <time>2019-06-16T10:26:12.000Z</time>
      </trkpt>
      <trkpt lat="47.28258" lon="-2.36208">
        <ele>4.1999998092651</ele>
        <time>2019-06-16T10:26:16.000Z</time>
      </trkpt>
      <trkpt lat="47.28254" lon="-2.36197">
        <ele>4.1999998092651</ele>
        <time>2019-06-16T10:26:18.000Z</time>
      </trkpt>
      <trkpt lat="47.28243" lon="-2.36172">
        <ele>4.1999998092651</ele>
        <time>2019-06-16T10:26:23.000Z</time>
      </trkpt>
      <trkpt lat="47.28231" lon="-2.36143">
        <ele>4.1999998092651</ele>
        <time>2019-06-16T10:26:29.000Z</time>
      </trkpt>
      <trkpt lat="47.28219" lon="-2.36111">
        <ele>4.1999998092651</ele>
        <time>2019-06-16T10:26:35.000Z</time>
      </trkpt>
      <trkpt lat="47.28207" lon="-2.36078">
        <ele>4.1999998092651</ele>
        <time>2019-06-16T10:26:40.000Z</time>
      </trkpt>
      <trkpt lat="47.28204" lon="-2.36072">
        <ele>4.1999998092651</ele>
        <time>2019-06-16T10:26:41.000Z</time>
      </trkpt>
      <trkpt lat="47.28191" lon="-2.36036">
        <ele>4.1999998092651</ele>
        <time>2019-06-16T10:26:47.000Z</time>
      </trkpt>
      <trkpt lat="47.28182" lon="-2.36007">
        <ele>4.1999998092651</ele>
        <time>2019-06-16T10:26:52.000Z</time>
      </trkpt>
      <trkpt lat="47.28172" lon="-2.35975">
        <ele>4.1999998092651</ele>
        <time>2019-06-16T10:26:58.000Z</time>
      </trkpt>
      <trkpt lat="47.2816" lon="-2.35945">
        <ele>4.1999998092651</ele>
        <time>2019-06-16T10:27:05.000Z</time>
      </trkpt>
      <trkpt lat="47.28154" lon="-2.35932">
        <ele>4.5999999046326</ele>
        <time>2019-06-16T10:27:08.000Z</time>
      </trkpt>
      <trkpt lat="47.28153" lon="-2.35929">
        <ele>5</ele>
        <time>2019-06-16T10:27:09.000Z</time>
      </trkpt>
      <trkpt lat="47.2815" lon="-2.35926">
        <ele>5.4000000953674</ele>
        <time>2019-06-16T10:27:10.000Z</time>
      </trkpt>
      <trkpt lat="47.28148" lon="-2.35923">
        <ele>6.1999998092651</ele>
        <time>2019-06-16T10:27:11.000Z</time>
      </trkpt>
      <trkpt lat="47.28133" lon="-2.35905">
        <ele>6.1999998092651</ele>
        <time>2019-06-16T10:27:17.000Z</time>
      </trkpt>
      <trkpt lat="47.28119" lon="-2.35881">
        <ele>6.1999998092651</ele>
        <time>2019-06-16T10:27:23.000Z</time>
      </trkpt>
      <trkpt lat="47.28105" lon="-2.35857">
        <ele>6.1999998092651</ele>
        <time>2019-06-16T10:27:28.000Z</time>
      </trkpt>
      <trkpt lat="47.28092" lon="-2.35836">
        <ele>6.1999998092651</ele>
        <time>2019-06-16T10:27:32.000Z</time>
      </trkpt>
      <trkpt lat="47.28088" lon="-2.35825">
        <ele>6.1999998092651</ele>
        <time>2019-06-16T10:27:34.000Z</time>
      </trkpt>
      <trkpt lat="47.28087" lon="-2.3582">
        <ele>6.1999998092651</ele>
        <time>2019-06-16T10:27:35.000Z</time>
      </trkpt>
      <trkpt lat="47.28087" lon="-2.35814">
        <ele>6.1999998092651</ele>
        <time>2019-06-16T10:27:36.000Z</time>
      </trkpt>
      <trkpt lat="47.28088" lon="-2.35797">
        <ele>6.1999998092651</ele>
        <time>2019-06-16T10:27:39.000Z</time>
      </trkpt>
      <trkpt lat="47.2809" lon="-2.35781">
        <ele>6.8000001907349</ele>
        <time>2019-06-16T10:27:41.000Z</time>
      </trkpt>
      <trkpt lat="47.28089" lon="-2.35772">
        <ele>7.1999998092651</ele>
        <time>2019-06-16T10:27:42.000Z</time>
      </trkpt>
      <trkpt lat="47.28088" lon="-2.35764">
        <ele>7.5999999046326</ele>
        <time>2019-06-16T10:27:43.000Z</time>
      </trkpt>
      <trkpt lat="47.28089" lon="-2.35758">
        <ele>8</ele>
        <time>2019-06-16T10:27:44.000Z</time>
      </trkpt>
      <trkpt lat="47.2809" lon="-2.35751">
        <ele>8.3999996185303</ele>
        <time>2019-06-16T10:27:45.000Z</time>
      </trkpt>
      <trkpt lat="47.28093" lon="-2.35732">
        <ele>8.3999996185303</ele>
        <time>2019-06-16T10:27:49.000Z</time>
      </trkpt>
      <trkpt lat="47.28096" lon="-2.35721">
        <ele>8.8000001907349</ele>
        <time>2019-06-16T10:27:51.000Z</time>
      </trkpt>
      <trkpt lat="47.28097" lon="-2.35715">
        <ele>9.1999998092651</ele>
        <time>2019-06-16T10:27:52.000Z</time>
      </trkpt>
      <trkpt lat="47.28097" lon="-2.35709">
        <ele>9.6000003814697</ele>
        <time>2019-06-16T10:27:53.000Z</time>
      </trkpt>
      <trkpt lat="47.28096" lon="-2.35701">
        <ele>10</ele>
        <time>2019-06-16T10:27:54.000Z</time>
      </trkpt>
      <trkpt lat="47.28094" lon="-2.35692">
        <ele>10.39999961853</ele>
        <time>2019-06-16T10:27:55.000Z</time>
      </trkpt>
      <trkpt lat="47.28088" lon="-2.35667">
        <ele>10.39999961853</ele>
        <time>2019-06-16T10:27:58.000Z</time>
      </trkpt>
      <trkpt lat="47.28085" lon="-2.3566">
        <ele>10.39999961853</ele>
        <time>2019-06-16T10:27:59.000Z</time>
      </trkpt>
      <trkpt lat="47.28083" lon="-2.35653">
        <ele>10</ele>
        <time>2019-06-16T10:28:00.000Z</time>
      </trkpt>
      <trkpt lat="47.28081" lon="-2.35645">
        <ele>9.6000003814697</ele>
        <time>2019-06-16T10:28:01.000Z</time>
      </trkpt>
      <trkpt lat="47.28079" lon="-2.35638">
        <ele>9.1999998092651</ele>
        <time>2019-06-16T10:28:02.000Z</time>
      </trkpt>
      <trkpt lat="47.28078" lon="-2.3563">
        <ele>8.8000001907349</ele>
        <time>2019-06-16T10:28:03.000Z</time>
      </trkpt>
      <trkpt lat="47.28076" lon="-2.35622">
        <ele>8.1999998092651</ele>
        <time>2019-06-16T10:28:04.000Z</time>
      </trkpt>
      <trkpt lat="47.28073" lon="-2.35617">
        <ele>7.5999999046326</ele>
        <time>2019-06-16T10:28:05.000Z</time>
      </trkpt>
      <trkpt lat="47.2807" lon="-2.35616">
        <ele>7</ele>
        <time>2019-06-16T10:28:06.000Z</time>
      </trkpt>
      <trkpt lat="47.28068" lon="-2.35616">
        <ele>6.5999999046326</ele>
        <time>2019-06-16T10:28:07.000Z</time>
      </trkpt>
      <trkpt lat="47.28065" lon="-2.35616">
        <ele>6</ele>
        <time>2019-06-16T10:28:08.000Z</time>
      </trkpt>
      <trkpt lat="47.28054" lon="-2.3561">
        <ele>6</ele>
        <time>2019-06-16T10:28:11.000Z</time>
      </trkpt>
      <trkpt lat="47.28045" lon="-2.35608">
        <ele>6</ele>
        <time>2019-06-16T10:28:13.000Z</time>
      </trkpt>
      <trkpt lat="47.28041" lon="-2.35606">
        <ele>6</ele>
        <time>2019-06-16T10:28:14.000Z</time>
      </trkpt>
      <trkpt lat="47.28038" lon="-2.35602">
        <ele>6</ele>
        <time>2019-06-16T10:28:15.000Z</time>
      </trkpt>
      <trkpt lat="47.28034" lon="-2.35583">
        <ele>6</ele>
        <time>2019-06-16T10:28:18.000Z</time>
      </trkpt>
      <trkpt lat="47.28032" lon="-2.35576">
        <ele>5.5999999046326</ele>
        <time>2019-06-16T10:28:19.000Z</time>
      </trkpt>
      <trkpt lat="47.28028" lon="-2.3557">
        <ele>5.1999998092651</ele>
        <time>2019-06-16T10:28:20.000Z</time>
      </trkpt>
      <trkpt lat="47.28024" lon="-2.35567">
        <ele>4.5999999046326</ele>
        <time>2019-06-16T10:28:21.000Z</time>
      </trkpt>
      <trkpt lat="47.28019" lon="-2.35565">
        <ele>4.1999998092651</ele>
        <time>2019-06-16T10:28:22.000Z</time>
      </trkpt>
      <trkpt lat="47.28014" lon="-2.35565">
        <ele>3.7999999523163</ele>
        <time>2019-06-16T10:28:23.000Z</time>
      </trkpt>
      <trkpt lat="47.28004" lon="-2.35567">
        <ele>3.7999999523163</ele>
        <time>2019-06-16T10:28:25.000Z</time>
      </trkpt>
      <trkpt lat="47.27989" lon="-2.35573">
        <ele>3.7999999523163</ele>
        <time>2019-06-16T10:28:28.000Z</time>
      </trkpt>
      <trkpt lat="47.27979" lon="-2.35577">
        <ele>3.7999999523163</ele>
        <time>2019-06-16T10:28:30.000Z</time>
      </trkpt>
      <trkpt lat="47.2794" lon="-2.35592">
        <ele>3.7999999523163</ele>
        <time>2019-06-16T10:28:38.000Z</time>
      </trkpt>
      <trkpt lat="47.27896" lon="-2.356">
        <ele>3.7999999523163</ele>
        <time>2019-06-16T10:28:46.000Z</time>
      </trkpt>
      <trkpt lat="47.2789" lon="-2.35601">
        <ele>3.4000000953674</ele>
        <time>2019-06-16T10:28:47.000Z</time>
      </trkpt>
      <trkpt lat="47.27884" lon="-2.35602">
        <ele>3</ele>
        <time>2019-06-16T10:28:48.000Z</time>
      </trkpt>
      <trkpt lat="47.27877" lon="-2.35603">
        <ele>2.5999999046326</ele>
        <time>2019-06-16T10:28:49.000Z</time>
      </trkpt>
      <trkpt lat="47.2787" lon="-2.35605">
        <ele>1.6000000238419</ele>
        <time>2019-06-16T10:28:50.000Z</time>
      </trkpt>
      <trkpt lat="47.27864" lon="-2.35607">
        <ele>1.6000000238419</ele>
        <time>2019-06-16T10:28:51.000Z</time>
      </trkpt>
      <trkpt lat="47.27826" lon="-2.35619">
        <ele>1.2000000476837</ele>
        <time>2019-06-16T10:28:57.000Z</time>
      </trkpt>
      <trkpt lat="47.2782" lon="-2.3562">
        <ele>0.80000001192093</ele>
        <time>2019-06-16T10:28:58.000Z</time>
      </trkpt>
      <trkpt lat="47.27813" lon="-2.35622">
        <ele>0.40000000596046</ele>
        <time>2019-06-16T10:28:59.000Z</time>
      </trkpt>
      <trkpt lat="47.27807" lon="-2.35624">
        <ele>15</ele>
        <time>2019-06-16T10:29:00.000Z</time>
      </trkpt>
      <trkpt lat="47.27801" lon="-2.35626">
        <ele>-0.40000000596046</ele>
        <time>2019-06-16T10:29:01.000Z</time>
      </trkpt>
      <trkpt lat="47.27789" lon="-2.35632">
        <ele>-0.40000000596046</ele>
        <time>2019-06-16T10:29:03.000Z</time>
      </trkpt>
      <trkpt lat="47.27765" lon="-2.35651">
        <ele>-0.80000001192093</ele>
        <time>2019-06-16T10:29:07.000Z</time>
      </trkpt>
      <trkpt lat="47.2776" lon="-2.35657">
        <ele>-1.2000000476837</ele>
        <time>2019-06-16T10:29:08.000Z</time>
      </trkpt>
      <trkpt lat="47.27755" lon="-2.35663">
        <ele>-1.6000000238419</ele>
        <time>2019-06-16T10:29:09.000Z</time>
      </trkpt>
      <trkpt lat="47.27751" lon="-2.35669">
        <ele>-2</ele>
        <time>2019-06-16T10:29:10.000Z</time>
      </trkpt>
      <trkpt lat="47.27747" lon="-2.35676">
        <ele>-2.4000000953674</ele>
        <time>2019-06-16T10:29:11.000Z</time>
      </trkpt>
      <trkpt lat="47.27734" lon="-2.35696">
        <ele>-2.4000000953674</ele>
        <time>2019-06-16T10:29:14.000Z</time>
      </trkpt>
      <trkpt lat="47.2771" lon="-2.35725">
        <ele>-2.4000000953674</ele>
        <time>2019-06-16T10:29:19.000Z</time>
      </trkpt>
      <trkpt lat="47.27704" lon="-2.35729">
        <ele>-2.4000000953674</ele>
        <time>2019-06-16T10:29:20.000Z</time>
      </trkpt>
      <trkpt lat="47.27699" lon="-2.35732">
        <ele>-2.7999999523163</ele>
        <time>2019-06-16T10:29:21.000Z</time>
      </trkpt>
      <trkpt lat="47.27693" lon="-2.35737">
        <ele>-3.4000000953674</ele>
        <time>2019-06-16T10:29:22.000Z</time>
      </trkpt>
      <trkpt lat="47.27688" lon="-2.35742">
        <ele>-3.7999999523163</ele>
        <time>2019-06-16T10:29:23.000Z</time>
      </trkpt>
      <trkpt lat="47.27683" lon="-2.35747">
        <ele>-4.1999998092651</ele>
        <time>2019-06-16T10:29:24.000Z</time>
      </trkpt>
      <trkpt lat="47.27677" lon="-2.35749">
        <ele>-4.5999999046326</ele>
        <time>2019-06-16T10:29:25.000Z</time>
      </trkpt>
      <trkpt lat="47.27672" lon="-2.35747">
        <ele>-4.5999999046326</ele>
        <time>2019-06-16T10:29:26.000Z</time>
      </trkpt>
      <trkpt lat="47.27667" lon="-2.35741">
        <ele>-5</ele>
        <time>2019-06-16T10:29:27.000Z</time>
      </trkpt>
      <trkpt lat="47.27662" lon="-2.35734">
        <ele>-5.5999999046326</ele>
        <time>2019-06-16T10:29:28.000Z</time>
      </trkpt>
      <trkpt lat="47.27656" lon="-2.35729">
        <ele>-6</ele>
        <time>2019-06-16T10:29:29.000Z</time>
      </trkpt>
      <trkpt lat="47.2765" lon="-2.35724">
        <ele>-6.4000000953674</ele>
        <time>2019-06-16T10:29:30.000Z</time>
      </trkpt>
      <trkpt lat="47.27644" lon="-2.35721">
        <ele>-6.8000001907349</ele>
        <time>2019-06-16T10:29:31.000Z</time>
      </trkpt>
      <trkpt lat="47.27631" lon="-2.35717">
        <ele>-6.8000001907349</ele>
        <time>2019-06-16T10:29:33.000Z</time>
      </trkpt>
      <trkpt lat="47.27589" lon="-2.35706">
        <ele>-7.5999999046326</ele>
        <time>2019-06-16T10:29:39.000Z</time>
      </trkpt>
      <trkpt lat="47.27582" lon="-2.35704">
        <ele>-8</ele>
        <time>2019-06-16T10:29:40.000Z</time>
      </trkpt>
      <trkpt lat="47.27575" lon="-2.35702">
        <ele>-8.3999996185303</ele>
        <time>2019-06-16T10:29:41.000Z</time>
      </trkpt>
      <trkpt lat="47.27567" lon="-2.35701">
        <ele>-8.8000001907349</ele>
        <time>2019-06-16T10:29:42.000Z</time>
      </trkpt>
      <trkpt lat="47.27524" lon="-2.3569">
        <ele>-8.8000001907349</ele>
        <time>2019-06-16T10:29:48.000Z</time>
      </trkpt>
      <trkpt lat="47.27474" lon="-2.35679">
        <ele>-8.8000001907349</ele>
        <time>2019-06-16T10:29:55.000Z</time>
      </trkpt>
      <trkpt lat="47.27439" lon="-2.35672">
        <ele>-9.1999998092651</ele>
        <time>2019-06-16T10:30:00.000Z</time>
      </trkpt>
      <trkpt lat="47.27433" lon="-2.35671">
        <ele>-9.6000003814697</ele>
        <time>2019-06-16T10:30:01.000Z</time>
      </trkpt>
      <trkpt lat="47.27426" lon="-2.35669">
        <ele>-10</ele>
        <time>2019-06-16T10:30:02.000Z</time>
      </trkpt>
      <trkpt lat="47.2742" lon="-2.35668">
        <ele>-10.39999961853</ele>
        <time>2019-06-16T10:30:03.000Z</time>
      </trkpt>
      <trkpt lat="47.27412" lon="-2.35669">
        <ele>-10.800000190735</ele>
        <time>2019-06-16T10:30:04.000Z</time>
      </trkpt>
      <trkpt lat="47.27404" lon="-2.35672">
        <ele>-10.800000190735</ele>
        <time>2019-06-16T10:30:05.000Z</time>
      </trkpt>
      <trkpt lat="47.27391" lon="-2.35678">
        <ele>-10.800000190735</ele>
        <time>2019-06-16T10:30:07.000Z</time>
      </trkpt>
      <trkpt lat="47.27371" lon="-2.35692">
        <ele>-10.800000190735</ele>
        <time>2019-06-16T10:30:10.000Z</time>
      </trkpt>
      <trkpt lat="47.27331" lon="-2.35724">
        <ele>-10.800000190735</ele>
        <time>2019-06-16T10:30:17.000Z</time>
      </trkpt>
      <trkpt lat="47.27327" lon="-2.35729">
        <ele>-10.800000190735</ele>
        <time>2019-06-16T10:30:18.000Z</time>
      </trkpt>
      <trkpt lat="47.27317" lon="-2.35742">
        <ele>-10.800000190735</ele>
        <time>2019-06-16T10:30:21.000Z</time>
      </trkpt>
      <trkpt lat="47.27308" lon="-2.35737">
        <ele>-10.800000190735</ele>
        <time>2019-06-16T10:30:23.000Z</time>
      </trkpt>
      <trkpt lat="47.273" lon="-2.35716">
        <ele>-10.800000190735</ele>
        <time>2019-06-16T10:30:26.000Z</time>
      </trkpt>
      <trkpt lat="47.27297" lon="-2.35708">
        <ele>-10.800000190735</ele>
        <time>2019-06-16T10:30:27.000Z</time>
      </trkpt>
      <trkpt lat="47.27287" lon="-2.35688">
        <ele>-10.800000190735</ele>
        <time>2019-06-16T10:30:30.000Z</time>
      </trkpt>
      <trkpt lat="47.27265" lon="-2.35638">
        <ele>-10.800000190735</ele>
        <time>2019-06-16T10:30:37.000Z</time>
      </trkpt>
      <trkpt lat="47.27235" lon="-2.35566">
        <ele>-10.800000190735</ele>
        <time>2019-06-16T10:30:47.000Z</time>
      </trkpt>
      <trkpt lat="47.27231" lon="-2.35559">
        <ele>-10.800000190735</ele>
        <time>2019-06-16T10:30:48.000Z</time>
      </trkpt>
      <trkpt lat="47.27209" lon="-2.35507">
        <ele>-10.800000190735</ele>
        <time>2019-06-16T10:30:55.000Z</time>
      </trkpt>
      <trkpt lat="47.27184" lon="-2.35457">
        <ele>-10.800000190735</ele>
        <time>2019-06-16T10:31:02.000Z</time>
      </trkpt>
      <trkpt lat="47.27159" lon="-2.35405">
        <ele>-10.800000190735</ele>
        <time>2019-06-16T10:31:09.000Z</time>
      </trkpt>
      <trkpt lat="47.27127" lon="-2.35348">
        <ele>-10.800000190735</ele>
        <time>2019-06-16T10:31:17.000Z</time>
      </trkpt>
      <trkpt lat="47.27093" lon="-2.35294">
        <ele>-10.800000190735</ele>
        <time>2019-06-16T10:31:25.000Z</time>
      </trkpt>
      <trkpt lat="47.27059" lon="-2.35241">
        <ele>-10.800000190735</ele>
        <time>2019-06-16T10:31:33.000Z</time>
      </trkpt>
      <trkpt lat="47.27024" lon="-2.35188">
        <ele>-10.800000190735</ele>
        <time>2019-06-16T10:31:41.000Z</time>
      </trkpt>
      <trkpt lat="47.26986" lon="-2.35129">
        <ele>-10.800000190735</ele>
        <time>2019-06-16T10:31:50.000Z</time>
      </trkpt>
      <trkpt lat="47.26951" lon="-2.35077">
        <ele>-10.800000190735</ele>
        <time>2019-06-16T10:31:58.000Z</time>
      </trkpt>
      <trkpt lat="47.26926" lon="-2.35038">
        <ele>-10.800000190735</ele>
        <time>2019-06-16T10:32:04.000Z</time>
      </trkpt>
      <trkpt lat="47.269" lon="-2.34999">
        <ele>-10.800000190735</ele>
        <time>2019-06-16T10:32:10.000Z</time>
      </trkpt>
      <trkpt lat="47.26892" lon="-2.34985">
        <ele>-10.800000190735</ele>
        <time>2019-06-16T10:32:12.000Z</time>
      </trkpt>
      <trkpt lat="47.26852" lon="-2.34925">
        <ele>-10.800000190735</ele>
        <time>2019-06-16T10:32:21.000Z</time>
      </trkpt>
      <trkpt lat="47.26818" lon="-2.34875">
        <ele>-10.800000190735</ele>
        <time>2019-06-16T10:32:30.000Z</time>
      </trkpt>
      <trkpt lat="47.26788" lon="-2.3483">
        <ele>-10.800000190735</ele>
        <time>2019-06-16T10:32:37.000Z</time>
      </trkpt>
      <trkpt lat="47.26756" lon="-2.34789">
        <ele>-10.800000190735</ele>
        <time>2019-06-16T10:32:44.000Z</time>
      </trkpt>
      <trkpt lat="47.26719" lon="-2.34743">
        <ele>-10.800000190735</ele>
        <time>2019-06-16T10:32:52.000Z</time>
      </trkpt>
      <trkpt lat="47.26687" lon="-2.34705">
        <ele>-10.800000190735</ele>
        <time>2019-06-16T10:32:59.000Z</time>
      </trkpt>
      <trkpt lat="47.2665" lon="-2.34662">
        <ele>-10.800000190735</ele>
        <time>2019-06-16T10:33:07.000Z</time>
      </trkpt>
      <trkpt lat="47.26617" lon="-2.34622">
        <ele>-10.800000190735</ele>
        <time>2019-06-16T10:33:14.000Z</time>
      </trkpt>
      <trkpt lat="47.26589" lon="-2.34588">
        <ele>-10.800000190735</ele>
        <time>2019-06-16T10:33:20.000Z</time>
      </trkpt>
      <trkpt lat="47.26551" lon="-2.34547">
        <ele>-10.800000190735</ele>
        <time>2019-06-16T10:33:28.000Z</time>
      </trkpt>
      <trkpt lat="47.26516" lon="-2.34517">
        <ele>-10.800000190735</ele>
        <time>2019-06-16T10:33:35.000Z</time>
      </trkpt>
      <trkpt lat="47.26511" lon="-2.34513">
        <ele>-10.800000190735</ele>
        <time>2019-06-16T10:33:36.000Z</time>
      </trkpt>
      <trkpt lat="47.26469" lon="-2.34484">
        <ele>-10.800000190735</ele>
        <time>2019-06-16T10:33:44.000Z</time>
      </trkpt>
      <trkpt lat="47.26421" lon="-2.3445">
        <ele>-10.800000190735</ele>
        <time>2019-06-16T10:33:53.000Z</time>
      </trkpt>
      <trkpt lat="47.26385" lon="-2.34423">
        <ele>-10.800000190735</ele>
        <time>2019-06-16T10:34:00.000Z</time>
      </trkpt>
      <trkpt lat="47.26353" lon="-2.34393">
        <ele>-10.800000190735</ele>
        <time>2019-06-16T10:34:07.000Z</time>
      </trkpt>
      <trkpt lat="47.26345" lon="-2.34385">
        <ele>-10.800000190735</ele>
        <time>2019-06-16T10:34:09.000Z</time>
      </trkpt>
      <trkpt lat="47.26334" lon="-2.34381">
        <ele>-10.800000190735</ele>
        <time>2019-06-16T10:34:11.000Z</time>
      </trkpt>
      <trkpt lat="47.2632" lon="-2.34369">
        <ele>-10.800000190735</ele>
        <time>2019-06-16T10:34:14.000Z</time>
      </trkpt>
      <trkpt lat="47.26316" lon="-2.34363">
        <ele>-10.800000190735</ele>
        <time>2019-06-16T10:34:15.000Z</time>
      </trkpt>
      <trkpt lat="47.26303" lon="-2.34345">
        <ele>-10.800000190735</ele>
        <time>2019-06-16T10:34:18.000Z</time>
      </trkpt>
      <trkpt lat="47.26293" lon="-2.34335">
        <ele>-10.800000190735</ele>
        <time>2019-06-16T10:34:20.000Z</time>
      </trkpt>
      <trkpt lat="47.26254" lon="-2.34294">
        <ele>-10.800000190735</ele>
        <time>2019-06-16T10:34:28.000Z</time>
      </trkpt>
      <trkpt lat="47.26214" lon="-2.34252">
        <ele>-10.800000190735</ele>
        <time>2019-06-16T10:34:36.000Z</time>
      </trkpt>
      <trkpt lat="47.26178" lon="-2.34216">
        <ele>-10.800000190735</ele>
        <time>2019-06-16T10:34:43.000Z</time>
      </trkpt>
      <trkpt lat="47.26144" lon="-2.34184">
        <ele>-10.800000190735</ele>
        <time>2019-06-16T10:34:50.000Z</time>
      </trkpt>
      <trkpt lat="47.26128" lon="-2.34174">
        <ele>-10.800000190735</ele>
        <time>2019-06-16T10:34:53.000Z</time>
      </trkpt>
      <trkpt lat="47.26124" lon="-2.34169">
        <ele>-10.800000190735</ele>
        <time>2019-06-16T10:34:54.000Z</time>
      </trkpt>
      <trkpt lat="47.26119" lon="-2.34164">
        <ele>-10.800000190735</ele>
        <time>2019-06-16T10:34:55.000Z</time>
      </trkpt>
      <trkpt lat="47.26108" lon="-2.34159">
        <ele>-10.800000190735</ele>
        <time>2019-06-16T10:34:57.000Z</time>
      </trkpt>
      <trkpt lat="47.26091" lon="-2.3415">
        <ele>-10.800000190735</ele>
        <time>2019-06-16T10:35:00.000Z</time>
      </trkpt>
      <trkpt lat="47.2608" lon="-2.34144">
        <ele>-10.800000190735</ele>
        <time>2019-06-16T10:35:02.000Z</time>
      </trkpt>
      <trkpt lat="47.2604" lon="-2.34124">
        <ele>-11.199999809265</ele>
        <time>2019-06-16T10:35:09.000Z</time>
      </trkpt>
      <trkpt lat="47.26035" lon="-2.34121">
        <ele>-11.800000190735</ele>
        <time>2019-06-16T10:35:10.000Z</time>
      </trkpt>
      <trkpt lat="47.26029" lon="-2.34118">
        <ele>-12.199999809265</ele>
        <time>2019-06-16T10:35:11.000Z</time>
      </trkpt>
      <trkpt lat="47.26023" lon="-2.34115">
        <ele>-12.60000038147</ele>
        <time>2019-06-16T10:35:12.000Z</time>
      </trkpt>
      <trkpt lat="47.26017" lon="-2.34112">
        <ele>-13</ele>
        <time>2019-06-16T10:35:13.000Z</time>
      </trkpt>
      <trkpt lat="47.26001" lon="-2.34104">
        <ele>-13</ele>
        <time>2019-06-16T10:35:16.000Z</time>
      </trkpt>
      <trkpt lat="47.25968" lon="-2.34088">
        <ele>-13</ele>
        <time>2019-06-16T10:35:22.000Z</time>
      </trkpt>
      <trkpt lat="47.2593" lon="-2.34074">
        <ele>-13</ele>
        <time>2019-06-16T10:35:29.000Z</time>
      </trkpt>
      <trkpt lat="47.25919" lon="-2.34071">
        <ele>-13</ele>
        <time>2019-06-16T10:35:31.000Z</time>
      </trkpt>
      <trkpt lat="47.25908" lon="-2.34064">
        <ele>-13</ele>
        <time>2019-06-16T10:35:33.000Z</time>
      </trkpt>
      <trkpt lat="47.259" lon="-2.3404">
        <ele>-13</ele>
        <time>2019-06-16T10:35:36.000Z</time>
      </trkpt>
      <trkpt lat="47.25904" lon="-2.34015">
        <ele>-13</ele>
        <time>2019-06-16T10:35:39.000Z</time>
      </trkpt>
      <trkpt lat="47.25908" lon="-2.33997">
        <ele>-13</ele>
        <time>2019-06-16T10:35:41.000Z</time>
      </trkpt>
      <trkpt lat="47.25916" lon="-2.33972">
        <ele>-13</ele>
        <time>2019-06-16T10:35:44.000Z</time>
      </trkpt>
      <trkpt lat="47.25921" lon="-2.33957">
        <ele>-13</ele>
        <time>2019-06-16T10:35:46.000Z</time>
      </trkpt>
      <trkpt lat="47.25931" lon="-2.33936">
        <ele>-13</ele>
        <time>2019-06-16T10:35:49.000Z</time>
      </trkpt>
      <trkpt lat="47.25927" lon="-2.3391">
        <ele>-13</ele>
        <time>2019-06-16T10:35:52.000Z</time>
      </trkpt>
      <trkpt lat="47.25912" lon="-2.33895">
        <ele>-13</ele>
        <time>2019-06-16T10:35:55.000Z</time>
      </trkpt>
      <trkpt lat="47.25906" lon="-2.33891">
        <ele>-13</ele>
        <time>2019-06-16T10:35:56.000Z</time>
      </trkpt>
      <trkpt lat="47.25889" lon="-2.33881">
        <ele>-13</ele>
        <time>2019-06-16T10:35:59.000Z</time>
      </trkpt>
      <trkpt lat="47.25878" lon="-2.33876">
        <ele>-13</ele>
        <time>2019-06-16T10:36:01.000Z</time>
      </trkpt>
      <trkpt lat="47.25838" lon="-2.3386">
        <ele>-13</ele>
        <time>2019-06-16T10:36:08.000Z</time>
      </trkpt>
      <trkpt lat="47.25792" lon="-2.3384">
        <ele>-13</ele>
        <time>2019-06-16T10:36:16.000Z</time>
      </trkpt>
      <trkpt lat="47.25758" lon="-2.33824">
        <ele>-13</ele>
        <time>2019-06-16T10:36:22.000Z</time>
      </trkpt>
      <trkpt lat="47.25729" lon="-2.33811">
        <ele>-13</ele>
        <time>2019-06-16T10:36:27.000Z</time>
      </trkpt>
      <trkpt lat="47.25687" lon="-2.33793">
        <ele>-13</ele>
        <time>2019-06-16T10:36:34.000Z</time>
      </trkpt>
      <trkpt lat="47.25653" lon="-2.3378">
        <ele>-13</ele>
        <time>2019-06-16T10:36:40.000Z</time>
      </trkpt>
      <trkpt lat="47.25647" lon="-2.33778">
        <ele>-12.60000038147</ele>
        <time>2019-06-16T10:36:41.000Z</time>
      </trkpt>
      <trkpt lat="47.25642" lon="-2.33776">
        <ele>-12.199999809265</ele>
        <time>2019-06-16T10:36:42.000Z</time>
      </trkpt>
      <trkpt lat="47.25636" lon="-2.33774">
        <ele>-11.800000190735</ele>
        <time>2019-06-16T10:36:43.000Z</time>
      </trkpt>
      <trkpt lat="47.25631" lon="-2.33772">
        <ele>-11.39999961853</ele>
        <time>2019-06-16T10:36:44.000Z</time>
      </trkpt>
      <trkpt lat="47.25626" lon="-2.3377">
        <ele>-10.800000190735</ele>
        <time>2019-06-16T10:36:45.000Z</time>
      </trkpt>
      <trkpt lat="47.25621" lon="-2.33768">
        <ele>-10.800000190735</ele>
        <time>2019-06-16T10:36:46.000Z</time>
      </trkpt>
      <trkpt lat="47.25602" lon="-2.33759">
        <ele>-10.800000190735</ele>
        <time>2019-06-16T10:36:50.000Z</time>
      </trkpt>
      <trkpt lat="47.25566" lon="-2.33755">
        <ele>-10.800000190735</ele>
        <time>2019-06-16T10:36:56.000Z</time>
      </trkpt>
      <trkpt lat="47.25519" lon="-2.33757">
        <ele>-10.800000190735</ele>
        <time>2019-06-16T10:37:04.000Z</time>
      </trkpt>
      <trkpt lat="47.25488" lon="-2.33756">
        <ele>-10.800000190735</ele>
        <time>2019-06-16T10:37:09.000Z</time>
      </trkpt>
      <trkpt lat="47.25476" lon="-2.33754">
        <ele>-10.800000190735</ele>
        <time>2019-06-16T10:37:11.000Z</time>
      </trkpt>
      <trkpt lat="47.25464" lon="-2.33747">
        <ele>-10.800000190735</ele>
        <time>2019-06-16T10:37:13.000Z</time>
      </trkpt>
      <trkpt lat="47.25453" lon="-2.33727">
        <ele>-10.800000190735</ele>
        <time>2019-06-16T10:37:16.000Z</time>
      </trkpt>
      <trkpt lat="47.25451" lon="-2.3371">
        <ele>-10.800000190735</ele>
        <time>2019-06-16T10:37:18.000Z</time>
      </trkpt>
      <trkpt lat="47.25447" lon="-2.33685">
        <ele>-10.800000190735</ele>
        <time>2019-06-16T10:37:21.000Z</time>
      </trkpt>
      <trkpt lat="47.25445" lon="-2.33662">
        <ele>-10.800000190735</ele>
        <time>2019-06-16T10:37:24.000Z</time>
      </trkpt>
      <trkpt lat="47.25441" lon="-2.33647">
        <ele>-10.800000190735</ele>
        <time>2019-06-16T10:37:26.000Z</time>
      </trkpt>
      <trkpt lat="47.25438" lon="-2.33626">
        <ele>-10.800000190735</ele>
        <time>2019-06-16T10:37:29.000Z</time>
      </trkpt>
      <trkpt lat="47.25438" lon="-2.33618">
        <ele>-10.800000190735</ele>
        <time>2019-06-16T10:37:30.000Z</time>
      </trkpt>
      <trkpt lat="47.25437" lon="-2.3361">
        <ele>-10.800000190735</ele>
        <time>2019-06-16T10:37:31.000Z</time>
      </trkpt>
      <trkpt lat="47.25439" lon="-2.33589">
        <ele>-10.800000190735</ele>
        <time>2019-06-16T10:37:35.000Z</time>
      </trkpt>
      <trkpt lat="47.25449" lon="-2.33582">
        <ele>-10.800000190735</ele>
        <time>2019-06-16T10:37:38.000Z</time>
      </trkpt>
      <trkpt lat="47.25452" lon="-2.33581">
        <ele>-10.800000190735</ele>
        <time>2019-06-16T10:37:39.000Z</time>
      </trkpt>
      <trkpt lat="47.25455" lon="-2.33578">
        <ele>-10.800000190735</ele>
        <time>2019-06-16T10:37:40.000Z</time>
      </trkpt>
      <trkpt lat="47.25454" lon="-2.33569">
        <ele>-10.800000190735</ele>
        <time>2019-06-16T10:37:42.000Z</time>
      </trkpt>
      <trkpt lat="47.25451" lon="-2.3355">
        <ele>-10.800000190735</ele>
        <time>2019-06-16T10:37:45.000Z</time>
      </trkpt>
      <trkpt lat="47.25451" lon="-2.33543">
        <ele>-10.800000190735</ele>
        <time>2019-06-16T10:37:46.000Z</time>
      </trkpt>
      <trkpt lat="47.25448" lon="-2.3352">
        <ele>-10.800000190735</ele>
        <time>2019-06-16T10:37:50.000Z</time>
      </trkpt>
      <trkpt lat="47.25441" lon="-2.33488">
        <ele>-10.800000190735</ele>
        <time>2019-06-16T10:37:55.000Z</time>
      </trkpt>
      <trkpt lat="47.25436" lon="-2.33477">
        <ele>-10.800000190735</ele>
        <time>2019-06-16T10:37:57.000Z</time>
      </trkpt>
      <trkpt lat="47.25432" lon="-2.33464">
        <ele>-10.800000190735</ele>
        <time>2019-06-16T10:37:59.000Z</time>
      </trkpt>
      <trkpt lat="47.25431" lon="-2.33449">
        <ele>-10.800000190735</ele>
        <time>2019-06-16T10:38:01.000Z</time>
      </trkpt>
      <trkpt lat="47.25429" lon="-2.33433">
        <ele>-10.800000190735</ele>
        <time>2019-06-16T10:38:03.000Z</time>
      </trkpt>
      <trkpt lat="47.25429" lon="-2.33408">
        <ele>-10.800000190735</ele>
        <time>2019-06-16T10:38:06.000Z</time>
      </trkpt>
      <trkpt lat="47.2543" lon="-2.33348">
        <ele>-10.800000190735</ele>
        <time>2019-06-16T10:38:13.000Z</time>
      </trkpt>
      <trkpt lat="47.25437" lon="-2.33325">
        <ele>-10.800000190735</ele>
        <time>2019-06-16T10:38:16.000Z</time>
      </trkpt>
      <trkpt lat="47.25446" lon="-2.33301">
        <ele>-10.800000190735</ele>
        <time>2019-06-16T10:38:19.000Z</time>
      </trkpt>
      <trkpt lat="47.25445" lon="-2.33283">
        <ele>-10.800000190735</ele>
        <time>2019-06-16T10:38:21.000Z</time>
      </trkpt>
      <trkpt lat="47.25437" lon="-2.3326">
        <ele>-10.800000190735</ele>
        <time>2019-06-16T10:38:24.000Z</time>
      </trkpt>
      <trkpt lat="47.25434" lon="-2.33252">
        <ele>-10.800000190735</ele>
        <time>2019-06-16T10:38:25.000Z</time>
      </trkpt>
      <trkpt lat="47.25425" lon="-2.3323">
        <ele>-10.800000190735</ele>
        <time>2019-06-16T10:38:28.000Z</time>
      </trkpt>
      <trkpt lat="47.25415" lon="-2.33208">
        <ele>-10.800000190735</ele>
        <time>2019-06-16T10:38:31.000Z</time>
      </trkpt>
      <trkpt lat="47.25412" lon="-2.33201">
        <ele>-10.39999961853</ele>
        <time>2019-06-16T10:38:32.000Z</time>
      </trkpt>
      <trkpt lat="47.25408" lon="-2.33193">
        <ele>-10</ele>
        <time>2019-06-16T10:38:33.000Z</time>
      </trkpt>
      <trkpt lat="47.25405" lon="-2.33185">
        <ele>-9.6000003814697</ele>
        <time>2019-06-16T10:38:34.000Z</time>
      </trkpt>
      <trkpt lat="47.25402" lon="-2.33178">
        <ele>-9.1999998092651</ele>
        <time>2019-06-16T10:38:35.000Z</time>
      </trkpt>
      <trkpt lat="47.25399" lon="-2.33171">
        <ele>-8.8000001907349</ele>
        <time>2019-06-16T10:38:36.000Z</time>
      </trkpt>
      <trkpt lat="47.25394" lon="-2.33158">
        <ele>-8.8000001907349</ele>
        <time>2019-06-16T10:38:38.000Z</time>
      </trkpt>
      <trkpt lat="47.25384" lon="-2.33137">
        <ele>-8.8000001907349</ele>
        <time>2019-06-16T10:38:42.000Z</time>
      </trkpt>
      <trkpt lat="47.25373" lon="-2.33113">
        <ele>-8.8000001907349</ele>
        <time>2019-06-16T10:38:48.000Z</time>
      </trkpt>
      <trkpt lat="47.25373" lon="-2.33112">
        <ele>-8.8000001907349</ele>
        <time>2019-06-16T10:38:50.000Z</time>
      </trkpt>
      <trkpt lat="47.25367" lon="-2.331">
        <ele>-8.8000001907349</ele>
        <time>2019-06-16T10:45:36.000Z</time>
      </trkpt>
      <trkpt lat="47.25363" lon="-2.33088">
        <ele>-8.8000001907349</ele>
        <time>2019-06-16T10:45:41.000Z</time>
      </trkpt>
      <trkpt lat="47.25361" lon="-2.33083">
        <ele>-8.8000001907349</ele>
        <time>2019-06-16T10:45:42.000Z</time>
      </trkpt>
      <trkpt lat="47.25354" lon="-2.33071">
        <ele>-8.8000001907349</ele>
        <time>2019-06-16T10:45:45.000Z</time>
      </trkpt>
      <trkpt lat="47.25349" lon="-2.33058">
        <ele>-8.8000001907349</ele>
        <time>2019-06-16T10:45:47.000Z</time>
      </trkpt>
      <trkpt lat="47.25332" lon="-2.33011">
        <ele>-8.8000001907349</ele>
        <time>2019-06-16T10:45:55.000Z</time>
      </trkpt>
      <trkpt lat="47.25313" lon="-2.32957">
        <ele>-8.8000001907349</ele>
        <time>2019-06-16T10:46:04.000Z</time>
      </trkpt>
      <trkpt lat="47.25305" lon="-2.32933">
        <ele>-8.8000001907349</ele>
        <time>2019-06-16T10:46:08.000Z</time>
      </trkpt>
      <trkpt lat="47.25307" lon="-2.3292">
        <ele>-8.8000001907349</ele>
        <time>2019-06-16T10:46:10.000Z</time>
      </trkpt>
      <trkpt lat="47.25315" lon="-2.32909">
        <ele>-8.8000001907349</ele>
        <time>2019-06-16T10:46:12.000Z</time>
      </trkpt>
      <trkpt lat="47.25319" lon="-2.32905">
        <ele>-8.8000001907349</ele>
        <time>2019-06-16T10:46:13.000Z</time>
      </trkpt>
      <trkpt lat="47.25323" lon="-2.32901">
        <ele>-8.8000001907349</ele>
        <time>2019-06-16T10:46:14.000Z</time>
      </trkpt>
      <trkpt lat="47.25344" lon="-2.32881">
        <ele>-8.8000001907349</ele>
        <time>2019-06-16T10:46:19.000Z</time>
      </trkpt>
      <trkpt lat="47.25379" lon="-2.32846">
        <ele>-8.8000001907349</ele>
        <time>2019-06-16T10:46:27.000Z</time>
      </trkpt>
      <trkpt lat="47.25404" lon="-2.32816">
        <ele>-8.8000001907349</ele>
        <time>2019-06-16T10:46:33.000Z</time>
      </trkpt>
      <trkpt lat="47.25424" lon="-2.32784">
        <ele>-8.8000001907349</ele>
        <time>2019-06-16T10:46:39.000Z</time>
      </trkpt>
      <trkpt lat="47.25433" lon="-2.32764">
        <ele>-8.8000001907349</ele>
        <time>2019-06-16T10:46:43.000Z</time>
      </trkpt>
      <trkpt lat="47.25437" lon="-2.3276">
        <ele>-8.8000001907349</ele>
        <time>2019-06-16T10:46:44.000Z</time>
      </trkpt>
      <trkpt lat="47.25447" lon="-2.32746">
        <ele>-8.8000001907349</ele>
        <time>2019-06-16T10:46:47.000Z</time>
      </trkpt>
      <trkpt lat="47.25454" lon="-2.32737">
        <ele>-8.3999996185303</ele>
        <time>2019-06-16T10:46:49.000Z</time>
      </trkpt>
      <trkpt lat="47.25458" lon="-2.32733">
        <ele>-8</ele>
        <time>2019-06-16T10:46:50.000Z</time>
      </trkpt>
      <trkpt lat="47.25462" lon="-2.32728">
        <ele>-7.5999999046326</ele>
        <time>2019-06-16T10:46:51.000Z</time>
      </trkpt>
      <trkpt lat="47.25465" lon="-2.32722">
        <ele>-7.1999998092651</ele>
        <time>2019-06-16T10:46:52.000Z</time>
      </trkpt>
      <trkpt lat="47.25468" lon="-2.32718">
        <ele>-6.5999999046326</ele>
        <time>2019-06-16T10:46:53.000Z</time>
      </trkpt>
      <trkpt lat="47.25471" lon="-2.32713">
        <ele>-6.5999999046326</ele>
        <time>2019-06-16T10:46:54.000Z</time>
      </trkpt>
      <trkpt lat="47.25484" lon="-2.32691">
        <ele>-6.5999999046326</ele>
        <time>2019-06-16T10:46:58.000Z</time>
      </trkpt>
      <trkpt lat="47.25485" lon="-2.32684">
        <ele>-6.5999999046326</ele>
        <time>2019-06-16T10:46:59.000Z</time>
      </trkpt>
      <trkpt lat="47.25485" lon="-2.32649">
        <ele>-6.5999999046326</ele>
        <time>2019-06-16T10:47:04.000Z</time>
      </trkpt>
      <trkpt lat="47.25484" lon="-2.32642">
        <ele>-6.5999999046326</ele>
        <time>2019-06-16T10:47:05.000Z</time>
      </trkpt>
      <trkpt lat="47.25478" lon="-2.32612">
        <ele>-6.5999999046326</ele>
        <time>2019-06-16T10:47:09.000Z</time>
      </trkpt>
      <trkpt lat="47.25478" lon="-2.32605">
        <ele>-6.5999999046326</ele>
        <time>2019-06-16T10:47:10.000Z</time>
      </trkpt>
      <trkpt lat="47.25476" lon="-2.32575">
        <ele>-6.5999999046326</ele>
        <time>2019-06-16T10:47:14.000Z</time>
      </trkpt>
      <trkpt lat="47.25481" lon="-2.32564">
        <ele>-6.5999999046326</ele>
        <time>2019-06-16T10:47:16.000Z</time>
      </trkpt>
      <trkpt lat="47.25499" lon="-2.32544">
        <ele>-6.5999999046326</ele>
        <time>2019-06-16T10:47:20.000Z</time>
      </trkpt>
      <trkpt lat="47.25529" lon="-2.32515">
        <ele>-6.5999999046326</ele>
        <time>2019-06-16T10:47:26.000Z</time>
      </trkpt>
      <trkpt lat="47.2557" lon="-2.32477">
        <ele>-6.5999999046326</ele>
        <time>2019-06-16T10:47:33.000Z</time>
      </trkpt>
      <trkpt lat="47.25602" lon="-2.32442">
        <ele>-7.1999998092651</ele>
        <time>2019-06-16T10:47:38.000Z</time>
      </trkpt>
      <trkpt lat="47.25609" lon="-2.32436">
        <ele>-7.5999999046326</ele>
        <time>2019-06-16T10:47:39.000Z</time>
      </trkpt>
      <trkpt lat="47.25616" lon="-2.32428">
        <ele>-8</ele>
        <time>2019-06-16T10:47:40.000Z</time>
      </trkpt>
      <trkpt lat="47.25622" lon="-2.32421">
        <ele>-8.3999996185303</ele>
        <time>2019-06-16T10:47:41.000Z</time>
      </trkpt>
      <trkpt lat="47.25629" lon="-2.32414">
        <ele>-9</ele>
        <time>2019-06-16T10:47:42.000Z</time>
      </trkpt>
      <trkpt lat="47.25643" lon="-2.32404">
        <ele>-9</ele>
        <time>2019-06-16T10:47:44.000Z</time>
      </trkpt>
      <trkpt lat="47.25649" lon="-2.32403">
        <ele>-9.3999996185303</ele>
        <time>2019-06-16T10:47:45.000Z</time>
      </trkpt>
      <trkpt lat="47.25655" lon="-2.32401">
        <ele>-9.8000001907349</ele>
        <time>2019-06-16T10:47:46.000Z</time>
      </trkpt>
      <trkpt lat="47.25661" lon="-2.32402">
        <ele>-10.60000038147</ele>
        <time>2019-06-16T10:47:47.000Z</time>
      </trkpt>
      <trkpt lat="47.25666" lon="-2.32406">
        <ele>-11</ele>
        <time>2019-06-16T10:47:48.000Z</time>
      </trkpt>
      <trkpt lat="47.2567" lon="-2.32412">
        <ele>-11</ele>
        <time>2019-06-16T10:47:49.000Z</time>
      </trkpt>
      <trkpt lat="47.25682" lon="-2.32419">
        <ele>-11</ele>
        <time>2019-06-16T10:47:51.000Z</time>
      </trkpt>
      <trkpt lat="47.25696" lon="-2.3242">
        <ele>-11.39999961853</ele>
        <time>2019-06-16T10:47:53.000Z</time>
      </trkpt>
      <trkpt lat="47.25703" lon="-2.32421">
        <ele>-11.800000190735</ele>
        <time>2019-06-16T10:47:54.000Z</time>
      </trkpt>
      <trkpt lat="47.2571" lon="-2.32422">
        <ele>-12.39999961853</ele>
        <time>2019-06-16T10:47:55.000Z</time>
      </trkpt>
      <trkpt lat="47.25717" lon="-2.32422">
        <ele>-12.800000190735</ele>
        <time>2019-06-16T10:47:56.000Z</time>
      </trkpt>
      <trkpt lat="47.25724" lon="-2.32422">
        <ele>-13.199999809265</ele>
        <time>2019-06-16T10:47:57.000Z</time>
      </trkpt>
      <trkpt lat="47.25744" lon="-2.32422">
        <ele>-13.199999809265</ele>
        <time>2019-06-16T10:48:00.000Z</time>
      </trkpt>
      <trkpt lat="47.25761" lon="-2.3242">
        <ele>-13.199999809265</ele>
        <time>2019-06-16T10:48:04.000Z</time>
      </trkpt>
      <trkpt lat="47.25775" lon="-2.32414">
        <ele>-13.199999809265</ele>
        <time>2019-06-16T10:48:09.000Z</time>
      </trkpt>
      <trkpt lat="47.2578" lon="-2.32416">
        <ele>-13.199999809265</ele>
        <time>2019-06-16T10:48:10.000Z</time>
      </trkpt>
      <trkpt lat="47.25787" lon="-2.32424">
        <ele>-13.199999809265</ele>
        <time>2019-06-16T10:48:12.000Z</time>
      </trkpt>
      <trkpt lat="47.25797" lon="-2.32444">
        <ele>-13.199999809265</ele>
        <time>2019-06-16T10:48:15.000Z</time>
      </trkpt>
      <trkpt lat="47.25802" lon="-2.3245">
        <ele>-13.199999809265</ele>
        <time>2019-06-16T10:48:16.000Z</time>
      </trkpt>
      <trkpt lat="47.25819" lon="-2.3246">
        <ele>-13.199999809265</ele>
        <time>2019-06-16T10:48:19.000Z</time>
      </trkpt>
      <trkpt lat="47.25854" lon="-2.32473">
        <ele>-13.199999809265</ele>
        <time>2019-06-16T10:48:25.000Z</time>
      </trkpt>
      <trkpt lat="47.25865" lon="-2.32473">
        <ele>-13.199999809265</ele>
        <time>2019-06-16T10:48:27.000Z</time>
      </trkpt>
      <trkpt lat="47.25887" lon="-2.32468">
        <ele>-13.199999809265</ele>
        <time>2019-06-16T10:48:31.000Z</time>
      </trkpt>
      <trkpt lat="47.25899" lon="-2.32462">
        <ele>-13.199999809265</ele>
        <time>2019-06-16T10:48:33.000Z</time>
      </trkpt>
      <trkpt lat="47.25909" lon="-2.32452">
        <ele>-13.199999809265</ele>
        <time>2019-06-16T10:48:35.000Z</time>
      </trkpt>
      <trkpt lat="47.25918" lon="-2.3244">
        <ele>-13.199999809265</ele>
        <time>2019-06-16T10:48:37.000Z</time>
      </trkpt>
      <trkpt lat="47.25936" lon="-2.32415">
        <ele>-13.199999809265</ele>
        <time>2019-06-16T10:48:41.000Z</time>
      </trkpt>
      <trkpt lat="47.25972" lon="-2.32366">
        <ele>-13.199999809265</ele>
        <time>2019-06-16T10:48:49.000Z</time>
      </trkpt>
      <trkpt lat="47.26008" lon="-2.32319">
        <ele>-13.199999809265</ele>
        <time>2019-06-16T10:48:57.000Z</time>
      </trkpt>
      <trkpt lat="47.26042" lon="-2.3228">
        <ele>-13.199999809265</ele>
        <time>2019-06-16T10:49:04.000Z</time>
      </trkpt>
      <trkpt lat="47.2607" lon="-2.32246">
        <ele>-13.199999809265</ele>
        <time>2019-06-16T10:49:10.000Z</time>
      </trkpt>
      <trkpt lat="47.26092" lon="-2.32218">
        <ele>-13.199999809265</ele>
        <time>2019-06-16T10:49:15.000Z</time>
      </trkpt>
      <trkpt lat="47.26095" lon="-2.32212">
        <ele>-13.199999809265</ele>
        <time>2019-06-16T10:49:16.000Z</time>
      </trkpt>
      <trkpt lat="47.26106" lon="-2.3219">
        <ele>-13.199999809265</ele>
        <time>2019-06-16T10:49:21.000Z</time>
      </trkpt>
      <trkpt lat="47.2612" lon="-2.32161">
        <ele>-13.199999809265</ele>
        <time>2019-06-16T10:49:26.000Z</time>
      </trkpt>
      <trkpt lat="47.26127" lon="-2.32139">
        <ele>-13.199999809265</ele>
        <time>2019-06-16T10:49:29.000Z</time>
      </trkpt>
      <trkpt lat="47.26133" lon="-2.32116">
        <ele>-13.199999809265</ele>
        <time>2019-06-16T10:49:32.000Z</time>
      </trkpt>
      <trkpt lat="47.2615" lon="-2.32062">
        <ele>-13.199999809265</ele>
        <time>2019-06-16T10:49:39.000Z</time>
      </trkpt>
      <trkpt lat="47.26162" lon="-2.32023">
        <ele>-13.199999809265</ele>
        <time>2019-06-16T10:49:45.000Z</time>
      </trkpt>
      <trkpt lat="47.26166" lon="-2.32019">
        <ele>-13.199999809265</ele>
        <time>2019-06-16T10:49:46.000Z</time>
      </trkpt>
      <trkpt lat="47.26179" lon="-2.3202">
        <ele>-13.199999809265</ele>
        <time>2019-06-16T10:49:49.000Z</time>
      </trkpt>
      <trkpt lat="47.26186" lon="-2.32022">
        <ele>-13.199999809265</ele>
        <time>2019-06-16T10:49:51.000Z</time>
      </trkpt>
      <trkpt lat="47.26192" lon="-2.32023">
        <ele>-13.199999809265</ele>
        <time>2019-06-16T10:49:54.000Z</time>
      </trkpt>
      <trkpt lat="47.26196" lon="-2.32019">
        <ele>-13.199999809265</ele>
        <time>2019-06-16T10:49:56.000Z</time>
      </trkpt>
      <trkpt lat="47.26198" lon="-2.32009">
        <ele>-13.199999809265</ele>
        <time>2019-06-16T10:49:58.000Z</time>
      </trkpt>
      <trkpt lat="47.26204" lon="-2.32">
        <ele>-13.199999809265</ele>
        <time>2019-06-16T10:50:02.000Z</time>
      </trkpt>
      <trkpt lat="47.26209" lon="-2.31996">
        <ele>-13.199999809265</ele>
        <time>2019-06-16T10:50:04.000Z</time>
      </trkpt>
      <trkpt lat="47.26215" lon="-2.31987">
        <ele>-13.199999809265</ele>
        <time>2019-06-16T10:50:07.000Z</time>
      </trkpt>
      <trkpt lat="47.26226" lon="-2.31978">
        <ele>-13.199999809265</ele>
        <time>2019-06-16T10:50:11.000Z</time>
      </trkpt>
      <trkpt lat="47.26239" lon="-2.31966">
        <ele>-13.199999809265</ele>
        <time>2019-06-16T10:50:15.000Z</time>
      </trkpt>
      <trkpt lat="47.26243" lon="-2.31956">
        <ele>-13.199999809265</ele>
        <time>2019-06-16T10:50:17.000Z</time>
      </trkpt>
      <trkpt lat="47.26251" lon="-2.31943">
        <ele>-13.199999809265</ele>
        <time>2019-06-16T10:50:20.000Z</time>
      </trkpt>
      <trkpt lat="47.2626" lon="-2.31925">
        <ele>-13.199999809265</ele>
        <time>2019-06-16T10:50:25.000Z</time>
      </trkpt>
      <trkpt lat="47.26273" lon="-2.31906">
        <ele>-13.199999809265</ele>
        <time>2019-06-16T10:50:30.000Z</time>
      </trkpt>
      <trkpt lat="47.2629" lon="-2.31893">
        <ele>-13.199999809265</ele>
        <time>2019-06-16T10:50:36.000Z</time>
      </trkpt>
      <trkpt lat="47.26292" lon="-2.31892">
        <ele>-13.199999809265</ele>
        <time>2019-06-16T10:50:39.000Z</time>
      </trkpt>
      <trkpt lat="47.26293" lon="-2.31886">
        <ele>-13.199999809265</ele>
        <time>2019-06-16T10:50:53.000Z</time>
      </trkpt>
      <trkpt lat="47.26296" lon="-2.31863">
        <ele>-13.199999809265</ele>
        <time>2019-06-16T10:50:58.000Z</time>
      </trkpt>
      <trkpt lat="47.26299" lon="-2.31825">
        <ele>-13.199999809265</ele>
        <time>2019-06-16T10:51:04.000Z</time>
      </trkpt>
      <trkpt lat="47.26302" lon="-2.31789">
        <ele>-13.199999809265</ele>
        <time>2019-06-16T10:51:10.000Z</time>
      </trkpt>
      <trkpt lat="47.263" lon="-2.31758">
        <ele>-13.199999809265</ele>
        <time>2019-06-16T10:51:15.000Z</time>
      </trkpt>
      <trkpt lat="47.26298" lon="-2.31741">
        <ele>-13.199999809265</ele>
        <time>2019-06-16T10:51:18.000Z</time>
      </trkpt>
      <trkpt lat="47.26305" lon="-2.31721">
        <ele>-13.199999809265</ele>
        <time>2019-06-16T10:51:22.000Z</time>
      </trkpt>
      <trkpt lat="47.2633" lon="-2.31709">
        <ele>-12.800000190735</ele>
        <time>2019-06-16T10:51:28.000Z</time>
      </trkpt>
      <trkpt lat="47.2633" lon="-2.31701">
        <ele>-12.39999961853</ele>
        <time>2019-06-16T10:51:29.000Z</time>
      </trkpt>
      <trkpt lat="47.26332" lon="-2.31695">
        <ele>-12</ele>
        <time>2019-06-16T10:51:30.000Z</time>
      </trkpt>
      <trkpt lat="47.26335" lon="-2.31692">
        <ele>-11.60000038147</ele>
        <time>2019-06-16T10:51:31.000Z</time>
      </trkpt>
      <trkpt lat="47.26338" lon="-2.31691">
        <ele>-11.199999809265</ele>
        <time>2019-06-16T10:51:32.000Z</time>
      </trkpt>
      <trkpt lat="47.26342" lon="-2.31689">
        <ele>-11.199999809265</ele>
        <time>2019-06-16T10:51:33.000Z</time>
      </trkpt>
      <trkpt lat="47.26353" lon="-2.31683">
        <ele>-11.199999809265</ele>
        <time>2019-06-16T10:51:36.000Z</time>
      </trkpt>
      <trkpt lat="47.26359" lon="-2.3168">
        <ele>-10.800000190735</ele>
        <time>2019-06-16T10:51:38.000Z</time>
      </trkpt>
      <trkpt lat="47.26364" lon="-2.31677">
        <ele>-10.39999961853</ele>
        <time>2019-06-16T10:51:39.000Z</time>
      </trkpt>
      <trkpt lat="47.26366" lon="-2.31676">
        <ele>-9.8000001907349</ele>
        <time>2019-06-16T10:51:40.000Z</time>
      </trkpt>
      <trkpt lat="47.2637" lon="-2.31674">
        <ele>-9.3999996185303</ele>
        <time>2019-06-16T10:51:41.000Z</time>
      </trkpt>
      <trkpt lat="47.26374" lon="-2.31672">
        <ele>-9</ele>
        <time>2019-06-16T10:51:42.000Z</time>
      </trkpt>
      <trkpt lat="47.26391" lon="-2.31662">
        <ele>-9</ele>
        <time>2019-06-16T10:51:47.000Z</time>
      </trkpt>
      <trkpt lat="47.26407" lon="-2.31653">
        <ele>-9</ele>
        <time>2019-06-16T10:51:52.000Z</time>
      </trkpt>
      <trkpt lat="47.2641" lon="-2.31642">
        <ele>-9</ele>
        <time>2019-06-16T10:51:54.000Z</time>
      </trkpt>
      <trkpt lat="47.2641" lon="-2.31638">
        <ele>-9</ele>
        <time>2019-06-16T10:51:55.000Z</time>
      </trkpt>
      <trkpt lat="47.2641" lon="-2.31604">
        <ele>-9</ele>
        <time>2019-06-16T10:52:01.000Z</time>
      </trkpt>
      <trkpt lat="47.26409" lon="-2.31573">
        <ele>-9</ele>
        <time>2019-06-16T10:52:07.000Z</time>
      </trkpt>
      <trkpt lat="47.26409" lon="-2.31569">
        <ele>-8.6000003814697</ele>
        <time>2019-06-16T10:52:08.000Z</time>
      </trkpt>
      <trkpt lat="47.26409" lon="-2.31564">
        <ele>-8.1999998092651</ele>
        <time>2019-06-16T10:52:09.000Z</time>
      </trkpt>
      <trkpt lat="47.26409" lon="-2.31561">
        <ele>-7.8000001907349</ele>
        <time>2019-06-16T10:52:10.000Z</time>
      </trkpt>
      <trkpt lat="47.26409" lon="-2.31557">
        <ele>-7.4000000953674</ele>
        <time>2019-06-16T10:52:11.000Z</time>
      </trkpt>
      <trkpt lat="47.26411" lon="-2.31554">
        <ele>-7</ele>
        <time>2019-06-16T10:52:12.000Z</time>
      </trkpt>
      <trkpt lat="47.26417" lon="-2.31555">
        <ele>-7</ele>
        <time>2019-06-16T10:52:15.000Z</time>
      </trkpt>
      <trkpt lat="47.26417" lon="-2.31554">
        <ele>-7</ele>
        <time>2019-06-16T10:52:18.000Z</time>
      </trkpt>
    </trkseg>
  </trk>
</gpx>